<?xml version='1.0' encoding='UTF-8'?><gpx version="1.1" creator="JPX - https://github.com/jenetics/jpx" xmlns="http://www.topografix.com/GPX/1/1"><trk><trkseg><trkpt lat="43.7091881" lon="12.1848513"><ele>697.9999999999999</ele><time>2026-04-12T07:00:58.98Z</time></trkpt><trkpt lat="43.7091416" lon="12.1849243"><ele>698.0</ele><time>2026-04-12T07:01:01.98Z</time></trkpt><trkpt lat="43.7091254" lon="12.1850163"><ele>698.0</ele><time>2026-04-12T07:01:04.884Z</time></trkpt><trkpt lat="43.7090999" lon="12.185106"><ele>698.0</ele><time>2026-04-12T07:01:07.979Z</time></trkpt><trkpt lat="43.7090231" lon="12.1851192"><ele>698.0</ele><time>2026-04-12T07:01:11.957Z</time></trkpt><trkpt lat="43.708949" lon="12.1850722"><ele>697.9999999999999</ele><time>2026-04-12T07:01:14.976Z</time></trkpt><trkpt lat="43.708876" lon="12.1850326"><ele>698.0</ele><time>2026-04-12T07:01:17.933Z</time></trkpt><trkpt lat="43.7087955" lon="12.1849878"><ele>698.0</ele><time>2026-04-12T07:01:20.978Z</time></trkpt><trkpt lat="43.7087183" lon="12.184919"><ele>698.0</ele><time>2026-04-12T07:01:23.973Z</time></trkpt><trkpt lat="43.7086609" lon="12.1848748"><ele>698.0</ele><time>2026-04-12T07:01:25.986Z</time></trkpt><trkpt lat="43.7085983" lon="12.1848261"><ele>698.0</ele><time>2026-04-12T07:01:27.983Z</time></trkpt><trkpt lat="43.7085557" lon="12.184758"><ele>698.0</ele><time>2026-04-12T07:01:29.98Z</time></trkpt><trkpt lat="43.7085177" lon="12.1846567"><ele>698.0</ele><time>2026-04-12T07:01:32.978Z</time></trkpt><trkpt lat="43.7084928" lon="12.184544"><ele>697.0</ele><time>2026-04-12T07:01:35.975Z</time></trkpt><trkpt lat="43.7084717" lon="12.1844374"><ele>696.0</ele><time>2026-04-12T07:01:38.979Z</time></trkpt><trkpt lat="43.70846" lon="12.1843262"><ele>695.0</ele><time>2026-04-12T07:01:41.978Z</time></trkpt><trkpt lat="43.708445" lon="12.1842266"><ele>694.0</ele><time>2026-04-12T07:01:44.894Z</time></trkpt><trkpt lat="43.7084273" lon="12.1841161"><ele>693.0</ele><time>2026-04-12T07:01:48.983Z</time></trkpt><trkpt lat="43.708413" lon="12.1840131"><ele>692.0</ele><time>2026-04-12T07:01:51.984Z</time></trkpt><trkpt lat="43.7084142" lon="12.1838967"><ele>692.8333333333333</ele><time>2026-04-12T07:01:54.961Z</time></trkpt><trkpt lat="43.7084332" lon="12.1837736"><ele>693.6666666666666</ele><time>2026-04-12T07:01:57.991Z</time></trkpt><trkpt lat="43.7084615" lon="12.1836914"><ele>694.5</ele><time>2026-04-12T07:01:59.985Z</time></trkpt><trkpt lat="43.7085071" lon="12.1835853"><ele>695.3333333333334</ele><time>2026-04-12T07:02:02.914Z</time></trkpt><trkpt lat="43.7085568" lon="12.1834812"><ele>696.1666666666667</ele><time>2026-04-12T07:02:05.999Z</time></trkpt><trkpt lat="43.708602" lon="12.1833892"><ele>697.0</ele><time>2026-04-12T07:02:08.976Z</time></trkpt><trkpt lat="43.7086428" lon="12.1833002"><ele>697.0</ele><time>2026-04-12T07:02:11.922Z</time></trkpt><trkpt lat="43.7086828" lon="12.1831976"><ele>697.0</ele><time>2026-04-12T07:02:15.013Z</time></trkpt><trkpt lat="43.7087213" lon="12.1830954"><ele>697.0</ele><time>2026-04-12T07:02:17.98Z</time></trkpt><trkpt lat="43.7087627" lon="12.1829856"><ele>697.0</ele><time>2026-04-12T07:02:20.974Z</time></trkpt><trkpt lat="43.7088013" lon="12.1828783"><ele>697.0</ele><time>2026-04-12T07:02:23.937Z</time></trkpt><trkpt lat="43.7088269" lon="12.1827688"><ele>697.0</ele><time>2026-04-12T07:02:26.981Z</time></trkpt><trkpt lat="43.7088363" lon="12.1826564"><ele>696.3333333333334</ele><time>2026-04-12T07:02:30.018Z</time></trkpt><trkpt lat="43.7088289" lon="12.1825684"><ele>695.6666666666667</ele><time>2026-04-12T07:02:31.985Z</time></trkpt><trkpt lat="43.708813" lon="12.1824653"><ele>695.0</ele><time>2026-04-12T07:02:33.979Z</time></trkpt><trkpt lat="43.7087908" lon="12.1823724"><ele>694.3333333333334</ele><time>2026-04-12T07:02:35.979Z</time></trkpt><trkpt lat="43.7087615" lon="12.1822885"><ele>693.6666666666666</ele><time>2026-04-12T07:02:37.984Z</time></trkpt><trkpt lat="43.7087142" lon="12.1821868"><ele>693.0</ele><time>2026-04-12T07:02:40.985Z</time></trkpt><trkpt lat="43.7086628" lon="12.1820898"><ele>693.0</ele><time>2026-04-12T07:02:43.942Z</time></trkpt><trkpt lat="43.7086216" lon="12.1820191"><ele>693.0</ele><time>2026-04-12T07:02:46.015Z</time></trkpt><trkpt lat="43.7085808" lon="12.1819446"><ele>693.0</ele><time>2026-04-12T07:02:47.988Z</time></trkpt><trkpt lat="43.7085333" lon="12.1818371"><ele>693.0</ele><time>2026-04-12T07:02:50.981Z</time></trkpt><trkpt lat="43.7084823" lon="12.1817401"><ele>693.0</ele><time>2026-04-12T07:02:53.941Z</time></trkpt><trkpt lat="43.7084395" lon="12.1816667"><ele>693.0</ele><time>2026-04-12T07:02:55.995Z</time></trkpt><trkpt lat="43.7083885" lon="12.1815651"><ele>689.6666666666666</ele><time>2026-04-12T07:02:58.986Z</time></trkpt><trkpt lat="43.7083399" lon="12.1814597"><ele>686.3333333333334</ele><time>2026-04-12T07:03:01.987Z</time></trkpt><trkpt lat="43.7083059" lon="12.1813857"><ele>683.0</ele><time>2026-04-12T07:03:03.981Z</time></trkpt><trkpt lat="43.7082722" lon="12.1813121"><ele>679.6666666666667</ele><time>2026-04-12T07:03:05.981Z</time></trkpt><trkpt lat="43.7082263" lon="12.1812082"><ele>676.3333333333334</ele><time>2026-04-12T07:03:08.854Z</time></trkpt><trkpt lat="43.708179" lon="12.1811038"><ele>673.0</ele><time>2026-04-12T07:03:11.898Z</time></trkpt><trkpt lat="43.7081285" lon="12.1809999"><ele>673.0</ele><time>2026-04-12T07:03:14.984Z</time></trkpt><trkpt lat="43.7080828" lon="12.1808961"><ele>673.0</ele><time>2026-04-12T07:03:17.9Z</time></trkpt><trkpt lat="43.7080382" lon="12.1807887"><ele>673.0</ele><time>2026-04-12T07:03:20.955Z</time></trkpt><trkpt lat="43.7079936" lon="12.1806818"><ele>673.0</ele><time>2026-04-12T07:03:24.01Z</time></trkpt><trkpt lat="43.7079445" lon="12.1805839"><ele>673.0</ele><time>2026-04-12T07:03:26.988Z</time></trkpt><trkpt lat="43.7078977" lon="12.1804925"><ele>673.0</ele><time>2026-04-12T07:03:29.977Z</time></trkpt><trkpt lat="43.7078536" lon="12.1803999"><ele>672.6666666666667</ele><time>2026-04-12T07:03:32.94Z</time></trkpt><trkpt lat="43.7078079" lon="12.180296"><ele>672.3333333333334</ele><time>2026-04-12T07:03:35.979Z</time></trkpt><trkpt lat="43.7077541" lon="12.1801923"><ele>672.0</ele><time>2026-04-12T07:03:38.979Z</time></trkpt><trkpt lat="43.7077079" lon="12.1800862"><ele>671.6666666666666</ele><time>2026-04-12T07:03:41.986Z</time></trkpt><trkpt lat="43.7076664" lon="12.1799793"><ele>671.3333333333333</ele><time>2026-04-12T07:03:44.979Z</time></trkpt><trkpt lat="43.7076215" lon="12.1798747"><ele>671.0</ele><time>2026-04-12T07:03:47.977Z</time></trkpt><trkpt lat="43.7075679" lon="12.1797842"><ele>670.0</ele><time>2026-04-12T07:03:50.977Z</time></trkpt><trkpt lat="43.7074993" lon="12.1797041"><ele>669.0</ele><time>2026-04-12T07:03:53.982Z</time></trkpt><trkpt lat="43.7074112" lon="12.1796721"><ele>668.0</ele><time>2026-04-12T07:03:56.974Z</time></trkpt><trkpt lat="43.7073243" lon="12.1797159"><ele>667.0</ele><time>2026-04-12T07:03:59.982Z</time></trkpt><trkpt lat="43.7072687" lon="12.1797628"><ele>666.0</ele><time>2026-04-12T07:04:01.982Z</time></trkpt><trkpt lat="43.7072184" lon="12.1798185"><ele>665.0</ele><time>2026-04-12T07:04:03.978Z</time></trkpt><trkpt lat="43.7071733" lon="12.1798815"><ele>664.4285714285714</ele><time>2026-04-12T07:04:05.977Z</time></trkpt><trkpt lat="43.7071292" lon="12.1799461"><ele>663.8571428571429</ele><time>2026-04-12T07:04:07.976Z</time></trkpt><trkpt lat="43.7070624" lon="12.180038"><ele>663.2857142857142</ele><time>2026-04-12T07:04:10.98Z</time></trkpt><trkpt lat="43.7070159" lon="12.1801025"><ele>662.7142857142858</ele><time>2026-04-12T07:04:12.979Z</time></trkpt><trkpt lat="43.7069697" lon="12.1801706"><ele>662.1428571428571</ele><time>2026-04-12T07:04:14.975Z</time></trkpt><trkpt lat="43.7069166" lon="12.1802329"><ele>661.5714285714286</ele><time>2026-04-12T07:04:17.002Z</time></trkpt><trkpt lat="43.7068652" lon="12.1802938"><ele>661.0</ele><time>2026-04-12T07:04:19.001Z</time></trkpt><trkpt lat="43.7068164" lon="12.1803519"><ele>659.3333333333334</ele><time>2026-04-12T07:04:21.014Z</time></trkpt><trkpt lat="43.7067683" lon="12.1804087"><ele>657.6666666666667</ele><time>2026-04-12T07:04:22.977Z</time></trkpt><trkpt lat="43.7067212" lon="12.1804685"><ele>656.0</ele><time>2026-04-12T07:04:24.988Z</time></trkpt><trkpt lat="43.7066524" lon="12.1805527"><ele>654.3333333333334</ele><time>2026-04-12T07:04:27.983Z</time></trkpt><trkpt lat="43.706587" lon="12.1806379"><ele>652.6666666666666</ele><time>2026-04-12T07:04:30.986Z</time></trkpt><trkpt lat="43.706522" lon="12.1807177"><ele>651.0</ele><time>2026-04-12T07:04:33.975Z</time></trkpt><trkpt lat="43.7064633" lon="12.1807962"><ele>650.8333333333334</ele><time>2026-04-12T07:04:36.985Z</time></trkpt><trkpt lat="43.7064097" lon="12.1808684"><ele>650.6666666666666</ele><time>2026-04-12T07:04:39.542Z</time></trkpt><trkpt lat="43.7063569" lon="12.1809354"><ele>650.5</ele><time>2026-04-12T07:04:41.905Z</time></trkpt><trkpt lat="43.7062886" lon="12.1810106"><ele>650.3333333333333</ele><time>2026-04-12T07:04:44.936Z</time></trkpt><trkpt lat="43.7062192" lon="12.181078"><ele>650.1666666666666</ele><time>2026-04-12T07:04:47.98Z</time></trkpt><trkpt lat="43.7061378" lon="12.1811303"><ele>650.0</ele><time>2026-04-12T07:04:50.978Z</time></trkpt><trkpt lat="43.7060807" lon="12.18117"><ele>648.3333333333333</ele><time>2026-04-12T07:04:53.013Z</time></trkpt><trkpt lat="43.7059988" lon="12.1812165"><ele>646.6666666666666</ele><time>2026-04-12T07:04:55.978Z</time></trkpt><trkpt lat="43.7059392" lon="12.1812501"><ele>645.0</ele><time>2026-04-12T07:04:57.998Z</time></trkpt><trkpt lat="43.7058594" lon="12.1812953"><ele>643.3333333333334</ele><time>2026-04-12T07:05:00.987Z</time></trkpt><trkpt lat="43.705785" lon="12.1813408"><ele>641.6666666666667</ele><time>2026-04-12T07:05:03.978Z</time></trkpt><trkpt lat="43.7057171" lon="12.1813935"><ele>640.0</ele><time>2026-04-12T07:05:06.94Z</time></trkpt><trkpt lat="43.7056387" lon="12.1814359"><ele>640.0</ele><time>2026-04-12T07:05:09.976Z</time></trkpt><trkpt lat="43.7055539" lon="12.1814809"><ele>640.0</ele><time>2026-04-12T07:05:12.981Z</time></trkpt><trkpt lat="43.7054683" lon="12.1815317"><ele>640.0</ele><time>2026-04-12T07:05:15.975Z</time></trkpt><trkpt lat="43.7053856" lon="12.1815831"><ele>640.0</ele><time>2026-04-12T07:05:19.001Z</time></trkpt><trkpt lat="43.7053029" lon="12.1816368"><ele>640.0</ele><time>2026-04-12T07:05:22.016Z</time></trkpt><trkpt lat="43.7052231" lon="12.1816817"><ele>639.3333333333334</ele><time>2026-04-12T07:05:24.974Z</time></trkpt><trkpt lat="43.7051412" lon="12.1817323"><ele>638.6666666666667</ele><time>2026-04-12T07:05:27.981Z</time></trkpt><trkpt lat="43.705057" lon="12.1817814"><ele>638.0</ele><time>2026-04-12T07:05:30.976Z</time></trkpt><trkpt lat="43.7049984" lon="12.1818138"><ele>637.3333333333334</ele><time>2026-04-12T07:05:33.007Z</time></trkpt><trkpt lat="43.7049148" lon="12.1818595"><ele>636.6666666666666</ele><time>2026-04-12T07:05:35.985Z</time></trkpt><trkpt lat="43.7048333" lon="12.1819059"><ele>636.0</ele><time>2026-04-12T07:05:38.981Z</time></trkpt><trkpt lat="43.7047501" lon="12.1819488"><ele>636.0</ele><time>2026-04-12T07:05:41.975Z</time></trkpt><trkpt lat="43.704668" lon="12.1819961"><ele>636.0</ele><time>2026-04-12T07:05:44.983Z</time></trkpt><trkpt lat="43.7045883" lon="12.1820477"><ele>636.0</ele><time>2026-04-12T07:05:47.986Z</time></trkpt><trkpt lat="43.7045111" lon="12.1820999"><ele>636.0</ele><time>2026-04-12T07:05:50.981Z</time></trkpt><trkpt lat="43.70443" lon="12.1821431"><ele>636.0</ele><time>2026-04-12T07:05:53.987Z</time></trkpt><trkpt lat="43.7043458" lon="12.1821926"><ele>636.0</ele><time>2026-04-12T07:05:56.98Z</time></trkpt><trkpt lat="43.7042625" lon="12.1822415"><ele>634.6</ele><time>2026-04-12T07:05:59.981Z</time></trkpt><trkpt lat="43.7041797" lon="12.1822921"><ele>633.2</ele><time>2026-04-12T07:06:02.977Z</time></trkpt><trkpt lat="43.7040982" lon="12.1823361"><ele>631.8</ele><time>2026-04-12T07:06:05.983Z</time></trkpt><trkpt lat="43.7040147" lon="12.1823821"><ele>630.4</ele><time>2026-04-12T07:06:08.983Z</time></trkpt><trkpt lat="43.7039323" lon="12.1824445"><ele>629.0</ele><time>2026-04-12T07:06:12.003Z</time></trkpt><trkpt lat="43.7038538" lon="12.1825105"><ele>629.0</ele><time>2026-04-12T07:06:14.941Z</time></trkpt><trkpt lat="43.7038008" lon="12.1825716"><ele>629.0</ele><time>2026-04-12T07:06:17.071Z</time></trkpt><trkpt lat="43.7037188" lon="12.182623"><ele>629.0</ele><time>2026-04-12T07:06:19.987Z</time></trkpt><trkpt lat="43.7036296" lon="12.1826645"><ele>629.0</ele><time>2026-04-12T07:06:23.064Z</time></trkpt><trkpt lat="43.7035467" lon="12.1827064"><ele>629.0</ele><time>2026-04-12T07:06:26.029Z</time></trkpt><trkpt lat="43.7034614" lon="12.1827524"><ele>629.0</ele><time>2026-04-12T07:06:29.067Z</time></trkpt><trkpt lat="43.703387" lon="12.1827704"><ele>626.0</ele><time>2026-04-12T07:06:32.03Z</time></trkpt><trkpt lat="43.7033047" lon="12.1827842"><ele>623.0</ele><time>2026-04-12T07:06:34.986Z</time></trkpt><trkpt lat="43.7032211" lon="12.1827963"><ele>620.0</ele><time>2026-04-12T07:06:38.004Z</time></trkpt><trkpt lat="43.7031387" lon="12.1827985"><ele>617.0</ele><time>2026-04-12T07:06:40.975Z</time></trkpt><trkpt lat="43.7030584" lon="12.1828001"><ele>614.0</ele><time>2026-04-12T07:06:43.987Z</time></trkpt><trkpt lat="43.7029817" lon="12.1828151"><ele>611.0</ele><time>2026-04-12T07:06:46.987Z</time></trkpt><trkpt lat="43.7029171" lon="12.182841"><ele>611.0000000000001</ele><time>2026-04-12T07:06:49.895Z</time></trkpt><trkpt lat="43.7028559" lon="12.1828792"><ele>611.0</ele><time>2026-04-12T07:06:52.814Z</time></trkpt><trkpt lat="43.702807" lon="12.1829685"><ele>611.0</ele><time>2026-04-12T07:06:55.987Z</time></trkpt><trkpt lat="43.7027536" lon="12.1830715"><ele>611.0</ele><time>2026-04-12T07:06:59.083Z</time></trkpt><trkpt lat="43.7026944" lon="12.1831226"><ele>611.0</ele><time>2026-04-12T07:07:01.987Z</time></trkpt><trkpt lat="43.7026277" lon="12.1831446"><ele>611.0000000000001</ele><time>2026-04-12T07:07:05.051Z</time></trkpt><trkpt lat="43.7025635" lon="12.1831488"><ele>611.0</ele><time>2026-04-12T07:07:07.986Z</time></trkpt><trkpt lat="43.7025312" lon="12.1832393"><ele>608.5</ele><time>2026-04-12T07:07:11.053Z</time></trkpt><trkpt lat="43.7025173" lon="12.1833281"><ele>606.0</ele><time>2026-04-12T07:07:13.987Z</time></trkpt><trkpt lat="43.7024465" lon="12.1833791"><ele>603.5</ele><time>2026-04-12T07:07:18.015Z</time></trkpt><trkpt lat="43.7023653" lon="12.1833766"><ele>601.0</ele><time>2026-04-12T07:07:20.895Z</time></trkpt><trkpt lat="43.7023866" lon="12.1831951"><ele>598.5</ele><time>2026-04-12T07:07:21.942Z</time></trkpt><trkpt lat="43.7023786" lon="12.183078"><ele>596.0</ele><time>2026-04-12T07:07:22.987Z</time></trkpt><trkpt lat="43.7023379" lon="12.183002"><ele>596.0</ele><time>2026-04-12T07:07:24.986Z</time></trkpt><trkpt lat="43.7022819" lon="12.1830583"><ele>596.0</ele><time>2026-04-12T07:07:27.987Z</time></trkpt><trkpt lat="43.7023299" lon="12.1831681"><ele>596.0</ele><time>2026-04-12T07:07:30.98Z</time></trkpt><trkpt lat="43.7023793" lon="12.1832241"><ele>596.0</ele><time>2026-04-12T07:07:32.987Z</time></trkpt><trkpt lat="43.7024235" lon="12.1833196"><ele>596.0</ele><time>2026-04-12T07:07:35.914Z</time></trkpt><trkpt lat="43.7024504" lon="12.1834253"><ele>596.0</ele><time>2026-04-12T07:07:38.986Z</time></trkpt><trkpt lat="43.7024401" lon="12.1835309"><ele>596.0</ele><time>2026-04-12T07:07:41.954Z</time></trkpt><trkpt lat="43.7024156" lon="12.1836135"><ele>596.0</ele><time>2026-04-12T07:07:43.986Z</time></trkpt><trkpt lat="43.7023774" lon="12.1836877"><ele>596.0</ele><time>2026-04-12T07:07:45.881Z</time></trkpt><trkpt lat="43.7023257" lon="12.1837455"><ele>596.0</ele><time>2026-04-12T07:07:47.987Z</time></trkpt><trkpt lat="43.7022474" lon="12.183784"><ele>596.0</ele><time>2026-04-12T07:07:50.98Z</time></trkpt><trkpt lat="43.702186" lon="12.1838214"><ele>596.0</ele><time>2026-04-12T07:07:53.959Z</time></trkpt><trkpt lat="43.7021321" lon="12.1838699"><ele>596.0</ele><time>2026-04-12T07:07:56.986Z</time></trkpt><trkpt lat="43.7020612" lon="12.1839018"><ele>596.0</ele><time>2026-04-12T07:08:00.939Z</time></trkpt><trkpt lat="43.7019773" lon="12.1838873"><ele>596.0</ele><time>2026-04-12T07:08:04.987Z</time></trkpt><trkpt lat="43.7019124" lon="12.1838747"><ele>596.0</ele><time>2026-04-12T07:08:07.986Z</time></trkpt><trkpt lat="43.7018504" lon="12.1838474"><ele>596.0</ele><time>2026-04-12T07:08:12.987Z</time></trkpt><trkpt lat="43.7018411" lon="12.1837555"><ele>596.0</ele><time>2026-04-12T07:08:22.986Z</time></trkpt><trkpt lat="43.7018095" lon="12.1836604"><ele>596.0</ele><time>2026-04-12T07:08:37.986Z</time></trkpt><trkpt lat="43.7017885" lon="12.1835543"><ele>596.0</ele><time>2026-04-12T07:08:47.986Z</time></trkpt><trkpt lat="43.7017732" lon="12.1834459"><ele>594.8571428571429</ele><time>2026-04-12T07:08:51.987Z</time></trkpt><trkpt lat="43.7017835" lon="12.1833444"><ele>593.7142857142857</ele><time>2026-04-12T07:08:55.064Z</time></trkpt><trkpt lat="43.7018127" lon="12.1832671"><ele>592.5714285714286</ele><time>2026-04-12T07:08:57.987Z</time></trkpt><trkpt lat="43.7018071" lon="12.1831736"><ele>591.4285714285714</ele><time>2026-04-12T07:09:00.987Z</time></trkpt><trkpt lat="43.7017942" lon="12.1830595"><ele>590.2857142857142</ele><time>2026-04-12T07:09:04.986Z</time></trkpt><trkpt lat="43.701739" lon="12.1829841"><ele>589.1428571428571</ele><time>2026-04-12T07:09:08.981Z</time></trkpt><trkpt lat="43.7016737" lon="12.1830172"><ele>588.0</ele><time>2026-04-12T07:09:11.987Z</time></trkpt><trkpt lat="43.7016038" lon="12.1830358"><ele>588.0</ele><time>2026-04-12T07:09:15.856Z</time></trkpt><trkpt lat="43.7016054" lon="12.18294"><ele>588.0</ele><time>2026-04-12T07:09:18.987Z</time></trkpt><trkpt lat="43.7016173" lon="12.182854"><ele>588.0</ele><time>2026-04-12T07:09:21.897Z</time></trkpt><trkpt lat="43.7015968" lon="12.1827654"><ele>588.0</ele><time>2026-04-12T07:09:25.987Z</time></trkpt><trkpt lat="43.7015721" lon="12.1826699"><ele>588.0</ele><time>2026-04-12T07:09:30.003Z</time></trkpt><trkpt lat="43.7015372" lon="12.1825947"><ele>588.0</ele><time>2026-04-12T07:09:33.92Z</time></trkpt><trkpt lat="43.7014944" lon="12.1825238"><ele>588.0</ele><time>2026-04-12T07:09:39.007Z</time></trkpt><trkpt lat="43.7014285" lon="12.182521"><ele>588.0</ele><time>2026-04-12T07:09:42.987Z</time></trkpt><trkpt lat="43.7013616" lon="12.1825278"><ele>588.0</ele><time>2026-04-12T07:09:51.987Z</time></trkpt><trkpt lat="43.7013285" lon="12.1824536"><ele>588.0</ele><time>2026-04-12T07:09:56.987Z</time></trkpt><trkpt lat="43.7012678" lon="12.1824102"><ele>588.0</ele><time>2026-04-12T07:10:02.987Z</time></trkpt><trkpt lat="43.7012019" lon="12.1823931"><ele>588.0</ele><time>2026-04-12T07:10:09.987Z</time></trkpt><trkpt lat="43.7011438" lon="12.1823422"><ele>588.0</ele><time>2026-04-12T07:10:18.987Z</time></trkpt><trkpt lat="43.7010902" lon="12.1822867"><ele>588.0</ele><time>2026-04-12T07:10:26.986Z</time></trkpt><trkpt lat="43.7010313" lon="12.1822481"><ele>589.0</ele><time>2026-04-12T07:10:33.986Z</time></trkpt><trkpt lat="43.7009654" lon="12.1822284"><ele>590.0</ele><time>2026-04-12T07:10:40.006Z</time></trkpt><trkpt lat="43.7009043" lon="12.1821975"><ele>591.0</ele><time>2026-04-12T07:10:45.058Z</time></trkpt><trkpt lat="43.7008501" lon="12.1821464"><ele>592.0</ele><time>2026-04-12T07:10:48.986Z</time></trkpt><trkpt lat="43.7007881" lon="12.1820853"><ele>593.0</ele><time>2026-04-12T07:10:52.986Z</time></trkpt><trkpt lat="43.700713" lon="12.1820323"><ele>594.0</ele><time>2026-04-12T07:10:56.986Z</time></trkpt><trkpt lat="43.7006542" lon="12.1819954"><ele>595.0</ele><time>2026-04-12T07:10:59.987Z</time></trkpt><trkpt lat="43.7005825" lon="12.1819748"><ele>595.0</ele><time>2026-04-12T07:11:03.986Z</time></trkpt><trkpt lat="43.7005283" lon="12.1819025"><ele>595.0</ele><time>2026-04-12T07:11:11.062Z</time></trkpt><trkpt lat="43.7005127" lon="12.1818152"><ele>595.0</ele><time>2026-04-12T07:11:16.986Z</time></trkpt><trkpt lat="43.7004957" lon="12.1817226"><ele>595.0</ele><time>2026-04-12T07:11:22.987Z</time></trkpt><trkpt lat="43.7004745" lon="12.1816352"><ele>595.0</ele><time>2026-04-12T07:11:28.9Z</time></trkpt><trkpt lat="43.7004037" lon="12.1815678"><ele>595.0</ele><time>2026-04-12T07:11:33.987Z</time></trkpt><trkpt lat="43.7003362" lon="12.1815355"><ele>595.0</ele><time>2026-04-12T07:11:36.9Z</time></trkpt><trkpt lat="43.7002618" lon="12.1815279"><ele>595.7142857142857</ele><time>2026-04-12T07:11:39.987Z</time></trkpt><trkpt lat="43.7001963" lon="12.1815185"><ele>596.4285714285714</ele><time>2026-04-12T07:11:42.984Z</time></trkpt><trkpt lat="43.7001238" lon="12.1814828"><ele>597.1428571428571</ele><time>2026-04-12T07:11:46.955Z</time></trkpt><trkpt lat="43.7000565" lon="12.1814374"><ele>597.8571428571429</ele><time>2026-04-12T07:11:50.92Z</time></trkpt><trkpt lat="43.6999844" lon="12.1813939"><ele>598.5714285714286</ele><time>2026-04-12T07:11:54.987Z</time></trkpt><trkpt lat="43.6999211" lon="12.1813596"><ele>599.2857142857142</ele><time>2026-04-12T07:11:58.059Z</time></trkpt><trkpt lat="43.6998508" lon="12.181306"><ele>600.0</ele><time>2026-04-12T07:12:01.976Z</time></trkpt><trkpt lat="43.6997826" lon="12.1812496"><ele>599.9999999999999</ele><time>2026-04-12T07:12:06.062Z</time></trkpt><trkpt lat="43.699723" lon="12.181217"><ele>600.0</ele><time>2026-04-12T07:12:09.986Z</time></trkpt><trkpt lat="43.6996495" lon="12.1811953"><ele>600.0</ele><time>2026-04-12T07:12:13.661Z</time></trkpt><trkpt lat="43.6995806" lon="12.1811807"><ele>600.0</ele><time>2026-04-12T07:12:16.904Z</time></trkpt><trkpt lat="43.6995021" lon="12.1811679"><ele>600.0</ele><time>2026-04-12T07:12:20.986Z</time></trkpt><trkpt lat="43.6994292" lon="12.1811409"><ele>599.9999999999999</ele><time>2026-04-12T07:12:26.987Z</time></trkpt><trkpt lat="43.6993629" lon="12.1811076"><ele>600.0</ele><time>2026-04-12T07:12:32.986Z</time></trkpt><trkpt lat="43.6993029" lon="12.1810638"><ele>602.2857142857142</ele><time>2026-04-12T07:12:37.987Z</time></trkpt><trkpt lat="43.6992324" lon="12.181051"><ele>604.5714285714286</ele><time>2026-04-12T07:12:43.987Z</time></trkpt><trkpt lat="43.6991633" lon="12.1810441"><ele>606.8571428571429</ele><time>2026-04-12T07:12:49.987Z</time></trkpt><trkpt lat="43.6990962" lon="12.1810559"><ele>609.1428571428571</ele><time>2026-04-12T07:12:54.987Z</time></trkpt><trkpt lat="43.6990285" lon="12.1810905"><ele>611.4285714285714</ele><time>2026-04-12T07:12:59.986Z</time></trkpt><trkpt lat="43.6989588" lon="12.1811021"><ele>613.7142857142857</ele><time>2026-04-12T07:13:04.987Z</time></trkpt><trkpt lat="43.6988817" lon="12.1810865"><ele>616.0</ele><time>2026-04-12T07:13:09.901Z</time></trkpt><trkpt lat="43.6988208" lon="12.1810198"><ele>616.0</ele><time>2026-04-12T07:13:14.056Z</time></trkpt><trkpt lat="43.6987874" lon="12.180914"><ele>616.0</ele><time>2026-04-12T07:13:16.987Z</time></trkpt><trkpt lat="43.6987575" lon="12.180803"><ele>616.0</ele><time>2026-04-12T07:13:20.061Z</time></trkpt><trkpt lat="43.6987175" lon="12.1807047"><ele>616.0</ele><time>2026-04-12T07:13:22.987Z</time></trkpt><trkpt lat="43.6986646" lon="12.1805967"><ele>616.0</ele><time>2026-04-12T07:13:26.439Z</time></trkpt><trkpt lat="43.6986266" lon="12.1805213"><ele>616.0</ele><time>2026-04-12T07:13:28.52Z</time></trkpt><trkpt lat="43.6985739" lon="12.1804519"><ele>617.3333333333334</ele><time>2026-04-12T07:13:30.612Z</time></trkpt><trkpt lat="43.6985191" lon="12.180407"><ele>618.6666666666667</ele><time>2026-04-12T07:13:32.42Z</time></trkpt><trkpt lat="43.6984485" lon="12.1803563"><ele>620.0</ele><time>2026-04-12T07:13:34.896Z</time></trkpt><trkpt lat="43.6983692" lon="12.1802974"><ele>621.3333333333334</ele><time>2026-04-12T07:13:37.986Z</time></trkpt><trkpt lat="43.6982923" lon="12.1802528"><ele>622.6666666666666</ele><time>2026-04-12T07:13:40.916Z</time></trkpt><trkpt lat="43.6982092" lon="12.1802063"><ele>624.0</ele><time>2026-04-12T07:13:43.987Z</time></trkpt><trkpt lat="43.6981459" lon="12.1801532"><ele>624.0</ele><time>2026-04-12T07:13:46.987Z</time></trkpt><trkpt lat="43.6980864" lon="12.1801025"><ele>624.0</ele><time>2026-04-12T07:13:50.986Z</time></trkpt><trkpt lat="43.6980078" lon="12.180094"><ele>624.0</ele><time>2026-04-12T07:13:54.987Z</time></trkpt><trkpt lat="43.6979429" lon="12.1800647"><ele>624.0</ele><time>2026-04-12T07:14:00.987Z</time></trkpt><trkpt lat="43.6978865" lon="12.180007"><ele>624.0</ele><time>2026-04-12T07:14:05.987Z</time></trkpt><trkpt lat="43.6978559" lon="12.1799251"><ele>624.0</ele><time>2026-04-12T07:14:09.987Z</time></trkpt><trkpt lat="43.6978327" lon="12.179844"><ele>624.0</ele><time>2026-04-12T07:14:13.894Z</time></trkpt><trkpt lat="43.6978036" lon="12.1797661"><ele>624.0</ele><time>2026-04-12T07:14:17.987Z</time></trkpt><trkpt lat="43.6977766" lon="12.1796848"><ele>624.0</ele><time>2026-04-12T07:14:22.986Z</time></trkpt><trkpt lat="43.6977327" lon="12.1796176"><ele>624.0</ele><time>2026-04-12T07:14:26.987Z</time></trkpt><trkpt lat="43.6977129" lon="12.179533"><ele>624.0</ele><time>2026-04-12T07:14:30.987Z</time></trkpt><trkpt lat="43.6977024" lon="12.1794316"><ele>624.0</ele><time>2026-04-12T07:14:35.987Z</time></trkpt><trkpt lat="43.6976877" lon="12.1793332"><ele>624.0</ele><time>2026-04-12T07:14:39.961Z</time></trkpt><trkpt lat="43.6976531" lon="12.1792534"><ele>624.0</ele><time>2026-04-12T07:14:42.986Z</time></trkpt><trkpt lat="43.6976144" lon="12.1791838"><ele>623.7142857142858</ele><time>2026-04-12T07:14:45.986Z</time></trkpt><trkpt lat="43.6975633" lon="12.1791314"><ele>623.4285714285713</ele><time>2026-04-12T07:14:48.976Z</time></trkpt><trkpt lat="43.6974946" lon="12.1790762"><ele>623.1428571428571</ele><time>2026-04-12T07:14:53.005Z</time></trkpt><trkpt lat="43.6974981" lon="12.1789776"><ele>622.8571428571429</ele><time>2026-04-12T07:14:55.987Z</time></trkpt><trkpt lat="43.6975213" lon="12.1788957"><ele>622.5714285714287</ele><time>2026-04-12T07:14:58.987Z</time></trkpt><trkpt lat="43.6975429" lon="12.1787928"><ele>622.2857142857142</ele><time>2026-04-12T07:15:02.987Z</time></trkpt><trkpt lat="43.697547" lon="12.1787051"><ele>622.0</ele><time>2026-04-12T07:15:05.916Z</time></trkpt><trkpt lat="43.6975388" lon="12.178614"><ele>622.0</ele><time>2026-04-12T07:15:08.987Z</time></trkpt><trkpt lat="43.697528" lon="12.1785128"><ele>622.0</ele><time>2026-04-12T07:15:11.987Z</time></trkpt><trkpt lat="43.6975102" lon="12.1784161"><ele>622.0</ele><time>2026-04-12T07:15:15.048Z</time></trkpt><trkpt lat="43.6974799" lon="12.1783309"><ele>622.0</ele><time>2026-04-12T07:15:17.987Z</time></trkpt><trkpt lat="43.6974264" lon="12.1782563"><ele>622.0</ele><time>2026-04-12T07:15:20.987Z</time></trkpt><trkpt lat="43.6973643" lon="12.1781656"><ele>622.0</ele><time>2026-04-12T07:15:23.986Z</time></trkpt><trkpt lat="43.6973112" lon="12.1780709"><ele>622.5714285714286</ele><time>2026-04-12T07:15:27.012Z</time></trkpt><trkpt lat="43.6972782" lon="12.1779524"><ele>623.1428571428572</ele><time>2026-04-12T07:15:30.056Z</time></trkpt><trkpt lat="43.6972743" lon="12.1778612"><ele>623.7142857142858</ele><time>2026-04-12T07:15:31.986Z</time></trkpt><trkpt lat="43.6972587" lon="12.1777598"><ele>624.2857142857142</ele><time>2026-04-12T07:15:34.862Z</time></trkpt><trkpt lat="43.6972181" lon="12.1776689"><ele>624.8571428571429</ele><time>2026-04-12T07:15:38.048Z</time></trkpt><trkpt lat="43.6971831" lon="12.1775916"><ele>625.4285714285714</ele><time>2026-04-12T07:15:40.893Z</time></trkpt><trkpt lat="43.6971412" lon="12.17751"><ele>626.0</ele><time>2026-04-12T07:15:43.986Z</time></trkpt><trkpt lat="43.6971049" lon="12.1774279"><ele>626.0</ele><time>2026-04-12T07:15:46.986Z</time></trkpt><trkpt lat="43.6970519" lon="12.1773649"><ele>626.0</ele><time>2026-04-12T07:15:49.997Z</time></trkpt><trkpt lat="43.6969888" lon="12.1773242"><ele>626.0</ele><time>2026-04-12T07:15:52.987Z</time></trkpt><trkpt lat="43.6969233" lon="12.1772811"><ele>626.0</ele><time>2026-04-12T07:15:56.055Z</time></trkpt><trkpt lat="43.696847" lon="12.1772431"><ele>626.0</ele><time>2026-04-12T07:15:59.897Z</time></trkpt><trkpt lat="43.696789" lon="12.1771979"><ele>626.0</ele><time>2026-04-12T07:16:02.987Z</time></trkpt><trkpt lat="43.6967343" lon="12.1771404"><ele>626.0</ele><time>2026-04-12T07:16:05.907Z</time></trkpt><trkpt lat="43.6966886" lon="12.177078"><ele>625.4285714285714</ele><time>2026-04-12T07:16:08.987Z</time></trkpt><trkpt lat="43.696638" lon="12.1770117"><ele>624.8571428571429</ele><time>2026-04-12T07:16:12.92Z</time></trkpt><trkpt lat="43.6965925" lon="12.1769462"><ele>624.2857142857142</ele><time>2026-04-12T07:16:17.987Z</time></trkpt><trkpt lat="43.6965325" lon="12.1768872"><ele>623.7142857142858</ele><time>2026-04-12T07:16:22.987Z</time></trkpt><trkpt lat="43.6964862" lon="12.1768162"><ele>623.1428571428572</ele><time>2026-04-12T07:16:27.986Z</time></trkpt><trkpt lat="43.6964416" lon="12.1767446"><ele>622.5714285714286</ele><time>2026-04-12T07:16:32.986Z</time></trkpt><trkpt lat="43.6963992" lon="12.1766692"><ele>622.0</ele><time>2026-04-12T07:16:37.986Z</time></trkpt><trkpt lat="43.6963572" lon="12.1765985"><ele>622.0</ele><time>2026-04-12T07:16:42.986Z</time></trkpt><trkpt lat="43.6963117" lon="12.1765361"><ele>622.0</ele><time>2026-04-12T07:16:47.987Z</time></trkpt><trkpt lat="43.6962802" lon="12.1764568"><ele>622.0</ele><time>2026-04-12T07:16:52.987Z</time></trkpt><trkpt lat="43.6962343" lon="12.1763909"><ele>622.0</ele><time>2026-04-12T07:16:57.978Z</time></trkpt><trkpt lat="43.6961788" lon="12.1763443"><ele>622.0</ele><time>2026-04-12T07:17:02.013Z</time></trkpt><trkpt lat="43.6961941" lon="12.1762511"><ele>622.0</ele><time>2026-04-12T07:17:04.987Z</time></trkpt><trkpt lat="43.6961778" lon="12.1761536"><ele>622.0</ele><time>2026-04-12T07:17:07.986Z</time></trkpt><trkpt lat="43.6961147" lon="12.1760846"><ele>623.8333333333334</ele><time>2026-04-12T07:17:10.987Z</time></trkpt><trkpt lat="43.6960454" lon="12.1760252"><ele>625.6666666666667</ele><time>2026-04-12T07:17:14.059Z</time></trkpt><trkpt lat="43.6959951" lon="12.1759408"><ele>627.5</ele><time>2026-04-12T07:17:16.987Z</time></trkpt><trkpt lat="43.695941" lon="12.1758502"><ele>629.3333333333334</ele><time>2026-04-12T07:17:20.063Z</time></trkpt><trkpt lat="43.6958798" lon="12.1757742"><ele>631.1666666666666</ele><time>2026-04-12T07:17:23.039Z</time></trkpt><trkpt lat="43.6958449" lon="12.1756975"><ele>633.0</ele><time>2026-04-12T07:17:25.987Z</time></trkpt><trkpt lat="43.6957983" lon="12.1756107"><ele>633.4285714285714</ele><time>2026-04-12T07:17:30.044Z</time></trkpt><trkpt lat="43.6957229" lon="12.1755671"><ele>633.8571428571429</ele><time>2026-04-12T07:17:33.986Z</time></trkpt><trkpt lat="43.6956672" lon="12.1755204"><ele>634.2857142857142</ele><time>2026-04-12T07:17:36.987Z</time></trkpt><trkpt lat="43.6956086" lon="12.1754564"><ele>634.7142857142858</ele><time>2026-04-12T07:17:39.987Z</time></trkpt><trkpt lat="43.6955468" lon="12.1753741"><ele>635.1428571428572</ele><time>2026-04-12T07:17:43.06Z</time></trkpt><trkpt lat="43.695509" lon="12.1752949"><ele>635.5714285714286</ele><time>2026-04-12T07:17:45.986Z</time></trkpt><trkpt lat="43.6954741" lon="12.1752141"><ele>636.0</ele><time>2026-04-12T07:17:49.052Z</time></trkpt><trkpt lat="43.6954309" lon="12.1751089"><ele>636.0</ele><time>2026-04-12T07:17:52.901Z</time></trkpt><trkpt lat="43.6953836" lon="12.1750042"><ele>636.0</ele><time>2026-04-12T07:17:56.069Z</time></trkpt><trkpt lat="43.6953286" lon="12.1749052"><ele>636.0</ele><time>2026-04-12T07:17:58.919Z</time></trkpt><trkpt lat="43.6952761" lon="12.1748381"><ele>636.0</ele><time>2026-04-12T07:18:00.986Z</time></trkpt><trkpt lat="43.6952075" lon="12.1747588"><ele>636.0</ele><time>2026-04-12T07:18:03.981Z</time></trkpt><trkpt lat="43.695175" lon="12.1746731"><ele>636.0</ele><time>2026-04-12T07:18:05.987Z</time></trkpt><trkpt lat="43.6951567" lon="12.17458"><ele>634.6666666666666</ele><time>2026-04-12T07:18:07.987Z</time></trkpt><trkpt lat="43.6951231" lon="12.1744663"><ele>633.3333333333334</ele><time>2026-04-12T07:18:11.003Z</time></trkpt><trkpt lat="43.6950829" lon="12.1743574"><ele>632.0</ele><time>2026-04-12T07:18:13.987Z</time></trkpt><trkpt lat="43.6950222" lon="12.174274"><ele>630.6666666666667</ele><time>2026-04-12T07:18:16.974Z</time></trkpt><trkpt lat="43.6949583" lon="12.1741929"><ele>629.3333333333334</ele><time>2026-04-12T07:18:19.987Z</time></trkpt><trkpt lat="43.6949133" lon="12.174098"><ele>628.0</ele><time>2026-04-12T07:18:22.986Z</time></trkpt><trkpt lat="43.6948766" lon="12.1740153"><ele>627.9999999999999</ele><time>2026-04-12T07:18:25.936Z</time></trkpt><trkpt lat="43.6948581" lon="12.1739261"><ele>628.0</ele><time>2026-04-12T07:18:28.986Z</time></trkpt><trkpt lat="43.6948378" lon="12.1738356"><ele>628.0</ele><time>2026-04-12T07:18:31.987Z</time></trkpt><trkpt lat="43.6948121" lon="12.173743"><ele>628.0</ele><time>2026-04-12T07:18:36.987Z</time></trkpt><trkpt lat="43.694778" lon="12.1736574"><ele>628.0</ele><time>2026-04-12T07:18:41.987Z</time></trkpt><trkpt lat="43.6947226" lon="12.1736048"><ele>627.9999999999999</ele><time>2026-04-12T07:18:46.986Z</time></trkpt><trkpt lat="43.6946565" lon="12.1736074"><ele>628.0</ele><time>2026-04-12T07:18:52.003Z</time></trkpt><trkpt lat="43.6945927" lon="12.1736322"><ele>627.9999999999999</ele><time>2026-04-12T07:18:56.918Z</time></trkpt><trkpt lat="43.6945304" lon="12.1736551"><ele>628.0</ele><time>2026-04-12T07:19:01.986Z</time></trkpt><trkpt lat="43.6944603" lon="12.173681"><ele>628.0</ele><time>2026-04-12T07:19:07.986Z</time></trkpt><trkpt lat="43.6943937" lon="12.1736761"><ele>628.0</ele><time>2026-04-12T07:19:13.987Z</time></trkpt><trkpt lat="43.6943278" lon="12.1736577"><ele>628.0</ele><time>2026-04-12T07:19:19.987Z</time></trkpt><trkpt lat="43.694257" lon="12.1736337"><ele>627.9999999999999</ele><time>2026-04-12T07:19:26.987Z</time></trkpt><trkpt lat="43.6941958" lon="12.1736088"><ele>628.0</ele><time>2026-04-12T07:19:31.941Z</time></trkpt><trkpt lat="43.6941471" lon="12.1735433"><ele>627.4285714285713</ele><time>2026-04-12T07:19:37.986Z</time></trkpt><trkpt lat="43.6940978" lon="12.1734735"><ele>626.8571428571429</ele><time>2026-04-12T07:19:43.987Z</time></trkpt><trkpt lat="43.6941043" lon="12.1733847"><ele>626.2857142857142</ele><time>2026-04-12T07:19:50.986Z</time></trkpt><trkpt lat="43.694092" lon="12.1732966"><ele>625.7142857142857</ele><time>2026-04-12T07:19:56.987Z</time></trkpt><trkpt lat="43.6940583" lon="12.173213"><ele>625.1428571428571</ele><time>2026-04-12T07:20:02.987Z</time></trkpt><trkpt lat="43.6940211" lon="12.1731322"><ele>624.5714285714286</ele><time>2026-04-12T07:20:08.987Z</time></trkpt><trkpt lat="43.6939728" lon="12.173071"><ele>624.0</ele><time>2026-04-12T07:20:13.987Z</time></trkpt><trkpt lat="43.6939222" lon="12.1730079"><ele>625.1428571428572</ele><time>2026-04-12T07:20:18.987Z</time></trkpt><trkpt lat="43.6938727" lon="12.1729443"><ele>626.2857142857142</ele><time>2026-04-12T07:20:23.987Z</time></trkpt><trkpt lat="43.6938434" lon="12.1728616"><ele>627.4285714285714</ele><time>2026-04-12T07:20:28.986Z</time></trkpt><trkpt lat="43.6938236" lon="12.1727736"><ele>628.5714285714287</ele><time>2026-04-12T07:20:33.987Z</time></trkpt><trkpt lat="43.6937959" lon="12.1726764"><ele>629.7142857142858</ele><time>2026-04-12T07:20:39.987Z</time></trkpt><trkpt lat="43.6937651" lon="12.1725965"><ele>630.8571428571429</ele><time>2026-04-12T07:20:44.986Z</time></trkpt><trkpt lat="43.6937231" lon="12.172513"><ele>632.0</ele><time>2026-04-12T07:20:50.987Z</time></trkpt><trkpt lat="43.6936723" lon="12.1724584"><ele>632.0000000000001</ele><time>2026-04-12T07:20:55.987Z</time></trkpt><trkpt lat="43.6936086" lon="12.172429"><ele>632.0</ele><time>2026-04-12T07:21:00.986Z</time></trkpt><trkpt lat="43.6935385" lon="12.1724107"><ele>632.0</ele><time>2026-04-12T07:21:03.974Z</time></trkpt><trkpt lat="43.6934719" lon="12.1723974"><ele>632.0</ele><time>2026-04-12T07:21:06.987Z</time></trkpt><trkpt lat="43.6934014" lon="12.1723733"><ele>632.0</ele><time>2026-04-12T07:21:09.986Z</time></trkpt><trkpt lat="43.6933304" lon="12.1723375"><ele>632.0000000000001</ele><time>2026-04-12T07:21:13.069Z</time></trkpt><trkpt lat="43.6932497" lon="12.1723079"><ele>632.0</ele><time>2026-04-12T07:21:16.987Z</time></trkpt><trkpt lat="43.6931937" lon="12.1722548"><ele>637.5714285714287</ele><time>2026-04-12T07:21:21.961Z</time></trkpt><trkpt lat="43.6931453" lon="12.1721825"><ele>643.1428571428571</ele><time>2026-04-12T07:21:28.056Z</time></trkpt><trkpt lat="43.6930885" lon="12.1721215"><ele>648.7142857142858</ele><time>2026-04-12T07:21:33.987Z</time></trkpt><trkpt lat="43.6930476" lon="12.1720526"><ele>654.2857142857143</ele><time>2026-04-12T07:21:39.986Z</time></trkpt><trkpt lat="43.6930063" lon="12.1719796"><ele>659.8571428571429</ele><time>2026-04-12T07:21:44.987Z</time></trkpt><trkpt lat="43.6929526" lon="12.1718908"><ele>665.4285714285714</ele><time>2026-04-12T07:21:48.986Z</time></trkpt><trkpt lat="43.6928973" lon="12.171821"><ele>671.0</ele><time>2026-04-12T07:21:52.06Z</time></trkpt><trkpt lat="43.6928326" lon="12.1717616"><ele>671.0</ele><time>2026-04-12T07:21:55.033Z</time></trkpt><trkpt lat="43.6927699" lon="12.1717201"><ele>671.0</ele><time>2026-04-12T07:21:57.987Z</time></trkpt><trkpt lat="43.692705" lon="12.1716588"><ele>671.0</ele><time>2026-04-12T07:22:01.07Z</time></trkpt><trkpt lat="43.6926296" lon="12.1716415"><ele>671.0</ele><time>2026-04-12T07:22:03.987Z</time></trkpt><trkpt lat="43.6925527" lon="12.1716286"><ele>671.0</ele><time>2026-04-12T07:22:07.018Z</time></trkpt><trkpt lat="43.6924896" lon="12.1716055"><ele>671.0</ele><time>2026-04-12T07:22:09.987Z</time></trkpt><trkpt lat="43.6924063" lon="12.1715899"><ele>673.1666666666666</ele><time>2026-04-12T07:22:13.986Z</time></trkpt><trkpt lat="43.6923357" lon="12.1715616"><ele>675.3333333333333</ele><time>2026-04-12T07:22:17.057Z</time></trkpt><trkpt lat="43.6922642" lon="12.1715179"><ele>677.5</ele><time>2026-04-12T07:22:21.066Z</time></trkpt><trkpt lat="43.6922026" lon="12.1714567"><ele>679.6666666666666</ele><time>2026-04-12T07:22:26.064Z</time></trkpt><trkpt lat="43.6921586" lon="12.171371"><ele>681.8333333333334</ele><time>2026-04-12T07:22:31.961Z</time></trkpt><trkpt lat="43.6921377" lon="12.1712767"><ele>684.0</ele><time>2026-04-12T07:22:36.986Z</time></trkpt><trkpt lat="43.6921234" lon="12.171157"><ele>683.9999999999999</ele><time>2026-04-12T07:22:40.94Z</time></trkpt><trkpt lat="43.6921036" lon="12.1710464"><ele>684.0</ele><time>2026-04-12T07:22:43.986Z</time></trkpt><trkpt lat="43.6920887" lon="12.1709459"><ele>684.0</ele><time>2026-04-12T07:22:46.987Z</time></trkpt><trkpt lat="43.6920653" lon="12.170853"><ele>684.0</ele><time>2026-04-12T07:22:51.987Z</time></trkpt><trkpt lat="43.6920405" lon="12.1707692"><ele>684.0</ele><time>2026-04-12T07:22:56.986Z</time></trkpt><trkpt lat="43.6920411" lon="12.1706685"><ele>683.9999999999999</ele><time>2026-04-12T07:23:02.986Z</time></trkpt><trkpt lat="43.6920038" lon="12.1705811"><ele>684.0</ele><time>2026-04-12T07:23:08.987Z</time></trkpt><trkpt lat="43.6919375" lon="12.1705308"><ele>686.2857142857142</ele><time>2026-04-12T07:23:14.937Z</time></trkpt><trkpt lat="43.6918679" lon="12.1705159"><ele>688.5714285714286</ele><time>2026-04-12T07:23:20.986Z</time></trkpt><trkpt lat="43.6918073" lon="12.1704843"><ele>690.8571428571429</ele><time>2026-04-12T07:23:25.986Z</time></trkpt><trkpt lat="43.6917491" lon="12.1704216"><ele>693.1428571428571</ele><time>2026-04-12T07:23:30.987Z</time></trkpt><trkpt lat="43.6916977" lon="12.1703688"><ele>695.4285714285714</ele><time>2026-04-12T07:23:33.987Z</time></trkpt><trkpt lat="43.6916357" lon="12.1703247"><ele>697.7142857142857</ele><time>2026-04-12T07:23:36.987Z</time></trkpt><trkpt lat="43.6915698" lon="12.1703118"><ele>700.0</ele><time>2026-04-12T07:23:41.987Z</time></trkpt><trkpt lat="43.6915081" lon="12.1702925"><ele>700.0</ele><time>2026-04-12T07:23:46.986Z</time></trkpt><trkpt lat="43.6914363" lon="12.1702688"><ele>700.0</ele><time>2026-04-12T07:23:52.987Z</time></trkpt><trkpt lat="43.691362" lon="12.1702805"><ele>700.0</ele><time>2026-04-12T07:23:58.987Z</time></trkpt><trkpt lat="43.6913043" lon="12.170323"><ele>700.0</ele><time>2026-04-12T07:24:04.987Z</time></trkpt><trkpt lat="43.6912432" lon="12.1703567"><ele>700.0</ele><time>2026-04-12T07:24:10.986Z</time></trkpt><trkpt lat="43.6911795" lon="12.1703658"><ele>700.0</ele><time>2026-04-12T07:24:16.987Z</time></trkpt><trkpt lat="43.6911127" lon="12.1703619"><ele>700.0</ele><time>2026-04-12T07:24:22.987Z</time></trkpt><trkpt lat="43.6910422" lon="12.1703414"><ele>700.2857142857143</ele><time>2026-04-12T07:24:28.986Z</time></trkpt><trkpt lat="43.6909743" lon="12.1703269"><ele>700.5714285714286</ele><time>2026-04-12T07:24:34.986Z</time></trkpt><trkpt lat="43.690909" lon="12.1703693"><ele>700.8571428571429</ele><time>2026-04-12T07:24:47.055Z</time></trkpt><trkpt lat="43.6908432" lon="12.1703622"><ele>701.1428571428571</ele><time>2026-04-12T07:24:52.987Z</time></trkpt><trkpt lat="43.6907725" lon="12.1704035"><ele>701.4285714285714</ele><time>2026-04-12T07:25:03.954Z</time></trkpt><trkpt lat="43.690693" lon="12.170391"><ele>701.7142857142858</ele><time>2026-04-12T07:25:04.987Z</time></trkpt><trkpt lat="43.6906456" lon="12.1704553"><ele>702.0</ele><time>2026-04-12T07:25:10.986Z</time></trkpt><trkpt lat="43.6906009" lon="12.1705324"><ele>702.0000000000001</ele><time>2026-04-12T07:25:17.987Z</time></trkpt><trkpt lat="43.6905354" lon="12.1705324"><ele>702.0</ele><time>2026-04-12T07:25:23.986Z</time></trkpt><trkpt lat="43.6904734" lon="12.1704856"><ele>702.0</ele><time>2026-04-12T07:25:30.987Z</time></trkpt><trkpt lat="43.6904056" lon="12.1704711"><ele>702.0</ele><time>2026-04-12T07:25:36.986Z</time></trkpt><trkpt lat="43.6903358" lon="12.1704455"><ele>702.0</ele><time>2026-04-12T07:25:46.987Z</time></trkpt><trkpt lat="43.6902762" lon="12.1704159"><ele>702.0000000000001</ele><time>2026-04-12T07:25:50.935Z</time></trkpt><trkpt lat="43.6902528" lon="12.1703235"><ele>702.0</ele><time>2026-04-12T07:25:54.987Z</time></trkpt><trkpt lat="43.6902121" lon="12.1702314"><ele>700.8</ele><time>2026-04-12T07:25:59.914Z</time></trkpt><trkpt lat="43.6902083" lon="12.1701204"><ele>699.6</ele><time>2026-04-12T07:26:02.986Z</time></trkpt><trkpt lat="43.6900711" lon="12.1701642"><ele>698.4</ele><time>2026-04-12T07:26:04.976Z</time></trkpt><trkpt lat="43.689988" lon="12.1701231"><ele>697.1999999999999</ele><time>2026-04-12T07:26:07.066Z</time></trkpt><trkpt lat="43.6899299" lon="12.1700412"><ele>696.0</ele><time>2026-04-12T07:26:10.002Z</time></trkpt><trkpt lat="43.6898465" lon="12.170005"><ele>696.0</ele><time>2026-04-12T07:26:13.986Z</time></trkpt><trkpt lat="43.6897975" lon="12.1699436"><ele>696.0</ele><time>2026-04-12T07:26:16.987Z</time></trkpt><trkpt lat="43.6897522" lon="12.1698823"><ele>696.0</ele><time>2026-04-12T07:26:19.987Z</time></trkpt><trkpt lat="43.6896819" lon="12.1698378"><ele>696.0</ele><time>2026-04-12T07:26:23.067Z</time></trkpt><trkpt lat="43.6896124" lon="12.1697952"><ele>696.0</ele><time>2026-04-12T07:26:26.024Z</time></trkpt><trkpt lat="43.6895444" lon="12.1697662"><ele>696.0</ele><time>2026-04-12T07:26:28.987Z</time></trkpt><trkpt lat="43.6894797" lon="12.1698001"><ele>696.0</ele><time>2026-04-12T07:26:31.986Z</time></trkpt><trkpt lat="43.6894241" lon="12.1698618"><ele>695.5714285714286</ele><time>2026-04-12T07:26:34.986Z</time></trkpt><trkpt lat="43.6893587" lon="12.1698892"><ele>695.1428571428571</ele><time>2026-04-12T07:26:37.986Z</time></trkpt><trkpt lat="43.6892863" lon="12.1698793"><ele>694.7142857142858</ele><time>2026-04-12T07:26:43.021Z</time></trkpt><trkpt lat="43.6892123" lon="12.1698808"><ele>694.2857142857142</ele><time>2026-04-12T07:26:50.977Z</time></trkpt><trkpt lat="43.6891439" lon="12.1699008"><ele>693.8571428571429</ele><time>2026-04-12T07:26:55.987Z</time></trkpt><trkpt lat="43.6890788" lon="12.1698939"><ele>693.4285714285714</ele><time>2026-04-12T07:27:00.987Z</time></trkpt><trkpt lat="43.6890083" lon="12.1698907"><ele>693.0</ele><time>2026-04-12T07:27:07.987Z</time></trkpt><trkpt lat="43.6889532" lon="12.1699357"><ele>693.0</ele><time>2026-04-12T07:27:13.987Z</time></trkpt><trkpt lat="43.6889236" lon="12.1700266"><ele>693.0</ele><time>2026-04-12T07:27:19.987Z</time></trkpt><trkpt lat="43.6888595" lon="12.1700677"><ele>693.0</ele><time>2026-04-12T07:27:25.986Z</time></trkpt><trkpt lat="43.6887877" lon="12.1700883"><ele>693.0</ele><time>2026-04-12T07:27:31.986Z</time></trkpt><trkpt lat="43.6887276" lon="12.1700589"><ele>693.0</ele><time>2026-04-12T07:27:36.987Z</time></trkpt><trkpt lat="43.6886593" lon="12.1700421"><ele>693.0</ele><time>2026-04-12T07:27:42.986Z</time></trkpt><trkpt lat="43.6885917" lon="12.1700753"><ele>693.0</ele><time>2026-04-12T07:27:48.986Z</time></trkpt><trkpt lat="43.6885373" lon="12.1701194"><ele>696.4285714285714</ele><time>2026-04-12T07:27:54.01Z</time></trkpt><trkpt lat="43.6884894" lon="12.1701844"><ele>699.8571428571429</ele><time>2026-04-12T07:27:58.987Z</time></trkpt><trkpt lat="43.688444" lon="12.1702592"><ele>703.2857142857142</ele><time>2026-04-12T07:28:04.987Z</time></trkpt><trkpt lat="43.6884073" lon="12.1703414"><ele>706.7142857142858</ele><time>2026-04-12T07:28:10.987Z</time></trkpt><trkpt lat="43.6883625" lon="12.170413"><ele>710.1428571428571</ele><time>2026-04-12T07:28:17.987Z</time></trkpt><trkpt lat="43.6883303" lon="12.1704894"><ele>713.5714285714286</ele><time>2026-04-12T07:28:23.987Z</time></trkpt><trkpt lat="43.688263" lon="12.1705165"><ele>717.0</ele><time>2026-04-12T07:28:29.986Z</time></trkpt><trkpt lat="43.6881951" lon="12.1705114"><ele>717.0</ele><time>2026-04-12T07:28:34.987Z</time></trkpt><trkpt lat="43.6881349" lon="12.1704485"><ele>717.0</ele><time>2026-04-12T07:28:40.067Z</time></trkpt><trkpt lat="43.6880987" lon="12.1703607"><ele>717.0</ele><time>2026-04-12T07:28:44.941Z</time></trkpt><trkpt lat="43.6880613" lon="12.1702845"><ele>717.0</ele><time>2026-04-12T07:28:49.987Z</time></trkpt><trkpt lat="43.688029" lon="12.1702044"><ele>717.0</ele><time>2026-04-12T07:28:54.987Z</time></trkpt><trkpt lat="43.6879785" lon="12.1701399"><ele>717.0</ele><time>2026-04-12T07:29:00.978Z</time></trkpt><trkpt lat="43.6879275" lon="12.1700766"><ele>717.0</ele><time>2026-04-12T07:29:07.034Z</time></trkpt><trkpt lat="43.6878783" lon="12.1700015"><ele>717.0</ele><time>2026-04-12T07:29:14.061Z</time></trkpt><trkpt lat="43.6878593" lon="12.1699141"><ele>717.0</ele><time>2026-04-12T07:29:19.987Z</time></trkpt><trkpt lat="43.6878388" lon="12.1698298"><ele>717.0</ele><time>2026-04-12T07:29:24.987Z</time></trkpt><trkpt lat="43.6878231" lon="12.169737"><ele>717.0</ele><time>2026-04-12T07:29:29.981Z</time></trkpt><trkpt lat="43.6877987" lon="12.1696409"><ele>717.0</ele><time>2026-04-12T07:29:34.986Z</time></trkpt><trkpt lat="43.6878198" lon="12.1695588"><ele>717.0</ele><time>2026-04-12T07:29:38.983Z</time></trkpt><trkpt lat="43.6878886" lon="12.169542"><ele>717.0</ele><time>2026-04-12T07:29:42.986Z</time></trkpt><trkpt lat="43.6879575" lon="12.1695038"><ele>716.0</ele><time>2026-04-12T07:29:46.061Z</time></trkpt><trkpt lat="43.6880113" lon="12.1694547"><ele>715.0</ele><time>2026-04-12T07:29:49.055Z</time></trkpt><trkpt lat="43.6879852" lon="12.1693626"><ele>714.0</ele><time>2026-04-12T07:29:53.986Z</time></trkpt><trkpt lat="43.6879231" lon="12.1693026"><ele>713.0</ele><time>2026-04-12T07:29:59.987Z</time></trkpt><trkpt lat="43.6878503" lon="12.1692664"><ele>712.0</ele><time>2026-04-12T07:30:05.895Z</time></trkpt><trkpt lat="43.6877899" lon="12.1692327"><ele>711.0</ele><time>2026-04-12T07:30:11.986Z</time></trkpt><trkpt lat="43.687734" lon="12.1691783"><ele>710.0</ele><time>2026-04-12T07:30:18.987Z</time></trkpt><trkpt lat="43.6877028" lon="12.1690912"><ele>711.4285714285714</ele><time>2026-04-12T07:30:25.987Z</time></trkpt><trkpt lat="43.6876938" lon="12.1689972"><ele>712.8571428571429</ele><time>2026-04-12T07:30:32.986Z</time></trkpt><trkpt lat="43.6876981" lon="12.1689051"><ele>714.2857142857142</ele><time>2026-04-12T07:30:39.987Z</time></trkpt><trkpt lat="43.6877252" lon="12.1688166"><ele>715.7142857142858</ele><time>2026-04-12T07:30:47.986Z</time></trkpt><trkpt lat="43.6877548" lon="12.168727"><ele>717.1428571428572</ele><time>2026-04-12T07:30:55.987Z</time></trkpt><trkpt lat="43.6877654" lon="12.1686383"><ele>718.5714285714286</ele><time>2026-04-12T07:31:02.986Z</time></trkpt><trkpt lat="43.6877958" lon="12.1685571"><ele>720.0</ele><time>2026-04-12T07:31:09.986Z</time></trkpt><trkpt lat="43.6878351" lon="12.1684728"><ele>724.0</ele><time>2026-04-12T07:31:16.987Z</time></trkpt><trkpt lat="43.6878751" lon="12.1683929"><ele>728.0</ele><time>2026-04-12T07:31:23.987Z</time></trkpt><trkpt lat="43.6879158" lon="12.1683224"><ele>732.0</ele><time>2026-04-12T07:31:29.987Z</time></trkpt><trkpt lat="43.6879649" lon="12.1682633"><ele>736.0</ele><time>2026-04-12T07:31:35.986Z</time></trkpt><trkpt lat="43.6880152" lon="12.1682017"><ele>740.0</ele><time>2026-04-12T07:31:40.933Z</time></trkpt><trkpt lat="43.6880675" lon="12.1681412"><ele>744.0</ele><time>2026-04-12T07:31:45.986Z</time></trkpt><trkpt lat="43.6881035" lon="12.1680662"><ele>748.0</ele><time>2026-04-12T07:31:49.987Z</time></trkpt><trkpt lat="43.6881201" lon="12.1679689"><ele>750.1428571428571</ele><time>2026-04-12T07:31:52.987Z</time></trkpt><trkpt lat="43.6881349" lon="12.1678682"><ele>752.2857142857143</ele><time>2026-04-12T07:31:56.002Z</time></trkpt><trkpt lat="43.6881577" lon="12.1677787"><ele>754.4285714285714</ele><time>2026-04-12T07:31:58.987Z</time></trkpt><trkpt lat="43.6881857" lon="12.167691"><ele>756.5714285714286</ele><time>2026-04-12T07:32:02.987Z</time></trkpt><trkpt lat="43.688219" lon="12.1675962"><ele>758.7142857142858</ele><time>2026-04-12T07:32:06.902Z</time></trkpt><trkpt lat="43.6882492" lon="12.1675048"><ele>760.8571428571429</ele><time>2026-04-12T07:32:10.987Z</time></trkpt><trkpt lat="43.6882602" lon="12.1673913"><ele>763.0</ele><time>2026-04-12T07:32:14.986Z</time></trkpt><trkpt lat="43.6882873" lon="12.1672909"><ele>766.5714285714286</ele><time>2026-04-12T07:32:18.696Z</time></trkpt><trkpt lat="43.6882521" lon="12.1672051"><ele>770.1428571428571</ele><time>2026-04-12T07:32:28.987Z</time></trkpt><trkpt lat="43.6881952" lon="12.1671485"><ele>773.7142857142858</ele><time>2026-04-12T07:32:35.894Z</time></trkpt><trkpt lat="43.6881372" lon="12.1670971"><ele>777.2857142857142</ele><time>2026-04-12T07:32:42.986Z</time></trkpt><trkpt lat="43.6881014" lon="12.167025"><ele>780.8571428571429</ele><time>2026-04-12T07:32:48.987Z</time></trkpt><trkpt lat="43.6880683" lon="12.1669334"><ele>784.4285714285714</ele><time>2026-04-12T07:32:54.976Z</time></trkpt><trkpt lat="43.6880026" lon="12.1668779"><ele>788.0</ele><time>2026-04-12T07:33:00.986Z</time></trkpt><trkpt lat="43.6879454" lon="12.1668303"><ele>788.0</ele><time>2026-04-12T07:33:03.986Z</time></trkpt><trkpt lat="43.6879235" lon="12.1667173"><ele>788.0</ele><time>2026-04-12T07:33:07.96Z</time></trkpt><trkpt lat="43.6879084" lon="12.1666317"><ele>788.0</ele><time>2026-04-12T07:33:12.987Z</time></trkpt><trkpt lat="43.68787" lon="12.1665576"><ele>788.0</ele><time>2026-04-12T07:33:18.987Z</time></trkpt><trkpt lat="43.6878269" lon="12.1664877"><ele>788.0</ele><time>2026-04-12T07:33:24.987Z</time></trkpt><trkpt lat="43.687759" lon="12.1664321"><ele>788.0</ele><time>2026-04-12T07:33:29.987Z</time></trkpt><trkpt lat="43.6876878" lon="12.166409"><ele>788.0</ele><time>2026-04-12T07:33:32.987Z</time></trkpt><trkpt lat="43.6876168" lon="12.1663854"><ele>789.8571428571429</ele><time>2026-04-12T07:33:35.987Z</time></trkpt><trkpt lat="43.6875501" lon="12.1663816"><ele>791.7142857142858</ele><time>2026-04-12T07:33:38.873Z</time></trkpt><trkpt lat="43.6874708" lon="12.1663923"><ele>793.5714285714286</ele><time>2026-04-12T07:33:42.987Z</time></trkpt><trkpt lat="43.6873932" lon="12.1664175"><ele>795.4285714285714</ele><time>2026-04-12T07:33:46.987Z</time></trkpt><trkpt lat="43.6873278" lon="12.1664139"><ele>797.2857142857142</ele><time>2026-04-12T07:33:49.919Z</time></trkpt><trkpt lat="43.6872741" lon="12.1663479"><ele>799.1428571428571</ele><time>2026-04-12T07:33:53.986Z</time></trkpt><trkpt lat="43.6872023" lon="12.1663179"><ele>801.0</ele><time>2026-04-12T07:33:57.987Z</time></trkpt><trkpt lat="43.6871342" lon="12.1663217"><ele>801.0</ele><time>2026-04-12T07:34:01.986Z</time></trkpt><trkpt lat="43.6870672" lon="12.166344"><ele>801.0</ele><time>2026-04-12T07:34:04.987Z</time></trkpt><trkpt lat="43.6869959" lon="12.1663607"><ele>801.0</ele><time>2026-04-12T07:34:07.935Z</time></trkpt><trkpt lat="43.6869219" lon="12.1663453"><ele>801.0</ele><time>2026-04-12T07:34:11.987Z</time></trkpt><trkpt lat="43.6868652" lon="12.1663026"><ele>801.0</ele><time>2026-04-12T07:34:14.956Z</time></trkpt><trkpt lat="43.6868012" lon="12.1662821"><ele>801.0</ele><time>2026-04-12T07:34:17.986Z</time></trkpt><trkpt lat="43.6867168" lon="12.1662566"><ele>801.0</ele><time>2026-04-12T07:34:21.943Z</time></trkpt><trkpt lat="43.6866474" lon="12.1662464"><ele>799.0</ele><time>2026-04-12T07:34:24.986Z</time></trkpt><trkpt lat="43.6865813" lon="12.1662219"><ele>797.0</ele><time>2026-04-12T07:34:29.987Z</time></trkpt><trkpt lat="43.6865281" lon="12.1661612"><ele>795.0</ele><time>2026-04-12T07:34:35.987Z</time></trkpt><trkpt lat="43.6865012" lon="12.1660803"><ele>793.0</ele><time>2026-04-12T07:34:40.897Z</time></trkpt><trkpt lat="43.6864964" lon="12.1659841"><ele>791.0</ele><time>2026-04-12T07:34:46.02Z</time></trkpt><trkpt lat="43.6865138" lon="12.1658918"><ele>789.0</ele><time>2026-04-12T07:34:50.96Z</time></trkpt><trkpt lat="43.6865236" lon="12.1658056"><ele>787.0</ele><time>2026-04-12T07:34:55.987Z</time></trkpt><trkpt lat="43.6864673" lon="12.1657226"><ele>791.1428571428571</ele><time>2026-04-12T07:34:59.987Z</time></trkpt><trkpt lat="43.6863936" lon="12.1656932"><ele>795.2857142857142</ele><time>2026-04-12T07:35:02.956Z</time></trkpt><trkpt lat="43.6863304" lon="12.1656547"><ele>799.4285714285714</ele><time>2026-04-12T07:35:05.986Z</time></trkpt><trkpt lat="43.6862855" lon="12.1655884"><ele>803.5714285714286</ele><time>2026-04-12T07:35:09.987Z</time></trkpt><trkpt lat="43.6862585" lon="12.1655029"><ele>807.7142857142858</ele><time>2026-04-12T07:35:14.987Z</time></trkpt><trkpt lat="43.6862365" lon="12.1654188"><ele>811.8571428571429</ele><time>2026-04-12T07:35:20.004Z</time></trkpt><trkpt lat="43.6862091" lon="12.1653365"><ele>816.0</ele><time>2026-04-12T07:35:24.987Z</time></trkpt><trkpt lat="43.6861585" lon="12.1652612"><ele>816.0</ele><time>2026-04-12T07:35:30.986Z</time></trkpt><trkpt lat="43.686127" lon="12.1651666"><ele>816.0</ele><time>2026-04-12T07:35:36.067Z</time></trkpt><trkpt lat="43.6861051" lon="12.165074"><ele>816.0</ele><time>2026-04-12T07:35:39.987Z</time></trkpt><trkpt lat="43.6860728" lon="12.1649961"><ele>816.0</ele><time>2026-04-12T07:35:43.987Z</time></trkpt><trkpt lat="43.6860226" lon="12.1649364"><ele>816.0</ele><time>2026-04-12T07:35:48.048Z</time></trkpt><trkpt lat="43.6859694" lon="12.1648781"><ele>816.0</ele><time>2026-04-12T07:35:52.987Z</time></trkpt><trkpt lat="43.6859298" lon="12.1648044"><ele>816.0</ele><time>2026-04-12T07:35:57.986Z</time></trkpt><trkpt lat="43.6859127" lon="12.1647197"><ele>812.2857142857143</ele><time>2026-04-12T07:36:02.987Z</time></trkpt><trkpt lat="43.6859125" lon="12.1646276"><ele>808.5714285714287</ele><time>2026-04-12T07:36:07.987Z</time></trkpt><trkpt lat="43.6859149" lon="12.1645319"><ele>804.8571428571429</ele><time>2026-04-12T07:36:12.92Z</time></trkpt><trkpt lat="43.6859066" lon="12.1644433"><ele>801.1428571428571</ele><time>2026-04-12T07:36:17.987Z</time></trkpt><trkpt lat="43.6858998" lon="12.1643534"><ele>797.4285714285714</ele><time>2026-04-12T07:36:21.936Z</time></trkpt><trkpt lat="43.6858995" lon="12.1642644"><ele>793.7142857142857</ele><time>2026-04-12T07:36:24.986Z</time></trkpt><trkpt lat="43.6859024" lon="12.1641771"><ele>790.0</ele><time>2026-04-12T07:36:27.987Z</time></trkpt><trkpt lat="43.68589" lon="12.1640865"><ele>791.4999999999999</ele><time>2026-04-12T07:36:30.987Z</time></trkpt><trkpt lat="43.6858785" lon="12.1639731"><ele>793.0</ele><time>2026-04-12T07:36:34.986Z</time></trkpt><trkpt lat="43.6858393" lon="12.163898"><ele>794.5</ele><time>2026-04-12T07:36:37.987Z</time></trkpt><trkpt lat="43.6857704" lon="12.1638426"><ele>796.0</ele><time>2026-04-12T07:36:40.986Z</time></trkpt><trkpt lat="43.6857013" lon="12.1637829"><ele>797.4999999999999</ele><time>2026-04-12T07:36:43.987Z</time></trkpt><trkpt lat="43.6856297" lon="12.1637484"><ele>799.0</ele><time>2026-04-12T07:36:46.987Z</time></trkpt><trkpt lat="43.6855632" lon="12.1637334"><ele>798.9999999999999</ele><time>2026-04-12T07:36:49.537Z</time></trkpt><trkpt lat="43.6854957" lon="12.1637281"><ele>799.0</ele><time>2026-04-12T07:36:51.956Z</time></trkpt><trkpt lat="43.6854035" lon="12.1637244"><ele>799.0</ele><time>2026-04-12T07:36:54.987Z</time></trkpt><trkpt lat="43.685312" lon="12.1637165"><ele>799.0</ele><time>2026-04-12T07:36:58.06Z</time></trkpt><trkpt lat="43.6852352" lon="12.1636966"><ele>798.9999999999999</ele><time>2026-04-12T07:37:00.987Z</time></trkpt><trkpt lat="43.68516" lon="12.1636736"><ele>799.0</ele><time>2026-04-12T07:37:03.987Z</time></trkpt><trkpt lat="43.6850909" lon="12.1636555"><ele>799.0</ele><time>2026-04-12T07:37:06.941Z</time></trkpt><trkpt lat="43.6850159" lon="12.1636292"><ele>799.0</ele><time>2026-04-12T07:37:09.987Z</time></trkpt><trkpt lat="43.6849388" lon="12.1636057"><ele>799.0</ele><time>2026-04-12T07:37:12.986Z</time></trkpt><trkpt lat="43.6848705" lon="12.1635926"><ele>799.0</ele><time>2026-04-12T07:37:15.987Z</time></trkpt><trkpt lat="43.6848052" lon="12.1635984"><ele>799.0</ele><time>2026-04-12T07:37:20.062Z</time></trkpt><trkpt lat="43.6847405" lon="12.1636294"><ele>799.0</ele><time>2026-04-12T07:37:24.987Z</time></trkpt><trkpt lat="43.6846755" lon="12.1636831"><ele>799.0</ele><time>2026-04-12T07:37:30.032Z</time></trkpt><trkpt lat="43.6846172" lon="12.1637493"><ele>799.0</ele><time>2026-04-12T07:37:34.987Z</time></trkpt><trkpt lat="43.6845562" lon="12.1638124"><ele>799.0</ele><time>2026-04-12T07:37:40.019Z</time></trkpt><trkpt lat="43.6844938" lon="12.163869"><ele>799.0</ele><time>2026-04-12T07:37:44.987Z</time></trkpt><trkpt lat="43.6844347" lon="12.1639255"><ele>799.0</ele><time>2026-04-12T07:37:50.051Z</time></trkpt><trkpt lat="43.6843807" lon="12.1639921"><ele>799.0</ele><time>2026-04-12T07:37:54.938Z</time></trkpt><trkpt lat="43.6843305" lon="12.1640626"><ele>799.0</ele><time>2026-04-12T07:37:59.986Z</time></trkpt><trkpt lat="43.6842771" lon="12.1641218"><ele>799.0</ele><time>2026-04-12T07:38:04.984Z</time></trkpt><trkpt lat="43.6842135" lon="12.1641569"><ele>799.2857142857143</ele><time>2026-04-12T07:38:09.986Z</time></trkpt><trkpt lat="43.6841523" lon="12.1641956"><ele>799.5714285714286</ele><time>2026-04-12T07:38:14.986Z</time></trkpt><trkpt lat="43.6840974" lon="12.1642576"><ele>799.8571428571429</ele><time>2026-04-12T07:38:19.987Z</time></trkpt><trkpt lat="43.6840461" lon="12.1643223"><ele>800.1428571428571</ele><time>2026-04-12T07:38:24.986Z</time></trkpt><trkpt lat="43.6840062" lon="12.1643985"><ele>800.4285714285713</ele><time>2026-04-12T07:38:29.987Z</time></trkpt><trkpt lat="43.6839564" lon="12.1644583"><ele>800.7142857142857</ele><time>2026-04-12T07:38:34.987Z</time></trkpt><trkpt lat="43.6839099" lon="12.1645269"><ele>801.0</ele><time>2026-04-12T07:38:39.987Z</time></trkpt><trkpt lat="43.6838567" lon="12.1645852"><ele>801.0</ele><time>2026-04-12T07:38:44.986Z</time></trkpt><trkpt lat="43.6838037" lon="12.1646399"><ele>801.0</ele><time>2026-04-12T07:38:49.987Z</time></trkpt><trkpt lat="43.6837511" lon="12.1647111"><ele>801.0</ele><time>2026-04-12T07:38:55.818Z</time></trkpt><trkpt lat="43.6837026" lon="12.1647764"><ele>801.0</ele><time>2026-04-12T07:39:00.987Z</time></trkpt><trkpt lat="43.6836509" lon="12.1648288"><ele>801.0</ele><time>2026-04-12T07:39:40.986Z</time></trkpt><trkpt lat="43.6835846" lon="12.1648087"><ele>801.0</ele><time>2026-04-12T07:39:44.987Z</time></trkpt><trkpt lat="43.6835166" lon="12.1648111"><ele>801.0</ele><time>2026-04-12T07:39:48.987Z</time></trkpt><trkpt lat="43.68344" lon="12.1648017"><ele>801.4285714285714</ele><time>2026-04-12T07:39:53.987Z</time></trkpt><trkpt lat="43.683372" lon="12.1648115"><ele>801.8571428571429</ele><time>2026-04-12T07:39:57.987Z</time></trkpt><trkpt lat="43.683304" lon="12.1648285"><ele>802.2857142857142</ele><time>2026-04-12T07:40:02.987Z</time></trkpt><trkpt lat="43.6832307" lon="12.1648462"><ele>802.7142857142858</ele><time>2026-04-12T07:40:07.986Z</time></trkpt><trkpt lat="43.6831587" lon="12.1648656"><ele>803.1428571428572</ele><time>2026-04-12T07:40:13.056Z</time></trkpt><trkpt lat="43.6830942" lon="12.1648839"><ele>803.5714285714286</ele><time>2026-04-12T07:40:17.876Z</time></trkpt><trkpt lat="43.6830283" lon="12.1649246"><ele>804.0</ele><time>2026-04-12T07:40:22.987Z</time></trkpt><trkpt lat="43.6829586" lon="12.1649471"><ele>804.0</ele><time>2026-04-12T07:40:27.987Z</time></trkpt><trkpt lat="43.6828922" lon="12.1649744"><ele>804.0</ele><time>2026-04-12T07:40:33.038Z</time></trkpt><trkpt lat="43.6828294" lon="12.1649979"><ele>804.0</ele><time>2026-04-12T07:40:37.986Z</time></trkpt><trkpt lat="43.6827563" lon="12.1650302"><ele>804.0</ele><time>2026-04-12T07:40:42.987Z</time></trkpt><trkpt lat="43.6826863" lon="12.1650678"><ele>804.0</ele><time>2026-04-12T07:40:47.987Z</time></trkpt><trkpt lat="43.6826325" lon="12.1651287"><ele>804.0</ele><time>2026-04-12T07:40:52.987Z</time></trkpt><trkpt lat="43.682597" lon="12.165208"><ele>804.0</ele><time>2026-04-12T07:40:56.987Z</time></trkpt><trkpt lat="43.6825875" lon="12.1653128"><ele>802.5</ele><time>2026-04-12T07:40:59.987Z</time></trkpt><trkpt lat="43.6826043" lon="12.1654169"><ele>801.0</ele><time>2026-04-12T07:41:02.987Z</time></trkpt><trkpt lat="43.6826127" lon="12.1655199"><ele>799.5</ele><time>2026-04-12T07:41:05.894Z</time></trkpt><trkpt lat="43.6826338" lon="12.1656299"><ele>798.0</ele><time>2026-04-12T07:41:09.056Z</time></trkpt><trkpt lat="43.6826705" lon="12.1657076"><ele>796.5</ele><time>2026-04-12T07:41:11.987Z</time></trkpt><trkpt lat="43.6827098" lon="12.1658068"><ele>795.0</ele><time>2026-04-12T07:41:15.987Z</time></trkpt><trkpt lat="43.6827481" lon="12.1658841"><ele>795.0</ele><time>2026-04-12T07:41:18.987Z</time></trkpt><trkpt lat="43.6827794" lon="12.1659875"><ele>795.0</ele><time>2026-04-12T07:41:22.986Z</time></trkpt><trkpt lat="43.6828073" lon="12.166069"><ele>795.0</ele><time>2026-04-12T07:41:26.06Z</time></trkpt><trkpt lat="43.6828605" lon="12.1661524"><ele>795.0</ele><time>2026-04-12T07:41:30.022Z</time></trkpt><trkpt lat="43.6828377" lon="12.1662451"><ele>795.0</ele><time>2026-04-12T07:41:33.986Z</time></trkpt><trkpt lat="43.6827813" lon="12.1663071"><ele>795.0</ele><time>2026-04-12T07:41:38.002Z</time></trkpt><trkpt lat="43.6827166" lon="12.1663409"><ele>795.0</ele><time>2026-04-12T07:41:40.994Z</time></trkpt><trkpt lat="43.6826532" lon="12.1663808"><ele>795.0</ele><time>2026-04-12T07:41:43.986Z</time></trkpt><trkpt lat="43.682572" lon="12.166378"><ele>795.0</ele><time>2026-04-12T07:41:47.987Z</time></trkpt><trkpt lat="43.6824984" lon="12.1663595"><ele>795.0</ele><time>2026-04-12T07:41:51.986Z</time></trkpt><trkpt lat="43.682425" lon="12.1663297"><ele>795.0</ele><time>2026-04-12T07:41:55.986Z</time></trkpt><trkpt lat="43.6823487" lon="12.1663324"><ele>795.0</ele><time>2026-04-12T07:42:00.986Z</time></trkpt><trkpt lat="43.6822851" lon="12.1663598"><ele>795.0</ele><time>2026-04-12T07:42:04.987Z</time></trkpt><trkpt lat="43.6822171" lon="12.1664229"><ele>795.0</ele><time>2026-04-12T07:42:09.059Z</time></trkpt><trkpt lat="43.6821464" lon="12.1664354"><ele>795.0</ele><time>2026-04-12T07:42:12.986Z</time></trkpt><trkpt lat="43.682075" lon="12.166436"><ele>795.0</ele><time>2026-04-12T07:42:17.987Z</time></trkpt><trkpt lat="43.6819973" lon="12.1664376"><ele>795.0</ele><time>2026-04-12T07:42:22.086Z</time></trkpt><trkpt lat="43.6819288" lon="12.1664197"><ele>795.0</ele><time>2026-04-12T07:42:25.997Z</time></trkpt><trkpt lat="43.6818539" lon="12.1664213"><ele>795.0</ele><time>2026-04-12T07:42:29.987Z</time></trkpt><trkpt lat="43.6817815" lon="12.1663952"><ele>795.0</ele><time>2026-04-12T07:42:33.986Z</time></trkpt><trkpt lat="43.6817334" lon="12.16632"><ele>792.5</ele><time>2026-04-12T07:42:37.981Z</time></trkpt><trkpt lat="43.681696" lon="12.1662399"><ele>790.0</ele><time>2026-04-12T07:42:42.986Z</time></trkpt><trkpt lat="43.6816259" lon="12.1661998"><ele>787.5</ele><time>2026-04-12T07:42:48.029Z</time></trkpt><trkpt lat="43.6815583" lon="12.1661986"><ele>785.0</ele><time>2026-04-12T07:42:52.986Z</time></trkpt><trkpt lat="43.6815679" lon="12.1663072"><ele>782.5</ele><time>2026-04-12T07:42:57.054Z</time></trkpt><trkpt lat="43.6815976" lon="12.1664066"><ele>780.0</ele><time>2026-04-12T07:43:00.051Z</time></trkpt><trkpt lat="43.6816145" lon="12.1665195"><ele>777.0</ele><time>2026-04-12T07:43:03.986Z</time></trkpt><trkpt lat="43.6816274" lon="12.1666237"><ele>774.0</ele><time>2026-04-12T07:43:06.987Z</time></trkpt><trkpt lat="43.6816542" lon="12.1667264"><ele>771.0</ele><time>2026-04-12T07:43:10.058Z</time></trkpt><trkpt lat="43.6816675" lon="12.1668258"><ele>768.0</ele><time>2026-04-12T07:43:12.987Z</time></trkpt><trkpt lat="43.6816579" lon="12.1669242"><ele>765.0</ele><time>2026-04-12T07:43:15.897Z</time></trkpt><trkpt lat="43.6816096" lon="12.1670175"><ele>762.0</ele><time>2026-04-12T07:43:18.987Z</time></trkpt><trkpt lat="43.6815329" lon="12.1670727"><ele>762.0</ele><time>2026-04-12T07:43:21.987Z</time></trkpt><trkpt lat="43.6814528" lon="12.1671141"><ele>762.0</ele><time>2026-04-12T07:43:24.987Z</time></trkpt><trkpt lat="43.6813884" lon="12.1671212"><ele>762.0</ele><time>2026-04-12T07:43:27.987Z</time></trkpt><trkpt lat="43.681334" lon="12.1670719"><ele>762.0</ele><time>2026-04-12T07:43:30.956Z</time></trkpt><trkpt lat="43.6812703" lon="12.1670172"><ele>762.0</ele><time>2026-04-12T07:43:33.987Z</time></trkpt><trkpt lat="43.6812103" lon="12.1669682"><ele>762.0</ele><time>2026-04-12T07:43:36.987Z</time></trkpt><trkpt lat="43.6811463" lon="12.166932"><ele>762.0</ele><time>2026-04-12T07:43:42.987Z</time></trkpt><trkpt lat="43.6810777" lon="12.1668945"><ele>762.0</ele><time>2026-04-12T07:43:49.987Z</time></trkpt><trkpt lat="43.6810351" lon="12.1669701"><ele>762.0</ele><time>2026-04-12T07:43:53.987Z</time></trkpt><trkpt lat="43.6810525" lon="12.1670668"><ele>762.0</ele><time>2026-04-12T07:43:58.94Z</time></trkpt><trkpt lat="43.6811015" lon="12.1671273"><ele>762.0</ele><time>2026-04-12T07:44:03.896Z</time></trkpt><trkpt lat="43.68114" lon="12.1672123"><ele>762.0</ele><time>2026-04-12T07:44:08.986Z</time></trkpt><trkpt lat="43.6811877" lon="12.1672839"><ele>762.0</ele><time>2026-04-12T07:44:13.987Z</time></trkpt><trkpt lat="43.6812271" lon="12.1673762"><ele>762.0</ele><time>2026-04-12T07:44:18.987Z</time></trkpt><trkpt lat="43.6812686" lon="12.1674538"><ele>761.4285714285714</ele><time>2026-04-12T07:44:23.987Z</time></trkpt><trkpt lat="43.6813132" lon="12.1675153"><ele>760.8571428571429</ele><time>2026-04-12T07:44:28.064Z</time></trkpt><trkpt lat="43.6813766" lon="12.1675504"><ele>760.2857142857143</ele><time>2026-04-12T07:44:32.987Z</time></trkpt><trkpt lat="43.6814399" lon="12.1675755"><ele>759.7142857142858</ele><time>2026-04-12T07:44:37.986Z</time></trkpt><trkpt lat="43.6815042" lon="12.1676036"><ele>759.1428571428571</ele><time>2026-04-12T07:44:42.953Z</time></trkpt><trkpt lat="43.6815742" lon="12.167615"><ele>758.5714285714287</ele><time>2026-04-12T07:44:47.987Z</time></trkpt><trkpt lat="43.6816521" lon="12.1675982"><ele>758.0</ele><time>2026-04-12T07:44:52.986Z</time></trkpt><trkpt lat="43.6817147" lon="12.1675793"><ele>758.0000000000001</ele><time>2026-04-12T07:44:56.986Z</time></trkpt><trkpt lat="43.6817857" lon="12.1675678"><ele>758.0</ele><time>2026-04-12T07:45:01.92Z</time></trkpt><trkpt lat="43.6818537" lon="12.1675695"><ele>758.0</ele><time>2026-04-12T07:45:06.986Z</time></trkpt><trkpt lat="43.68191" lon="12.1676164"><ele>758.0</ele><time>2026-04-12T07:45:11.987Z</time></trkpt><trkpt lat="43.6819544" lon="12.1676941"><ele>758.0</ele><time>2026-04-12T07:45:16.986Z</time></trkpt><trkpt lat="43.6819432" lon="12.1677917"><ele>758.0000000000001</ele><time>2026-04-12T07:45:22.894Z</time></trkpt><trkpt lat="43.6818829" lon="12.1678318"><ele>758.0</ele><time>2026-04-12T07:45:27.987Z</time></trkpt><trkpt lat="43.6818213" lon="12.1678609"><ele>758.0000000000001</ele><time>2026-04-12T07:45:32.986Z</time></trkpt><trkpt lat="43.6817599" lon="12.1678947"><ele>758.0</ele><time>2026-04-12T07:45:38.053Z</time></trkpt><trkpt lat="43.6817022" lon="12.1679469"><ele>758.0</ele><time>2026-04-12T07:45:42.987Z</time></trkpt><trkpt lat="43.6816486" lon="12.1680093"><ele>758.0</ele><time>2026-04-12T07:45:48.013Z</time></trkpt><trkpt lat="43.6816628" lon="12.1681075"><ele>758.0</ele><time>2026-04-12T07:45:52.986Z</time></trkpt><trkpt lat="43.6817287" lon="12.1681482"><ele>758.0000000000001</ele><time>2026-04-12T07:45:57.987Z</time></trkpt><trkpt lat="43.6817863" lon="12.1682062"><ele>758.0</ele><time>2026-04-12T07:46:03.986Z</time></trkpt><trkpt lat="43.6818367" lon="12.1682723"><ele>760.4285714285714</ele><time>2026-04-12T07:46:09.959Z</time></trkpt><trkpt lat="43.6818867" lon="12.1683348"><ele>762.8571428571429</ele><time>2026-04-12T07:46:15.987Z</time></trkpt><trkpt lat="43.6818479" lon="12.1684068"><ele>765.2857142857142</ele><time>2026-04-12T07:46:22.987Z</time></trkpt><trkpt lat="43.6817834" lon="12.1683918"><ele>767.7142857142858</ele><time>2026-04-12T07:46:27.986Z</time></trkpt><trkpt lat="43.6817207" lon="12.1683672"><ele>770.1428571428571</ele><time>2026-04-12T07:46:33.987Z</time></trkpt><trkpt lat="43.6816521" lon="12.1683729"><ele>772.5714285714286</ele><time>2026-04-12T07:46:41.986Z</time></trkpt><trkpt lat="43.6815983" lon="12.1684257"><ele>775.0</ele><time>2026-04-12T07:46:49.986Z</time></trkpt><trkpt lat="43.681535" lon="12.1684661"><ele>774.9999999999999</ele><time>2026-04-12T07:46:57.987Z</time></trkpt><trkpt lat="43.6814703" lon="12.1684331"><ele>775.0</ele><time>2026-04-12T07:47:03.987Z</time></trkpt><trkpt lat="43.6813958" lon="12.1684311"><ele>775.0</ele><time>2026-04-12T07:47:10.987Z</time></trkpt><trkpt lat="43.6813275" lon="12.1684121"><ele>775.0</ele><time>2026-04-12T07:47:17.986Z</time></trkpt><trkpt lat="43.681257" lon="12.1684138"><ele>775.0</ele><time>2026-04-12T07:47:23.986Z</time></trkpt><trkpt lat="43.6811904" lon="12.1684246"><ele>774.9999999999999</ele><time>2026-04-12T07:47:29.986Z</time></trkpt><trkpt lat="43.681126" lon="12.1684189"><ele>775.0</ele><time>2026-04-12T07:47:35.987Z</time></trkpt><trkpt lat="43.6810604" lon="12.1683987"><ele>779.2857142857142</ele><time>2026-04-12T07:47:42.987Z</time></trkpt><trkpt lat="43.6809974" lon="12.1683853"><ele>783.5714285714286</ele><time>2026-04-12T07:47:48.987Z</time></trkpt><trkpt lat="43.6809318" lon="12.1683733"><ele>787.8571428571429</ele><time>2026-04-12T07:47:55.986Z</time></trkpt><trkpt lat="43.6808692" lon="12.1683872"><ele>792.1428571428571</ele><time>2026-04-12T07:48:02.987Z</time></trkpt><trkpt lat="43.6808007" lon="12.1684064"><ele>796.4285714285714</ele><time>2026-04-12T07:48:09.987Z</time></trkpt><trkpt lat="43.6807335" lon="12.1684072"><ele>800.7142857142857</ele><time>2026-04-12T07:48:17.986Z</time></trkpt><trkpt lat="43.6806651" lon="12.1683857"><ele>805.0</ele><time>2026-04-12T07:48:26.987Z</time></trkpt><trkpt lat="43.6806107" lon="12.1684402"><ele>805.0</ele><time>2026-04-12T07:48:36.987Z</time></trkpt><trkpt lat="43.6805965" lon="12.1685298"><ele>805.0</ele><time>2026-04-12T07:48:43.987Z</time></trkpt><trkpt lat="43.6806323" lon="12.1686102"><ele>805.0</ele><time>2026-04-12T07:48:51.987Z</time></trkpt><trkpt lat="43.6807004" lon="12.1686062"><ele>805.0</ele><time>2026-04-12T07:48:58.987Z</time></trkpt><trkpt lat="43.6807692" lon="12.1686295"><ele>805.0</ele><time>2026-04-12T07:49:05.987Z</time></trkpt><trkpt lat="43.6808291" lon="12.168671"><ele>805.0</ele><time>2026-04-12T07:49:11.987Z</time></trkpt><trkpt lat="43.6808814" lon="12.1687262"><ele>805.0</ele><time>2026-04-12T07:49:17.987Z</time></trkpt><trkpt lat="43.680925" lon="12.1688032"><ele>805.0</ele><time>2026-04-12T07:49:25.987Z</time></trkpt><trkpt lat="43.6809703" lon="12.1688677"><ele>805.0</ele><time>2026-04-12T07:49:32.987Z</time></trkpt><trkpt lat="43.6810212" lon="12.1689335"><ele>805.0</ele><time>2026-04-12T07:49:39.987Z</time></trkpt><trkpt lat="43.6810633" lon="12.1690114"><ele>805.0</ele><time>2026-04-12T07:49:47.986Z</time></trkpt><trkpt lat="43.6810882" lon="12.1690942"><ele>805.0</ele><time>2026-04-12T07:49:54.986Z</time></trkpt><trkpt lat="43.6810821" lon="12.1691827"><ele>805.0</ele><time>2026-04-12T07:50:01.987Z</time></trkpt><trkpt lat="43.6810647" lon="12.1692724"><ele>805.0</ele><time>2026-04-12T07:50:07.987Z</time></trkpt><trkpt lat="43.6810559" lon="12.1693615"><ele>803.5714285714286</ele><time>2026-04-12T07:50:12.996Z</time></trkpt><trkpt lat="43.6810595" lon="12.1694776"><ele>802.1428571428571</ele><time>2026-04-12T07:50:16.894Z</time></trkpt><trkpt lat="43.6810952" lon="12.1695514"><ele>800.7142857142858</ele><time>2026-04-12T07:50:19.986Z</time></trkpt><trkpt lat="43.6811395" lon="12.1696169"><ele>799.2857142857142</ele><time>2026-04-12T07:50:22.986Z</time></trkpt><trkpt lat="43.6811921" lon="12.1696755"><ele>797.8571428571429</ele><time>2026-04-12T07:50:25.961Z</time></trkpt><trkpt lat="43.681249" lon="12.1697318"><ele>796.4285714285714</ele><time>2026-04-12T07:50:28.987Z</time></trkpt><trkpt lat="43.6813097" lon="12.1697811"><ele>795.0</ele><time>2026-04-12T07:50:31.986Z</time></trkpt><trkpt lat="43.6813742" lon="12.1698189"><ele>795.0</ele><time>2026-04-12T07:50:34.894Z</time></trkpt><trkpt lat="43.6814403" lon="12.1698582"><ele>795.0</ele><time>2026-04-12T07:50:37.939Z</time></trkpt><trkpt lat="43.6815004" lon="12.1699003"><ele>795.0</ele><time>2026-04-12T07:50:40.987Z</time></trkpt><trkpt lat="43.6815642" lon="12.1699329"><ele>795.0</ele><time>2026-04-12T07:50:43.987Z</time></trkpt><trkpt lat="43.6816291" lon="12.1699608"><ele>795.0</ele><time>2026-04-12T07:50:46.921Z</time></trkpt><trkpt lat="43.6817014" lon="12.1699693"><ele>795.0</ele><time>2026-04-12T07:50:49.982Z</time></trkpt><trkpt lat="43.681772" lon="12.1699846"><ele>795.0</ele><time>2026-04-12T07:50:52.987Z</time></trkpt><trkpt lat="43.6818402" lon="12.1700088"><ele>794.1428571428571</ele><time>2026-04-12T07:50:55.987Z</time></trkpt><trkpt lat="43.6819112" lon="12.1700488"><ele>793.2857142857143</ele><time>2026-04-12T07:50:58.913Z</time></trkpt><trkpt lat="43.681974" lon="12.1700966"><ele>792.4285714285713</ele><time>2026-04-12T07:51:01.987Z</time></trkpt><trkpt lat="43.6820244" lon="12.1701629"><ele>791.5714285714286</ele><time>2026-04-12T07:51:04.987Z</time></trkpt><trkpt lat="43.6820685" lon="12.1702382"><ele>790.7142857142857</ele><time>2026-04-12T07:51:07.987Z</time></trkpt><trkpt lat="43.6821263" lon="12.1703216"><ele>789.8571428571428</ele><time>2026-04-12T07:51:11.977Z</time></trkpt><trkpt lat="43.6821831" lon="12.1703719"><ele>789.0</ele><time>2026-04-12T07:51:14.987Z</time></trkpt><trkpt lat="43.6822414" lon="12.1704154"><ele>788.9999999999999</ele><time>2026-04-12T07:51:17.987Z</time></trkpt><trkpt lat="43.6823207" lon="12.1704441"><ele>789.0</ele><time>2026-04-12T07:51:20.987Z</time></trkpt><trkpt lat="43.6824058" lon="12.1704563"><ele>789.0</ele><time>2026-04-12T07:51:23.986Z</time></trkpt><trkpt lat="43.6824762" lon="12.1704648"><ele>789.0</ele><time>2026-04-12T07:51:26.921Z</time></trkpt><trkpt lat="43.682545" lon="12.1704862"><ele>789.0</ele><time>2026-04-12T07:51:29.937Z</time></trkpt><trkpt lat="43.6826117" lon="12.17051"><ele>788.9999999999999</ele><time>2026-04-12T07:51:32.982Z</time></trkpt><trkpt lat="43.6826726" lon="12.1705393"><ele>789.0</ele><time>2026-04-12T07:51:35.987Z</time></trkpt><trkpt lat="43.68274" lon="12.1706025"><ele>790.5714285714286</ele><time>2026-04-12T07:51:39.987Z</time></trkpt><trkpt lat="43.6827971" lon="12.1706727"><ele>792.1428571428571</ele><time>2026-04-12T07:51:43.834Z</time></trkpt><trkpt lat="43.6828576" lon="12.1707376"><ele>793.7142857142858</ele><time>2026-04-12T07:51:47.986Z</time></trkpt><trkpt lat="43.6829214" lon="12.1707875"><ele>795.2857142857142</ele><time>2026-04-12T07:51:51.901Z</time></trkpt><trkpt lat="43.6829809" lon="12.1708212"><ele>796.8571428571429</ele><time>2026-04-12T07:51:54.954Z</time></trkpt><trkpt lat="43.6830434" lon="12.1708346"><ele>798.4285714285714</ele><time>2026-04-12T07:51:58.004Z</time></trkpt><trkpt lat="43.6831187" lon="12.1708519"><ele>800.0</ele><time>2026-04-12T07:52:01.986Z</time></trkpt><trkpt lat="43.6831924" lon="12.1708885"><ele>800.0000000000001</ele><time>2026-04-12T07:52:05.986Z</time></trkpt><trkpt lat="43.6832442" lon="12.1709441"><ele>800.0</ele><time>2026-04-12T07:52:08.987Z</time></trkpt><trkpt lat="43.6832912" lon="12.1710122"><ele>800.0</ele><time>2026-04-12T07:52:11.953Z</time></trkpt><trkpt lat="43.683334" lon="12.1710898"><ele>800.0</ele><time>2026-04-12T07:52:15.018Z</time></trkpt><trkpt lat="43.6833792" lon="12.171154"><ele>800.0</ele><time>2026-04-12T07:52:17.986Z</time></trkpt><trkpt lat="43.6834406" lon="12.1712048"><ele>800.0000000000001</ele><time>2026-04-12T07:52:20.987Z</time></trkpt><trkpt lat="43.6835046" lon="12.1712357"><ele>800.0</ele><time>2026-04-12T07:52:23.961Z</time></trkpt><trkpt lat="43.6835763" lon="12.1712345"><ele>800.0000000000001</ele><time>2026-04-12T07:52:26.987Z</time></trkpt><trkpt lat="43.6836424" lon="12.1712401"><ele>800.0</ele><time>2026-04-12T07:52:29.987Z</time></trkpt><trkpt lat="43.6837095" lon="12.1712463"><ele>800.0</ele><time>2026-04-12T07:52:32.976Z</time></trkpt><trkpt lat="43.6837718" lon="12.1712611"><ele>800.0</ele><time>2026-04-12T07:52:35.987Z</time></trkpt><trkpt lat="43.6838333" lon="12.1712835"><ele>800.0</ele><time>2026-04-12T07:52:38.922Z</time></trkpt><trkpt lat="43.6838969" lon="12.1712835"><ele>800.0000000000001</ele><time>2026-04-12T07:52:41.987Z</time></trkpt><trkpt lat="43.6839642" lon="12.1712898"><ele>800.0</ele><time>2026-04-12T07:52:44.987Z</time></trkpt><trkpt lat="43.6840349" lon="12.1712898"><ele>800.0000000000001</ele><time>2026-04-12T07:52:47.987Z</time></trkpt><trkpt lat="43.6841035" lon="12.1712916"><ele>800.0</ele><time>2026-04-12T07:52:50.987Z</time></trkpt><trkpt lat="43.6841651" lon="12.1713131"><ele>800.0</ele><time>2026-04-12T07:52:53.986Z</time></trkpt><trkpt lat="43.6842411" lon="12.1713656"><ele>800.0</ele><time>2026-04-12T07:52:58.019Z</time></trkpt><trkpt lat="43.6842996" lon="12.1714081"><ele>800.0</ele><time>2026-04-12T07:53:01Z</time></trkpt><trkpt lat="43.6843642" lon="12.1714579"><ele>800.0000000000001</ele><time>2026-04-12T07:53:04.141Z</time></trkpt><trkpt lat="43.6844242" lon="12.1715197"><ele>800.0</ele><time>2026-04-12T07:53:07.281Z</time></trkpt><trkpt lat="43.6844775" lon="12.171573"><ele>803.1428571428572</ele><time>2026-04-12T07:53:10.065Z</time></trkpt><trkpt lat="43.6845218" lon="12.1716431"><ele>806.2857142857143</ele><time>2026-04-12T07:53:13.065Z</time></trkpt><trkpt lat="43.6845616" lon="12.1717197"><ele>809.4285714285714</ele><time>2026-04-12T07:53:15.897Z</time></trkpt><trkpt lat="43.684613" lon="12.1717957"><ele>812.5714285714287</ele><time>2026-04-12T07:53:18.987Z</time></trkpt><trkpt lat="43.6846689" lon="12.1718631"><ele>815.7142857142857</ele><time>2026-04-12T07:53:21.987Z</time></trkpt><trkpt lat="43.6847227" lon="12.1719426"><ele>818.8571428571429</ele><time>2026-04-12T07:53:25.06Z</time></trkpt><trkpt lat="43.684764" lon="12.1720233"><ele>822.0</ele><time>2026-04-12T07:53:27.987Z</time></trkpt><trkpt lat="43.6847887" lon="12.1721252"><ele>822.0</ele><time>2026-04-12T07:53:31.067Z</time></trkpt><trkpt lat="43.6848155" lon="12.1722233"><ele>822.0</ele><time>2026-04-12T07:53:34.011Z</time></trkpt><trkpt lat="43.6848424" lon="12.1723173"><ele>822.0</ele><time>2026-04-12T07:53:36.987Z</time></trkpt><trkpt lat="43.6848847" lon="12.1724068"><ele>822.0</ele><time>2026-04-12T07:53:40.091Z</time></trkpt><trkpt lat="43.684952" lon="12.1724536"><ele>822.0</ele><time>2026-04-12T07:53:42.577Z</time></trkpt><trkpt lat="43.6850189" lon="12.1724892"><ele>822.0</ele><time>2026-04-12T07:53:45.059Z</time></trkpt><trkpt lat="43.6851089" lon="12.1725036"><ele>818.8333333333334</ele><time>2026-04-12T07:53:47.987Z</time></trkpt><trkpt lat="43.685193" lon="12.1725329"><ele>815.6666666666667</ele><time>2026-04-12T07:53:50.987Z</time></trkpt><trkpt lat="43.6852609" lon="12.1725815"><ele>812.5</ele><time>2026-04-12T07:53:53.986Z</time></trkpt><trkpt lat="43.6853268" lon="12.1726347"><ele>809.3333333333334</ele><time>2026-04-12T07:53:56.987Z</time></trkpt><trkpt lat="43.6854035" lon="12.1726616"><ele>806.1666666666667</ele><time>2026-04-12T07:53:59.986Z</time></trkpt><trkpt lat="43.6854795" lon="12.1726658"><ele>803.0</ele><time>2026-04-12T07:54:02.986Z</time></trkpt><trkpt lat="43.6855538" lon="12.1726548"><ele>802.3333333333334</ele><time>2026-04-12T07:54:05.92Z</time></trkpt><trkpt lat="43.6856364" lon="12.1726635"><ele>801.6666666666667</ele><time>2026-04-12T07:54:08.987Z</time></trkpt><trkpt lat="43.6857127" lon="12.1727045"><ele>801.0</ele><time>2026-04-12T07:54:11.987Z</time></trkpt><trkpt lat="43.6857781" lon="12.1727611"><ele>800.3333333333333</ele><time>2026-04-12T07:54:14.922Z</time></trkpt><trkpt lat="43.6858444" lon="12.1728259"><ele>799.6666666666666</ele><time>2026-04-12T07:54:17.987Z</time></trkpt><trkpt lat="43.6859045" lon="12.1728909"><ele>799.0</ele><time>2026-04-12T07:54:20.986Z</time></trkpt><trkpt lat="43.685965" lon="12.172951"><ele>799.0</ele><time>2026-04-12T07:54:23.955Z</time></trkpt><trkpt lat="43.6860076" lon="12.1730339"><ele>799.0</ele><time>2026-04-12T07:54:26.987Z</time></trkpt><trkpt lat="43.6859983" lon="12.1731395"><ele>799.0</ele><time>2026-04-12T07:54:30.986Z</time></trkpt><trkpt lat="43.686056" lon="12.17322"><ele>799.0</ele><time>2026-04-12T07:54:34.987Z</time></trkpt><trkpt lat="43.6861205" lon="12.1732673"><ele>799.0</ele><time>2026-04-12T07:54:37.987Z</time></trkpt><trkpt lat="43.6861677" lon="12.1733437"><ele>799.0</ele><time>2026-04-12T07:54:40.987Z</time></trkpt><trkpt lat="43.6862097" lon="12.1734182"><ele>799.0</ele><time>2026-04-12T07:54:43.903Z</time></trkpt><trkpt lat="43.6862487" lon="12.1735058"><ele>799.6666666666666</ele><time>2026-04-12T07:54:46.956Z</time></trkpt><trkpt lat="43.6862676" lon="12.1736053"><ele>800.3333333333333</ele><time>2026-04-12T07:54:49.986Z</time></trkpt><trkpt lat="43.6862676" lon="12.17371"><ele>801.0</ele><time>2026-04-12T07:54:52.986Z</time></trkpt><trkpt lat="43.6862826" lon="12.1738123"><ele>801.6666666666667</ele><time>2026-04-12T07:54:55.917Z</time></trkpt><trkpt lat="43.6863247" lon="12.1739069"><ele>802.3333333333334</ele><time>2026-04-12T07:54:58.987Z</time></trkpt><trkpt lat="43.6863776" lon="12.1739726"><ele>803.0</ele><time>2026-04-12T07:55:01.938Z</time></trkpt><trkpt lat="43.6864327" lon="12.1740384"><ele>802.9999999999999</ele><time>2026-04-12T07:55:04.987Z</time></trkpt><trkpt lat="43.6864908" lon="12.1741026"><ele>803.0</ele><time>2026-04-12T07:55:08.055Z</time></trkpt><trkpt lat="43.6865302" lon="12.1741803"><ele>803.0</ele><time>2026-04-12T07:55:10.986Z</time></trkpt><trkpt lat="43.6865636" lon="12.1742715"><ele>803.0</ele><time>2026-04-12T07:55:14.058Z</time></trkpt><trkpt lat="43.6865833" lon="12.1743646"><ele>803.0</ele><time>2026-04-12T07:55:16.987Z</time></trkpt><trkpt lat="43.686564" lon="12.1744665"><ele>802.9999999999999</ele><time>2026-04-12T07:55:19.987Z</time></trkpt><trkpt lat="43.6865152" lon="12.1745492"><ele>803.0</ele><time>2026-04-12T07:55:22.987Z</time></trkpt><trkpt lat="43.6864621" lon="12.1746147"><ele>802.9999999999999</ele><time>2026-04-12T07:55:25.936Z</time></trkpt><trkpt lat="43.6864381" lon="12.1746976"><ele>803.0</ele><time>2026-04-12T07:55:28.987Z</time></trkpt><trkpt lat="43.6864128" lon="12.1747792"><ele>803.0</ele><time>2026-04-12T07:55:31.986Z</time></trkpt><trkpt lat="43.6863716" lon="12.1748457"><ele>803.0</ele><time>2026-04-12T07:55:34.916Z</time></trkpt><trkpt lat="43.6863245" lon="12.1749082"><ele>803.0</ele><time>2026-04-12T07:55:37.986Z</time></trkpt><trkpt lat="43.6862999" lon="12.1750134"><ele>802.9999999999999</ele><time>2026-04-12T07:55:41.86Z</time></trkpt><trkpt lat="43.6862948" lon="12.1751026"><ele>803.0</ele><time>2026-04-12T07:55:44.816Z</time></trkpt><trkpt lat="43.686287" lon="12.1751977"><ele>801.8571428571428</ele><time>2026-04-12T07:55:48.937Z</time></trkpt><trkpt lat="43.6863083" lon="12.1752802"><ele>800.7142857142857</ele><time>2026-04-12T07:55:52.987Z</time></trkpt><trkpt lat="43.6863156" lon="12.1753934"><ele>799.5714285714286</ele><time>2026-04-12T07:55:56.987Z</time></trkpt><trkpt lat="43.6862991" lon="12.1754949"><ele>798.4285714285713</ele><time>2026-04-12T07:55:59.987Z</time></trkpt><trkpt lat="43.6862829" lon="12.1755913"><ele>797.2857142857143</ele><time>2026-04-12T07:56:02.987Z</time></trkpt><trkpt lat="43.6862552" lon="12.1756791"><ele>796.1428571428571</ele><time>2026-04-12T07:56:06.004Z</time></trkpt><trkpt lat="43.6862119" lon="12.1757798"><ele>795.0</ele><time>2026-04-12T07:56:09.961Z</time></trkpt><trkpt lat="43.6861383" lon="12.1757748"><ele>787.6666666666666</ele><time>2026-04-12T07:56:12.987Z</time></trkpt><trkpt lat="43.6860723" lon="12.1757409"><ele>780.3333333333334</ele><time>2026-04-12T07:56:15.98Z</time></trkpt><trkpt lat="43.6860009" lon="12.1757594"><ele>773.0</ele><time>2026-04-12T07:56:20.014Z</time></trkpt><trkpt lat="43.6859332" lon="12.175803"><ele>765.6666666666667</ele><time>2026-04-12T07:56:25.022Z</time></trkpt><trkpt lat="43.6858754" lon="12.1758517"><ele>758.3333333333334</ele><time>2026-04-12T07:56:28.973Z</time></trkpt><trkpt lat="43.6857926" lon="12.1758875"><ele>751.0</ele><time>2026-04-12T07:56:33.061Z</time></trkpt><trkpt lat="43.6857329" lon="12.1759677"><ele>751.0000000000001</ele><time>2026-04-12T07:56:37.1Z</time></trkpt><trkpt lat="43.6857469" lon="12.1760548"><ele>751.0</ele><time>2026-04-12T07:56:39.987Z</time></trkpt><trkpt lat="43.6857396" lon="12.1761475"><ele>751.0</ele><time>2026-04-12T07:56:45.986Z</time></trkpt><trkpt lat="43.6856744" lon="12.176192"><ele>751.0</ele><time>2026-04-12T07:56:50.986Z</time></trkpt><trkpt lat="43.6856019" lon="12.176208"><ele>751.0</ele><time>2026-04-12T07:56:54.921Z</time></trkpt><trkpt lat="43.6855269" lon="12.1761647"><ele>751.0000000000001</ele><time>2026-04-12T07:56:58.84Z</time></trkpt><trkpt lat="43.685493" lon="12.1760852"><ele>751.0</ele><time>2026-04-12T07:57:00.987Z</time></trkpt><trkpt lat="43.68547" lon="12.1759809"><ele>751.0000000000001</ele><time>2026-04-12T07:57:03.987Z</time></trkpt><trkpt lat="43.6854856" lon="12.1758824"><ele>751.0</ele><time>2026-04-12T07:57:06.986Z</time></trkpt><trkpt lat="43.6855079" lon="12.1757963"><ele>751.0</ele><time>2026-04-12T07:57:09.96Z</time></trkpt><trkpt lat="43.6854419" lon="12.1757439"><ele>751.0</ele><time>2026-04-12T07:57:12.987Z</time></trkpt><trkpt lat="43.6854034" lon="12.1758309"><ele>751.0</ele><time>2026-04-12T07:57:15.987Z</time></trkpt><trkpt lat="43.6853989" lon="12.1759275"><ele>751.0000000000001</ele><time>2026-04-12T07:57:18.901Z</time></trkpt><trkpt lat="43.6853667" lon="12.1760225"><ele>751.0</ele><time>2026-04-12T07:57:22.88Z</time></trkpt><trkpt lat="43.6853198" lon="12.1760894"><ele>751.0000000000001</ele><time>2026-04-12T07:57:26.075Z</time></trkpt><trkpt lat="43.6852708" lon="12.1761561"><ele>751.0</ele><time>2026-04-12T07:57:30.079Z</time></trkpt><trkpt lat="43.6852039" lon="12.176219"><ele>751.0</ele><time>2026-04-12T07:57:35.071Z</time></trkpt><trkpt lat="43.6851551" lon="12.1762741"><ele>751.0</ele><time>2026-04-12T07:57:39.987Z</time></trkpt><trkpt lat="43.6851262" lon="12.1763623"><ele>751.0</ele><time>2026-04-12T07:57:43.987Z</time></trkpt><trkpt lat="43.6850867" lon="12.176434"><ele>751.0000000000001</ele><time>2026-04-12T07:57:47.987Z</time></trkpt><trkpt lat="43.6850806" lon="12.1765261"><ele>751.0</ele><time>2026-04-12T07:57:52.059Z</time></trkpt><trkpt lat="43.6851477" lon="12.1765743"><ele>746.2857142857143</ele><time>2026-04-12T07:57:55.942Z</time></trkpt><trkpt lat="43.6851523" lon="12.1766644"><ele>741.5714285714286</ele><time>2026-04-12T07:57:59.986Z</time></trkpt><trkpt lat="43.6850821" lon="12.1766803"><ele>736.8571428571429</ele><time>2026-04-12T07:58:02.987Z</time></trkpt><trkpt lat="43.685021" lon="12.1766473"><ele>732.1428571428571</ele><time>2026-04-12T07:58:05.987Z</time></trkpt><trkpt lat="43.6849476" lon="12.1766583"><ele>727.4285714285714</ele><time>2026-04-12T07:58:09.779Z</time></trkpt><trkpt lat="43.6848757" lon="12.1766511"><ele>722.7142857142858</ele><time>2026-04-12T07:58:13.996Z</time></trkpt><trkpt lat="43.6848077" lon="12.1766428"><ele>718.0</ele><time>2026-04-12T07:58:19.987Z</time></trkpt><trkpt lat="43.6847475" lon="12.1767158"><ele>718.0</ele><time>2026-04-12T07:58:23.987Z</time></trkpt><trkpt lat="43.6846932" lon="12.1767682"><ele>718.0</ele><time>2026-04-12T07:58:26.96Z</time></trkpt><trkpt lat="43.6846599" lon="12.1768518"><ele>718.0</ele><time>2026-04-12T07:58:29.975Z</time></trkpt><trkpt lat="43.6846453" lon="12.1769495"><ele>718.0</ele><time>2026-04-12T07:58:33.061Z</time></trkpt><trkpt lat="43.6846637" lon="12.1770441"><ele>718.0</ele><time>2026-04-12T07:58:35.987Z</time></trkpt><trkpt lat="43.6846656" lon="12.1771456"><ele>718.0</ele><time>2026-04-12T07:58:39.986Z</time></trkpt><trkpt lat="43.6845983" lon="12.1771703"><ele>718.0</ele><time>2026-04-12T07:58:42.987Z</time></trkpt><trkpt lat="43.6845352" lon="12.1771518"><ele>718.0</ele><time>2026-04-12T07:58:45.936Z</time></trkpt><trkpt lat="43.684497" lon="12.1772219"><ele>718.0</ele><time>2026-04-12T07:58:49.987Z</time></trkpt><trkpt lat="43.6845147" lon="12.1773095"><ele>718.0</ele><time>2026-04-12T07:58:52.904Z</time></trkpt><trkpt lat="43.6845871" lon="12.1773247"><ele>718.0</ele><time>2026-04-12T07:58:55.986Z</time></trkpt><trkpt lat="43.6846444" lon="12.177271"><ele>718.0</ele><time>2026-04-12T07:58:59.939Z</time></trkpt><trkpt lat="43.6846978" lon="12.1773268"><ele>718.0</ele><time>2026-04-12T07:59:02.987Z</time></trkpt><trkpt lat="43.6846564" lon="12.1774104"><ele>718.0</ele><time>2026-04-12T07:59:05.873Z</time></trkpt><trkpt lat="43.6845839" lon="12.1774428"><ele>715.4285714285714</ele><time>2026-04-12T07:59:08.987Z</time></trkpt><trkpt lat="43.6845278" lon="12.1775088"><ele>712.8571428571429</ele><time>2026-04-12T07:59:11.987Z</time></trkpt><trkpt lat="43.6844814" lon="12.1775724"><ele>710.2857142857142</ele><time>2026-04-12T07:59:14.9Z</time></trkpt><trkpt lat="43.6844244" lon="12.1776228"><ele>707.7142857142858</ele><time>2026-04-12T07:59:18.914Z</time></trkpt><trkpt lat="43.6843613" lon="12.1776716"><ele>705.1428571428571</ele><time>2026-04-12T07:59:22.987Z</time></trkpt><trkpt lat="43.6842906" lon="12.1776408"><ele>702.5714285714286</ele><time>2026-04-12T07:59:26.986Z</time></trkpt><trkpt lat="43.6842446" lon="12.1775773"><ele>700.0</ele><time>2026-04-12T07:59:29.94Z</time></trkpt><trkpt lat="43.6841738" lon="12.1775309"><ele>698.8571428571429</ele><time>2026-04-12T07:59:33.987Z</time></trkpt><trkpt lat="43.6841485" lon="12.1774505"><ele>697.7142857142858</ele><time>2026-04-12T07:59:36.987Z</time></trkpt><trkpt lat="43.6841519" lon="12.1773547"><ele>696.5714285714286</ele><time>2026-04-12T07:59:39.976Z</time></trkpt><trkpt lat="43.6841276" lon="12.1772524"><ele>695.4285714285714</ele><time>2026-04-12T07:59:43.987Z</time></trkpt><trkpt lat="43.6841148" lon="12.177142"><ele>694.2857142857143</ele><time>2026-04-12T07:59:47.935Z</time></trkpt><trkpt lat="43.6841496" lon="12.1770364"><ele>693.1428571428571</ele><time>2026-04-12T07:59:51.986Z</time></trkpt><trkpt lat="43.6841741" lon="12.176953"><ele>692.0</ele><time>2026-04-12T07:59:54.987Z</time></trkpt><trkpt lat="43.6841778" lon="12.1768325"><ele>692.0</ele><time>2026-04-12T07:59:59.063Z</time></trkpt><trkpt lat="43.6841899" lon="12.1767196"><ele>692.0</ele><time>2026-04-12T08:00:02.919Z</time></trkpt><trkpt lat="43.6842025" lon="12.176618"><ele>692.0</ele><time>2026-04-12T08:00:05.987Z</time></trkpt><trkpt lat="43.6841445" lon="12.1765566"><ele>692.0</ele><time>2026-04-12T08:00:09.922Z</time></trkpt><trkpt lat="43.6840796" lon="12.1766169"><ele>692.0</ele><time>2026-04-12T08:00:12.986Z</time></trkpt><trkpt lat="43.6840272" lon="12.1766976"><ele>692.0</ele><time>2026-04-12T08:00:16.056Z</time></trkpt><trkpt lat="43.6839777" lon="12.1767806"><ele>692.0</ele><time>2026-04-12T08:00:18.987Z</time></trkpt><trkpt lat="43.6839288" lon="12.1768548"><ele>692.0</ele><time>2026-04-12T08:00:21.987Z</time></trkpt><trkpt lat="43.6838906" lon="12.1769265"><ele>692.0</ele><time>2026-04-12T08:00:24.979Z</time></trkpt><trkpt lat="43.6838385" lon="12.1769781"><ele>692.0</ele><time>2026-04-12T08:00:27.897Z</time></trkpt><trkpt lat="43.6837708" lon="12.1770053"><ele>692.0</ele><time>2026-04-12T08:00:30.987Z</time></trkpt><trkpt lat="43.6837062" lon="12.1769595"><ele>692.0</ele><time>2026-04-12T08:00:33.918Z</time></trkpt><trkpt lat="43.6836789" lon="12.1768668"><ele>692.0</ele><time>2026-04-12T08:00:36.987Z</time></trkpt><trkpt lat="43.6836517" lon="12.1767721"><ele>692.0</ele><time>2026-04-12T08:00:40.053Z</time></trkpt><trkpt lat="43.6836205" lon="12.176689"><ele>692.0</ele><time>2026-04-12T08:00:42.975Z</time></trkpt><trkpt lat="43.6835743" lon="12.1766127"><ele>692.0</ele><time>2026-04-12T08:00:45.986Z</time></trkpt><trkpt lat="43.6835262" lon="12.176549"><ele>692.0</ele><time>2026-04-12T08:00:48.88Z</time></trkpt><trkpt lat="43.6834685" lon="12.1765052"><ele>692.0</ele><time>2026-04-12T08:00:52.057Z</time></trkpt><trkpt lat="43.6834247" lon="12.1764357"><ele>692.0</ele><time>2026-04-12T08:00:54.986Z</time></trkpt><trkpt lat="43.6833776" lon="12.176354"><ele>692.0</ele><time>2026-04-12T08:00:57.986Z</time></trkpt><trkpt lat="43.6833333" lon="12.1762709"><ele>690.1666666666666</ele><time>2026-04-12T08:01:00.987Z</time></trkpt><trkpt lat="43.6832844" lon="12.1761857"><ele>688.3333333333333</ele><time>2026-04-12T08:01:04.066Z</time></trkpt><trkpt lat="43.6832181" lon="12.1761243"><ele>686.5</ele><time>2026-04-12T08:01:07.002Z</time></trkpt><trkpt lat="43.6831716" lon="12.1760613"><ele>684.6666666666666</ele><time>2026-04-12T08:01:09.986Z</time></trkpt><trkpt lat="43.6831433" lon="12.175945"><ele>682.8333333333334</ele><time>2026-04-12T08:01:13.987Z</time></trkpt><trkpt lat="43.6831393" lon="12.1758494"><ele>681.0</ele><time>2026-04-12T08:01:17.059Z</time></trkpt><trkpt lat="43.6830736" lon="12.1757806"><ele>681.0</ele><time>2026-04-12T08:01:19.986Z</time></trkpt><trkpt lat="43.682998" lon="12.1757559"><ele>681.0</ele><time>2026-04-12T08:01:22.914Z</time></trkpt><trkpt lat="43.6828981" lon="12.1757836"><ele>681.0</ele><time>2026-04-12T08:01:25.986Z</time></trkpt><trkpt lat="43.6828299" lon="12.1757844"><ele>681.0</ele><time>2026-04-12T08:01:28.987Z</time></trkpt><trkpt lat="43.6827552" lon="12.1757936"><ele>681.0</ele><time>2026-04-12T08:01:31.987Z</time></trkpt><trkpt lat="43.6826798" lon="12.1757865"><ele>681.0</ele><time>2026-04-12T08:01:34.919Z</time></trkpt><trkpt lat="43.6826135" lon="12.1757945"><ele>679.5714285714287</ele><time>2026-04-12T08:01:37.987Z</time></trkpt><trkpt lat="43.682531" lon="12.1757986"><ele>678.1428571428571</ele><time>2026-04-12T08:01:41.997Z</time></trkpt><trkpt lat="43.6824653" lon="12.1758148"><ele>676.7142857142858</ele><time>2026-04-12T08:01:44.986Z</time></trkpt><trkpt lat="43.6823937" lon="12.1758396"><ele>675.2857142857143</ele><time>2026-04-12T08:01:47.987Z</time></trkpt><trkpt lat="43.6823157" lon="12.175865"><ele>673.8571428571429</ele><time>2026-04-12T08:01:50.995Z</time></trkpt><trkpt lat="43.6822358" lon="12.1758782"><ele>672.4285714285714</ele><time>2026-04-12T08:01:53.987Z</time></trkpt><trkpt lat="43.6821709" lon="12.1758694"><ele>671.0</ele><time>2026-04-12T08:01:56.987Z</time></trkpt><trkpt lat="43.6821332" lon="12.1757849"><ele>671.0</ele><time>2026-04-12T08:02:02.987Z</time></trkpt><trkpt lat="43.6820712" lon="12.1757341"><ele>671.0</ele><time>2026-04-12T08:02:10.987Z</time></trkpt><trkpt lat="43.6820032" lon="12.17576"><ele>671.0</ele><time>2026-04-12T08:02:17.986Z</time></trkpt><trkpt lat="43.681946" lon="12.1758246"><ele>671.0</ele><time>2026-04-12T08:02:25.026Z</time></trkpt><trkpt lat="43.6818794" lon="12.1758522"><ele>671.0</ele><time>2026-04-12T08:02:32.059Z</time></trkpt><trkpt lat="43.681811" lon="12.1758367"><ele>671.0</ele><time>2026-04-12T08:02:38.064Z</time></trkpt><trkpt lat="43.6817361" lon="12.1758178"><ele>671.0</ele><time>2026-04-12T08:02:43.987Z</time></trkpt><trkpt lat="43.681672" lon="12.1757806"><ele>672.0</ele><time>2026-04-12T08:02:49.987Z</time></trkpt><trkpt lat="43.6816058" lon="12.1757895"><ele>673.0</ele><time>2026-04-12T08:02:55.986Z</time></trkpt><trkpt lat="43.6815611" lon="12.1758553"><ele>674.0</ele><time>2026-04-12T08:03:00.987Z</time></trkpt><trkpt lat="43.6814988" lon="12.1759288"><ele>675.0</ele><time>2026-04-12T08:03:05.987Z</time></trkpt><trkpt lat="43.6814342" lon="12.1759822"><ele>676.0</ele><time>2026-04-12T08:03:08.987Z</time></trkpt><trkpt lat="43.6813743" lon="12.1760319"><ele>677.0</ele><time>2026-04-12T08:03:11.987Z</time></trkpt><trkpt lat="43.6813096" lon="12.1760676"><ele>678.0</ele><time>2026-04-12T08:03:14.899Z</time></trkpt><trkpt lat="43.681247" lon="12.1761188"><ele>678.0</ele><time>2026-04-12T08:03:17.973Z</time></trkpt><trkpt lat="43.6811948" lon="12.1761873"><ele>678.0</ele><time>2026-04-12T08:03:20.987Z</time></trkpt><trkpt lat="43.6811509" lon="12.1762617"><ele>678.0</ele><time>2026-04-12T08:03:23.879Z</time></trkpt><trkpt lat="43.6811157" lon="12.1763473"><ele>678.0</ele><time>2026-04-12T08:03:27.78Z</time></trkpt><trkpt lat="43.6810796" lon="12.1764281"><ele>678.0</ele><time>2026-04-12T08:03:31.987Z</time></trkpt><trkpt lat="43.6810319" lon="12.1765247"><ele>678.0</ele><time>2026-04-12T08:03:35.96Z</time></trkpt><trkpt lat="43.6809946" lon="12.1766013"><ele>678.0</ele><time>2026-04-12T08:03:38.987Z</time></trkpt><trkpt lat="43.680955" lon="12.1766999"><ele>678.1428571428571</ele><time>2026-04-12T08:03:42.982Z</time></trkpt><trkpt lat="43.6809701" lon="12.1767909"><ele>678.2857142857143</ele><time>2026-04-12T08:03:46.995Z</time></trkpt><trkpt lat="43.6810177" lon="12.1768787"><ele>678.4285714285714</ele><time>2026-04-12T08:03:51.034Z</time></trkpt><trkpt lat="43.6810603" lon="12.1769546"><ele>678.5714285714286</ele><time>2026-04-12T08:03:54.976Z</time></trkpt><trkpt lat="43.6811143" lon="12.1770341"><ele>678.7142857142858</ele><time>2026-04-12T08:03:58.986Z</time></trkpt><trkpt lat="43.68116" lon="12.1771299"><ele>678.8571428571429</ele><time>2026-04-12T08:04:03.078Z</time></trkpt><trkpt lat="43.6812078" lon="12.1771869"><ele>679.0</ele><time>2026-04-12T08:04:06.055Z</time></trkpt><trkpt lat="43.6812109" lon="12.1772897"><ele>679.0</ele><time>2026-04-12T08:04:09.943Z</time></trkpt><trkpt lat="43.6811485" lon="12.1773201"><ele>679.0</ele><time>2026-04-12T08:04:12.072Z</time></trkpt><trkpt lat="43.6810787" lon="12.1773149"><ele>679.0</ele><time>2026-04-12T08:04:13.986Z</time></trkpt><trkpt lat="43.6810106" lon="12.177302"><ele>679.0</ele><time>2026-04-12T08:04:17.986Z</time></trkpt><trkpt lat="43.6809227" lon="12.1772895"><ele>679.0</ele><time>2026-04-12T08:04:39.987Z</time></trkpt><trkpt lat="43.6809402" lon="12.1773856"><ele>679.0</ele><time>2026-04-12T08:04:44.987Z</time></trkpt><trkpt lat="43.6809917" lon="12.1774532"><ele>679.0</ele><time>2026-04-12T08:04:49.065Z</time></trkpt><trkpt lat="43.681041" lon="12.1775114"><ele>679.0</ele><time>2026-04-12T08:04:55.987Z</time></trkpt><trkpt lat="43.6809732" lon="12.1775134"><ele>679.0</ele><time>2026-04-12T08:05:01.983Z</time></trkpt><trkpt lat="43.6809051" lon="12.1774742"><ele>679.0</ele><time>2026-04-12T08:05:08.075Z</time></trkpt><trkpt lat="43.6808594" lon="12.1774122"><ele>679.0</ele><time>2026-04-12T08:05:13.987Z</time></trkpt><trkpt lat="43.6807999" lon="12.1773745"><ele>679.0</ele><time>2026-04-12T08:05:19.986Z</time></trkpt><trkpt lat="43.6807383" lon="12.1774035"><ele>679.0</ele><time>2026-04-12T08:05:24.987Z</time></trkpt><trkpt lat="43.6806837" lon="12.1774534"><ele>679.0</ele><time>2026-04-12T08:05:30.987Z</time></trkpt><trkpt lat="43.6806381" lon="12.1775284"><ele>679.0</ele><time>2026-04-12T08:05:38.987Z</time></trkpt><trkpt lat="43.6805676" lon="12.1775527"><ele>679.0</ele><time>2026-04-12T08:05:44.897Z</time></trkpt><trkpt lat="43.6805044" lon="12.1775497"><ele>679.0</ele><time>2026-04-12T08:05:47.986Z</time></trkpt><trkpt lat="43.6804376" lon="12.1775633"><ele>679.0</ele><time>2026-04-12T08:05:51.058Z</time></trkpt><trkpt lat="43.6803491" lon="12.1775699"><ele>679.0</ele><time>2026-04-12T08:05:55.06Z</time></trkpt><trkpt lat="43.6802844" lon="12.1775565"><ele>679.0</ele><time>2026-04-12T08:05:57.986Z</time></trkpt><trkpt lat="43.6802119" lon="12.1775387"><ele>679.0</ele><time>2026-04-12T08:06:01.049Z</time></trkpt><trkpt lat="43.6801467" lon="12.1775278"><ele>679.5714285714286</ele><time>2026-04-12T08:06:03.987Z</time></trkpt><trkpt lat="43.6800862" lon="12.1775667"><ele>680.1428571428571</ele><time>2026-04-12T08:06:07.986Z</time></trkpt><trkpt lat="43.6800346" lon="12.1776166"><ele>680.7142857142858</ele><time>2026-04-12T08:06:12.066Z</time></trkpt><trkpt lat="43.6799652" lon="12.17766"><ele>681.2857142857142</ele><time>2026-04-12T08:06:14.987Z</time></trkpt><trkpt lat="43.6798899" lon="12.1777049"><ele>681.8571428571429</ele><time>2026-04-12T08:06:17.914Z</time></trkpt><trkpt lat="43.6798334" lon="12.1777436"><ele>682.4285714285714</ele><time>2026-04-12T08:06:21.042Z</time></trkpt><trkpt lat="43.6797625" lon="12.1777564"><ele>683.0</ele><time>2026-04-12T08:06:24.987Z</time></trkpt><trkpt lat="43.6796886" lon="12.1777652"><ele>683.0</ele><time>2026-04-12T08:06:30.987Z</time></trkpt><trkpt lat="43.6796222" lon="12.1777567"><ele>683.0</ele><time>2026-04-12T08:06:36.986Z</time></trkpt><trkpt lat="43.6795558" lon="12.1777619"><ele>683.0</ele><time>2026-04-12T08:06:41.987Z</time></trkpt><trkpt lat="43.6794891" lon="12.1777729"><ele>683.0</ele><time>2026-04-12T08:06:47.987Z</time></trkpt><trkpt lat="43.6794213" lon="12.1777841"><ele>683.0</ele><time>2026-04-12T08:06:54.987Z</time></trkpt><trkpt lat="43.6793654" lon="12.1778361"><ele>683.0</ele><time>2026-04-12T08:07:00.986Z</time></trkpt><trkpt lat="43.6792998" lon="12.1778838"><ele>683.0</ele><time>2026-04-12T08:07:06.986Z</time></trkpt><trkpt lat="43.6792337" lon="12.1779172"><ele>683.5714285714286</ele><time>2026-04-12T08:07:12.987Z</time></trkpt><trkpt lat="43.6791587" lon="12.1779464"><ele>684.1428571428571</ele><time>2026-04-12T08:07:18.072Z</time></trkpt><trkpt lat="43.6790913" lon="12.1779638"><ele>684.7142857142858</ele><time>2026-04-12T08:07:21.923Z</time></trkpt><trkpt lat="43.6790154" lon="12.1779774"><ele>685.2857142857142</ele><time>2026-04-12T08:07:25.986Z</time></trkpt><trkpt lat="43.6789514" lon="12.1780052"><ele>685.8571428571428</ele><time>2026-04-12T08:07:31.001Z</time></trkpt><trkpt lat="43.6788798" lon="12.1780151"><ele>686.4285714285714</ele><time>2026-04-12T08:07:35.896Z</time></trkpt><trkpt lat="43.6787999" lon="12.1779862"><ele>687.0</ele><time>2026-04-12T08:07:38.986Z</time></trkpt><trkpt lat="43.6787224" lon="12.1779795"><ele>687.0</ele><time>2026-04-12T08:07:41.987Z</time></trkpt><trkpt lat="43.678655" lon="12.1780011"><ele>687.0</ele><time>2026-04-12T08:07:44.912Z</time></trkpt><trkpt lat="43.6785926" lon="12.178037"><ele>687.0</ele><time>2026-04-12T08:07:47.987Z</time></trkpt><trkpt lat="43.6785394" lon="12.1780886"><ele>687.0</ele><time>2026-04-12T08:07:50.986Z</time></trkpt><trkpt lat="43.6784633" lon="12.1781098"><ele>687.0</ele><time>2026-04-12T08:07:54.92Z</time></trkpt><trkpt lat="43.6783973" lon="12.1781113"><ele>687.0</ele><time>2026-04-12T08:07:57.986Z</time></trkpt><trkpt lat="43.678329" lon="12.1781012"><ele>687.0</ele><time>2026-04-12T08:08:00.986Z</time></trkpt><trkpt lat="43.6782653" lon="12.1781034"><ele>688.7142857142858</ele><time>2026-04-12T08:08:03.987Z</time></trkpt><trkpt lat="43.6781974" lon="12.1781192"><ele>690.4285714285713</ele><time>2026-04-12T08:08:08.096Z</time></trkpt><trkpt lat="43.6781413" lon="12.1781659"><ele>692.1428571428571</ele><time>2026-04-12T08:08:11.986Z</time></trkpt><trkpt lat="43.6780785" lon="12.1782134"><ele>693.8571428571429</ele><time>2026-04-12T08:08:16.986Z</time></trkpt><trkpt lat="43.6780042" lon="12.1781601"><ele>695.5714285714287</ele><time>2026-04-12T08:08:20.994Z</time></trkpt><trkpt lat="43.6779237" lon="12.1781396"><ele>697.2857142857142</ele><time>2026-04-12T08:08:24.987Z</time></trkpt><trkpt lat="43.6778604" lon="12.178147"><ele>699.0</ele><time>2026-04-12T08:08:27.986Z</time></trkpt><trkpt lat="43.6777988" lon="12.1781735"><ele>699.1428571428571</ele><time>2026-04-12T08:08:30.913Z</time></trkpt><trkpt lat="43.6777511" lon="12.1782412"><ele>699.2857142857143</ele><time>2026-04-12T08:08:34.057Z</time></trkpt><trkpt lat="43.6777152" lon="12.1783177"><ele>699.4285714285714</ele><time>2026-04-12T08:08:37.061Z</time></trkpt><trkpt lat="43.677683" lon="12.1784006"><ele>699.5714285714286</ele><time>2026-04-12T08:08:39.987Z</time></trkpt><trkpt lat="43.6776449" lon="12.1784808"><ele>699.7142857142858</ele><time>2026-04-12T08:08:43.055Z</time></trkpt><trkpt lat="43.6776128" lon="12.1785765"><ele>699.8571428571429</ele><time>2026-04-12T08:08:46.986Z</time></trkpt><trkpt lat="43.6775904" lon="12.1786782"><ele>700.0</ele><time>2026-04-12T08:08:50.987Z</time></trkpt><trkpt lat="43.6775747" lon="12.178784"><ele>700.0</ele><time>2026-04-12T08:08:54.987Z</time></trkpt><trkpt lat="43.67755" lon="12.1788747"><ele>700.0</ele><time>2026-04-12T08:08:58.987Z</time></trkpt><trkpt lat="43.6775147" lon="12.1789482"><ele>700.0</ele><time>2026-04-12T08:09:01.913Z</time></trkpt><trkpt lat="43.6774598" lon="12.179024"><ele>700.0</ele><time>2026-04-12T08:09:04.997Z</time></trkpt><trkpt lat="43.6774082" lon="12.1791132"><ele>700.0</ele><time>2026-04-12T08:09:09.057Z</time></trkpt><trkpt lat="43.6773644" lon="12.179178"><ele>700.0</ele><time>2026-04-12T08:09:12.987Z</time></trkpt><trkpt lat="43.6773199" lon="12.1792566"><ele>700.0</ele><time>2026-04-12T08:09:17.072Z</time></trkpt><trkpt lat="43.6772577" lon="12.1793149"><ele>701.8571428571429</ele><time>2026-04-12T08:09:21.9Z</time></trkpt><trkpt lat="43.6772088" lon="12.1793758"><ele>703.7142857142858</ele><time>2026-04-12T08:09:25.986Z</time></trkpt><trkpt lat="43.677166" lon="12.1794472"><ele>705.5714285714286</ele><time>2026-04-12T08:09:30.066Z</time></trkpt><trkpt lat="43.6771385" lon="12.1795266"><ele>707.4285714285714</ele><time>2026-04-12T08:09:33.987Z</time></trkpt><trkpt lat="43.6771054" lon="12.1796047"><ele>709.2857142857143</ele><time>2026-04-12T08:09:36.901Z</time></trkpt><trkpt lat="43.6770589" lon="12.1796779"><ele>711.1428571428571</ele><time>2026-04-12T08:09:39.987Z</time></trkpt><trkpt lat="43.6770102" lon="12.1797469"><ele>713.0</ele><time>2026-04-12T08:09:42.997Z</time></trkpt><trkpt lat="43.6769968" lon="12.1798342"><ele>712.1428571428571</ele><time>2026-04-12T08:09:45.987Z</time></trkpt><trkpt lat="43.6769721" lon="12.1799411"><ele>711.2857142857143</ele><time>2026-04-12T08:09:49.986Z</time></trkpt><trkpt lat="43.6769188" lon="12.1800138"><ele>710.4285714285714</ele><time>2026-04-12T08:09:53.936Z</time></trkpt><trkpt lat="43.676863" lon="12.180071"><ele>709.5714285714286</ele><time>2026-04-12T08:09:57.987Z</time></trkpt><trkpt lat="43.6768026" lon="12.1801438"><ele>708.7142857142858</ele><time>2026-04-12T08:10:01.987Z</time></trkpt><trkpt lat="43.6767598" lon="12.1802258"><ele>707.8571428571429</ele><time>2026-04-12T08:10:04.987Z</time></trkpt><trkpt lat="43.6767222" lon="12.1803018"><ele>707.0</ele><time>2026-04-12T08:10:08.987Z</time></trkpt><trkpt lat="43.6766538" lon="12.1803538"><ele>707.0</ele><time>2026-04-12T08:10:12.987Z</time></trkpt><trkpt lat="43.6765901" lon="12.180382"><ele>707.0</ele><time>2026-04-12T08:10:15.861Z</time></trkpt><trkpt lat="43.6765201" lon="12.1803921"><ele>707.0</ele><time>2026-04-12T08:10:19.986Z</time></trkpt><trkpt lat="43.6764524" lon="12.1804469"><ele>707.0</ele><time>2026-04-12T08:10:24.986Z</time></trkpt><trkpt lat="43.676402" lon="12.1805011"><ele>707.0</ele><time>2026-04-12T08:10:27.987Z</time></trkpt><trkpt lat="43.6763503" lon="12.1805529"><ele>707.0</ele><time>2026-04-12T08:10:31.054Z</time></trkpt><trkpt lat="43.6762824" lon="12.1805845"><ele>707.0</ele><time>2026-04-12T08:10:34.987Z</time></trkpt><trkpt lat="43.6762125" lon="12.1806432"><ele>708.2857142857143</ele><time>2026-04-12T08:10:38.879Z</time></trkpt><trkpt lat="43.6761711" lon="12.1807099"><ele>709.5714285714286</ele><time>2026-04-12T08:10:41.877Z</time></trkpt><trkpt lat="43.6761384" lon="12.1807904"><ele>710.8571428571429</ele><time>2026-04-12T08:10:44.987Z</time></trkpt><trkpt lat="43.6761235" lon="12.1808875"><ele>712.1428571428571</ele><time>2026-04-12T08:10:48.986Z</time></trkpt><trkpt lat="43.67609" lon="12.1809729"><ele>713.4285714285714</ele><time>2026-04-12T08:10:52.987Z</time></trkpt><trkpt lat="43.6760656" lon="12.1810707"><ele>714.7142857142858</ele><time>2026-04-12T08:10:57.986Z</time></trkpt><trkpt lat="43.6760161" lon="12.1811533"><ele>716.0</ele><time>2026-04-12T08:11:02.986Z</time></trkpt><trkpt lat="43.6759469" lon="12.1811977"><ele>716.0000000000001</ele><time>2026-04-12T08:11:08.032Z</time></trkpt><trkpt lat="43.6759025" lon="12.1812744"><ele>716.0</ele><time>2026-04-12T08:11:14.987Z</time></trkpt><trkpt lat="43.6758547" lon="12.1813454"><ele>716.0</ele><time>2026-04-12T08:11:21.986Z</time></trkpt><trkpt lat="43.675818" lon="12.1814345"><ele>716.0</ele><time>2026-04-12T08:11:28.987Z</time></trkpt><trkpt lat="43.6757808" lon="12.1815159"><ele>716.0</ele><time>2026-04-12T08:11:34.986Z</time></trkpt><trkpt lat="43.6757367" lon="12.1816043"><ele>716.0000000000001</ele><time>2026-04-12T08:11:40.986Z</time></trkpt><trkpt lat="43.6757028" lon="12.1816896"><ele>716.0</ele><time>2026-04-12T08:11:44.96Z</time></trkpt><trkpt lat="43.6756433" lon="12.1817356"><ele>716.5</ele><time>2026-04-12T08:11:48.994Z</time></trkpt><trkpt lat="43.6755673" lon="12.1817778"><ele>717.0</ele><time>2026-04-12T08:11:52.987Z</time></trkpt><trkpt lat="43.6754879" lon="12.1818223"><ele>717.5</ele><time>2026-04-12T08:11:57.06Z</time></trkpt><trkpt lat="43.6754265" lon="12.181858"><ele>718.0</ele><time>2026-04-12T08:12:00.892Z</time></trkpt><trkpt lat="43.6753523" lon="12.1819064"><ele>718.5</ele><time>2026-04-12T08:12:04.937Z</time></trkpt><trkpt lat="43.6752799" lon="12.1819032"><ele>719.0</ele><time>2026-04-12T08:12:07.987Z</time></trkpt><trkpt lat="43.675215" lon="12.1818797"><ele>719.1428571428571</ele><time>2026-04-12T08:12:10.987Z</time></trkpt><trkpt lat="43.6751508" lon="12.1818913"><ele>719.2857142857142</ele><time>2026-04-12T08:12:13.955Z</time></trkpt><trkpt lat="43.6750744" lon="12.1819268"><ele>719.4285714285713</ele><time>2026-04-12T08:12:17.987Z</time></trkpt><trkpt lat="43.6750188" lon="12.1818665"><ele>719.5714285714286</ele><time>2026-04-12T08:12:21.934Z</time></trkpt><trkpt lat="43.6749916" lon="12.1817773"><ele>719.7142857142858</ele><time>2026-04-12T08:12:25.987Z</time></trkpt><trkpt lat="43.674952" lon="12.1817074"><ele>719.8571428571428</ele><time>2026-04-12T08:12:29.986Z</time></trkpt><trkpt lat="43.6749192" lon="12.1816101"><ele>720.0</ele><time>2026-04-12T08:12:32.987Z</time></trkpt><trkpt lat="43.6748964" lon="12.1815137"><ele>720.7142857142857</ele><time>2026-04-12T08:12:35.987Z</time></trkpt><trkpt lat="43.6748872" lon="12.1814269"><ele>721.4285714285714</ele><time>2026-04-12T08:12:38.961Z</time></trkpt><trkpt lat="43.6748741" lon="12.1813163"><ele>722.1428571428571</ele><time>2026-04-12T08:12:43.066Z</time></trkpt><trkpt lat="43.6748501" lon="12.1812043"><ele>722.8571428571429</ele><time>2026-04-12T08:12:46.981Z</time></trkpt><trkpt lat="43.674829" lon="12.1811182"><ele>723.5714285714287</ele><time>2026-04-12T08:12:49.987Z</time></trkpt><trkpt lat="43.6747923" lon="12.1810312"><ele>724.2857142857143</ele><time>2026-04-12T08:12:53.986Z</time></trkpt><trkpt lat="43.6747689" lon="12.1809347"><ele>725.0</ele><time>2026-04-12T08:12:58.071Z</time></trkpt><trkpt lat="43.6746961" lon="12.1808664"><ele>725.0</ele><time>2026-04-12T08:13:02.002Z</time></trkpt><trkpt lat="43.6746192" lon="12.1808654"><ele>725.0</ele><time>2026-04-12T08:13:04.986Z</time></trkpt><trkpt lat="43.6745514" lon="12.1809142"><ele>725.0</ele><time>2026-04-12T08:13:09.075Z</time></trkpt><trkpt lat="43.6744927" lon="12.1809843"><ele>725.0</ele><time>2026-04-12T08:13:13.99Z</time></trkpt><trkpt lat="43.6744218" lon="12.1810237"><ele>725.0</ele><time>2026-04-12T08:13:18.987Z</time></trkpt><trkpt lat="43.6743664" lon="12.1810941"><ele>725.0</ele><time>2026-04-12T08:13:23.987Z</time></trkpt><trkpt lat="43.6743156" lon="12.1811591"><ele>725.2857142857143</ele><time>2026-04-12T08:13:28.987Z</time></trkpt><trkpt lat="43.6742648" lon="12.1812238"><ele>725.5714285714287</ele><time>2026-04-12T08:13:33.987Z</time></trkpt><trkpt lat="43.6742224" lon="12.18129"><ele>725.8571428571429</ele><time>2026-04-12T08:13:38.986Z</time></trkpt><trkpt lat="43.6741845" lon="12.1813715"><ele>726.1428571428571</ele><time>2026-04-12T08:13:44.986Z</time></trkpt><trkpt lat="43.6741484" lon="12.1814819"><ele>726.4285714285714</ele><time>2026-04-12T08:13:48.922Z</time></trkpt><trkpt lat="43.6741141" lon="12.1815582"><ele>726.7142857142857</ele><time>2026-04-12T08:13:51.987Z</time></trkpt><trkpt lat="43.6740749" lon="12.1816441"><ele>727.0</ele><time>2026-04-12T08:13:56.063Z</time></trkpt><trkpt lat="43.6740121" lon="12.181702"><ele>727.0</ele><time>2026-04-12T08:14:01.987Z</time></trkpt><trkpt lat="43.6739551" lon="12.1817663"><ele>727.0</ele><time>2026-04-12T08:14:06.987Z</time></trkpt><trkpt lat="43.6738903" lon="12.1818047"><ele>727.0</ele><time>2026-04-12T08:14:11.987Z</time></trkpt><trkpt lat="43.6738203" lon="12.1818326"><ele>727.0</ele><time>2026-04-12T08:14:16.987Z</time></trkpt><trkpt lat="43.6737514" lon="12.1818568"><ele>727.0</ele><time>2026-04-12T08:14:21.987Z</time></trkpt><trkpt lat="43.6736872" lon="12.1818719"><ele>727.0</ele><time>2026-04-12T08:14:26.987Z</time></trkpt><trkpt lat="43.6736231" lon="12.181896"><ele>727.0</ele><time>2026-04-12T08:14:31.973Z</time></trkpt><trkpt lat="43.6735544" lon="12.1818435"><ele>726.5714285714286</ele><time>2026-04-12T08:14:36.062Z</time></trkpt><trkpt lat="43.6735113" lon="12.1817652"><ele>726.1428571428572</ele><time>2026-04-12T08:14:38.986Z</time></trkpt><trkpt lat="43.6734591" lon="12.1816926"><ele>725.7142857142858</ele><time>2026-04-12T08:14:42.986Z</time></trkpt><trkpt lat="43.6734148" lon="12.1816242"><ele>725.2857142857142</ele><time>2026-04-12T08:14:46.986Z</time></trkpt><trkpt lat="43.6733597" lon="12.1815527"><ele>724.8571428571429</ele><time>2026-04-12T08:14:51.987Z</time></trkpt><trkpt lat="43.6732856" lon="12.1815382"><ele>724.4285714285714</ele><time>2026-04-12T08:14:56.961Z</time></trkpt><trkpt lat="43.673251" lon="12.1816273"><ele>724.0</ele><time>2026-04-12T08:15:01.993Z</time></trkpt><trkpt lat="43.6732875" lon="12.1817004"><ele>724.0</ele><time>2026-04-12T08:15:05.939Z</time></trkpt><trkpt lat="43.6733103" lon="12.1817852"><ele>724.0</ele><time>2026-04-12T08:15:10.986Z</time></trkpt><trkpt lat="43.6733111" lon="12.1818729"><ele>724.0</ele><time>2026-04-12T08:15:15.918Z</time></trkpt><trkpt lat="43.673301" lon="12.181974"><ele>724.0</ele><time>2026-04-12T08:15:20.987Z</time></trkpt><trkpt lat="43.6732765" lon="12.182066"><ele>724.0</ele><time>2026-04-12T08:15:25.916Z</time></trkpt><trkpt lat="43.6732451" lon="12.1821535"><ele>724.0</ele><time>2026-04-12T08:15:30.987Z</time></trkpt><trkpt lat="43.6732085" lon="12.1822329"><ele>724.0</ele><time>2026-04-12T08:15:35.987Z</time></trkpt><trkpt lat="43.6731636" lon="12.1823093"><ele>726.1428571428571</ele><time>2026-04-12T08:15:40.986Z</time></trkpt><trkpt lat="43.6731213" lon="12.1823738"><ele>728.2857142857142</ele><time>2026-04-12T08:15:44.986Z</time></trkpt><trkpt lat="43.6730647" lon="12.1824355"><ele>730.4285714285714</ele><time>2026-04-12T08:15:49.987Z</time></trkpt><trkpt lat="43.6730164" lon="12.182514"><ele>732.5714285714286</ele><time>2026-04-12T08:15:54.061Z</time></trkpt><trkpt lat="43.6729684" lon="12.1825897"><ele>734.7142857142858</ele><time>2026-04-12T08:15:57.987Z</time></trkpt><trkpt lat="43.6729218" lon="12.1826546"><ele>736.8571428571429</ele><time>2026-04-12T08:16:02.862Z</time></trkpt><trkpt lat="43.6728803" lon="12.1827224"><ele>739.0</ele><time>2026-04-12T08:16:07.053Z</time></trkpt><trkpt lat="43.6728132" lon="12.1827574"><ele>738.4285714285714</ele><time>2026-04-12T08:16:12.065Z</time></trkpt><trkpt lat="43.6727449" lon="12.1827392"><ele>737.8571428571429</ele><time>2026-04-12T08:16:16.92Z</time></trkpt><trkpt lat="43.6726802" lon="12.182742"><ele>737.2857142857142</ele><time>2026-04-12T08:16:20.06Z</time></trkpt><trkpt lat="43.6726146" lon="12.1827534"><ele>736.7142857142858</ele><time>2026-04-12T08:16:22.986Z</time></trkpt><trkpt lat="43.6725448" lon="12.1827548"><ele>736.1428571428571</ele><time>2026-04-12T08:16:25.898Z</time></trkpt><trkpt lat="43.6724747" lon="12.1827718"><ele>735.5714285714286</ele><time>2026-04-12T08:16:29.001Z</time></trkpt><trkpt lat="43.6724105" lon="12.1828229"><ele>735.0</ele><time>2026-04-12T08:16:32.987Z</time></trkpt><trkpt lat="43.6723579" lon="12.1828767"><ele>735.0</ele><time>2026-04-12T08:16:37.986Z</time></trkpt><trkpt lat="43.6723084" lon="12.1829442"><ele>735.0</ele><time>2026-04-12T08:16:42.987Z</time></trkpt><trkpt lat="43.6722912" lon="12.1830284"><ele>735.0</ele><time>2026-04-12T08:16:47.987Z</time></trkpt><trkpt lat="43.6723088" lon="12.1831153"><ele>735.0</ele><time>2026-04-12T08:16:52.987Z</time></trkpt><trkpt lat="43.6723001" lon="12.1832037"><ele>735.0</ele><time>2026-04-12T08:16:57.896Z</time></trkpt><trkpt lat="43.6722668" lon="12.1832803"><ele>735.0</ele><time>2026-04-12T08:17:02.987Z</time></trkpt><trkpt lat="43.6722046" lon="12.1833376"><ele>735.0</ele><time>2026-04-12T08:17:08.987Z</time></trkpt><trkpt lat="43.672168" lon="12.1834241"><ele>735.8571428571429</ele><time>2026-04-12T08:17:14.895Z</time></trkpt><trkpt lat="43.6721262" lon="12.1835012"><ele>736.7142857142858</ele><time>2026-04-12T08:17:20.987Z</time></trkpt><trkpt lat="43.6720719" lon="12.1835508"><ele>737.5714285714286</ele><time>2026-04-12T08:17:26.987Z</time></trkpt><trkpt lat="43.6720112" lon="12.1835918"><ele>738.4285714285714</ele><time>2026-04-12T08:17:32.987Z</time></trkpt><trkpt lat="43.6719485" lon="12.1836461"><ele>739.2857142857143</ele><time>2026-04-12T08:17:39.042Z</time></trkpt><trkpt lat="43.6718936" lon="12.1837155"><ele>740.1428571428571</ele><time>2026-04-12T08:17:46.014Z</time></trkpt><trkpt lat="43.6718441" lon="12.1837777"><ele>741.0</ele><time>2026-04-12T08:17:52.987Z</time></trkpt><trkpt lat="43.6717874" lon="12.1837129"><ele>741.2857142857142</ele><time>2026-04-12T08:17:57.987Z</time></trkpt><trkpt lat="43.6717484" lon="12.1836412"><ele>741.5714285714287</ele><time>2026-04-12T08:18:01.987Z</time></trkpt><trkpt lat="43.6716894" lon="12.1835819"><ele>741.8571428571429</ele><time>2026-04-12T08:18:06.987Z</time></trkpt><trkpt lat="43.6716225" lon="12.1835668"><ele>742.1428571428571</ele><time>2026-04-12T08:18:11.987Z</time></trkpt><trkpt lat="43.6715532" lon="12.1835541"><ele>742.4285714285713</ele><time>2026-04-12T08:18:16.987Z</time></trkpt><trkpt lat="43.671488" lon="12.1835424"><ele>742.7142857142858</ele><time>2026-04-12T08:18:22.057Z</time></trkpt><trkpt lat="43.6714188" lon="12.1835158"><ele>743.0</ele><time>2026-04-12T08:18:27.987Z</time></trkpt><trkpt lat="43.6713548" lon="12.1835051"><ele>743.0</ele><time>2026-04-12T08:18:33.993Z</time></trkpt><trkpt lat="43.6712873" lon="12.1835456"><ele>743.0</ele><time>2026-04-12T08:18:40.987Z</time></trkpt><trkpt lat="43.6712245" lon="12.1835753"><ele>743.0</ele><time>2026-04-12T08:18:46.987Z</time></trkpt><trkpt lat="43.671169" lon="12.1836296"><ele>743.0</ele><time>2026-04-12T08:18:52.987Z</time></trkpt><trkpt lat="43.6711115" lon="12.1836695"><ele>743.0</ele><time>2026-04-12T08:18:58.987Z</time></trkpt><trkpt lat="43.6710522" lon="12.1837116"><ele>743.0</ele><time>2026-04-12T08:19:04.987Z</time></trkpt><trkpt lat="43.6710043" lon="12.1837682"><ele>743.0</ele><time>2026-04-12T08:19:09.986Z</time></trkpt><trkpt lat="43.6709353" lon="12.1837644"><ele>744.2857142857143</ele><time>2026-04-12T08:19:15.987Z</time></trkpt><trkpt lat="43.6708744" lon="12.1837365"><ele>745.5714285714286</ele><time>2026-04-12T08:19:21.032Z</time></trkpt><trkpt lat="43.6708067" lon="12.1837238"><ele>746.8571428571429</ele><time>2026-04-12T08:19:25.987Z</time></trkpt><trkpt lat="43.670738" lon="12.1837157"><ele>748.1428571428571</ele><time>2026-04-12T08:19:30.987Z</time></trkpt><trkpt lat="43.670664" lon="12.1837065"><ele>749.4285714285713</ele><time>2026-04-12T08:19:35.986Z</time></trkpt><trkpt lat="43.6705994" lon="12.183713"><ele>750.7142857142857</ele><time>2026-04-12T08:19:39.987Z</time></trkpt><trkpt lat="43.670526" lon="12.1837282"><ele>752.0</ele><time>2026-04-12T08:19:44.987Z</time></trkpt><trkpt lat="43.6704582" lon="12.183729"><ele>752.0</ele><time>2026-04-12T08:19:49.986Z</time></trkpt><trkpt lat="43.6703931" lon="12.1837177"><ele>752.0</ele><time>2026-04-12T08:19:54.986Z</time></trkpt><trkpt lat="43.6703312" lon="12.1836871"><ele>752.0</ele><time>2026-04-12T08:19:59.987Z</time></trkpt><trkpt lat="43.6702647" lon="12.1836591"><ele>752.0</ele><time>2026-04-12T08:20:04.987Z</time></trkpt><trkpt lat="43.6702017" lon="12.1836403"><ele>752.0</ele><time>2026-04-12T08:20:08.023Z</time></trkpt><trkpt lat="43.6701319" lon="12.1836051"><ele>752.0</ele><time>2026-04-12T08:20:11.987Z</time></trkpt><trkpt lat="43.6700581" lon="12.1835953"><ele>752.0</ele><time>2026-04-12T08:20:17.987Z</time></trkpt><trkpt lat="43.6699922" lon="12.1836351"><ele>754.0</ele><time>2026-04-12T08:20:23.074Z</time></trkpt><trkpt lat="43.669937" lon="12.1836942"><ele>756.0</ele><time>2026-04-12T08:20:27.987Z</time></trkpt><trkpt lat="43.6698797" lon="12.1837563"><ele>758.0</ele><time>2026-04-12T08:20:33.987Z</time></trkpt><trkpt lat="43.6698203" lon="12.1838044"><ele>760.0</ele><time>2026-04-12T08:20:38.986Z</time></trkpt><trkpt lat="43.6697468" lon="12.1838188"><ele>762.0</ele><time>2026-04-12T08:20:44.066Z</time></trkpt><trkpt lat="43.6696751" lon="12.1837908"><ele>764.0</ele><time>2026-04-12T08:20:48.986Z</time></trkpt><trkpt lat="43.6696034" lon="12.1837634"><ele>766.0</ele><time>2026-04-12T08:20:53.987Z</time></trkpt><trkpt lat="43.6695374" lon="12.1837317"><ele>766.0</ele><time>2026-04-12T08:20:58.987Z</time></trkpt><trkpt lat="43.6694671" lon="12.1837069"><ele>766.0</ele><time>2026-04-12T08:21:03.987Z</time></trkpt><trkpt lat="43.6693988" lon="12.183675"><ele>766.0</ele><time>2026-04-12T08:21:08.987Z</time></trkpt><trkpt lat="43.66933" lon="12.1836501"><ele>766.0</ele><time>2026-04-12T08:21:13.914Z</time></trkpt><trkpt lat="43.6692619" lon="12.1836324"><ele>766.0</ele><time>2026-04-12T08:21:18.977Z</time></trkpt><trkpt lat="43.669199" lon="12.1836261"><ele>766.0</ele><time>2026-04-12T08:21:23.986Z</time></trkpt><trkpt lat="43.6691382" lon="12.1835994"><ele>766.0</ele><time>2026-04-12T08:21:28.987Z</time></trkpt><trkpt lat="43.6690701" lon="12.1835726"><ele>767.1428571428571</ele><time>2026-04-12T08:21:33.937Z</time></trkpt><trkpt lat="43.6690037" lon="12.1835453"><ele>768.2857142857142</ele><time>2026-04-12T08:21:38.07Z</time></trkpt><trkpt lat="43.6689335" lon="12.1835327"><ele>769.4285714285714</ele><time>2026-04-12T08:21:41.064Z</time></trkpt><trkpt lat="43.6688643" lon="12.1835304"><ele>770.5714285714286</ele><time>2026-04-12T08:21:43.934Z</time></trkpt><trkpt lat="43.6687948" lon="12.1835493"><ele>771.7142857142858</ele><time>2026-04-12T08:21:46.901Z</time></trkpt><trkpt lat="43.6687223" lon="12.1835237"><ele>772.8571428571429</ele><time>2026-04-12T08:21:49.986Z</time></trkpt><trkpt lat="43.6686646" lon="12.1834729"><ele>774.0</ele><time>2026-04-12T08:21:53.987Z</time></trkpt><trkpt lat="43.6687295" lon="12.1834165"><ele>774.0</ele><time>2026-04-12T08:21:58.987Z</time></trkpt><trkpt lat="43.6687208" lon="12.1833167"><ele>774.0</ele><time>2026-04-12T08:22:07.986Z</time></trkpt><trkpt lat="43.668669" lon="12.1832524"><ele>774.0</ele><time>2026-04-12T08:22:14.987Z</time></trkpt><trkpt lat="43.6686151" lon="12.1832061"><ele>774.0</ele><time>2026-04-12T08:22:19.987Z</time></trkpt><trkpt lat="43.6685611" lon="12.1831494"><ele>774.0</ele><time>2026-04-12T08:22:24.987Z</time></trkpt><trkpt lat="43.6685112" lon="12.1830779"><ele>774.0</ele><time>2026-04-12T08:22:30.987Z</time></trkpt><trkpt lat="43.6684675" lon="12.1829942"><ele>774.0</ele><time>2026-04-12T08:22:36.954Z</time></trkpt><trkpt lat="43.6684504" lon="12.1829022"><ele>775.7142857142858</ele><time>2026-04-12T08:22:41.987Z</time></trkpt><trkpt lat="43.668447" lon="12.1828133"><ele>777.4285714285714</ele><time>2026-04-12T08:22:46.987Z</time></trkpt><trkpt lat="43.6684372" lon="12.1827212"><ele>779.1428571428571</ele><time>2026-04-12T08:22:51.987Z</time></trkpt><trkpt lat="43.6684246" lon="12.1826324"><ele>780.8571428571429</ele><time>2026-04-12T08:22:57.032Z</time></trkpt><trkpt lat="43.668364" lon="12.1825341"><ele>782.5714285714286</ele><time>2026-04-12T08:23:08.987Z</time></trkpt><trkpt lat="43.668318" lon="12.1824593"><ele>784.2857142857143</ele><time>2026-04-12T08:23:13.987Z</time></trkpt><trkpt lat="43.6682499" lon="12.1824185"><ele>786.0</ele><time>2026-04-12T08:23:19.959Z</time></trkpt><trkpt lat="43.6681771" lon="12.1823923"><ele>786.0000000000001</ele><time>2026-04-12T08:23:25.986Z</time></trkpt><trkpt lat="43.6681152" lon="12.1824163"><ele>786.0</ele><time>2026-04-12T08:23:31.091Z</time></trkpt><trkpt lat="43.6681011" lon="12.1825173"><ele>786.0</ele><time>2026-04-12T08:23:35.814Z</time></trkpt><trkpt lat="43.6681205" lon="12.1826193"><ele>786.0</ele><time>2026-04-12T08:23:39.987Z</time></trkpt><trkpt lat="43.6681597" lon="12.1827089"><ele>786.0</ele><time>2026-04-12T08:23:44.077Z</time></trkpt><trkpt lat="43.6681945" lon="12.1827873"><ele>786.0000000000001</ele><time>2026-04-12T08:23:47.987Z</time></trkpt><trkpt lat="43.668225" lon="12.1828853"><ele>786.0</ele><time>2026-04-12T08:23:52.987Z</time></trkpt><trkpt lat="43.6682585" lon="12.182979"><ele>786.0000000000001</ele><time>2026-04-12T08:23:57.986Z</time></trkpt><trkpt lat="43.6682893" lon="12.1830723"><ele>786.0</ele><time>2026-04-12T08:24:02.986Z</time></trkpt><trkpt lat="43.6683198" lon="12.183167"><ele>786.0</ele><time>2026-04-12T08:24:07.987Z</time></trkpt><trkpt lat="43.6683423" lon="12.1832495"><ele>786.0</ele><time>2026-04-12T08:24:11.986Z</time></trkpt><trkpt lat="43.6683624" lon="12.1833575"><ele>786.0</ele><time>2026-04-12T08:24:15.987Z</time></trkpt><trkpt lat="43.668374" lon="12.1834433"><ele>786.0000000000001</ele><time>2026-04-12T08:24:18.986Z</time></trkpt><trkpt lat="43.6683885" lon="12.1835378"><ele>786.0</ele><time>2026-04-12T08:24:22.087Z</time></trkpt><trkpt lat="43.6683884" lon="12.1836483"><ele>785.4285714285714</ele><time>2026-04-12T08:24:25.987Z</time></trkpt><trkpt lat="43.6683477" lon="12.1837255"><ele>784.8571428571429</ele><time>2026-04-12T08:24:28.987Z</time></trkpt><trkpt lat="43.6682944" lon="12.1837848"><ele>784.2857142857142</ele><time>2026-04-12T08:24:31.915Z</time></trkpt><trkpt lat="43.6682365" lon="12.1838299"><ele>783.7142857142858</ele><time>2026-04-12T08:24:34.979Z</time></trkpt><trkpt lat="43.6681831" lon="12.1839137"><ele>783.1428571428571</ele><time>2026-04-12T08:24:38.987Z</time></trkpt><trkpt lat="43.6681394" lon="12.1839859"><ele>782.5714285714286</ele><time>2026-04-12T08:24:43.987Z</time></trkpt><trkpt lat="43.6681012" lon="12.1840619"><ele>782.0</ele><time>2026-04-12T08:24:49.074Z</time></trkpt><trkpt lat="43.6680642" lon="12.1841341"><ele>783.9999999999999</ele><time>2026-04-12T08:24:53.987Z</time></trkpt><trkpt lat="43.6680273" lon="12.184207"><ele>786.0</ele><time>2026-04-12T08:24:58.987Z</time></trkpt><trkpt lat="43.6679667" lon="12.1842697"><ele>788.0</ele><time>2026-04-12T08:25:04.987Z</time></trkpt><trkpt lat="43.6679137" lon="12.184337"><ele>790.0</ele><time>2026-04-12T08:25:09.987Z</time></trkpt><trkpt lat="43.6678533" lon="12.1843882"><ele>792.0</ele><time>2026-04-12T08:25:15.074Z</time></trkpt><trkpt lat="43.6677848" lon="12.1844212"><ele>793.9999999999999</ele><time>2026-04-12T08:25:20.987Z</time></trkpt><trkpt lat="43.6677248" lon="12.1844604"><ele>796.0</ele><time>2026-04-12T08:25:25.987Z</time></trkpt><trkpt lat="43.6676686" lon="12.1845097"><ele>796.2857142857142</ele><time>2026-04-12T08:25:30.978Z</time></trkpt><trkpt lat="43.6676273" lon="12.1845964"><ele>796.5714285714286</ele><time>2026-04-12T08:25:36.987Z</time></trkpt><trkpt lat="43.6676008" lon="12.184691"><ele>796.8571428571429</ele><time>2026-04-12T08:25:42.001Z</time></trkpt><trkpt lat="43.6675624" lon="12.1847712"><ele>797.1428571428571</ele><time>2026-04-12T08:25:46.976Z</time></trkpt><trkpt lat="43.6675085" lon="12.1848301"><ele>797.4285714285714</ele><time>2026-04-12T08:25:51.987Z</time></trkpt><trkpt lat="43.667441" lon="12.1848812"><ele>797.7142857142857</ele><time>2026-04-12T08:25:56.986Z</time></trkpt><trkpt lat="43.6673847" lon="12.1849208"><ele>798.0</ele><time>2026-04-12T08:26:00.982Z</time></trkpt><trkpt lat="43.6673272" lon="12.1849641"><ele>799.1428571428571</ele><time>2026-04-12T08:26:04.987Z</time></trkpt><trkpt lat="43.6672537" lon="12.1850022"><ele>800.2857142857142</ele><time>2026-04-12T08:26:09.843Z</time></trkpt><trkpt lat="43.6671891" lon="12.1850375"><ele>801.4285714285714</ele><time>2026-04-12T08:26:13.627Z</time></trkpt><trkpt lat="43.6671204" lon="12.1850794"><ele>802.5714285714286</ele><time>2026-04-12T08:26:18.066Z</time></trkpt><trkpt lat="43.6670482" lon="12.1851052"><ele>803.7142857142857</ele><time>2026-04-12T08:26:22.987Z</time></trkpt><trkpt lat="43.6669825" lon="12.1851243"><ele>804.8571428571429</ele><time>2026-04-12T08:26:27.062Z</time></trkpt><trkpt lat="43.666909" lon="12.1851527"><ele>806.0</ele><time>2026-04-12T08:26:31.92Z</time></trkpt><trkpt lat="43.6668325" lon="12.1851787"><ele>806.0</ele><time>2026-04-12T08:26:37.064Z</time></trkpt><trkpt lat="43.6667617" lon="12.1852092"><ele>806.0</ele><time>2026-04-12T08:26:42.037Z</time></trkpt><trkpt lat="43.6666984" lon="12.1852403"><ele>806.0</ele><time>2026-04-12T08:26:46.063Z</time></trkpt><trkpt lat="43.6666336" lon="12.1852768"><ele>806.0</ele><time>2026-04-12T08:26:50.138Z</time></trkpt><trkpt lat="43.6665573" lon="12.1853218"><ele>806.0</ele><time>2026-04-12T08:26:54.335Z</time></trkpt><trkpt lat="43.6664964" lon="12.1853461"><ele>806.0</ele><time>2026-04-12T08:26:57.058Z</time></trkpt><trkpt lat="43.6664172" lon="12.185378"><ele>806.0</ele><time>2026-04-12T08:27:01.059Z</time></trkpt><trkpt lat="43.6663501" lon="12.1854001"><ele>806.0000000000001</ele><time>2026-04-12T08:27:04.987Z</time></trkpt><trkpt lat="43.6662781" lon="12.1854138"><ele>806.0</ele><time>2026-04-12T08:27:08.987Z</time></trkpt><trkpt lat="43.6661985" lon="12.1854068"><ele>806.0</ele><time>2026-04-12T08:27:13.036Z</time></trkpt><trkpt lat="43.6661262" lon="12.1853787"><ele>806.0</ele><time>2026-04-12T08:27:16.986Z</time></trkpt><trkpt lat="43.6660514" lon="12.1853469"><ele>806.0000000000001</ele><time>2026-04-12T08:27:21.067Z</time></trkpt><trkpt lat="43.665988" lon="12.1852948"><ele>806.0</ele><time>2026-04-12T08:27:24.987Z</time></trkpt><trkpt lat="43.665952" lon="12.1852095"><ele>807.2857142857143</ele><time>2026-04-12T08:27:30.059Z</time></trkpt><trkpt lat="43.6659222" lon="12.1851311"><ele>808.5714285714286</ele><time>2026-04-12T08:27:34.987Z</time></trkpt><trkpt lat="43.6658767" lon="12.1850634"><ele>809.8571428571429</ele><time>2026-04-12T08:27:39.987Z</time></trkpt><trkpt lat="43.6658197" lon="12.1850199"><ele>811.1428571428571</ele><time>2026-04-12T08:27:43.987Z</time></trkpt><trkpt lat="43.6657537" lon="12.1850063"><ele>812.4285714285713</ele><time>2026-04-12T08:27:47.987Z</time></trkpt><trkpt lat="43.6656883" lon="12.1850105"><ele>813.7142857142857</ele><time>2026-04-12T08:27:52.986Z</time></trkpt><trkpt lat="43.6656249" lon="12.1850346"><ele>815.0</ele><time>2026-04-12T08:31:04.987Z</time></trkpt><trkpt lat="43.6655504" lon="12.1850341"><ele>815.0</ele><time>2026-04-12T08:31:10.986Z</time></trkpt><trkpt lat="43.665475" lon="12.185033"><ele>815.0</ele><time>2026-04-12T08:31:16.987Z</time></trkpt><trkpt lat="43.6654129" lon="12.1850161"><ele>815.0</ele><time>2026-04-12T08:31:21.987Z</time></trkpt><trkpt lat="43.6653512" lon="12.1849725"><ele>815.0</ele><time>2026-04-12T08:31:27.987Z</time></trkpt><trkpt lat="43.6652897" lon="12.1849315"><ele>815.0</ele><time>2026-04-12T08:31:33.986Z</time></trkpt><trkpt lat="43.6651934" lon="12.1848958"><ele>815.0</ele><time>2026-04-12T08:31:39.987Z</time></trkpt><trkpt lat="43.6651324" lon="12.1848481"><ele>815.0</ele><time>2026-04-12T08:31:46.026Z</time></trkpt><trkpt lat="43.66507" lon="12.1847986"><ele>814.7142857142857</ele><time>2026-04-12T08:31:51.987Z</time></trkpt><trkpt lat="43.6650134" lon="12.1847398"><ele>814.4285714285713</ele><time>2026-04-12T08:31:57.987Z</time></trkpt><trkpt lat="43.6649522" lon="12.1846907"><ele>814.1428571428571</ele><time>2026-04-12T08:32:04.986Z</time></trkpt><trkpt lat="43.6648933" lon="12.1846584"><ele>813.8571428571429</ele><time>2026-04-12T08:32:09.986Z</time></trkpt><trkpt lat="43.6648246" lon="12.1846205"><ele>813.5714285714286</ele><time>2026-04-12T08:32:15.987Z</time></trkpt><trkpt lat="43.6647564" lon="12.1846"><ele>813.2857142857143</ele><time>2026-04-12T08:32:21.921Z</time></trkpt><trkpt lat="43.6646955" lon="12.1845619"><ele>813.0</ele><time>2026-04-12T08:32:28.987Z</time></trkpt><trkpt lat="43.6646283" lon="12.1845385"><ele>813.0</ele><time>2026-04-12T08:32:35.921Z</time></trkpt><trkpt lat="43.6646014" lon="12.184453"><ele>813.0</ele><time>2026-04-12T08:32:42.987Z</time></trkpt><trkpt lat="43.6645849" lon="12.1843672"><ele>813.0</ele><time>2026-04-12T08:32:48.986Z</time></trkpt><trkpt lat="43.6646087" lon="12.1842705"><ele>813.0</ele><time>2026-04-12T08:32:56.961Z</time></trkpt><trkpt lat="43.6645874" lon="12.184176"><ele>813.0</ele><time>2026-04-12T08:33:04.022Z</time></trkpt><trkpt lat="43.6645201" lon="12.1841471"><ele>813.0</ele><time>2026-04-12T08:33:11.037Z</time></trkpt><trkpt lat="43.6644545" lon="12.1841773"><ele>813.0</ele><time>2026-04-12T08:33:18.037Z</time></trkpt><trkpt lat="43.664393" lon="12.1842231"><ele>817.1666666666666</ele><time>2026-04-12T08:33:24.987Z</time></trkpt><trkpt lat="43.6643308" lon="12.1842771"><ele>821.3333333333333</ele><time>2026-04-12T08:33:31.986Z</time></trkpt><trkpt lat="43.6642597" lon="12.1842962"><ele>825.5</ele><time>2026-04-12T08:33:36.987Z</time></trkpt><trkpt lat="43.6641887" lon="12.1842834"><ele>829.6666666666666</ele><time>2026-04-12T08:33:39.995Z</time></trkpt><trkpt lat="43.6641263" lon="12.1842441"><ele>833.8333333333333</ele><time>2026-04-12T08:33:42.987Z</time></trkpt><trkpt lat="43.6640517" lon="12.1841883"><ele>838.0</ele><time>2026-04-12T08:33:46.997Z</time></trkpt><trkpt lat="43.6639729" lon="12.1841566"><ele>837.9999999999999</ele><time>2026-04-12T08:33:50.987Z</time></trkpt><trkpt lat="43.6638926" lon="12.1841483"><ele>838.0</ele><time>2026-04-12T08:33:54.997Z</time></trkpt><trkpt lat="43.6638184" lon="12.1841166"><ele>838.0</ele><time>2026-04-12T08:33:58.987Z</time></trkpt><trkpt lat="43.6637448" lon="12.1840784"><ele>838.0</ele><time>2026-04-12T08:34:02.987Z</time></trkpt><trkpt lat="43.6636816" lon="12.1840625"><ele>838.0</ele><time>2026-04-12T08:34:05.987Z</time></trkpt><trkpt lat="43.6636136" lon="12.1840476"><ele>837.9999999999999</ele><time>2026-04-12T08:34:09.923Z</time></trkpt><trkpt lat="43.6635506" lon="12.1840513"><ele>838.0</ele><time>2026-04-12T08:34:13.987Z</time></trkpt><trkpt lat="43.6634884" lon="12.1840324"><ele>839.4285714285713</ele><time>2026-04-12T08:34:18.987Z</time></trkpt><trkpt lat="43.6634267" lon="12.1839974"><ele>840.8571428571429</ele><time>2026-04-12T08:34:24.986Z</time></trkpt><trkpt lat="43.663374" lon="12.1839413"><ele>842.2857142857142</ele><time>2026-04-12T08:34:31.987Z</time></trkpt><trkpt lat="43.6633108" lon="12.1838916"><ele>843.7142857142857</ele><time>2026-04-12T08:34:38.922Z</time></trkpt><trkpt lat="43.6632441" lon="12.183865"><ele>845.1428571428571</ele><time>2026-04-12T08:34:44.986Z</time></trkpt><trkpt lat="43.6632194" lon="12.183782"><ele>846.5714285714286</ele><time>2026-04-12T08:34:50.018Z</time></trkpt><trkpt lat="43.6632016" lon="12.1836803"><ele>848.0</ele><time>2026-04-12T08:34:54.987Z</time></trkpt><trkpt lat="43.6631708" lon="12.1835838"><ele>848.0</ele><time>2026-04-12T08:34:59.987Z</time></trkpt><trkpt lat="43.6631469" lon="12.1835001"><ele>848.0</ele><time>2026-04-12T08:35:03.987Z</time></trkpt><trkpt lat="43.6631172" lon="12.1834174"><ele>848.0</ele><time>2026-04-12T08:35:09.001Z</time></trkpt><trkpt lat="43.6630445" lon="12.183406"><ele>848.0</ele><time>2026-04-12T08:35:14.987Z</time></trkpt><trkpt lat="43.6629929" lon="12.1834642"><ele>848.0</ele><time>2026-04-12T08:35:19.987Z</time></trkpt><trkpt lat="43.6629497" lon="12.18353"><ele>848.0</ele><time>2026-04-12T08:35:26.024Z</time></trkpt><trkpt lat="43.6628985" lon="12.1835843"><ele>848.0</ele><time>2026-04-12T08:35:31.986Z</time></trkpt><trkpt lat="43.6628649" lon="12.1836634"><ele>848.0</ele><time>2026-04-12T08:35:39.952Z</time></trkpt><trkpt lat="43.6627997" lon="12.183679"><ele>848.0</ele><time>2026-04-12T08:35:46.059Z</time></trkpt><trkpt lat="43.6627388" lon="12.1836301"><ele>848.0</ele><time>2026-04-12T08:35:50.981Z</time></trkpt><trkpt lat="43.6626792" lon="12.1835845"><ele>848.0</ele><time>2026-04-12T08:35:55.986Z</time></trkpt><trkpt lat="43.6626092" lon="12.1835486"><ele>848.0</ele><time>2026-04-12T08:36:01.987Z</time></trkpt><trkpt lat="43.6625545" lon="12.1836036"><ele>848.0</ele><time>2026-04-12T08:36:07.987Z</time></trkpt><trkpt lat="43.6625195" lon="12.1836792"><ele>848.0</ele><time>2026-04-12T08:36:13.986Z</time></trkpt><trkpt lat="43.6624668" lon="12.183733"><ele>849.1428571428572</ele><time>2026-04-12T08:36:20.987Z</time></trkpt><trkpt lat="43.6624" lon="12.1837371"><ele>850.2857142857142</ele><time>2026-04-12T08:36:28.987Z</time></trkpt><trkpt lat="43.6623365" lon="12.1837368"><ele>851.4285714285714</ele><time>2026-04-12T08:36:37.987Z</time></trkpt><trkpt lat="43.6622772" lon="12.1836937"><ele>852.5714285714287</ele><time>2026-04-12T08:36:46.036Z</time></trkpt><trkpt lat="43.6622356" lon="12.1836219"><ele>853.7142857142858</ele><time>2026-04-12T08:36:52.96Z</time></trkpt><trkpt lat="43.6621814" lon="12.1835571"><ele>854.8571428571429</ele><time>2026-04-12T08:37:00.315Z</time></trkpt><trkpt lat="43.6621475" lon="12.1834721"><ele>856.0</ele><time>2026-04-12T08:37:07.987Z</time></trkpt><trkpt lat="43.6620798" lon="12.1834653"><ele>856.0000000000001</ele><time>2026-04-12T08:37:15.986Z</time></trkpt><trkpt lat="43.6620319" lon="12.1835402"><ele>856.0</ele><time>2026-04-12T08:37:21.987Z</time></trkpt><trkpt lat="43.6619731" lon="12.1835891"><ele>856.0</ele><time>2026-04-12T08:37:27.986Z</time></trkpt><trkpt lat="43.6619213" lon="12.1836388"><ele>856.0</ele><time>2026-04-12T08:37:33.987Z</time></trkpt><trkpt lat="43.6618838" lon="12.1837227"><ele>856.0</ele><time>2026-04-12T08:37:41.987Z</time></trkpt><trkpt lat="43.6618261" lon="12.1837672"><ele>856.0000000000001</ele><time>2026-04-12T08:37:50.987Z</time></trkpt><trkpt lat="43.6617976" lon="12.1838531"><ele>856.0</ele><time>2026-04-12T08:38:02.986Z</time></trkpt><trkpt lat="43.6618272" lon="12.18393"><ele>856.0000000000001</ele><time>2026-04-12T08:38:12.987Z</time></trkpt><trkpt lat="43.6618959" lon="12.1839078"><ele>856.0</ele><time>2026-04-12T08:38:18.986Z</time></trkpt><trkpt lat="43.6619575" lon="12.1838787"><ele>856.0</ele><time>2026-04-12T08:38:24.987Z</time></trkpt><trkpt lat="43.6620249" lon="12.183849"><ele>856.0</ele><time>2026-04-12T08:38:31.986Z</time></trkpt><trkpt lat="43.6620967" lon="12.1838704"><ele>856.0</ele><time>2026-04-12T08:38:38.896Z</time></trkpt><trkpt lat="43.6621299" lon="12.1839598"><ele>856.0000000000001</ele><time>2026-04-12T08:38:43.901Z</time></trkpt><trkpt lat="43.6621637" lon="12.1840455"><ele>856.0</ele><time>2026-04-12T08:38:49.986Z</time></trkpt><trkpt lat="43.6622067" lon="12.1841099"><ele>859.0000000000001</ele><time>2026-04-12T08:38:55.987Z</time></trkpt><trkpt lat="43.6622645" lon="12.1841528"><ele>862.0</ele><time>2026-04-12T08:39:01.986Z</time></trkpt><trkpt lat="43.6623143" lon="12.1842225"><ele>865.0</ele><time>2026-04-12T08:39:07.987Z</time></trkpt><trkpt lat="43.6623388" lon="12.1843179"><ele>868.0</ele><time>2026-04-12T08:39:14.987Z</time></trkpt><trkpt lat="43.6623085" lon="12.1843991"><ele>871.0</ele><time>2026-04-12T08:39:20.986Z</time></trkpt><trkpt lat="43.6622654" lon="12.1844712"><ele>874.0000000000001</ele><time>2026-04-12T08:39:25.937Z</time></trkpt><trkpt lat="43.6622349" lon="12.1845496"><ele>877.0</ele><time>2026-04-12T08:39:30.987Z</time></trkpt><trkpt lat="43.6622101" lon="12.1846447"><ele>877.0000000000001</ele><time>2026-04-12T08:39:36.987Z</time></trkpt><trkpt lat="43.6622169" lon="12.1847447"><ele>877.0</ele><time>2026-04-12T08:39:43.002Z</time></trkpt><trkpt lat="43.6622576" lon="12.1848195"><ele>877.0</ele><time>2026-04-12T08:39:48.986Z</time></trkpt><trkpt lat="43.6622825" lon="12.1848998"><ele>877.0</ele><time>2026-04-12T08:39:55.905Z</time></trkpt><trkpt lat="43.6623049" lon="12.1849822"><ele>877.0</ele><time>2026-04-12T08:40:04.987Z</time></trkpt><trkpt lat="43.6623735" lon="12.1849728"><ele>877.0000000000001</ele><time>2026-04-12T08:40:12.987Z</time></trkpt><trkpt lat="43.6624406" lon="12.1849499"><ele>877.0</ele><time>2026-04-12T08:40:19.986Z</time></trkpt><trkpt lat="43.6625034" lon="12.1849293"><ele>881.5714285714287</ele><time>2026-04-12T08:40:26.987Z</time></trkpt><trkpt lat="43.6625697" lon="12.18491"><ele>886.1428571428571</ele><time>2026-04-12T08:40:33.987Z</time></trkpt><trkpt lat="43.6626366" lon="12.1849138"><ele>890.7142857142858</ele><time>2026-04-12T08:40:41.986Z</time></trkpt><trkpt lat="43.6627009" lon="12.184928"><ele>895.2857142857143</ele><time>2026-04-12T08:40:50.069Z</time></trkpt><trkpt lat="43.6627314" lon="12.1850047"><ele>899.8571428571429</ele><time>2026-04-12T08:40:59.987Z</time></trkpt><trkpt lat="43.6626472" lon="12.1850727"><ele>904.4285714285714</ele><time>2026-04-12T08:41:16.987Z</time></trkpt><trkpt lat="43.6625941" lon="12.1851446"><ele>909.0</ele><time>2026-04-12T08:41:20.987Z</time></trkpt><trkpt lat="43.662528" lon="12.1851731"><ele>909.0</ele><time>2026-04-12T08:41:25.987Z</time></trkpt><trkpt lat="43.6624826" lon="12.1852495"><ele>909.0</ele><time>2026-04-12T08:41:31.987Z</time></trkpt><trkpt lat="43.662459" lon="12.1853407"><ele>909.0</ele><time>2026-04-12T08:41:37.986Z</time></trkpt><trkpt lat="43.6624025" lon="12.1853981"><ele>909.0</ele><time>2026-04-12T08:41:44.987Z</time></trkpt><trkpt lat="43.662348" lon="12.1854671"><ele>909.0</ele><time>2026-04-12T08:41:51.987Z</time></trkpt><trkpt lat="43.6622993" lon="12.185524"><ele>909.0</ele><time>2026-04-12T08:41:57.987Z</time></trkpt><trkpt lat="43.6622587" lon="12.1855956"><ele>909.0</ele><time>2026-04-12T08:42:03.986Z</time></trkpt><trkpt lat="43.6622436" lon="12.185686"><ele>913.5714285714286</ele><time>2026-04-12T08:42:09.987Z</time></trkpt><trkpt lat="43.6622211" lon="12.1857753"><ele>918.1428571428571</ele><time>2026-04-12T08:42:16.986Z</time></trkpt><trkpt lat="43.662178" lon="12.1858391"><ele>922.7142857142857</ele><time>2026-04-12T08:42:24.987Z</time></trkpt><trkpt lat="43.66224" lon="12.1858772"><ele>927.2857142857142</ele><time>2026-04-12T08:42:39.987Z</time></trkpt><trkpt lat="43.6623032" lon="12.1858875"><ele>931.8571428571429</ele><time>2026-04-12T08:42:50.986Z</time></trkpt><trkpt lat="43.6623141" lon="12.1859833"><ele>936.4285714285713</ele><time>2026-04-12T08:42:56.987Z</time></trkpt><trkpt lat="43.662344" lon="12.1860612"><ele>940.9999999999999</ele><time>2026-04-12T08:43:08.987Z</time></trkpt><trkpt lat="43.6623653" lon="12.1861437"><ele>940.9999999999999</ele><time>2026-04-12T08:43:19.987Z</time></trkpt><trkpt lat="43.6623448" lon="12.1862309"><ele>941.0</ele><time>2026-04-12T08:43:27.987Z</time></trkpt><trkpt lat="43.6623286" lon="12.186323"><ele>940.9999999999999</ele><time>2026-04-12T08:43:38.987Z</time></trkpt><trkpt lat="43.6623574" lon="12.1864093"><ele>940.9999999999999</ele><time>2026-04-12T08:44:02.987Z</time></trkpt><trkpt lat="43.662326" lon="12.1864902"><ele>941.0</ele><time>2026-04-12T08:44:08.987Z</time></trkpt><trkpt lat="43.6622916" lon="12.1865682"><ele>940.9999999999999</ele><time>2026-04-12T08:44:17.987Z</time></trkpt><trkpt lat="43.6623085" lon="12.1866593"><ele>940.9999999999999</ele><time>2026-04-12T08:44:25.986Z</time></trkpt><trkpt lat="43.662258" lon="12.1867194"><ele>945.2857142857142</ele><time>2026-04-12T08:44:36.987Z</time></trkpt><trkpt lat="43.6622203" lon="12.1867917"><ele>949.5714285714286</ele><time>2026-04-12T08:44:47.987Z</time></trkpt><trkpt lat="43.6622704" lon="12.1868506"><ele>953.8571428571429</ele><time>2026-04-12T08:44:58.987Z</time></trkpt><trkpt lat="43.6623365" lon="12.1868465"><ele>958.1428571428571</ele><time>2026-04-12T08:45:04Z</time></trkpt><trkpt lat="43.6623945" lon="12.1867952"><ele>962.4285714285716</ele><time>2026-04-12T08:45:08.987Z</time></trkpt><trkpt lat="43.6624399" lon="12.1867348"><ele>966.7142857142858</ele><time>2026-04-12T08:45:13.987Z</time></trkpt><trkpt lat="43.6624747" lon="12.1866457"><ele>971.0</ele><time>2026-04-12T08:45:22.018Z</time></trkpt><trkpt lat="43.6625436" lon="12.1866403"><ele>971.0</ele><time>2026-04-12T08:45:29.987Z</time></trkpt><trkpt lat="43.6626113" lon="12.1866391"><ele>971.0000000000001</ele><time>2026-04-12T08:45:39.057Z</time></trkpt><trkpt lat="43.6626663" lon="12.1865965"><ele>971.0</ele><time>2026-04-12T08:45:47.02Z</time></trkpt><trkpt lat="43.662718" lon="12.1865459"><ele>971.0</ele><time>2026-04-12T08:45:54.987Z</time></trkpt><trkpt lat="43.6627822" lon="12.1865657"><ele>971.0000000000001</ele><time>2026-04-12T08:46:01.987Z</time></trkpt><trkpt lat="43.6628526" lon="12.1865659"><ele>971.0</ele><time>2026-04-12T08:46:09.987Z</time></trkpt><trkpt lat="43.6629236" lon="12.186538"><ele>971.0</ele><time>2026-04-12T08:46:17.007Z</time></trkpt><trkpt lat="43.6629843" lon="12.1865147"><ele>972.0</ele><time>2026-04-12T08:46:23.987Z</time></trkpt><trkpt lat="43.6630504" lon="12.1865423"><ele>973.0000000000001</ele><time>2026-04-12T08:46:30.987Z</time></trkpt><trkpt lat="43.6631162" lon="12.186572"><ele>974.0</ele><time>2026-04-12T08:46:37.987Z</time></trkpt><trkpt lat="43.6631638" lon="12.1866308"><ele>975.0</ele><time>2026-04-12T08:46:43.986Z</time></trkpt><trkpt lat="43.6632253" lon="12.1866781"><ele>976.0000000000001</ele><time>2026-04-12T08:46:49.987Z</time></trkpt><trkpt lat="43.663282" lon="12.1867334"><ele>977.0</ele><time>2026-04-12T08:46:55.916Z</time></trkpt><trkpt lat="43.6633435" lon="12.1867842"><ele>978.0</ele><time>2026-04-12T08:47:01.987Z</time></trkpt><trkpt lat="43.663411" lon="12.186839"><ele>978.0</ele><time>2026-04-12T08:47:08.987Z</time></trkpt><trkpt lat="43.6634657" lon="12.1868922"><ele>978.0000000000001</ele><time>2026-04-12T08:47:14.987Z</time></trkpt><trkpt lat="43.6635202" lon="12.186944"><ele>978.0</ele><time>2026-04-12T08:47:20.987Z</time></trkpt><trkpt lat="43.6635864" lon="12.1869836"><ele>978.0</ele><time>2026-04-12T08:47:26.987Z</time></trkpt><trkpt lat="43.6636361" lon="12.1870501"><ele>978.0000000000001</ele><time>2026-04-12T08:47:32.986Z</time></trkpt><trkpt lat="43.6636652" lon="12.1871278"><ele>978.0</ele><time>2026-04-12T08:47:37.934Z</time></trkpt><trkpt lat="43.6636846" lon="12.187216"><ele>978.0</ele><time>2026-04-12T08:47:42.996Z</time></trkpt><trkpt lat="43.6636822" lon="12.1873052"><ele>975.4285714285714</ele><time>2026-04-12T08:47:47.895Z</time></trkpt><trkpt lat="43.6636812" lon="12.1874024"><ele>972.8571428571429</ele><time>2026-04-12T08:47:51.986Z</time></trkpt><trkpt lat="43.66369" lon="12.1875074"><ele>970.2857142857143</ele><time>2026-04-12T08:47:54.954Z</time></trkpt><trkpt lat="43.6637252" lon="12.1876057"><ele>967.7142857142858</ele><time>2026-04-12T08:47:57.987Z</time></trkpt><trkpt lat="43.6637453" lon="12.1876986"><ele>965.1428571428571</ele><time>2026-04-12T08:48:00.986Z</time></trkpt><trkpt lat="43.6637495" lon="12.1877877"><ele>962.5714285714287</ele><time>2026-04-12T08:48:03.986Z</time></trkpt><trkpt lat="43.6637322" lon="12.1878865"><ele>960.0</ele><time>2026-04-12T08:48:07.899Z</time></trkpt><trkpt lat="43.6637103" lon="12.187985"><ele>960.0</ele><time>2026-04-12T08:48:11.002Z</time></trkpt><trkpt lat="43.6636898" lon="12.1880864"><ele>960.0</ele><time>2026-04-12T08:48:13.986Z</time></trkpt><trkpt lat="43.6636725" lon="12.1881861"><ele>960.0</ele><time>2026-04-12T08:48:16.987Z</time></trkpt><trkpt lat="43.663658" lon="12.188282"><ele>960.0</ele><time>2026-04-12T08:48:19.987Z</time></trkpt><trkpt lat="43.6636453" lon="12.1883784"><ele>960.0</ele><time>2026-04-12T08:48:22.94Z</time></trkpt><trkpt lat="43.6636996" lon="12.18845"><ele>960.0</ele><time>2026-04-12T08:48:27.987Z</time></trkpt><trkpt lat="43.6637731" lon="12.18846"><ele>960.0</ele><time>2026-04-12T08:48:32.987Z</time></trkpt><trkpt lat="43.6638347" lon="12.1885123"><ele>961.5714285714287</ele><time>2026-04-12T08:48:37.986Z</time></trkpt><trkpt lat="43.6638523" lon="12.1886155"><ele>963.1428571428571</ele><time>2026-04-12T08:48:42.955Z</time></trkpt><trkpt lat="43.6638542" lon="12.1887025"><ele>964.7142857142858</ele><time>2026-04-12T08:48:47.987Z</time></trkpt><trkpt lat="43.6638474" lon="12.1888048"><ele>966.2857142857143</ele><time>2026-04-12T08:48:53.915Z</time></trkpt><trkpt lat="43.6638495" lon="12.1888954"><ele>967.8571428571429</ele><time>2026-04-12T08:48:57.978Z</time></trkpt><trkpt lat="43.6638757" lon="12.1889788"><ele>969.4285714285714</ele><time>2026-04-12T08:49:00.987Z</time></trkpt><trkpt lat="43.6639066" lon="12.1890579"><ele>971.0</ele><time>2026-04-12T08:49:03.987Z</time></trkpt><trkpt lat="43.6639463" lon="12.1891561"><ele>974.5714285714287</ele><time>2026-04-12T08:49:07.987Z</time></trkpt><trkpt lat="43.6640023" lon="12.1892166"><ele>978.1428571428572</ele><time>2026-04-12T08:49:11.987Z</time></trkpt><trkpt lat="43.664064" lon="12.1892664"><ele>981.7142857142858</ele><time>2026-04-12T08:49:15.987Z</time></trkpt><trkpt lat="43.6641339" lon="12.1893052"><ele>985.2857142857142</ele><time>2026-04-12T08:49:19.982Z</time></trkpt><trkpt lat="43.6641938" lon="12.1893704"><ele>988.8571428571428</ele><time>2026-04-12T08:49:23.986Z</time></trkpt><trkpt lat="43.6642308" lon="12.1894415"><ele>992.4285714285713</ele><time>2026-04-12T08:49:26.987Z</time></trkpt><trkpt lat="43.6642667" lon="12.1895303"><ele>996.0</ele><time>2026-04-12T08:49:32.987Z</time></trkpt><trkpt lat="43.664321" lon="12.1895751"><ele>996.0</ele><time>2026-04-12T08:49:38.986Z</time></trkpt><trkpt lat="43.6643849" lon="12.1895634"><ele>995.9999999999999</ele><time>2026-04-12T08:49:44.987Z</time></trkpt><trkpt lat="43.6644472" lon="12.1895887"><ele>996.0</ele><time>2026-04-12T08:49:52.987Z</time></trkpt><trkpt lat="43.664509" lon="12.1896076"><ele>996.0</ele><time>2026-04-12T08:49:59.987Z</time></trkpt><trkpt lat="43.664575" lon="12.189608"><ele>995.9999999999999</ele><time>2026-04-12T08:50:07.986Z</time></trkpt><trkpt lat="43.6646234" lon="12.1895495"><ele>996.0</ele><time>2026-04-12T08:50:17.913Z</time></trkpt><trkpt lat="43.6646864" lon="12.1895411"><ele>996.0</ele><time>2026-04-12T08:50:24.987Z</time></trkpt><trkpt lat="43.6647603" lon="12.1895478"><ele>995.5714285714286</ele><time>2026-04-12T08:50:31.987Z</time></trkpt><trkpt lat="43.6648235" lon="12.1895689"><ele>995.1428571428571</ele><time>2026-04-12T08:50:38.986Z</time></trkpt><trkpt lat="43.6648922" lon="12.1895703"><ele>994.7142857142857</ele><time>2026-04-12T08:50:47.077Z</time></trkpt><trkpt lat="43.6649579" lon="12.1895829"><ele>994.2857142857142</ele><time>2026-04-12T08:50:55.986Z</time></trkpt><trkpt lat="43.66499" lon="12.1896588"><ele>993.8571428571429</ele><time>2026-04-12T08:51:02.322Z</time></trkpt><trkpt lat="43.6650393" lon="12.1897318"><ele>993.4285714285713</ele><time>2026-04-12T08:51:08.987Z</time></trkpt><trkpt lat="43.6650584" lon="12.1898353"><ele>993.0</ele><time>2026-04-12T08:51:14.986Z</time></trkpt><trkpt lat="43.6650567" lon="12.1899256"><ele>996.8571428571429</ele><time>2026-04-12T08:51:20.038Z</time></trkpt><trkpt lat="43.6650559" lon="12.1900164"><ele>1000.7142857142858</ele><time>2026-04-12T08:51:24.987Z</time></trkpt><trkpt lat="43.6650502" lon="12.1901077"><ele>1004.5714285714287</ele><time>2026-04-12T08:51:30.987Z</time></trkpt><trkpt lat="43.66504" lon="12.1902076"><ele>1008.4285714285714</ele><time>2026-04-12T08:51:36.987Z</time></trkpt><trkpt lat="43.6650556" lon="12.1903002"><ele>1012.2857142857144</ele><time>2026-04-12T08:51:42.987Z</time></trkpt><trkpt lat="43.6651026" lon="12.1903702"><ele>1016.1428571428572</ele><time>2026-04-12T08:51:48.987Z</time></trkpt><trkpt lat="43.6651569" lon="12.1904217"><ele>1020.0</ele><time>2026-04-12T08:51:53.997Z</time></trkpt><trkpt lat="43.6652279" lon="12.190459"><ele>1020.7142857142858</ele><time>2026-04-12T08:51:59.986Z</time></trkpt><trkpt lat="43.6652821" lon="12.1905119"><ele>1021.4285714285716</ele><time>2026-04-12T08:52:05.023Z</time></trkpt><trkpt lat="43.6653474" lon="12.1905591"><ele>1022.1428571428571</ele><time>2026-04-12T08:52:10.987Z</time></trkpt><trkpt lat="43.6654177" lon="12.1906008"><ele>1022.8571428571429</ele><time>2026-04-12T08:52:16.989Z</time></trkpt><trkpt lat="43.6654876" lon="12.1906342"><ele>1023.5714285714286</ele><time>2026-04-12T08:52:22.987Z</time></trkpt><trkpt lat="43.6655489" lon="12.190694"><ele>1024.2857142857142</ele><time>2026-04-12T08:52:28.997Z</time></trkpt><trkpt lat="43.6655974" lon="12.1907495"><ele>1025.0</ele><time>2026-04-12T08:52:33.987Z</time></trkpt><trkpt lat="43.665652" lon="12.190801"><ele>1024.9999999999998</ele><time>2026-04-12T08:52:38.987Z</time></trkpt><trkpt lat="43.6656997" lon="12.1908621"><ele>1025.0</ele><time>2026-04-12T08:52:43.986Z</time></trkpt><trkpt lat="43.6657482" lon="12.1909213"><ele>1025.0</ele><time>2026-04-12T08:52:49.871Z</time></trkpt><trkpt lat="43.6658008" lon="12.1909725"><ele>1025.0</ele><time>2026-04-12T08:52:54.987Z</time></trkpt><trkpt lat="43.6658578" lon="12.1910121"><ele>1025.0</ele><time>2026-04-12T08:53:00.976Z</time></trkpt><trkpt lat="43.6658875" lon="12.1910924"><ele>1024.9999999999998</ele><time>2026-04-12T08:53:05.987Z</time></trkpt><trkpt lat="43.6659208" lon="12.1911673"><ele>1025.0</ele><time>2026-04-12T08:53:10.987Z</time></trkpt><trkpt lat="43.6659656" lon="12.1912455"><ele>1024.9999999999998</ele><time>2026-04-12T08:53:16.987Z</time></trkpt><trkpt lat="43.6660064" lon="12.1913319"><ele>1025.0</ele><time>2026-04-12T08:53:23.001Z</time></trkpt><trkpt lat="43.6660538" lon="12.1914005"><ele>1025.0</ele><time>2026-04-12T08:53:27.916Z</time></trkpt><trkpt lat="43.6660906" lon="12.1914745"><ele>1025.0</ele><time>2026-04-12T08:53:32.961Z</time></trkpt><trkpt lat="43.666122" lon="12.1915535"><ele>1025.0</ele><time>2026-04-12T08:53:37.913Z</time></trkpt><trkpt lat="43.6661609" lon="12.1916379"><ele>1024.9999999999998</ele><time>2026-04-12T08:53:43.987Z</time></trkpt><trkpt lat="43.6662114" lon="12.1917172"><ele>1025.0</ele><time>2026-04-12T08:53:49.987Z</time></trkpt><trkpt lat="43.6662696" lon="12.1917605"><ele>1026.5714285714284</ele><time>2026-04-12T08:53:55.987Z</time></trkpt><trkpt lat="43.666321" lon="12.1918339"><ele>1028.142857142857</ele><time>2026-04-12T08:54:01.986Z</time></trkpt><trkpt lat="43.6663261" lon="12.191933"><ele>1029.7142857142858</ele><time>2026-04-12T08:54:07.987Z</time></trkpt><trkpt lat="43.6662687" lon="12.1919878"><ele>1031.2857142857142</ele><time>2026-04-12T08:54:12.987Z</time></trkpt><trkpt lat="43.666195" lon="12.1919878"><ele>1032.857142857143</ele><time>2026-04-12T08:54:17.986Z</time></trkpt><trkpt lat="43.6661251" lon="12.191986"><ele>1034.4285714285713</ele><time>2026-04-12T08:54:22.956Z</time></trkpt><trkpt lat="43.6660554" lon="12.1920001"><ele>1036.0</ele><time>2026-04-12T08:54:27.986Z</time></trkpt><trkpt lat="43.6659822" lon="12.1920186"><ele>1036.857142857143</ele><time>2026-04-12T08:54:33.986Z</time></trkpt><trkpt lat="43.6659187" lon="12.1920431"><ele>1037.7142857142858</ele><time>2026-04-12T08:54:38.987Z</time></trkpt><trkpt lat="43.6658602" lon="12.1920791"><ele>1038.5714285714284</ele><time>2026-04-12T08:54:43.98Z</time></trkpt><trkpt lat="43.6658109" lon="12.1921528"><ele>1039.4285714285716</ele><time>2026-04-12T08:54:49.981Z</time></trkpt><trkpt lat="43.6657868" lon="12.192239"><ele>1040.2857142857142</ele><time>2026-04-12T08:54:54.938Z</time></trkpt><trkpt lat="43.6657823" lon="12.1923405"><ele>1041.142857142857</ele><time>2026-04-12T08:54:59.087Z</time></trkpt><trkpt lat="43.665774" lon="12.1924307"><ele>1042.0</ele><time>2026-04-12T08:55:01.813Z</time></trkpt><trkpt lat="43.6657885" lon="12.1925312"><ele>1042.857142857143</ele><time>2026-04-12T08:55:04.955Z</time></trkpt><trkpt lat="43.6658317" lon="12.1926117"><ele>1043.7142857142858</ele><time>2026-04-12T08:55:07.987Z</time></trkpt><trkpt lat="43.6658753" lon="12.1926826"><ele>1044.5714285714287</ele><time>2026-04-12T08:55:11.073Z</time></trkpt><trkpt lat="43.6658755" lon="12.1927844"><ele>1045.4285714285716</ele><time>2026-04-12T08:55:17.07Z</time></trkpt><trkpt lat="43.6658168" lon="12.1928552"><ele>1046.2857142857144</ele><time>2026-04-12T08:55:21.321Z</time></trkpt><trkpt lat="43.6657411" lon="12.1928746"><ele>1047.142857142857</ele><time>2026-04-12T08:55:24.987Z</time></trkpt><trkpt lat="43.6656646" lon="12.1929014"><ele>1048.0</ele><time>2026-04-12T08:55:29.089Z</time></trkpt><trkpt lat="43.6655925" lon="12.1929458"><ele>1048.0</ele><time>2026-04-12T08:55:32.986Z</time></trkpt><trkpt lat="43.6655408" lon="12.193007"><ele>1048.0</ele><time>2026-04-12T08:55:35.987Z</time></trkpt><trkpt lat="43.6654835" lon="12.193054"><ele>1048.0</ele><time>2026-04-12T08:55:38.986Z</time></trkpt><trkpt lat="43.6654053" lon="12.1930864"><ele>1048.0</ele><time>2026-04-12T08:55:43.084Z</time></trkpt><trkpt lat="43.6653198" lon="12.1930992"><ele>1048.0</ele><time>2026-04-12T08:55:46.987Z</time></trkpt><trkpt lat="43.6652447" lon="12.1930894"><ele>1048.0</ele><time>2026-04-12T08:55:50.098Z</time></trkpt><trkpt lat="43.6651906" lon="12.1930316"><ele>1048.0</ele><time>2026-04-12T08:55:53.322Z</time></trkpt><trkpt lat="43.6651252" lon="12.1929814"><ele>1047.2857142857142</ele><time>2026-04-12T08:55:57.399Z</time></trkpt><trkpt lat="43.6650344" lon="12.1930253"><ele>1046.5714285714287</ele><time>2026-04-12T08:56:01.072Z</time></trkpt><trkpt lat="43.6649762" lon="12.1930836"><ele>1045.857142857143</ele><time>2026-04-12T08:56:03.987Z</time></trkpt><trkpt lat="43.6649256" lon="12.1931389"><ele>1045.142857142857</ele><time>2026-04-12T08:56:07.987Z</time></trkpt><trkpt lat="43.6648812" lon="12.1932034"><ele>1044.4285714285716</ele><time>2026-04-12T08:56:13.986Z</time></trkpt><trkpt lat="43.6648182" lon="12.1932429"><ele>1043.7142857142858</ele><time>2026-04-12T08:56:20.068Z</time></trkpt><trkpt lat="43.6647512" lon="12.1932718"><ele>1043.0</ele><time>2026-04-12T08:56:26.072Z</time></trkpt><trkpt lat="43.6646836" lon="12.1932873"><ele>1043.0</ele><time>2026-04-12T08:56:30.987Z</time></trkpt><trkpt lat="43.6646203" lon="12.1932922"><ele>1043.0</ele><time>2026-04-12T08:56:35.902Z</time></trkpt><trkpt lat="43.6645511" lon="12.1933096"><ele>1043.0</ele><time>2026-04-12T08:56:40.987Z</time></trkpt><trkpt lat="43.6644764" lon="12.1933253"><ele>1043.0</ele><time>2026-04-12T08:56:45.986Z</time></trkpt><trkpt lat="43.6644086" lon="12.1933135"><ele>1043.0</ele><time>2026-04-12T08:56:50.986Z</time></trkpt><trkpt lat="43.664349" lon="12.1932784"><ele>1043.0</ele><time>2026-04-12T08:56:55.986Z</time></trkpt><trkpt lat="43.6642904" lon="12.1932377"><ele>1043.0</ele><time>2026-04-12T08:57:00.987Z</time></trkpt><trkpt lat="43.6642364" lon="12.1931688"><ele>1044.7142857142858</ele><time>2026-04-12T08:57:06.987Z</time></trkpt><trkpt lat="43.6641794" lon="12.1931124"><ele>1046.4285714285716</ele><time>2026-04-12T08:57:11.955Z</time></trkpt><trkpt lat="43.6641083" lon="12.193094"><ele>1048.142857142857</ele><time>2026-04-12T08:57:16.986Z</time></trkpt><trkpt lat="43.664037" lon="12.1931151"><ele>1049.857142857143</ele><time>2026-04-12T08:57:21.987Z</time></trkpt><trkpt lat="43.6639658" lon="12.1931372"><ele>1051.5714285714287</ele><time>2026-04-12T08:57:26.986Z</time></trkpt><trkpt lat="43.6638978" lon="12.1931446"><ele>1053.2857142857142</ele><time>2026-04-12T08:57:31.986Z</time></trkpt><trkpt lat="43.6638313" lon="12.1931657"><ele>1055.0</ele><time>2026-04-12T08:57:36.914Z</time></trkpt><trkpt lat="43.6637697" lon="12.1932144"><ele>1055.0</ele><time>2026-04-12T08:57:42.039Z</time></trkpt><trkpt lat="43.6637058" lon="12.1932389"><ele>1055.0</ele><time>2026-04-12T08:57:47.071Z</time></trkpt><trkpt lat="43.663646" lon="12.1931938"><ele>1055.0</ele><time>2026-04-12T08:57:50.987Z</time></trkpt><trkpt lat="43.6635973" lon="12.1931109"><ele>1055.0</ele><time>2026-04-12T08:57:53.987Z</time></trkpt><trkpt lat="43.6635537" lon="12.1930235"><ele>1055.0</ele><time>2026-04-12T08:57:56.987Z</time></trkpt><trkpt lat="43.6635103" lon="12.1929528"><ele>1055.0</ele><time>2026-04-12T08:57:59.914Z</time></trkpt><trkpt lat="43.6634756" lon="12.1928597"><ele>1055.0</ele><time>2026-04-12T08:58:03.068Z</time></trkpt><trkpt lat="43.6634354" lon="12.1927712"><ele>1054.8333333333335</ele><time>2026-04-12T08:58:06.029Z</time></trkpt><trkpt lat="43.6633867" lon="12.1926723"><ele>1054.6666666666667</ele><time>2026-04-12T08:58:08.987Z</time></trkpt><trkpt lat="43.6633357" lon="12.192583"><ele>1054.5</ele><time>2026-04-12T08:58:11.987Z</time></trkpt><trkpt lat="43.6632994" lon="12.1924977"><ele>1054.3333333333333</ele><time>2026-04-12T08:58:15.987Z</time></trkpt><trkpt lat="43.6632671" lon="12.192414"><ele>1054.1666666666665</ele><time>2026-04-12T08:58:19.072Z</time></trkpt><trkpt lat="43.6632212" lon="12.192344"><ele>1054.0</ele><time>2026-04-12T08:58:22.986Z</time></trkpt><trkpt lat="43.6632502" lon="12.1922385"><ele>1054.5714285714287</ele><time>2026-04-12T08:58:27.061Z</time></trkpt><trkpt lat="43.6632903" lon="12.192152"><ele>1055.142857142857</ele><time>2026-04-12T08:58:29.986Z</time></trkpt><trkpt lat="43.6633387" lon="12.1920698"><ele>1055.7142857142858</ele><time>2026-04-12T08:58:33.062Z</time></trkpt><trkpt lat="43.6633768" lon="12.1919999"><ele>1056.2857142857142</ele><time>2026-04-12T08:58:35.9Z</time></trkpt><trkpt lat="43.6634208" lon="12.1919324"><ele>1056.857142857143</ele><time>2026-04-12T08:58:38.987Z</time></trkpt><trkpt lat="43.6634678" lon="12.1918558"><ele>1057.4285714285716</ele><time>2026-04-12T08:58:42.987Z</time></trkpt><trkpt lat="43.6635216" lon="12.1917689"><ele>1058.0</ele><time>2026-04-12T08:58:47.068Z</time></trkpt><trkpt lat="43.6635485" lon="12.1916747"><ele>1058.0</ele><time>2026-04-12T08:58:52.991Z</time></trkpt><trkpt lat="43.6635525" lon="12.1915792"><ele>1058.0</ele><time>2026-04-12T08:58:59.987Z</time></trkpt><trkpt lat="43.6635316" lon="12.1914788"><ele>1058.0</ele><time>2026-04-12T08:59:05.961Z</time></trkpt><trkpt lat="43.6634878" lon="12.1914096"><ele>1058.0</ele><time>2026-04-12T08:59:10.987Z</time></trkpt><trkpt lat="43.6634539" lon="12.1913212"><ele>1058.0</ele><time>2026-04-12T08:59:15.07Z</time></trkpt><trkpt lat="43.6634174" lon="12.1912349"><ele>1058.0</ele><time>2026-04-12T08:59:17.975Z</time></trkpt><trkpt lat="43.663382" lon="12.191145"><ele>1058.0</ele><time>2026-04-12T08:59:22.073Z</time></trkpt><trkpt lat="43.6633375" lon="12.1910548"><ele>1058.857142857143</ele><time>2026-04-12T08:59:26.986Z</time></trkpt><trkpt lat="43.6632995" lon="12.1909774"><ele>1059.7142857142858</ele><time>2026-04-12T08:59:29.941Z</time></trkpt><trkpt lat="43.6632542" lon="12.1909153"><ele>1060.5714285714284</ele><time>2026-04-12T08:59:33.986Z</time></trkpt><trkpt lat="43.6631932" lon="12.1908558"><ele>1061.4285714285716</ele><time>2026-04-12T08:59:38.9Z</time></trkpt><trkpt lat="43.6631688" lon="12.1907648"><ele>1062.2857142857142</ele><time>2026-04-12T08:59:45.986Z</time></trkpt><trkpt lat="43.6631135" lon="12.1907062"><ele>1063.142857142857</ele><time>2026-04-12T08:59:51Z</time></trkpt><trkpt lat="43.6630596" lon="12.1906536"><ele>1064.0</ele><time>2026-04-12T08:59:55.986Z</time></trkpt><trkpt lat="43.6630139" lon="12.1905729"><ele>1064.0</ele><time>2026-04-12T09:00:00.987Z</time></trkpt><trkpt lat="43.6629932" lon="12.1904571"><ele>1064.0</ele><time>2026-04-12T09:00:05.109Z</time></trkpt><trkpt lat="43.6629825" lon="12.1903656"><ele>1064.0</ele><time>2026-04-12T09:00:08.987Z</time></trkpt><trkpt lat="43.6629721" lon="12.1902711"><ele>1064.0</ele><time>2026-04-12T09:00:11.956Z</time></trkpt><trkpt lat="43.6629438" lon="12.1901802"><ele>1064.0</ele><time>2026-04-12T09:00:14.987Z</time></trkpt><trkpt lat="43.6629386" lon="12.1900897"><ele>1064.0</ele><time>2026-04-12T09:00:18.987Z</time></trkpt><trkpt lat="43.6629076" lon="12.1900114"><ele>1064.0</ele><time>2026-04-12T09:00:25.986Z</time></trkpt><trkpt lat="43.6628607" lon="12.1899351"><ele>1064.0</ele><time>2026-04-12T09:00:30.987Z</time></trkpt><trkpt lat="43.66283" lon="12.189853"><ele>1064.0</ele><time>2026-04-12T09:00:33.902Z</time></trkpt><trkpt lat="43.662809" lon="12.1897559"><ele>1064.0</ele><time>2026-04-12T09:00:37.069Z</time></trkpt><trkpt lat="43.6627818" lon="12.1896715"><ele>1064.0</ele><time>2026-04-12T09:00:40.069Z</time></trkpt><trkpt lat="43.6627583" lon="12.1895886"><ele>1064.0</ele><time>2026-04-12T09:00:43.045Z</time></trkpt><trkpt lat="43.6627152" lon="12.1895089"><ele>1064.0</ele><time>2026-04-12T09:00:46.068Z</time></trkpt><trkpt lat="43.6626647" lon="12.1894544"><ele>1064.0</ele><time>2026-04-12T09:00:48.987Z</time></trkpt><trkpt lat="43.6626008" lon="12.1894077"><ele>1063.7142857142858</ele><time>2026-04-12T09:00:52.063Z</time></trkpt><trkpt lat="43.6625387" lon="12.1893677"><ele>1063.4285714285716</ele><time>2026-04-12T09:00:56.036Z</time></trkpt><trkpt lat="43.6624765" lon="12.1893014"><ele>1063.142857142857</ele><time>2026-04-12T09:01:01.993Z</time></trkpt><trkpt lat="43.6624041" lon="12.1892864"><ele>1062.857142857143</ele><time>2026-04-12T09:01:06.986Z</time></trkpt><trkpt lat="43.6623416" lon="12.1892685"><ele>1062.5714285714287</ele><time>2026-04-12T09:01:10.986Z</time></trkpt><trkpt lat="43.6622751" lon="12.1892276"><ele>1062.2857142857142</ele><time>2026-04-12T09:01:15.987Z</time></trkpt><trkpt lat="43.6622275" lon="12.1891584"><ele>1062.0</ele><time>2026-04-12T09:01:20.001Z</time></trkpt><trkpt lat="43.6621856" lon="12.1890582"><ele>1062.142857142857</ele><time>2026-04-12T09:01:24.086Z</time></trkpt><trkpt lat="43.6621389" lon="12.1889756"><ele>1062.2857142857144</ele><time>2026-04-12T09:01:28.067Z</time></trkpt><trkpt lat="43.6620994" lon="12.1889078"><ele>1062.4285714285716</ele><time>2026-04-12T09:01:32.069Z</time></trkpt><trkpt lat="43.6620728" lon="12.1888175"><ele>1062.5714285714287</ele><time>2026-04-12T09:01:35.895Z</time></trkpt><trkpt lat="43.6620216" lon="12.1887628"><ele>1062.7142857142858</ele><time>2026-04-12T09:01:38.987Z</time></trkpt><trkpt lat="43.6619542" lon="12.1887356"><ele>1062.857142857143</ele><time>2026-04-12T09:01:41.986Z</time></trkpt><trkpt lat="43.6618899" lon="12.1887417"><ele>1063.0</ele><time>2026-04-12T09:01:44.895Z</time></trkpt><trkpt lat="43.6618124" lon="12.1887604"><ele>1063.0</ele><time>2026-04-12T09:01:47.977Z</time></trkpt><trkpt lat="43.6617493" lon="12.1887268"><ele>1063.0</ele><time>2026-04-12T09:01:50.987Z</time></trkpt><trkpt lat="43.6616943" lon="12.188672"><ele>1063.0</ele><time>2026-04-12T09:01:53.987Z</time></trkpt><trkpt lat="43.6616336" lon="12.1886205"><ele>1063.0</ele><time>2026-04-12T09:01:57.987Z</time></trkpt><trkpt lat="43.6615664" lon="12.1885853"><ele>1063.0</ele><time>2026-04-12T09:02:02.987Z</time></trkpt><trkpt lat="43.6615072" lon="12.1885445"><ele>1063.0</ele><time>2026-04-12T09:02:07.986Z</time></trkpt><trkpt lat="43.6614638" lon="12.1884681"><ele>1063.0</ele><time>2026-04-12T09:02:13.301Z</time></trkpt><trkpt lat="43.6613958" lon="12.1884257"><ele>1063.0</ele><time>2026-04-12T09:02:18.813Z</time></trkpt><trkpt lat="43.6613253" lon="12.1883928"><ele>1063.0</ele><time>2026-04-12T09:02:23.986Z</time></trkpt><trkpt lat="43.6612669" lon="12.1883144"><ele>1063.0</ele><time>2026-04-12T09:02:27.995Z</time></trkpt><trkpt lat="43.6612209" lon="12.1882179"><ele>1063.0</ele><time>2026-04-12T09:02:31.961Z</time></trkpt><trkpt lat="43.6611719" lon="12.1881622"><ele>1063.0</ele><time>2026-04-12T09:02:35.081Z</time></trkpt><trkpt lat="43.6611223" lon="12.1880922"><ele>1063.0</ele><time>2026-04-12T09:02:38.986Z</time></trkpt><trkpt lat="43.6610873" lon="12.1880125"><ele>1063.0</ele><time>2026-04-12T09:02:45.935Z</time></trkpt><trkpt lat="43.6610494" lon="12.1879382"><ele>1063.0</ele><time>2026-04-12T09:02:50.06Z</time></trkpt><trkpt lat="43.6609957" lon="12.1878609"><ele>1063.0</ele><time>2026-04-12T09:02:53.987Z</time></trkpt><trkpt lat="43.6609579" lon="12.1877866"><ele>1063.0</ele><time>2026-04-12T09:02:57.08Z</time></trkpt><trkpt lat="43.6609236" lon="12.1877035"><ele>1063.0</ele><time>2026-04-12T09:03:01.065Z</time></trkpt><trkpt lat="43.6608971" lon="12.1876044"><ele>1063.0</ele><time>2026-04-12T09:03:04.962Z</time></trkpt><trkpt lat="43.660827" lon="12.1875712"><ele>1063.0</ele><time>2026-04-12T09:03:09.988Z</time></trkpt><trkpt lat="43.6607586" lon="12.1875069"><ele>1063.0</ele><time>2026-04-12T09:03:15.073Z</time></trkpt><trkpt lat="43.6607134" lon="12.1874219"><ele>1063.0</ele><time>2026-04-12T09:03:18.894Z</time></trkpt><trkpt lat="43.6606528" lon="12.1873556"><ele>1063.0</ele><time>2026-04-12T09:03:22.986Z</time></trkpt><trkpt lat="43.66059" lon="12.1873491"><ele>1063.0</ele><time>2026-04-12T09:03:26.987Z</time></trkpt><trkpt lat="43.6605195" lon="12.1873281"><ele>1063.0</ele><time>2026-04-12T09:03:32.07Z</time></trkpt><trkpt lat="43.6604702" lon="12.1872657"><ele>1063.0</ele><time>2026-04-12T09:03:36.986Z</time></trkpt><trkpt lat="43.6604227" lon="12.1871897"><ele>1063.0</ele><time>2026-04-12T09:03:41.987Z</time></trkpt><trkpt lat="43.6603736" lon="12.1871261"><ele>1063.0</ele><time>2026-04-12T09:03:47.012Z</time></trkpt><trkpt lat="43.6603223" lon="12.1870729"><ele>1064.4285714285713</ele><time>2026-04-12T09:03:52.088Z</time></trkpt><trkpt lat="43.6602514" lon="12.1870435"><ele>1065.857142857143</ele><time>2026-04-12T09:03:59.024Z</time></trkpt><trkpt lat="43.6601882" lon="12.1870538"><ele>1067.2857142857142</ele><time>2026-04-12T09:04:03.987Z</time></trkpt><trkpt lat="43.6601119" lon="12.1870359"><ele>1068.7142857142858</ele><time>2026-04-12T09:04:09.986Z</time></trkpt><trkpt lat="43.660056" lon="12.1869749"><ele>1070.142857142857</ele><time>2026-04-12T09:04:15.987Z</time></trkpt><trkpt lat="43.6599897" lon="12.1869773"><ele>1071.5714285714284</ele><time>2026-04-12T09:04:21.986Z</time></trkpt><trkpt lat="43.6599218" lon="12.1869664"><ele>1073.0</ele><time>2026-04-12T09:04:27.987Z</time></trkpt><trkpt lat="43.6598621" lon="12.1869265"><ele>1073.0</ele><time>2026-04-12T09:04:32.986Z</time></trkpt><trkpt lat="43.6597982" lon="12.1868945"><ele>1073.0</ele><time>2026-04-12T09:04:38.986Z</time></trkpt><trkpt lat="43.6597321" lon="12.1868503"><ele>1073.0</ele><time>2026-04-12T09:04:45.065Z</time></trkpt><trkpt lat="43.6596757" lon="12.1867926"><ele>1073.0</ele><time>2026-04-12T09:04:50.987Z</time></trkpt><trkpt lat="43.6596275" lon="12.1867176"><ele>1073.0</ele><time>2026-04-12T09:04:58.048Z</time></trkpt><trkpt lat="43.659585" lon="12.1866443"><ele>1073.0</ele><time>2026-04-12T09:05:04.987Z</time></trkpt><trkpt lat="43.659538" lon="12.186567"><ele>1073.0</ele><time>2026-04-12T09:05:12.079Z</time></trkpt><trkpt lat="43.6594695" lon="12.186552"><ele>1074.142857142857</ele><time>2026-04-12T09:05:20.986Z</time></trkpt><trkpt lat="43.6594217" lon="12.1864928"><ele>1075.2857142857142</ele><time>2026-04-12T09:05:28.987Z</time></trkpt><trkpt lat="43.6593518" lon="12.1864978"><ele>1076.4285714285713</ele><time>2026-04-12T09:05:38.001Z</time></trkpt><trkpt lat="43.6592764" lon="12.1864831"><ele>1077.5714285714284</ele><time>2026-04-12T09:05:43.935Z</time></trkpt><trkpt lat="43.6592102" lon="12.1864683"><ele>1078.7142857142858</ele><time>2026-04-12T09:05:47.116Z</time></trkpt><trkpt lat="43.6591449" lon="12.186464"><ele>1079.8571428571427</ele><time>2026-04-12T09:05:50.66Z</time></trkpt><trkpt lat="43.6590712" lon="12.1864811"><ele>1081.0</ele><time>2026-04-12T09:05:54.987Z</time></trkpt><trkpt lat="43.6590091" lon="12.1864631"><ele>1080.9999999999998</ele><time>2026-04-12T09:05:59.987Z</time></trkpt><trkpt lat="43.6589421" lon="12.1864647"><ele>1081.0</ele><time>2026-04-12T09:06:04.987Z</time></trkpt><trkpt lat="43.6588675" lon="12.1864655"><ele>1081.0</ele><time>2026-04-12T09:06:10.987Z</time></trkpt><trkpt lat="43.6588043" lon="12.1864791"><ele>1081.0</ele><time>2026-04-12T09:06:16.987Z</time></trkpt><trkpt lat="43.6587361" lon="12.1864845"><ele>1081.0</ele><time>2026-04-12T09:06:23.994Z</time></trkpt><trkpt lat="43.6586714" lon="12.1865164"><ele>1080.9999999999998</ele><time>2026-04-12T09:06:29.986Z</time></trkpt><trkpt lat="43.6586056" lon="12.1865066"><ele>1081.0</ele><time>2026-04-12T09:06:35.987Z</time></trkpt><trkpt lat="43.6585382" lon="12.1864952"><ele>1084.142857142857</ele><time>2026-04-12T09:06:41.986Z</time></trkpt><trkpt lat="43.6584708" lon="12.1864884"><ele>1087.2857142857142</ele><time>2026-04-12T09:06:48.026Z</time></trkpt><trkpt lat="43.6583904" lon="12.1864812"><ele>1090.4285714285716</ele><time>2026-04-12T09:06:52.987Z</time></trkpt><trkpt lat="43.6583225" lon="12.1864595"><ele>1093.5714285714284</ele><time>2026-04-12T09:06:55.987Z</time></trkpt><trkpt lat="43.6582627" lon="12.1864297"><ele>1096.7142857142858</ele><time>2026-04-12T09:06:58.987Z</time></trkpt><trkpt lat="43.6582057" lon="12.1863788"><ele>1099.857142857143</ele><time>2026-04-12T09:07:04.072Z</time></trkpt><trkpt lat="43.6581352" lon="12.1863469"><ele>1103.0</ele><time>2026-04-12T09:07:10.987Z</time></trkpt><trkpt lat="43.6580516" lon="12.1863479"><ele>1103.0000000000002</ele><time>2026-04-12T09:07:15.986Z</time></trkpt><trkpt lat="43.6579711" lon="12.1863326"><ele>1103.0</ele><time>2026-04-12T09:07:19.986Z</time></trkpt><trkpt lat="43.657906" lon="12.1863351"><ele>1103.0</ele><time>2026-04-12T09:07:22.922Z</time></trkpt><trkpt lat="43.6578366" lon="12.186341"><ele>1103.0</ele><time>2026-04-12T09:07:26.067Z</time></trkpt><trkpt lat="43.6577695" lon="12.1863453"><ele>1103.0</ele><time>2026-04-12T09:07:29.986Z</time></trkpt><trkpt lat="43.6577131" lon="12.1863059"><ele>1103.0000000000002</ele><time>2026-04-12T09:07:34.063Z</time></trkpt><trkpt lat="43.6576523" lon="12.1862673"><ele>1103.0</ele><time>2026-04-12T09:07:37.987Z</time></trkpt><trkpt lat="43.6575944" lon="12.1862066"><ele>1103.1428571428573</ele><time>2026-04-12T09:07:41.016Z</time></trkpt><trkpt lat="43.657561" lon="12.1861319"><ele>1103.2857142857142</ele><time>2026-04-12T09:07:44.987Z</time></trkpt><trkpt lat="43.6575252" lon="12.1860552"><ele>1103.4285714285716</ele><time>2026-04-12T09:07:47.986Z</time></trkpt><trkpt lat="43.6574831" lon="12.1859617"><ele>1103.5714285714287</ele><time>2026-04-12T09:07:51.07Z</time></trkpt><trkpt lat="43.6574538" lon="12.1858555"><ele>1103.7142857142858</ele><time>2026-04-12T09:07:55.987Z</time></trkpt><trkpt lat="43.657435" lon="12.1857519"><ele>1103.857142857143</ele><time>2026-04-12T09:07:59.987Z</time></trkpt><trkpt lat="43.6573948" lon="12.1856732"><ele>1104.0</ele><time>2026-04-12T09:08:03.084Z</time></trkpt><trkpt lat="43.6573651" lon="12.1855837"><ele>1104.0</ele><time>2026-04-12T09:08:05.986Z</time></trkpt><trkpt lat="43.6573374" lon="12.1854752"><ele>1104.0</ele><time>2026-04-12T09:08:09.059Z</time></trkpt><trkpt lat="43.6572983" lon="12.1854053"><ele>1104.0</ele><time>2026-04-12T09:08:10.987Z</time></trkpt><trkpt lat="43.6572572" lon="12.1853049"><ele>1104.0</ele><time>2026-04-12T09:08:14.064Z</time></trkpt><trkpt lat="43.6572136" lon="12.185198"><ele>1104.0</ele><time>2026-04-12T09:08:16.987Z</time></trkpt><trkpt lat="43.6571697" lon="12.1851004"><ele>1104.0</ele><time>2026-04-12T09:08:20.019Z</time></trkpt><trkpt lat="43.6571122" lon="12.1850193"><ele>1104.0</ele><time>2026-04-12T09:08:22.987Z</time></trkpt><trkpt lat="43.6570454" lon="12.184951"><ele>1104.0</ele><time>2026-04-12T09:08:25.986Z</time></trkpt><trkpt lat="43.6569772" lon="12.184907"><ele>1104.0</ele><time>2026-04-12T09:08:29.068Z</time></trkpt><trkpt lat="43.6569085" lon="12.1848943"><ele>1104.0</ele><time>2026-04-12T09:08:31.987Z</time></trkpt><trkpt lat="43.6568276" lon="12.1849048"><ele>1104.0</ele><time>2026-04-12T09:08:36.073Z</time></trkpt><trkpt lat="43.65675" lon="12.1848952"><ele>1104.0</ele><time>2026-04-12T09:08:41.077Z</time></trkpt><trkpt lat="43.6566852" lon="12.1849013"><ele>1102.857142857143</ele><time>2026-04-12T09:08:44.987Z</time></trkpt><trkpt lat="43.6566226" lon="12.1848832"><ele>1101.7142857142858</ele><time>2026-04-12T09:08:48.986Z</time></trkpt><trkpt lat="43.6565511" lon="12.1848787"><ele>1100.5714285714287</ele><time>2026-04-12T09:08:53.953Z</time></trkpt><trkpt lat="43.6564878" lon="12.1848653"><ele>1099.4285714285716</ele><time>2026-04-12T09:08:59.987Z</time></trkpt><trkpt lat="43.6564279" lon="12.1848287"><ele>1098.2857142857142</ele><time>2026-04-12T09:09:05.9Z</time></trkpt><trkpt lat="43.6563595" lon="12.1848176"><ele>1097.1428571428573</ele><time>2026-04-12T09:09:11.986Z</time></trkpt><trkpt lat="43.6563007" lon="12.1847796"><ele>1096.0</ele><time>2026-04-12T09:09:18.987Z</time></trkpt><trkpt lat="43.6562417" lon="12.1847483"><ele>1094.2857142857144</ele><time>2026-04-12T09:09:31.986Z</time></trkpt><trkpt lat="43.6561999" lon="12.1846745"><ele>1092.5714285714287</ele><time>2026-04-12T09:09:42.988Z</time></trkpt><trkpt lat="43.6561328" lon="12.184704"><ele>1090.857142857143</ele><time>2026-04-12T09:09:53.033Z</time></trkpt><trkpt lat="43.6560915" lon="12.1846354"><ele>1089.1428571428573</ele><time>2026-04-12T09:10:08.9Z</time></trkpt><trkpt lat="43.6560303" lon="12.1846645"><ele>1087.4285714285716</ele><time>2026-04-12T09:10:25.987Z</time></trkpt><trkpt lat="43.656025" lon="12.1847637"><ele>1085.7142857142858</ele><time>2026-04-12T09:10:31.987Z</time></trkpt><trkpt lat="43.6559637" lon="12.1847993"><ele>1084.0</ele><time>2026-04-12T09:10:41.986Z</time></trkpt><trkpt lat="43.6559204" lon="12.184729"><ele>1089.4285714285713</ele><time>2026-04-12T09:10:48.987Z</time></trkpt><trkpt lat="43.6559192" lon="12.1846365"><ele>1094.857142857143</ele><time>2026-04-12T09:10:53.986Z</time></trkpt><trkpt lat="43.655912" lon="12.1845498"><ele>1100.2857142857142</ele><time>2026-04-12T09:10:59.987Z</time></trkpt><trkpt lat="43.6558732" lon="12.1844772"><ele>1105.7142857142858</ele><time>2026-04-12T09:11:10.986Z</time></trkpt><trkpt lat="43.6558159" lon="12.1844192"><ele>1111.142857142857</ele><time>2026-04-12T09:11:18.986Z</time></trkpt><trkpt lat="43.6557647" lon="12.1843508"><ele>1116.5714285714284</ele><time>2026-04-12T09:11:25.987Z</time></trkpt><trkpt lat="43.6556993" lon="12.1843235"><ele>1122.0</ele><time>2026-04-12T09:11:32.987Z</time></trkpt><trkpt lat="43.6556688" lon="12.1842451"><ele>1122.0</ele><time>2026-04-12T09:11:39.987Z</time></trkpt><trkpt lat="43.6556253" lon="12.1841715"><ele>1122.0</ele><time>2026-04-12T09:11:47.987Z</time></trkpt><trkpt lat="43.6555737" lon="12.1841091"><ele>1122.0</ele><time>2026-04-12T09:11:55.986Z</time></trkpt><trkpt lat="43.6555146" lon="12.184145"><ele>1122.0</ele><time>2026-04-12T09:12:01.986Z</time></trkpt><trkpt lat="43.6554505" lon="12.1841539"><ele>1122.0</ele><time>2026-04-12T09:12:08.986Z</time></trkpt><trkpt lat="43.6553805" lon="12.1841417"><ele>1122.0</ele><time>2026-04-12T09:12:16.987Z</time></trkpt><trkpt lat="43.6553077" lon="12.1841572"><ele>1122.0</ele><time>2026-04-12T09:12:22.987Z</time></trkpt><trkpt lat="43.6552346" lon="12.1841776"><ele>1123.142857142857</ele><time>2026-04-12T09:12:28.987Z</time></trkpt><trkpt lat="43.655159" lon="12.1841585"><ele>1124.2857142857142</ele><time>2026-04-12T09:12:34.314Z</time></trkpt><trkpt lat="43.6550946" lon="12.184136"><ele>1125.4285714285713</ele><time>2026-04-12T09:12:38.986Z</time></trkpt><trkpt lat="43.6550355" lon="12.1840693"><ele>1126.5714285714284</ele><time>2026-04-12T09:12:45.082Z</time></trkpt><trkpt lat="43.6549915" lon="12.1840016"><ele>1127.7142857142858</ele><time>2026-04-12T09:12:51.066Z</time></trkpt><trkpt lat="43.6549408" lon="12.1839435"><ele>1128.8571428571427</ele><time>2026-04-12T09:12:55.987Z</time></trkpt><trkpt lat="43.6548834" lon="12.1838969"><ele>1130.0</ele><time>2026-04-12T09:13:01.955Z</time></trkpt><trkpt lat="43.6548488" lon="12.183823"><ele>1129.9999999999998</ele><time>2026-04-12T09:13:06.987Z</time></trkpt><trkpt lat="43.6547791" lon="12.1837966"><ele>1130.0</ele><time>2026-04-12T09:13:14.236Z</time></trkpt><trkpt lat="43.6547083" lon="12.1837988"><ele>1130.0</ele><time>2026-04-12T09:13:19.987Z</time></trkpt><trkpt lat="43.6546279" lon="12.1837724"><ele>1130.0</ele><time>2026-04-12T09:13:25.058Z</time></trkpt><trkpt lat="43.6545622" lon="12.1837398"><ele>1130.0</ele><time>2026-04-12T09:13:28.979Z</time></trkpt><trkpt lat="43.6545044" lon="12.1836713"><ele>1129.9999999999998</ele><time>2026-04-12T09:13:34.987Z</time></trkpt><trkpt lat="43.6544363" lon="12.1836461"><ele>1130.0</ele><time>2026-04-12T09:13:39.088Z</time></trkpt><trkpt lat="43.6543615" lon="12.1836216"><ele>1131.8571428571427</ele><time>2026-04-12T09:13:43.797Z</time></trkpt><trkpt lat="43.6542925" lon="12.1836078"><ele>1133.7142857142858</ele><time>2026-04-12T09:13:48.895Z</time></trkpt><trkpt lat="43.6542251" lon="12.1836343"><ele>1135.5714285714284</ele><time>2026-04-12T09:13:54.987Z</time></trkpt><trkpt lat="43.6541642" lon="12.1836703"><ele>1137.4285714285713</ele><time>2026-04-12T09:14:12.986Z</time></trkpt><trkpt lat="43.6540974" lon="12.1836676"><ele>1139.2857142857142</ele><time>2026-04-12T09:14:16.993Z</time></trkpt><trkpt lat="43.654036" lon="12.1836172"><ele>1141.142857142857</ele><time>2026-04-12T09:14:23.019Z</time></trkpt><trkpt lat="43.6539806" lon="12.1835695"><ele>1143.0</ele><time>2026-04-12T09:14:29.879Z</time></trkpt><trkpt lat="43.6539199" lon="12.1836106"><ele>1143.0</ele><time>2026-04-12T09:14:34.986Z</time></trkpt><trkpt lat="43.653869" lon="12.1836769"><ele>1143.0</ele><time>2026-04-12T09:14:41.987Z</time></trkpt><trkpt lat="43.6538676" lon="12.1837754"><ele>1143.0</ele><time>2026-04-12T09:14:47.992Z</time></trkpt><trkpt lat="43.6538138" lon="12.1838404"><ele>1143.0</ele><time>2026-04-12T09:14:56.987Z</time></trkpt><trkpt lat="43.6537612" lon="12.1838969"><ele>1143.0</ele><time>2026-04-12T09:15:05.048Z</time></trkpt><trkpt lat="43.6537056" lon="12.1839544"><ele>1143.0</ele><time>2026-04-12T09:15:12.986Z</time></trkpt><trkpt lat="43.6536428" lon="12.1839464"><ele>1143.0</ele><time>2026-04-12T09:15:18.987Z</time></trkpt><trkpt lat="43.6535737" lon="12.1839655"><ele>1145.142857142857</ele><time>2026-04-12T09:15:26.902Z</time></trkpt><trkpt lat="43.6535054" lon="12.1839526"><ele>1147.2857142857142</ele><time>2026-04-12T09:15:34.987Z</time></trkpt><trkpt lat="43.6534383" lon="12.183917"><ele>1149.4285714285713</ele><time>2026-04-12T09:15:42.986Z</time></trkpt><trkpt lat="43.6533733" lon="12.1839071"><ele>1151.5714285714284</ele><time>2026-04-12T09:15:49.986Z</time></trkpt><trkpt lat="43.6533177" lon="12.1839558"><ele>1153.7142857142858</ele><time>2026-04-12T09:15:56.003Z</time></trkpt><trkpt lat="43.6532585" lon="12.1840014"><ele>1155.8571428571427</ele><time>2026-04-12T09:16:04.033Z</time></trkpt><trkpt lat="43.6531956" lon="12.1839792"><ele>1158.0</ele><time>2026-04-12T09:16:11.08Z</time></trkpt><trkpt lat="43.6531399" lon="12.1839287"><ele>1157.9999999999998</ele><time>2026-04-12T09:16:19.987Z</time></trkpt><trkpt lat="43.6531218" lon="12.1838365"><ele>1158.0</ele><time>2026-04-12T09:16:29.987Z</time></trkpt><trkpt lat="43.6531441" lon="12.1837531"><ele>1158.0</ele><time>2026-04-12T09:16:37.987Z</time></trkpt><trkpt lat="43.6530987" lon="12.1836863"><ele>1158.0</ele><time>2026-04-12T09:16:44.986Z</time></trkpt><trkpt lat="43.6530218" lon="12.1836722"><ele>1158.0</ele><time>2026-04-12T09:16:51.987Z</time></trkpt><trkpt lat="43.6529517" lon="12.1836397"><ele>1157.9999999999998</ele><time>2026-04-12T09:16:58.09Z</time></trkpt><trkpt lat="43.6528841" lon="12.1836144"><ele>1158.0</ele><time>2026-04-12T09:17:03.986Z</time></trkpt><trkpt lat="43.6528213" lon="12.183626"><ele>1161.5714285714284</ele><time>2026-04-12T09:17:08.955Z</time></trkpt><trkpt lat="43.6527615" lon="12.1836558"><ele>1165.142857142857</ele><time>2026-04-12T09:17:15.986Z</time></trkpt><trkpt lat="43.6526981" lon="12.1836502"><ele>1168.7142857142858</ele><time>2026-04-12T09:17:21.993Z</time></trkpt><trkpt lat="43.6526498" lon="12.183587"><ele>1172.2857142857142</ele><time>2026-04-12T09:17:25.999Z</time></trkpt><trkpt lat="43.6526105" lon="12.1834897"><ele>1175.857142857143</ele><time>2026-04-12T09:17:30.04Z</time></trkpt><trkpt lat="43.6525988" lon="12.1833962"><ele>1179.4285714285713</ele><time>2026-04-12T09:17:32.987Z</time></trkpt><trkpt lat="43.6525661" lon="12.1833178"><ele>1183.0</ele><time>2026-04-12T09:17:36.066Z</time></trkpt><trkpt lat="43.6525184" lon="12.1832378"><ele>1181.142857142857</ele><time>2026-04-12T09:17:40.986Z</time></trkpt><trkpt lat="43.6524788" lon="12.1831639"><ele>1179.2857142857142</ele><time>2026-04-12T09:17:46.986Z</time></trkpt><trkpt lat="43.6524431" lon="12.1830751"><ele>1177.4285714285716</ele><time>2026-04-12T09:17:54.986Z</time></trkpt><trkpt lat="43.6524089" lon="12.1829885"><ele>1175.5714285714284</ele><time>2026-04-12T09:18:01.986Z</time></trkpt><trkpt lat="43.6523472" lon="12.1829618"><ele>1173.7142857142858</ele><time>2026-04-12T09:18:08.992Z</time></trkpt><trkpt lat="43.6522775" lon="12.1829726"><ele>1171.857142857143</ele><time>2026-04-12T09:18:14.986Z</time></trkpt><trkpt lat="43.6522081" lon="12.1829589"><ele>1170.0</ele><time>2026-04-12T09:18:23.031Z</time></trkpt><trkpt lat="43.6521652" lon="12.1828862"><ele>1170.0</ele><time>2026-04-12T09:18:30.94Z</time></trkpt><trkpt lat="43.6521251" lon="12.1828031"><ele>1170.0</ele><time>2026-04-12T09:18:37.986Z</time></trkpt><trkpt lat="43.6520827" lon="12.1827234"><ele>1170.0</ele><time>2026-04-12T09:18:43.986Z</time></trkpt><trkpt lat="43.6520162" lon="12.1826942"><ele>1170.0</ele><time>2026-04-12T09:18:50.07Z</time></trkpt><trkpt lat="43.6519591" lon="12.1827422"><ele>1170.0</ele><time>2026-04-12T09:18:56.081Z</time></trkpt><trkpt lat="43.6518896" lon="12.1827387"><ele>1170.0</ele><time>2026-04-12T09:19:02.901Z</time></trkpt><trkpt lat="43.6518318" lon="12.1826891"><ele>1170.0</ele><time>2026-04-12T09:19:07.986Z</time></trkpt><trkpt lat="43.6517645" lon="12.18265"><ele>1175.142857142857</ele><time>2026-04-12T09:19:13.987Z</time></trkpt><trkpt lat="43.6517006" lon="12.1826107"><ele>1180.2857142857142</ele><time>2026-04-12T09:19:19.974Z</time></trkpt><trkpt lat="43.65164" lon="12.1825622"><ele>1185.4285714285716</ele><time>2026-04-12T09:19:26.987Z</time></trkpt><trkpt lat="43.6516447" lon="12.1824738"><ele>1190.5714285714284</ele><time>2026-04-12T09:19:33.986Z</time></trkpt><trkpt lat="43.6516707" lon="12.1823936"><ele>1195.7142857142856</ele><time>2026-04-12T09:19:41.986Z</time></trkpt><trkpt lat="43.6516289" lon="12.1824587"><ele>1200.857142857143</ele><time>2026-04-12T09:19:49.987Z</time></trkpt><trkpt lat="43.6515763" lon="12.1825204"><ele>1206.0</ele><time>2026-04-12T09:19:56.987Z</time></trkpt><trkpt lat="43.6515038" lon="12.1825196"><ele>1206.0</ele><time>2026-04-12T09:20:03.986Z</time></trkpt><trkpt lat="43.6514545" lon="12.1824549"><ele>1206.0</ele><time>2026-04-12T09:20:10.987Z</time></trkpt><trkpt lat="43.6514214" lon="12.1823729"><ele>1206.0</ele><time>2026-04-12T09:20:18.024Z</time></trkpt><trkpt lat="43.6513684" lon="12.1823182"><ele>1206.0</ele><time>2026-04-12T09:20:25.987Z</time></trkpt><trkpt lat="43.6513188" lon="12.1822615"><ele>1206.0</ele><time>2026-04-12T09:20:33.986Z</time></trkpt><trkpt lat="43.6513364" lon="12.1821697"><ele>1206.0</ele><time>2026-04-12T09:20:43.986Z</time></trkpt><trkpt lat="43.6513588" lon="12.1820792"><ele>1206.0</ele><time>2026-04-12T09:20:52.987Z</time></trkpt><trkpt lat="43.6512953" lon="12.1820915"><ele>1204.4285714285716</ele><time>2026-04-12T09:21:03.986Z</time></trkpt><trkpt lat="43.6512362" lon="12.1821244"><ele>1202.8571428571427</ele><time>2026-04-12T09:21:12.001Z</time></trkpt><trkpt lat="43.6511701" lon="12.1821107"><ele>1201.2857142857142</ele><time>2026-04-12T09:21:19.988Z</time></trkpt><trkpt lat="43.6511073" lon="12.1820632"><ele>1199.7142857142858</ele><time>2026-04-12T09:21:28.036Z</time></trkpt><trkpt lat="43.6510867" lon="12.1819704"><ele>1198.1428571428573</ele><time>2026-04-12T09:21:36.987Z</time></trkpt><trkpt lat="43.6511487" lon="12.1819316"><ele>1196.5714285714284</ele><time>2026-04-12T09:21:44.986Z</time></trkpt><trkpt lat="43.6512058" lon="12.1818834"><ele>1195.0</ele><time>2026-04-12T09:21:52.987Z</time></trkpt><trkpt lat="43.6511609" lon="12.1818159"><ele>1201.857142857143</ele><time>2026-04-12T09:22:01.054Z</time></trkpt><trkpt lat="43.6511144" lon="12.1817464"><ele>1208.7142857142858</ele><time>2026-04-12T09:22:10.017Z</time></trkpt><trkpt lat="43.6510686" lon="12.1816712"><ele>1215.5714285714287</ele><time>2026-04-12T09:22:18.986Z</time></trkpt><trkpt lat="43.6510228" lon="12.1816038"><ele>1222.4285714285716</ele><time>2026-04-12T09:22:27.987Z</time></trkpt><trkpt lat="43.6509689" lon="12.1815512"><ele>1229.2857142857142</ele><time>2026-04-12T09:22:37.987Z</time></trkpt><trkpt lat="43.6508994" lon="12.1815451"><ele>1236.1428571428573</ele><time>2026-04-12T09:22:47.036Z</time></trkpt><trkpt lat="43.6508656" lon="12.1816202"><ele>1243.0</ele><time>2026-04-12T09:22:53.915Z</time></trkpt><trkpt lat="43.6508104" lon="12.181667"><ele>1243.0000000000002</ele><time>2026-04-12T09:23:00.987Z</time></trkpt><trkpt lat="43.6507374" lon="12.1816724"><ele>1243.0</ele><time>2026-04-12T09:23:07.954Z</time></trkpt><trkpt lat="43.6506909" lon="12.181608"><ele>1243.0</ele><time>2026-04-12T09:23:16.987Z</time></trkpt><trkpt lat="43.6506863" lon="12.18152"><ele>1243.0</ele><time>2026-04-12T09:23:24.858Z</time></trkpt><trkpt lat="43.6506243" lon="12.1814829"><ele>1243.0</ele><time>2026-04-12T09:23:31.987Z</time></trkpt><trkpt lat="43.6505647" lon="12.1815124"><ele>1243.0000000000002</ele><time>2026-04-12T09:23:40.987Z</time></trkpt><trkpt lat="43.6504975" lon="12.1815393"><ele>1243.0</ele><time>2026-04-12T09:23:49.987Z</time></trkpt><trkpt lat="43.650514" lon="12.1814551"><ele>1241.5714285714287</ele><time>2026-04-12T09:23:56.987Z</time></trkpt><trkpt lat="43.6505569" lon="12.1813898"><ele>1240.142857142857</ele><time>2026-04-12T09:24:03.987Z</time></trkpt><trkpt lat="43.650492" lon="12.1813712"><ele>1238.7142857142858</ele><time>2026-04-12T09:24:13.987Z</time></trkpt><trkpt lat="43.650433" lon="12.1814027"><ele>1237.2857142857142</ele><time>2026-04-12T09:24:22.995Z</time></trkpt><trkpt lat="43.6504206" lon="12.1813073"><ele>1235.857142857143</ele><time>2026-04-12T09:24:37.987Z</time></trkpt><trkpt lat="43.6503573" lon="12.1813111"><ele>1234.4285714285716</ele><time>2026-04-12T09:24:46.987Z</time></trkpt><trkpt lat="43.6503235" lon="12.181233"><ele>1233.0</ele><time>2026-04-12T09:24:56.991Z</time></trkpt><trkpt lat="43.6502601" lon="12.1812582"><ele>1233.0</ele><time>2026-04-12T09:25:05.986Z</time></trkpt><trkpt lat="43.650306" lon="12.1811866"><ele>1233.0</ele><time>2026-04-12T09:25:13.987Z</time></trkpt><trkpt lat="43.6502392" lon="12.1811726"><ele>1233.0</ele><time>2026-04-12T09:25:25.987Z</time></trkpt><trkpt lat="43.6502312" lon="12.1810766"><ele>1233.0</ele><time>2026-04-12T09:25:39.987Z</time></trkpt><trkpt lat="43.6501616" lon="12.181096"><ele>1233.0</ele><time>2026-04-12T09:25:47.986Z</time></trkpt><trkpt lat="43.6501044" lon="12.1811454"><ele>1233.0</ele><time>2026-04-12T09:25:55.914Z</time></trkpt><trkpt lat="43.6500427" lon="12.1811215"><ele>1233.0</ele><time>2026-04-12T09:26:06.963Z</time></trkpt><trkpt lat="43.6500452" lon="12.1810291"><ele>1239.857142857143</ele><time>2026-04-12T09:26:14.987Z</time></trkpt><trkpt lat="43.6501022" lon="12.1809803"><ele>1246.7142857142858</ele><time>2026-04-12T09:26:21.987Z</time></trkpt><trkpt lat="43.6500717" lon="12.1808977"><ele>1253.5714285714284</ele><time>2026-04-12T09:26:30.936Z</time></trkpt><trkpt lat="43.6500394" lon="12.1809883"><ele>1260.4285714285716</ele><time>2026-04-12T09:26:39.986Z</time></trkpt><trkpt lat="43.6499819" lon="12.1810394"><ele>1267.2857142857142</ele><time>2026-04-12T09:26:50.943Z</time></trkpt><trkpt lat="43.6499211" lon="12.1810789"><ele>1274.142857142857</ele><time>2026-04-12T09:26:58.987Z</time></trkpt><trkpt lat="43.6499264" lon="12.1809861"><ele>1281.0</ele><time>2026-04-12T09:27:09.987Z</time></trkpt><trkpt lat="43.6499419" lon="12.1809014"><ele>1281.0</ele><time>2026-04-12T09:27:16.062Z</time></trkpt><trkpt lat="43.6499521" lon="12.1808135"><ele>1281.0</ele><time>2026-04-12T09:27:25.987Z</time></trkpt><trkpt lat="43.6499175" lon="12.1808994"><ele>1281.0</ele><time>2026-04-12T09:27:32.987Z</time></trkpt><trkpt lat="43.6498877" lon="12.1809867"><ele>1281.0</ele><time>2026-04-12T09:27:39.987Z</time></trkpt><trkpt lat="43.6498467" lon="12.1809196"><ele>1281.0</ele><time>2026-04-12T09:27:48.987Z</time></trkpt><trkpt lat="43.6498587" lon="12.1808277"><ele>1281.0</ele><time>2026-04-12T09:27:57.986Z</time></trkpt><trkpt lat="43.6497998" lon="12.1807805"><ele>1281.0</ele><time>2026-04-12T09:28:08.09Z</time></trkpt><trkpt lat="43.6497634" lon="12.1808531"><ele>1281.0</ele><time>2026-04-12T09:28:13.987Z</time></trkpt><trkpt lat="43.6497258" lon="12.1809266"><ele>1281.0</ele><time>2026-04-12T09:28:21.047Z</time></trkpt><trkpt lat="43.6496644" lon="12.1809549"><ele>1281.0</ele><time>2026-04-12T09:28:29.987Z</time></trkpt><trkpt lat="43.6495999" lon="12.1809616"><ele>1281.0</ele><time>2026-04-12T09:28:38.986Z</time></trkpt><trkpt lat="43.6495339" lon="12.1809342"><ele>1281.0</ele><time>2026-04-12T09:28:48.987Z</time></trkpt><trkpt lat="43.6494673" lon="12.1809184"><ele>1281.0</ele><time>2026-04-12T09:28:56.987Z</time></trkpt><trkpt lat="43.6494033" lon="12.1809302"><ele>1281.0</ele><time>2026-04-12T09:29:04.987Z</time></trkpt><trkpt lat="43.6493391" lon="12.1809135"><ele>1281.0</ele><time>2026-04-12T09:29:16.995Z</time></trkpt><trkpt lat="43.6492954" lon="12.180839"><ele>1281.0</ele><time>2026-04-12T09:29:25.987Z</time></trkpt><trkpt lat="43.6492863" lon="12.1807481"><ele>1281.0</ele><time>2026-04-12T09:29:32.986Z</time></trkpt><trkpt lat="43.6493518" lon="12.1807546"><ele>1281.0</ele><time>2026-04-12T09:29:39.986Z</time></trkpt><trkpt lat="43.6494209" lon="12.1807561"><ele>1281.0</ele><time>2026-04-12T09:29:47.987Z</time></trkpt><trkpt lat="43.649473" lon="12.1806993"><ele>1281.0</ele><time>2026-04-12T09:29:55.987Z</time></trkpt><trkpt lat="43.6494223" lon="12.1806437"><ele>1281.0</ele><time>2026-04-12T09:30:04.02Z</time></trkpt><trkpt lat="43.6493536" lon="12.1806673"><ele>1289.857142857143</ele><time>2026-04-12T09:30:11.986Z</time></trkpt><trkpt lat="43.649284" lon="12.1806349"><ele>1298.7142857142858</ele><time>2026-04-12T09:30:23.987Z</time></trkpt><trkpt lat="43.6493395" lon="12.1805905"><ele>1307.5714285714284</ele><time>2026-04-12T09:30:31.987Z</time></trkpt><trkpt lat="43.6493951" lon="12.180542"><ele>1316.4285714285716</ele><time>2026-04-12T09:30:38.987Z</time></trkpt><trkpt lat="43.6494145" lon="12.1804503"><ele>1325.2857142857142</ele><time>2026-04-12T09:30:50.021Z</time></trkpt><trkpt lat="43.6493927" lon="12.1803623"><ele>1334.142857142857</ele><time>2026-04-12T09:30:56.074Z</time></trkpt><trkpt lat="43.6493731" lon="12.1802653"><ele>1343.0</ele><time>2026-04-12T09:31:02.987Z</time></trkpt><trkpt lat="43.6493457" lon="12.1801779"><ele>1343.0</ele><time>2026-04-12T09:31:08.956Z</time></trkpt><trkpt lat="43.6493012" lon="12.1801041"><ele>1343.0</ele><time>2026-04-12T09:31:15.079Z</time></trkpt><trkpt lat="43.6492697" lon="12.180026"><ele>1343.0</ele><time>2026-04-12T09:31:20.987Z</time></trkpt><trkpt lat="43.6492398" lon="12.1799491"><ele>1343.0</ele><time>2026-04-12T09:31:26.987Z</time></trkpt><trkpt lat="43.6491959" lon="12.1798764"><ele>1343.0</ele><time>2026-04-12T09:31:33.986Z</time></trkpt><trkpt lat="43.6491674" lon="12.1797877"><ele>1343.0</ele><time>2026-04-12T09:31:40.937Z</time></trkpt><trkpt lat="43.6491259" lon="12.1797164"><ele>1343.0</ele><time>2026-04-12T09:31:47.986Z</time></trkpt><trkpt lat="43.6490672" lon="12.1796694"><ele>1341.2857142857142</ele><time>2026-04-12T09:31:53.987Z</time></trkpt><trkpt lat="43.6490247" lon="12.1795804"><ele>1339.5714285714287</ele><time>2026-04-12T09:32:00.001Z</time></trkpt><trkpt lat="43.6490016" lon="12.1794967"><ele>1337.857142857143</ele><time>2026-04-12T09:32:05.999Z</time></trkpt><trkpt lat="43.6489801" lon="12.1794137"><ele>1336.142857142857</ele><time>2026-04-12T09:32:11.937Z</time></trkpt><trkpt lat="43.6489687" lon="12.1793217"><ele>1334.4285714285713</ele><time>2026-04-12T09:32:17.986Z</time></trkpt><trkpt lat="43.6489554" lon="12.1792353"><ele>1332.7142857142858</ele><time>2026-04-12T09:32:22.996Z</time></trkpt><trkpt lat="43.6489576" lon="12.1791482"><ele>1331.0</ele><time>2026-04-12T09:32:28.07Z</time></trkpt><trkpt lat="43.6489445" lon="12.1790611"><ele>1330.142857142857</ele><time>2026-04-12T09:32:34.039Z</time></trkpt><trkpt lat="43.6489223" lon="12.1789743"><ele>1329.2857142857142</ele><time>2026-04-12T09:32:40.987Z</time></trkpt><trkpt lat="43.6489045" lon="12.178879"><ele>1328.4285714285716</ele><time>2026-04-12T09:32:47.022Z</time></trkpt><trkpt lat="43.6488828" lon="12.178782"><ele>1327.5714285714284</ele><time>2026-04-12T09:32:54.1Z</time></trkpt><trkpt lat="43.6488594" lon="12.1786889"><ele>1326.7142857142856</ele><time>2026-04-12T09:33:02.987Z</time></trkpt><trkpt lat="43.6488238" lon="12.1786015"><ele>1325.857142857143</ele><time>2026-04-12T09:33:10.96Z</time></trkpt><trkpt lat="43.6488212" lon="12.1785142"><ele>1325.0</ele><time>2026-04-12T09:33:16.998Z</time></trkpt><trkpt lat="43.6488119" lon="12.1784245"><ele>1325.0</ele><time>2026-04-12T09:33:20.987Z</time></trkpt><trkpt lat="43.648809" lon="12.1783372"><ele>1325.0</ele><time>2026-04-12T09:33:23.942Z</time></trkpt><trkpt lat="43.6488063" lon="12.1782293"><ele>1325.0</ele><time>2026-04-12T09:33:27.899Z</time></trkpt><trkpt lat="43.6488227" lon="12.1781426"><ele>1325.0</ele><time>2026-04-12T09:33:30.986Z</time></trkpt><trkpt lat="43.6488494" lon="12.1780481"><ele>1325.0</ele><time>2026-04-12T09:33:33.921Z</time></trkpt><trkpt lat="43.6488708" lon="12.1779506"><ele>1325.0</ele><time>2026-04-12T09:33:36.987Z</time></trkpt><trkpt lat="43.6489322" lon="12.1778828"><ele>1325.0</ele><time>2026-04-12T09:33:40.987Z</time></trkpt><trkpt lat="43.6489824" lon="12.1778141"><ele>1324.5714285714287</ele><time>2026-04-12T09:33:44.065Z</time></trkpt><trkpt lat="43.6490389" lon="12.1777459"><ele>1324.142857142857</ele><time>2026-04-12T09:33:47.987Z</time></trkpt><trkpt lat="43.6490749" lon="12.1776624"><ele>1323.7142857142858</ele><time>2026-04-12T09:33:51.065Z</time></trkpt><trkpt lat="43.6490972" lon="12.1775762"><ele>1323.2857142857142</ele><time>2026-04-12T09:33:54.987Z</time></trkpt><trkpt lat="43.6491202" lon="12.1774707"><ele>1322.857142857143</ele><time>2026-04-12T09:33:59.08Z</time></trkpt><trkpt lat="43.6491364" lon="12.1773787"><ele>1322.4285714285713</ele><time>2026-04-12T09:34:01.987Z</time></trkpt><trkpt lat="43.6491606" lon="12.1772675"><ele>1322.0</ele><time>2026-04-12T09:34:06.04Z</time></trkpt><trkpt lat="43.6491759" lon="12.1771691"><ele>1320.0</ele><time>2026-04-12T09:34:09Z</time></trkpt><trkpt lat="43.6492142" lon="12.1770732"><ele>1318.0</ele><time>2026-04-12T09:34:12.072Z</time></trkpt><trkpt lat="43.6492648" lon="12.1769853"><ele>1316.0</ele><time>2026-04-12T09:34:15.984Z</time></trkpt><trkpt lat="43.6492989" lon="12.1768842"><ele>1314.0</ele><time>2026-04-12T09:34:20.016Z</time></trkpt><trkpt lat="43.6493343" lon="12.1768035"><ele>1312.0</ele><time>2026-04-12T09:34:23.066Z</time></trkpt><trkpt lat="43.6493843" lon="12.1767358"><ele>1310.0</ele><time>2026-04-12T09:34:25.986Z</time></trkpt><trkpt lat="43.6494253" lon="12.1766593"><ele>1308.0</ele><time>2026-04-12T09:34:28.919Z</time></trkpt><trkpt lat="43.6494364" lon="12.1765529"><ele>1306.857142857143</ele><time>2026-04-12T09:34:31.987Z</time></trkpt><trkpt lat="43.6494612" lon="12.176455"><ele>1305.7142857142858</ele><time>2026-04-12T09:34:35.987Z</time></trkpt><trkpt lat="43.649505" lon="12.1763725"><ele>1304.5714285714284</ele><time>2026-04-12T09:34:39.999Z</time></trkpt><trkpt lat="43.6495326" lon="12.1762785"><ele>1303.4285714285716</ele><time>2026-04-12T09:34:44.987Z</time></trkpt><trkpt lat="43.6495813" lon="12.1761912"><ele>1302.2857142857144</ele><time>2026-04-12T09:34:48.987Z</time></trkpt><trkpt lat="43.6496242" lon="12.1761064"><ele>1301.142857142857</ele><time>2026-04-12T09:34:52.987Z</time></trkpt><trkpt lat="43.6496666" lon="12.1760307"><ele>1300.0</ele><time>2026-04-12T09:34:55.913Z</time></trkpt><trkpt lat="43.6497204" lon="12.1759525"><ele>1300.0</ele><time>2026-04-12T09:34:58.986Z</time></trkpt><trkpt lat="43.6497547" lon="12.1758717"><ele>1300.0</ele><time>2026-04-12T09:35:01.895Z</time></trkpt><trkpt lat="43.649786" lon="12.1757887"><ele>1300.0</ele><time>2026-04-12T09:35:05.077Z</time></trkpt><trkpt lat="43.6498345" lon="12.1757154"><ele>1300.0</ele><time>2026-04-12T09:35:08.073Z</time></trkpt><trkpt lat="43.6498734" lon="12.1756331"><ele>1300.0</ele><time>2026-04-12T09:35:11.987Z</time></trkpt><trkpt lat="43.6499404" lon="12.1755932"><ele>1300.0</ele><time>2026-04-12T09:35:16.987Z</time></trkpt><trkpt lat="43.6500032" lon="12.1755647"><ele>1300.0</ele><time>2026-04-12T09:35:21.986Z</time></trkpt><trkpt lat="43.6500674" lon="12.1755586"><ele>1300.142857142857</ele><time>2026-04-12T09:35:26.986Z</time></trkpt><trkpt lat="43.6501244" lon="12.1755216"><ele>1300.2857142857144</ele><time>2026-04-12T09:35:32.07Z</time></trkpt><trkpt lat="43.6501814" lon="12.1754667"><ele>1300.4285714285716</ele><time>2026-04-12T09:35:38.013Z</time></trkpt><trkpt lat="43.6502312" lon="12.1754028"><ele>1300.5714285714284</ele><time>2026-04-12T09:35:43.993Z</time></trkpt><trkpt lat="43.6502803" lon="12.1753439"><ele>1300.7142857142858</ele><time>2026-04-12T09:35:49.987Z</time></trkpt><trkpt lat="43.6503498" lon="12.1753351"><ele>1300.857142857143</ele><time>2026-04-12T09:35:55.987Z</time></trkpt><trkpt lat="43.6504192" lon="12.1753179"><ele>1301.0</ele><time>2026-04-12T09:36:02.986Z</time></trkpt><trkpt lat="43.6504837" lon="12.1753258"><ele>1302.2857142857142</ele><time>2026-04-12T09:36:09.987Z</time></trkpt><trkpt lat="43.6505446" lon="12.1753493"><ele>1303.5714285714287</ele><time>2026-04-12T09:36:16.987Z</time></trkpt><trkpt lat="43.6506089" lon="12.1753564"><ele>1304.857142857143</ele><time>2026-04-12T09:36:23.986Z</time></trkpt><trkpt lat="43.6506707" lon="12.1753103"><ele>1306.142857142857</ele><time>2026-04-12T09:36:31.988Z</time></trkpt><trkpt lat="43.6506859" lon="12.1752258"><ele>1307.4285714285713</ele><time>2026-04-12T09:36:38.987Z</time></trkpt><trkpt lat="43.650722" lon="12.1751425"><ele>1308.7142857142858</ele><time>2026-04-12T09:36:45.975Z</time></trkpt><trkpt lat="43.6507368" lon="12.1750516"><ele>1310.0</ele><time>2026-04-12T09:36:53.987Z</time></trkpt><trkpt lat="43.6507734" lon="12.1749657"><ele>1310.0</ele><time>2026-04-12T09:37:00.987Z</time></trkpt><trkpt lat="43.650818" lon="12.1748974"><ele>1310.0</ele><time>2026-04-12T09:37:06.978Z</time></trkpt><trkpt lat="43.6508753" lon="12.1748387"><ele>1310.0</ele><time>2026-04-12T09:37:14.987Z</time></trkpt><trkpt lat="43.6509254" lon="12.1747804"><ele>1310.0</ele><time>2026-04-12T09:37:22.986Z</time></trkpt><trkpt lat="43.650988" lon="12.1747652"><ele>1310.0</ele><time>2026-04-12T09:37:30.986Z</time></trkpt><trkpt lat="43.6510383" lon="12.1747076"><ele>1310.0</ele><time>2026-04-12T09:37:38.987Z</time></trkpt><trkpt lat="43.6510696" lon="12.1746224"><ele>1310.0</ele><time>2026-04-12T09:37:45.986Z</time></trkpt><trkpt lat="43.6510909" lon="12.174537"><ele>1308.857142857143</ele><time>2026-04-12T09:37:51.986Z</time></trkpt><trkpt lat="43.6511067" lon="12.1744381"><ele>1307.7142857142858</ele><time>2026-04-12T09:37:57.916Z</time></trkpt><trkpt lat="43.6511523" lon="12.1743614"><ele>1306.5714285714284</ele><time>2026-04-12T09:38:03.956Z</time></trkpt><trkpt lat="43.6512001" lon="12.1742876"><ele>1305.4285714285716</ele><time>2026-04-12T09:38:09.996Z</time></trkpt><trkpt lat="43.6511965" lon="12.1741945"><ele>1304.2857142857142</ele><time>2026-04-12T09:38:14.987Z</time></trkpt><trkpt lat="43.6511622" lon="12.1741022"><ele>1303.142857142857</ele><time>2026-04-12T09:38:20.895Z</time></trkpt><trkpt lat="43.6511447" lon="12.1740081"><ele>1302.0</ele><time>2026-04-12T09:38:26.987Z</time></trkpt><trkpt lat="43.6511752" lon="12.1739273"><ele>1302.0</ele><time>2026-04-12T09:38:33.987Z</time></trkpt><trkpt lat="43.6511527" lon="12.1738441"><ele>1302.0</ele><time>2026-04-12T09:38:39.921Z</time></trkpt><trkpt lat="43.6510948" lon="12.1738041"><ele>1302.0</ele><time>2026-04-12T09:38:46.987Z</time></trkpt><trkpt lat="43.6510419" lon="12.1737289"><ele>1302.0</ele><time>2026-04-12T09:38:53.987Z</time></trkpt><trkpt lat="43.6510524" lon="12.1736395"><ele>1302.0</ele><time>2026-04-12T09:38:59.987Z</time></trkpt><trkpt lat="43.6510904" lon="12.173558"><ele>1302.0</ele><time>2026-04-12T09:39:06.986Z</time></trkpt><trkpt lat="43.6511055" lon="12.1734718"><ele>1302.0</ele><time>2026-04-12T09:39:19.987Z</time></trkpt><trkpt lat="43.6510904" lon="12.173371"><ele>1306.4285714285713</ele><time>2026-04-12T09:40:16.987Z</time></trkpt><trkpt lat="43.6510894" lon="12.173275"><ele>1310.857142857143</ele><time>2026-04-12T09:40:21.987Z</time></trkpt><trkpt lat="43.6510798" lon="12.1731809"><ele>1315.2857142857142</ele><time>2026-04-12T09:40:27.986Z</time></trkpt><trkpt lat="43.6510898" lon="12.1730882"><ele>1319.7142857142858</ele><time>2026-04-12T09:40:32.986Z</time></trkpt><trkpt lat="43.6510943" lon="12.1729754"><ele>1324.142857142857</ele><time>2026-04-12T09:40:37.074Z</time></trkpt><trkpt lat="43.6510962" lon="12.1728707"><ele>1328.5714285714284</ele><time>2026-04-12T09:40:42.986Z</time></trkpt><trkpt lat="43.6510973" lon="12.1727707"><ele>1333.0</ele><time>2026-04-12T09:40:46.894Z</time></trkpt><trkpt lat="43.6510994" lon="12.172683"><ele>1333.142857142857</ele><time>2026-04-12T09:40:50.987Z</time></trkpt><trkpt lat="43.6510697" lon="12.1725912"><ele>1333.2857142857142</ele><time>2026-04-12T09:40:54.992Z</time></trkpt><trkpt lat="43.6511094" lon="12.1725133"><ele>1333.4285714285716</ele><time>2026-04-12T09:40:59.979Z</time></trkpt><trkpt lat="43.6511353" lon="12.1724302"><ele>1333.5714285714284</ele><time>2026-04-12T09:41:03.987Z</time></trkpt><trkpt lat="43.6511759" lon="12.1723465"><ele>1333.7142857142858</ele><time>2026-04-12T09:41:07Z</time></trkpt><trkpt lat="43.6511902" lon="12.1722527"><ele>1333.857142857143</ele><time>2026-04-12T09:41:09.987Z</time></trkpt><trkpt lat="43.6512047" lon="12.1721589"><ele>1334.0</ele><time>2026-04-12T09:41:12.934Z</time></trkpt><trkpt lat="43.6512278" lon="12.1720559"><ele>1334.4285714285716</ele><time>2026-04-12T09:41:16.021Z</time></trkpt><trkpt lat="43.6512548" lon="12.1719701"><ele>1334.857142857143</ele><time>2026-04-12T09:41:19.987Z</time></trkpt><trkpt lat="43.6512853" lon="12.1718752"><ele>1335.2857142857142</ele><time>2026-04-12T09:41:24.987Z</time></trkpt><trkpt lat="43.6513102" lon="12.1717908"><ele>1335.7142857142858</ele><time>2026-04-12T09:41:28.916Z</time></trkpt><trkpt lat="43.6513395" lon="12.171697"><ele>1336.142857142857</ele><time>2026-04-12T09:41:33.986Z</time></trkpt><trkpt lat="43.6513494" lon="12.171606"><ele>1336.5714285714287</ele><time>2026-04-12T09:41:38.987Z</time></trkpt><trkpt lat="43.6513651" lon="12.1715093"><ele>1337.0</ele><time>2026-04-12T09:41:45.037Z</time></trkpt><trkpt lat="43.6513617" lon="12.1714146"><ele>1339.142857142857</ele><time>2026-04-12T09:41:51.097Z</time></trkpt><trkpt lat="43.6513311" lon="12.1713321"><ele>1341.2857142857142</ele><time>2026-04-12T09:41:56.44Z</time></trkpt><trkpt lat="43.6513327" lon="12.1712314"><ele>1343.4285714285716</ele><time>2026-04-12T09:42:02.923Z</time></trkpt><trkpt lat="43.6513403" lon="12.1711421"><ele>1345.5714285714284</ele><time>2026-04-12T09:42:08.987Z</time></trkpt><trkpt lat="43.6513585" lon="12.1710567"><ele>1347.7142857142858</ele><time>2026-04-12T09:42:14.936Z</time></trkpt><trkpt lat="43.6514038" lon="12.1709762"><ele>1349.857142857143</ele><time>2026-04-12T09:42:20.922Z</time></trkpt><trkpt lat="43.6514268" lon="12.1708926"><ele>1352.0</ele><time>2026-04-12T09:42:26.998Z</time></trkpt><trkpt lat="43.6514473" lon="12.1708091"><ele>1352.0</ele><time>2026-04-12T09:42:32.986Z</time></trkpt><trkpt lat="43.6514714" lon="12.1707224"><ele>1352.0</ele><time>2026-04-12T09:42:38.987Z</time></trkpt><trkpt lat="43.6515256" lon="12.170668"><ele>1352.0</ele><time>2026-04-12T09:42:44.077Z</time></trkpt><trkpt lat="43.6515841" lon="12.1706141"><ele>1352.0</ele><time>2026-04-12T09:42:50.043Z</time></trkpt><trkpt lat="43.6516428" lon="12.1705729"><ele>1352.0</ele><time>2026-04-12T09:42:54.993Z</time></trkpt><trkpt lat="43.6516986" lon="12.1705267"><ele>1352.0</ele><time>2026-04-12T09:42:59.921Z</time></trkpt><trkpt lat="43.6517623" lon="12.1704964"><ele>1352.0</ele><time>2026-04-12T09:43:04.986Z</time></trkpt><trkpt lat="43.6518167" lon="12.1704429"><ele>1351.5714285714287</ele><time>2026-04-12T09:43:09.987Z</time></trkpt><trkpt lat="43.651865" lon="12.1703665"><ele>1351.142857142857</ele><time>2026-04-12T09:43:14.94Z</time></trkpt><trkpt lat="43.6519092" lon="12.1702849"><ele>1350.7142857142858</ele><time>2026-04-12T09:43:19.933Z</time></trkpt><trkpt lat="43.6519441" lon="12.1702118"><ele>1350.2857142857142</ele><time>2026-04-12T09:43:23.862Z</time></trkpt><trkpt lat="43.6519877" lon="12.1701291"><ele>1349.857142857143</ele><time>2026-04-12T09:43:28.913Z</time></trkpt><trkpt lat="43.6520053" lon="12.1700407"><ele>1349.4285714285713</ele><time>2026-04-12T09:43:33.971Z</time></trkpt><trkpt lat="43.6520236" lon="12.16994"><ele>1349.0</ele><time>2026-04-12T09:43:38.987Z</time></trkpt><trkpt lat="43.6520458" lon="12.1698534"><ele>1348.142857142857</ele><time>2026-04-12T09:43:43.986Z</time></trkpt><trkpt lat="43.6520731" lon="12.1697656"><ele>1347.2857142857144</ele><time>2026-04-12T09:43:49.897Z</time></trkpt><trkpt lat="43.652115" lon="12.1696837"><ele>1346.4285714285716</ele><time>2026-04-12T09:43:55.987Z</time></trkpt><trkpt lat="43.6521387" lon="12.1695884"><ele>1345.5714285714284</ele><time>2026-04-12T09:44:01.921Z</time></trkpt><trkpt lat="43.6521659" lon="12.1695076"><ele>1344.7142857142858</ele><time>2026-04-12T09:44:06.987Z</time></trkpt><trkpt lat="43.6522121" lon="12.1694277"><ele>1343.857142857143</ele><time>2026-04-12T09:44:12.987Z</time></trkpt><trkpt lat="43.6522458" lon="12.1693298"><ele>1343.0</ele><time>2026-04-12T09:44:17.941Z</time></trkpt><trkpt lat="43.6523006" lon="12.1692426"><ele>1343.0</ele><time>2026-04-12T09:44:21.987Z</time></trkpt><trkpt lat="43.6523275" lon="12.1691497"><ele>1343.0</ele><time>2026-04-12T09:44:24.986Z</time></trkpt><trkpt lat="43.6523491" lon="12.1690593"><ele>1343.0</ele><time>2026-04-12T09:44:27.987Z</time></trkpt><trkpt lat="43.6523998" lon="12.1689683"><ele>1343.0</ele><time>2026-04-12T09:44:32.026Z</time></trkpt><trkpt lat="43.6524465" lon="12.168877"><ele>1343.0</ele><time>2026-04-12T09:44:35.975Z</time></trkpt><trkpt lat="43.6524571" lon="12.1687881"><ele>1343.0</ele><time>2026-04-12T09:44:38.987Z</time></trkpt><trkpt lat="43.6524855" lon="12.1686797"><ele>1344.2857142857142</ele><time>2026-04-12T09:44:42.997Z</time></trkpt><trkpt lat="43.6525106" lon="12.1685958"><ele>1345.5714285714287</ele><time>2026-04-12T09:44:46.987Z</time></trkpt><trkpt lat="43.6525575" lon="12.168503"><ele>1346.857142857143</ele><time>2026-04-12T09:44:50.958Z</time></trkpt><trkpt lat="43.6525909" lon="12.1684214"><ele>1348.142857142857</ele><time>2026-04-12T09:44:54.988Z</time></trkpt><trkpt lat="43.652597" lon="12.1683231"><ele>1349.4285714285713</ele><time>2026-04-12T09:44:59.987Z</time></trkpt><trkpt lat="43.6526401" lon="12.1682351"><ele>1350.7142857142858</ele><time>2026-04-12T09:45:05.987Z</time></trkpt><trkpt lat="43.6526941" lon="12.168173"><ele>1352.0</ele><time>2026-04-12T09:45:10.987Z</time></trkpt><trkpt lat="43.6527459" lon="12.1680981"><ele>1352.142857142857</ele><time>2026-04-12T09:45:16.987Z</time></trkpt><trkpt lat="43.6527873" lon="12.1680174"><ele>1352.2857142857142</ele><time>2026-04-12T09:45:21.986Z</time></trkpt><trkpt lat="43.6528151" lon="12.1679352"><ele>1352.4285714285716</ele><time>2026-04-12T09:45:26.986Z</time></trkpt><trkpt lat="43.652831" lon="12.1678441"><ele>1352.5714285714284</ele><time>2026-04-12T09:45:31.987Z</time></trkpt><trkpt lat="43.6528474" lon="12.167752"><ele>1352.7142857142856</ele><time>2026-04-12T09:45:36.987Z</time></trkpt><trkpt lat="43.652892" lon="12.1676779"><ele>1352.857142857143</ele><time>2026-04-12T09:45:42.054Z</time></trkpt><trkpt lat="43.6529268" lon="12.1676029"><ele>1353.0</ele><time>2026-04-12T09:45:47.077Z</time></trkpt><trkpt lat="43.6529655" lon="12.1675246"><ele>1354.857142857143</ele><time>2026-04-12T09:45:52.987Z</time></trkpt><trkpt lat="43.6530082" lon="12.1674444"><ele>1356.7142857142856</ele><time>2026-04-12T09:46:00.087Z</time></trkpt><trkpt lat="43.6530528" lon="12.1673651"><ele>1358.5714285714284</ele><time>2026-04-12T09:46:07.087Z</time></trkpt><trkpt lat="43.6531075" lon="12.1673047"><ele>1360.4285714285716</ele><time>2026-04-12T09:46:13.933Z</time></trkpt><trkpt lat="43.653173" lon="12.1672861"><ele>1362.2857142857142</ele><time>2026-04-12T09:46:19.987Z</time></trkpt><trkpt lat="43.6532331" lon="12.1672487"><ele>1364.142857142857</ele><time>2026-04-12T09:46:24.92Z</time></trkpt><trkpt lat="43.6532933" lon="12.167197"><ele>1366.0</ele><time>2026-04-12T09:46:30.987Z</time></trkpt><trkpt lat="43.6533493" lon="12.1671496"><ele>1366.0</ele><time>2026-04-12T09:46:36.987Z</time></trkpt><trkpt lat="43.6534097" lon="12.1671033"><ele>1366.0</ele><time>2026-04-12T09:46:44.987Z</time></trkpt><trkpt lat="43.6534749" lon="12.1671323"><ele>1366.0</ele><time>2026-04-12T09:46:51.014Z</time></trkpt><trkpt lat="43.6535458" lon="12.1671274"><ele>1366.0</ele><time>2026-04-12T09:46:57.986Z</time></trkpt><trkpt lat="43.6536052" lon="12.1671567"><ele>1366.0</ele><time>2026-04-12T09:47:04.987Z</time></trkpt><trkpt lat="43.6536707" lon="12.1671364"><ele>1366.0</ele><time>2026-04-12T09:47:13.984Z</time></trkpt><trkpt lat="43.6537233" lon="12.1672009"><ele>1366.0</ele><time>2026-04-12T09:47:21.956Z</time></trkpt><trkpt lat="43.6537846" lon="12.1672358"><ele>1367.4285714285716</ele><time>2026-04-12T09:47:29.987Z</time></trkpt><trkpt lat="43.6538547" lon="12.167249"><ele>1368.857142857143</ele><time>2026-04-12T09:47:39.07Z</time></trkpt><trkpt lat="43.6539233" lon="12.1672258"><ele>1370.2857142857142</ele><time>2026-04-12T09:47:45.987Z</time></trkpt><trkpt lat="43.6539892" lon="12.1672036"><ele>1371.7142857142858</ele><time>2026-04-12T09:47:50.987Z</time></trkpt><trkpt lat="43.6540579" lon="12.1671848"><ele>1373.142857142857</ele><time>2026-04-12T09:47:55.987Z</time></trkpt><trkpt lat="43.6541223" lon="12.1671649"><ele>1374.5714285714287</ele><time>2026-04-12T09:48:00.987Z</time></trkpt><trkpt lat="43.6541803" lon="12.1671077"><ele>1376.0</ele><time>2026-04-12T09:48:06.095Z</time></trkpt><trkpt lat="43.6542534" lon="12.1670528"><ele>1376.0000000000002</ele><time>2026-04-12T09:48:12.078Z</time></trkpt><trkpt lat="43.654317" lon="12.1670223"><ele>1376.0</ele><time>2026-04-12T09:48:16.901Z</time></trkpt><trkpt lat="43.6543796" lon="12.1669866"><ele>1376.0</ele><time>2026-04-12T09:48:21.987Z</time></trkpt><trkpt lat="43.6544483" lon="12.1669504"><ele>1376.0</ele><time>2026-04-12T09:48:27.987Z</time></trkpt><trkpt lat="43.654482" lon="12.1668658"><ele>1376.0</ele><time>2026-04-12T09:48:32.991Z</time></trkpt><trkpt lat="43.6545188" lon="12.1667758"><ele>1376.0000000000002</ele><time>2026-04-12T09:48:38.072Z</time></trkpt><trkpt lat="43.6545548" lon="12.1666877"><ele>1376.0</ele><time>2026-04-12T09:48:41.986Z</time></trkpt><trkpt lat="43.654616" lon="12.1666228"><ele>1376.4285714285716</ele><time>2026-04-12T09:48:45.994Z</time></trkpt><trkpt lat="43.654656" lon="12.1665447"><ele>1376.857142857143</ele><time>2026-04-12T09:48:51.987Z</time></trkpt><trkpt lat="43.6546849" lon="12.1664541"><ele>1377.2857142857142</ele><time>2026-04-12T09:48:57.987Z</time></trkpt><trkpt lat="43.654717" lon="12.1663787"><ele>1377.7142857142858</ele><time>2026-04-12T09:49:02.987Z</time></trkpt><trkpt lat="43.654768" lon="12.1663164"><ele>1378.142857142857</ele><time>2026-04-12T09:49:09.987Z</time></trkpt><trkpt lat="43.6548303" lon="12.1662853"><ele>1378.5714285714287</ele><time>2026-04-12T09:49:16.987Z</time></trkpt><trkpt lat="43.6549048" lon="12.1662948"><ele>1379.0</ele><time>2026-04-12T09:49:23.615Z</time></trkpt><trkpt lat="43.6549575" lon="12.1662415"><ele>1379.4285714285713</ele><time>2026-04-12T09:49:28.937Z</time></trkpt><trkpt lat="43.6550058" lon="12.1661701"><ele>1379.857142857143</ele><time>2026-04-12T09:49:34.642Z</time></trkpt><trkpt lat="43.6550747" lon="12.1661355"><ele>1380.2857142857142</ele><time>2026-04-12T09:49:39.78Z</time></trkpt><trkpt lat="43.6551488" lon="12.1660972"><ele>1380.7142857142858</ele><time>2026-04-12T09:49:44.98Z</time></trkpt><trkpt lat="43.6552128" lon="12.1660662"><ele>1381.142857142857</ele><time>2026-04-12T09:49:49.979Z</time></trkpt><trkpt lat="43.6552754" lon="12.1660339"><ele>1381.5714285714284</ele><time>2026-04-12T09:49:54.989Z</time></trkpt><trkpt lat="43.6553476" lon="12.1660467"><ele>1382.0</ele><time>2026-04-12T09:49:59.986Z</time></trkpt><trkpt lat="43.6554203" lon="12.1660456"><ele>1384.9999999999998</ele><time>2026-04-12T09:50:07.986Z</time></trkpt><trkpt lat="43.6554835" lon="12.1660293"><ele>1388.0</ele><time>2026-04-12T09:50:15.987Z</time></trkpt><trkpt lat="43.6555357" lon="12.1660848"><ele>1391.0</ele><time>2026-04-12T09:50:23.987Z</time></trkpt><trkpt lat="43.6555983" lon="12.1660609"><ele>1394.0</ele><time>2026-04-12T09:50:33.986Z</time></trkpt><trkpt lat="43.6556684" lon="12.166041"><ele>1397.0</ele><time>2026-04-12T09:50:52.987Z</time></trkpt><trkpt lat="43.6557402" lon="12.1660399"><ele>1399.9999999999998</ele><time>2026-04-12T09:50:59.987Z</time></trkpt><trkpt lat="43.6558019" lon="12.1660613"><ele>1403.0</ele><time>2026-04-12T09:51:09.987Z</time></trkpt><trkpt lat="43.6558671" lon="12.1660477"><ele>1402.9999999999998</ele><time>2026-04-12T09:51:19.986Z</time></trkpt><trkpt lat="43.6559309" lon="12.1660444"><ele>1403.0</ele><time>2026-04-12T09:51:28.991Z</time></trkpt><trkpt lat="43.6560012" lon="12.166051"><ele>1403.0</ele><time>2026-04-12T09:51:36.986Z</time></trkpt><trkpt lat="43.6560655" lon="12.1660608"><ele>1403.0</ele><time>2026-04-12T09:51:45.986Z</time></trkpt><trkpt lat="43.656124" lon="12.1660154"><ele>1403.0</ele><time>2026-04-12T09:52:01.987Z</time></trkpt><trkpt lat="43.6561873" lon="12.1659847"><ele>1402.9999999999998</ele><time>2026-04-12T09:52:06.986Z</time></trkpt><trkpt lat="43.6562546" lon="12.1659797"><ele>1403.0</ele><time>2026-04-12T09:52:14.987Z</time></trkpt><trkpt lat="43.6563243" lon="12.1659947"><ele>1405.4285714285713</ele><time>2026-04-12T09:52:22.042Z</time></trkpt><trkpt lat="43.6563942" lon="12.166002"><ele>1407.857142857143</ele><time>2026-04-12T09:52:28.987Z</time></trkpt><trkpt lat="43.6564633" lon="12.1659917"><ele>1410.2857142857142</ele><time>2026-04-12T09:52:34.987Z</time></trkpt><trkpt lat="43.6565317" lon="12.1659933"><ele>1412.7142857142858</ele><time>2026-04-12T09:52:41.073Z</time></trkpt><trkpt lat="43.6565988" lon="12.165993"><ele>1415.142857142857</ele><time>2026-04-12T09:52:47.031Z</time></trkpt><trkpt lat="43.6566615" lon="12.1659769"><ele>1417.5714285714284</ele><time>2026-04-12T09:52:52.557Z</time></trkpt><trkpt lat="43.656727" lon="12.1659889"><ele>1420.0</ele><time>2026-04-12T09:52:57.987Z</time></trkpt><trkpt lat="43.6568015" lon="12.165987"><ele>1420.0</ele><time>2026-04-12T09:53:04.014Z</time></trkpt><trkpt lat="43.6568695" lon="12.1659925"><ele>1420.0</ele><time>2026-04-12T09:53:09.001Z</time></trkpt><trkpt lat="43.656932" lon="12.1660096"><ele>1420.0</ele><time>2026-04-12T09:53:14.018Z</time></trkpt><trkpt lat="43.6570035" lon="12.1660011"><ele>1420.0</ele><time>2026-04-12T09:53:20.011Z</time></trkpt><trkpt lat="43.6570702" lon="12.1659469"><ele>1420.0</ele><time>2026-04-12T09:53:25.02Z</time></trkpt><trkpt lat="43.6571386" lon="12.1658807"><ele>1420.0</ele><time>2026-04-12T09:53:29.987Z</time></trkpt><trkpt lat="43.657193" lon="12.1658209"><ele>1420.0</ele><time>2026-04-12T09:53:32.893Z</time></trkpt><trkpt lat="43.6572539" lon="12.1657859"><ele>1420.0</ele><time>2026-04-12T09:53:36.075Z</time></trkpt><trkpt lat="43.6573148" lon="12.1657146"><ele>1420.0</ele><time>2026-04-12T09:53:39.912Z</time></trkpt><trkpt lat="43.6573588" lon="12.1656299"><ele>1420.0</ele><time>2026-04-12T09:53:42.987Z</time></trkpt><trkpt lat="43.6574043" lon="12.165557"><ele>1420.0</ele><time>2026-04-12T09:53:45.986Z</time></trkpt><trkpt lat="43.6574507" lon="12.1654926"><ele>1420.0</ele><time>2026-04-12T09:53:48.96Z</time></trkpt><trkpt lat="43.6575049" lon="12.1654246"><ele>1420.0</ele><time>2026-04-12T09:53:52.987Z</time></trkpt><trkpt lat="43.6575557" lon="12.1653717"><ele>1420.0</ele><time>2026-04-12T09:53:56.987Z</time></trkpt><trkpt lat="43.6575845" lon="12.1652848"><ele>1420.0</ele><time>2026-04-12T09:54:01.987Z</time></trkpt><trkpt lat="43.6576166" lon="12.1652037"><ele>1420.0</ele><time>2026-04-12T09:54:07.987Z</time></trkpt><trkpt lat="43.6576719" lon="12.1651438"><ele>1420.0</ele><time>2026-04-12T09:54:14.075Z</time></trkpt><trkpt lat="43.6577169" lon="12.1650707"><ele>1420.0</ele><time>2026-04-12T09:54:20.894Z</time></trkpt><trkpt lat="43.6577563" lon="12.1649964"><ele>1420.0</ele><time>2026-04-12T09:54:27.072Z</time></trkpt><trkpt lat="43.6577891" lon="12.1649194"><ele>1420.0</ele><time>2026-04-12T09:54:31.919Z</time></trkpt><trkpt lat="43.6578297" lon="12.1648481"><ele>1420.0</ele><time>2026-04-12T09:54:37.987Z</time></trkpt><trkpt lat="43.6578947" lon="12.1648148"><ele>1422.4285714285713</ele><time>2026-04-12T09:54:46.073Z</time></trkpt><trkpt lat="43.6579637" lon="12.1647999"><ele>1424.857142857143</ele><time>2026-04-12T09:54:54.992Z</time></trkpt><trkpt lat="43.6580303" lon="12.1648149"><ele>1427.2857142857142</ele><time>2026-04-12T09:55:02.986Z</time></trkpt><trkpt lat="43.6580904" lon="12.1647709"><ele>1429.7142857142858</ele><time>2026-04-12T09:55:12.049Z</time></trkpt><trkpt lat="43.6581624" lon="12.1648001"><ele>1432.142857142857</ele><time>2026-04-12T09:55:24.987Z</time></trkpt><trkpt lat="43.6582272" lon="12.1647793"><ele>1434.5714285714287</ele><time>2026-04-12T09:55:33.02Z</time></trkpt><trkpt lat="43.6582974" lon="12.1647976"><ele>1437.0</ele><time>2026-04-12T09:55:42.992Z</time></trkpt><trkpt lat="43.6583583" lon="12.1647646"><ele>1437.0</ele><time>2026-04-12T09:55:56.986Z</time></trkpt><trkpt lat="43.6584182" lon="12.1647224"><ele>1437.0</ele><time>2026-04-12T09:56:03.986Z</time></trkpt><trkpt lat="43.6584807" lon="12.1646947"><ele>1437.0</ele><time>2026-04-12T09:56:12.987Z</time></trkpt><trkpt lat="43.6585366" lon="12.1646406"><ele>1437.0</ele><time>2026-04-12T09:56:22.021Z</time></trkpt><trkpt lat="43.6585857" lon="12.1645854"><ele>1437.0</ele><time>2026-04-12T09:56:30.907Z</time></trkpt><trkpt lat="43.6586366" lon="12.1645292"><ele>1437.0</ele><time>2026-04-12T09:56:36.986Z</time></trkpt><trkpt lat="43.6586896" lon="12.1644577"><ele>1437.0</ele><time>2026-04-12T09:56:42.987Z</time></trkpt><trkpt lat="43.6587384" lon="12.1643873"><ele>1436.3333333333333</ele><time>2026-04-12T09:56:48.987Z</time></trkpt><trkpt lat="43.6588067" lon="12.1643235"><ele>1435.6666666666667</ele><time>2026-04-12T09:56:53.987Z</time></trkpt><trkpt lat="43.6588484" lon="12.164252"><ele>1435.0</ele><time>2026-04-12T09:56:56.987Z</time></trkpt><trkpt lat="43.6589083" lon="12.1641828"><ele>1434.3333333333335</ele><time>2026-04-12T09:57:01.001Z</time></trkpt><trkpt lat="43.658939" lon="12.1640933"><ele>1433.6666666666667</ele><time>2026-04-12T09:57:04.987Z</time></trkpt><trkpt lat="43.659001" lon="12.164034"><ele>1433.0</ele><time>2026-04-12T09:57:08.992Z</time></trkpt><trkpt lat="43.6590741" lon="12.1639798"><ele>1433.0</ele><time>2026-04-12T09:57:14.019Z</time></trkpt><trkpt lat="43.6591414" lon="12.1639191"><ele>1433.0</ele><time>2026-04-12T09:57:17.934Z</time></trkpt><trkpt lat="43.6592028" lon="12.1638337"><ele>1433.0</ele><time>2026-04-12T09:57:21.987Z</time></trkpt><trkpt lat="43.659263" lon="12.1637677"><ele>1433.0</ele><time>2026-04-12T09:57:24.975Z</time></trkpt><trkpt lat="43.6593285" lon="12.1637083"><ele>1433.0</ele><time>2026-04-12T09:57:27.987Z</time></trkpt><trkpt lat="43.6593953" lon="12.1636528"><ele>1433.0</ele><time>2026-04-12T09:57:31.041Z</time></trkpt><trkpt lat="43.6594539" lon="12.1635913"><ele>1432.857142857143</ele><time>2026-04-12T09:57:33.973Z</time></trkpt><trkpt lat="43.6595162" lon="12.1635393"><ele>1432.7142857142858</ele><time>2026-04-12T09:57:36.986Z</time></trkpt><trkpt lat="43.6595555" lon="12.1634586"><ele>1432.5714285714287</ele><time>2026-04-12T09:57:40.898Z</time></trkpt><trkpt lat="43.6595997" lon="12.1633838"><ele>1432.4285714285716</ele><time>2026-04-12T09:57:43.986Z</time></trkpt><trkpt lat="43.6596438" lon="12.1633211"><ele>1432.2857142857142</ele><time>2026-04-12T09:57:46.987Z</time></trkpt><trkpt lat="43.659694" lon="12.1632616"><ele>1432.1428571428573</ele><time>2026-04-12T09:57:49.986Z</time></trkpt><trkpt lat="43.6597393" lon="12.163174"><ele>1432.0</ele><time>2026-04-12T09:57:53.987Z</time></trkpt><trkpt lat="43.6597811" lon="12.1630921"><ele>1431.1666666666665</ele><time>2026-04-12T09:57:57.071Z</time></trkpt><trkpt lat="43.6598143" lon="12.163004"><ele>1430.3333333333333</ele><time>2026-04-12T09:57:59.987Z</time></trkpt><trkpt lat="43.6598628" lon="12.1629258"><ele>1429.5</ele><time>2026-04-12T09:58:02.987Z</time></trkpt><trkpt lat="43.6599071" lon="12.1628533"><ele>1428.6666666666667</ele><time>2026-04-12T09:58:05.986Z</time></trkpt><trkpt lat="43.6599711" lon="12.1628069"><ele>1427.8333333333335</ele><time>2026-04-12T09:58:10.07Z</time></trkpt><trkpt lat="43.6600363" lon="12.162736"><ele>1427.0</ele><time>2026-04-12T09:58:14.986Z</time></trkpt><trkpt lat="43.6600924" lon="12.162653"><ele>1427.0</ele><time>2026-04-12T09:58:18.94Z</time></trkpt><trkpt lat="43.6601283" lon="12.1625702"><ele>1427.0</ele><time>2026-04-12T09:58:22.071Z</time></trkpt><trkpt lat="43.6601825" lon="12.162498"><ele>1427.0</ele><time>2026-04-12T09:58:25.299Z</time></trkpt><trkpt lat="43.6602437" lon="12.1624433"><ele>1427.0</ele><time>2026-04-12T09:58:28.164Z</time></trkpt><trkpt lat="43.660311" lon="12.1624457"><ele>1427.0</ele><time>2026-04-12T09:58:32.048Z</time></trkpt><trkpt lat="43.660369" lon="12.1623806"><ele>1427.0</ele><time>2026-04-12T09:58:36.987Z</time></trkpt><trkpt lat="43.6604291" lon="12.1623039"><ele>1427.0</ele><time>2026-04-12T09:58:40.987Z</time></trkpt><trkpt lat="43.6604595" lon="12.1622062"><ele>1424.142857142857</ele><time>2026-04-12T09:58:45.993Z</time></trkpt><trkpt lat="43.6605046" lon="12.1621311"><ele>1421.2857142857142</ele><time>2026-04-12T09:58:50.987Z</time></trkpt><trkpt lat="43.660566" lon="12.1620994"><ele>1418.4285714285716</ele><time>2026-04-12T09:58:53.987Z</time></trkpt><trkpt lat="43.660641" lon="12.1620568"><ele>1415.5714285714284</ele><time>2026-04-12T09:58:57.987Z</time></trkpt><trkpt lat="43.6607" lon="12.1620212"><ele>1412.7142857142858</ele><time>2026-04-12T09:59:02.077Z</time></trkpt><trkpt lat="43.6607673" lon="12.1620242"><ele>1409.857142857143</ele><time>2026-04-12T09:59:07.987Z</time></trkpt><trkpt lat="43.6608304" lon="12.1620238"><ele>1407.0</ele><time>2026-04-12T09:59:10.933Z</time></trkpt><trkpt lat="43.6609133" lon="12.162009"><ele>1407.0</ele><time>2026-04-12T09:59:13.916Z</time></trkpt><trkpt lat="43.6609859" lon="12.1620052"><ele>1407.0</ele><time>2026-04-12T09:59:17.075Z</time></trkpt><trkpt lat="43.6610544" lon="12.1620136"><ele>1407.0</ele><time>2026-04-12T09:59:20.86Z</time></trkpt><trkpt lat="43.661142" lon="12.16202"><ele>1407.0</ele><time>2026-04-12T09:59:24.986Z</time></trkpt><trkpt lat="43.6612152" lon="12.1620443"><ele>1407.0</ele><time>2026-04-12T09:59:27.986Z</time></trkpt><trkpt lat="43.6612863" lon="12.1620251"><ele>1407.0</ele><time>2026-04-12T09:59:30.997Z</time></trkpt><trkpt lat="43.6613571" lon="12.1620138"><ele>1407.0</ele><time>2026-04-12T09:59:33.94Z</time></trkpt><trkpt lat="43.6614232" lon="12.1619942"><ele>1406.7142857142858</ele><time>2026-04-12T09:59:37.341Z</time></trkpt><trkpt lat="43.6614963" lon="12.1619779"><ele>1406.4285714285716</ele><time>2026-04-12T09:59:40.463Z</time></trkpt><trkpt lat="43.6615597" lon="12.1619377"><ele>1406.142857142857</ele><time>2026-04-12T09:59:43.582Z</time></trkpt><trkpt lat="43.6616377" lon="12.1618899"><ele>1405.857142857143</ele><time>2026-04-12T09:59:46.987Z</time></trkpt><trkpt lat="43.6617007" lon="12.1618549"><ele>1405.5714285714287</ele><time>2026-04-12T09:59:49.994Z</time></trkpt><trkpt lat="43.6617658" lon="12.1618249"><ele>1405.2857142857142</ele><time>2026-04-12T09:59:52.902Z</time></trkpt><trkpt lat="43.6618314" lon="12.1617953"><ele>1405.0</ele><time>2026-04-12T09:59:56.079Z</time></trkpt><trkpt lat="43.6618926" lon="12.1617604"><ele>1403.5</ele><time>2026-04-12T09:59:58.987Z</time></trkpt><trkpt lat="43.6619567" lon="12.1617289"><ele>1402.0</ele><time>2026-04-12T10:00:01.986Z</time></trkpt><trkpt lat="43.6620196" lon="12.1616994"><ele>1400.5</ele><time>2026-04-12T10:00:04.987Z</time></trkpt><trkpt lat="43.6620954" lon="12.1616581"><ele>1399.0</ele><time>2026-04-12T10:00:08.993Z</time></trkpt><trkpt lat="43.6621776" lon="12.1616358"><ele>1397.5</ele><time>2026-04-12T10:00:12.987Z</time></trkpt><trkpt lat="43.6622504" lon="12.161608"><ele>1396.0</ele><time>2026-04-12T10:00:16.987Z</time></trkpt><trkpt lat="43.6623265" lon="12.1615555"><ele>1394.5714285714284</ele><time>2026-04-12T10:00:20.987Z</time></trkpt><trkpt lat="43.6623702" lon="12.1614883"><ele>1393.142857142857</ele><time>2026-04-12T10:00:23.987Z</time></trkpt><trkpt lat="43.6623695" lon="12.1613765"><ele>1391.7142857142858</ele><time>2026-04-12T10:00:28.003Z</time></trkpt><trkpt lat="43.6623905" lon="12.1612857"><ele>1390.2857142857142</ele><time>2026-04-12T10:00:31.987Z</time></trkpt><trkpt lat="43.6623487" lon="12.1612133"><ele>1388.857142857143</ele><time>2026-04-12T10:00:35.914Z</time></trkpt><trkpt lat="43.6622728" lon="12.1612136"><ele>1387.4285714285713</ele><time>2026-04-12T10:00:39.995Z</time></trkpt><trkpt lat="43.6622124" lon="12.1611424"><ele>1386.0</ele><time>2026-04-12T10:00:43.986Z</time></trkpt><trkpt lat="43.6621609" lon="12.1610547"><ele>1386.0</ele><time>2026-04-12T10:00:46.987Z</time></trkpt><trkpt lat="43.6621582" lon="12.160947"><ele>1386.0</ele><time>2026-04-12T10:00:49.987Z</time></trkpt><trkpt lat="43.6621674" lon="12.1608448"><ele>1386.0</ele><time>2026-04-12T10:00:53.994Z</time></trkpt><trkpt lat="43.6621586" lon="12.1607552"><ele>1386.0</ele><time>2026-04-12T10:00:57.987Z</time></trkpt><trkpt lat="43.6621759" lon="12.1606512"><ele>1386.0</ele><time>2026-04-12T10:01:01.965Z</time></trkpt><trkpt lat="43.6621766" lon="12.1605559"><ele>1386.0</ele><time>2026-04-12T10:01:06.987Z</time></trkpt><trkpt lat="43.6622202" lon="12.1604793"><ele>1386.0</ele><time>2026-04-12T10:01:10.987Z</time></trkpt><trkpt lat="43.6622774" lon="12.1604097"><ele>1382.8333333333333</ele><time>2026-04-12T10:01:14.987Z</time></trkpt><trkpt lat="43.6623316" lon="12.160331"><ele>1379.6666666666667</ele><time>2026-04-12T10:01:18.958Z</time></trkpt><trkpt lat="43.6623695" lon="12.1602348"><ele>1376.5</ele><time>2026-04-12T10:01:23.987Z</time></trkpt><trkpt lat="43.6623975" lon="12.1601495"><ele>1373.3333333333335</ele><time>2026-04-12T10:01:27.99Z</time></trkpt><trkpt lat="43.6624318" lon="12.1600599"><ele>1370.1666666666667</ele><time>2026-04-12T10:01:32.071Z</time></trkpt><trkpt lat="43.662453" lon="12.159961"><ele>1367.0</ele><time>2026-04-12T10:01:40.084Z</time></trkpt><trkpt lat="43.6624501" lon="12.1598483"><ele>1364.3333333333335</ele><time>2026-04-12T10:01:43.987Z</time></trkpt><trkpt lat="43.6624526" lon="12.1597291"><ele>1361.6666666666667</ele><time>2026-04-12T10:01:48.097Z</time></trkpt><trkpt lat="43.662507" lon="12.1596051"><ele>1359.0</ele><time>2026-04-12T10:01:55.091Z</time></trkpt><trkpt lat="43.6625638" lon="12.1595355"><ele>1356.3333333333333</ele><time>2026-04-12T10:01:58.756Z</time></trkpt><trkpt lat="43.6625589" lon="12.1594483"><ele>1353.6666666666665</ele><time>2026-04-12T10:02:04.081Z</time></trkpt><trkpt lat="43.6625912" lon="12.1593641"><ele>1351.0</ele><time>2026-04-12T10:02:10.987Z</time></trkpt><trkpt lat="43.6625836" lon="12.1592762"><ele>1351.0</ele><time>2026-04-12T10:02:16.088Z</time></trkpt><trkpt lat="43.6625414" lon="12.1592011"><ele>1351.0</ele><time>2026-04-12T10:02:19.94Z</time></trkpt><trkpt lat="43.6624964" lon="12.1591165"><ele>1351.0</ele><time>2026-04-12T10:02:25.987Z</time></trkpt><trkpt lat="43.6624549" lon="12.1590436"><ele>1351.0</ele><time>2026-04-12T10:02:30.954Z</time></trkpt><trkpt lat="43.6624196" lon="12.1589609"><ele>1351.0</ele><time>2026-04-12T10:02:35.906Z</time></trkpt><trkpt lat="43.6624716" lon="12.1588625"><ele>1351.0</ele><time>2026-04-12T10:02:38.986Z</time></trkpt><trkpt lat="43.6625344" lon="12.1588353"><ele>1351.0</ele><time>2026-04-12T10:02:40.07Z</time></trkpt><trkpt lat="43.6625664" lon="12.1587577"><ele>1349.3333333333333</ele><time>2026-04-12T10:02:43.071Z</time></trkpt><trkpt lat="43.662609" lon="12.1586625"><ele>1347.6666666666665</ele><time>2026-04-12T10:02:45.987Z</time></trkpt><trkpt lat="43.6626369" lon="12.1585628"><ele>1346.0</ele><time>2026-04-12T10:02:48.987Z</time></trkpt><trkpt lat="43.662624" lon="12.1584553"><ele>1344.3333333333333</ele><time>2026-04-12T10:02:52.075Z</time></trkpt><trkpt lat="43.6626262" lon="12.1583517"><ele>1342.6666666666667</ele><time>2026-04-12T10:02:55.897Z</time></trkpt><trkpt lat="43.6626475" lon="12.158237"><ele>1341.0</ele><time>2026-04-12T10:03:00.075Z</time></trkpt><trkpt lat="43.6626524" lon="12.1581472"><ele>1339.1666666666667</ele><time>2026-04-12T10:03:02.861Z</time></trkpt><trkpt lat="43.6626329" lon="12.1580379"><ele>1337.3333333333333</ele><time>2026-04-12T10:03:06.483Z</time></trkpt><trkpt lat="43.6626499" lon="12.1579228"><ele>1335.5</ele><time>2026-04-12T10:03:09.9Z</time></trkpt><trkpt lat="43.6626498" lon="12.1578204"><ele>1333.6666666666665</ele><time>2026-04-12T10:03:12.986Z</time></trkpt><trkpt lat="43.6626474" lon="12.1577308"><ele>1331.8333333333333</ele><time>2026-04-12T10:03:16.073Z</time></trkpt><trkpt lat="43.6626614" lon="12.157629"><ele>1330.0</ele><time>2026-04-12T10:03:19.986Z</time></trkpt><trkpt lat="43.6626825" lon="12.1575141"><ele>1330.0</ele><time>2026-04-12T10:03:24.079Z</time></trkpt><trkpt lat="43.6626964" lon="12.1574105"><ele>1330.0</ele><time>2026-04-12T10:03:27.987Z</time></trkpt><trkpt lat="43.6627347" lon="12.1573064"><ele>1330.0</ele><time>2026-04-12T10:03:31.992Z</time></trkpt><trkpt lat="43.6627504" lon="12.157206"><ele>1330.0</ele><time>2026-04-12T10:03:35.987Z</time></trkpt><trkpt lat="43.6627606" lon="12.1571194"><ele>1330.0</ele><time>2026-04-12T10:03:38.901Z</time></trkpt><trkpt lat="43.662798" lon="12.1570347"><ele>1330.0</ele><time>2026-04-12T10:03:41.993Z</time></trkpt><trkpt lat="43.6628583" lon="12.1569842"><ele>1330.0</ele><time>2026-04-12T10:03:44.999Z</time></trkpt><trkpt lat="43.6629276" lon="12.1569573"><ele>1328.142857142857</ele><time>2026-04-12T10:03:49.076Z</time></trkpt><trkpt lat="43.6629914" lon="12.1568872"><ele>1326.2857142857142</ele><time>2026-04-12T10:03:53.043Z</time></trkpt><trkpt lat="43.6630348" lon="12.156807"><ele>1324.4285714285716</ele><time>2026-04-12T10:03:56.986Z</time></trkpt><trkpt lat="43.6630949" lon="12.1567558"><ele>1322.5714285714284</ele><time>2026-04-12T10:04:00.075Z</time></trkpt><trkpt lat="43.6631573" lon="12.1567037"><ele>1320.7142857142858</ele><time>2026-04-12T10:04:03.921Z</time></trkpt><trkpt lat="43.6631724" lon="12.1566181"><ele>1318.857142857143</ele><time>2026-04-12T10:04:07.986Z</time></trkpt><trkpt lat="43.6632359" lon="12.1565758"><ele>1317.0</ele><time>2026-04-12T10:04:11.002Z</time></trkpt><trkpt lat="43.6633177" lon="12.1565756"><ele>1317.0</ele><time>2026-04-12T10:04:14.986Z</time></trkpt><trkpt lat="43.6633836" lon="12.1565893"><ele>1317.0</ele><time>2026-04-12T10:04:18.088Z</time></trkpt><trkpt lat="43.6634529" lon="12.1565905"><ele>1317.0</ele><time>2026-04-12T10:04:21.435Z</time></trkpt><trkpt lat="43.6635248" lon="12.1565598"><ele>1317.0</ele><time>2026-04-12T10:04:25.075Z</time></trkpt><trkpt lat="43.6635907" lon="12.1565347"><ele>1317.0</ele><time>2026-04-12T10:04:30.104Z</time></trkpt><trkpt lat="43.6636349" lon="12.1564687"><ele>1317.0</ele><time>2026-04-12T10:04:32.986Z</time></trkpt><trkpt lat="43.6636939" lon="12.1563943"><ele>1317.0</ele><time>2026-04-12T10:04:35.986Z</time></trkpt><trkpt lat="43.6637494" lon="12.1563392"><ele>1313.142857142857</ele><time>2026-04-12T10:04:38.987Z</time></trkpt><trkpt lat="43.6638103" lon="12.1563071"><ele>1309.2857142857142</ele><time>2026-04-12T10:04:41.964Z</time></trkpt><trkpt lat="43.6638706" lon="12.1562473"><ele>1305.4285714285716</ele><time>2026-04-12T10:04:45.002Z</time></trkpt><trkpt lat="43.6639439" lon="12.1562227"><ele>1301.5714285714284</ele><time>2026-04-12T10:04:48.833Z</time></trkpt><trkpt lat="43.6640258" lon="12.1561984"><ele>1297.7142857142856</ele><time>2026-04-12T10:04:52.585Z</time></trkpt><trkpt lat="43.6640913" lon="12.1561794"><ele>1293.857142857143</ele><time>2026-04-12T10:04:56.795Z</time></trkpt><trkpt lat="43.6641583" lon="12.1561422"><ele>1290.0</ele><time>2026-04-12T10:04:59.986Z</time></trkpt><trkpt lat="43.6641932" lon="12.1560518"><ele>1290.0</ele><time>2026-04-12T10:05:03.987Z</time></trkpt><trkpt lat="43.6642578" lon="12.1560257"><ele>1290.0</ele><time>2026-04-12T10:05:06.986Z</time></trkpt><trkpt lat="43.6643213" lon="12.1560234"><ele>1290.0</ele><time>2026-04-12T10:05:09.987Z</time></trkpt><trkpt lat="43.6643812" lon="12.1559629"><ele>1290.0</ele><time>2026-04-12T10:05:13.079Z</time></trkpt><trkpt lat="43.6644448" lon="12.155917"><ele>1290.0</ele><time>2026-04-12T10:05:15.987Z</time></trkpt><trkpt lat="43.6644835" lon="12.1558436"><ele>1290.0</ele><time>2026-04-12T10:05:19.986Z</time></trkpt><trkpt lat="43.664513" lon="12.1557577"><ele>1290.0</ele><time>2026-04-12T10:05:23.838Z</time></trkpt><trkpt lat="43.6645209" lon="12.1556629"><ele>1287.3333333333333</ele><time>2026-04-12T10:05:28.203Z</time></trkpt><trkpt lat="43.6645288" lon="12.1555758"><ele>1284.6666666666667</ele><time>2026-04-12T10:05:31.455Z</time></trkpt><trkpt lat="43.6645709" lon="12.1554756"><ele>1282.0</ele><time>2026-04-12T10:05:34.987Z</time></trkpt><trkpt lat="43.6646231" lon="12.1553774"><ele>1279.3333333333335</ele><time>2026-04-12T10:05:39.076Z</time></trkpt><trkpt lat="43.6646609" lon="12.1552779"><ele>1276.6666666666667</ele><time>2026-04-12T10:05:42.94Z</time></trkpt><trkpt lat="43.6647144" lon="12.1552134"><ele>1274.0</ele><time>2026-04-12T10:05:46.001Z</time></trkpt><trkpt lat="43.6647798" lon="12.1551659"><ele>1274.0</ele><time>2026-04-12T10:05:49.07Z</time></trkpt><trkpt lat="43.6648339" lon="12.155115"><ele>1274.0</ele><time>2026-04-12T10:05:52.045Z</time></trkpt><trkpt lat="43.6648771" lon="12.1550289"><ele>1274.0</ele><time>2026-04-12T10:05:56.986Z</time></trkpt><trkpt lat="43.664892" lon="12.1549257"><ele>1274.0</ele><time>2026-04-12T10:06:03.021Z</time></trkpt><trkpt lat="43.6649046" lon="12.154815"><ele>1274.0</ele><time>2026-04-12T10:06:07.015Z</time></trkpt><trkpt lat="43.6649503" lon="12.1547307"><ele>1274.0</ele><time>2026-04-12T10:06:11.045Z</time></trkpt><trkpt lat="43.664978" lon="12.1546379"><ele>1274.0</ele><time>2026-04-12T10:06:16.082Z</time></trkpt><trkpt lat="43.6650284" lon="12.1545484"><ele>1270.6666666666667</ele><time>2026-04-12T10:06:22.09Z</time></trkpt><trkpt lat="43.6650376" lon="12.1544495"><ele>1267.3333333333335</ele><time>2026-04-12T10:06:28.093Z</time></trkpt><trkpt lat="43.6650874" lon="12.1543627"><ele>1264.0</ele><time>2026-04-12T10:06:32.987Z</time></trkpt><trkpt lat="43.6651466" lon="12.1542888"><ele>1260.6666666666667</ele><time>2026-04-12T10:06:38.084Z</time></trkpt><trkpt lat="43.6652065" lon="12.1542111"><ele>1257.3333333333333</ele><time>2026-04-12T10:06:42.986Z</time></trkpt><trkpt lat="43.6652673" lon="12.1541416"><ele>1254.0</ele><time>2026-04-12T10:06:45.986Z</time></trkpt><trkpt lat="43.6653138" lon="12.1540726"><ele>1251.2857142857142</ele><time>2026-04-12T10:06:48.98Z</time></trkpt><trkpt lat="43.6653606" lon="12.1540118"><ele>1248.5714285714284</ele><time>2026-04-12T10:06:52.08Z</time></trkpt><trkpt lat="43.6654167" lon="12.1539679"><ele>1245.8571428571427</ele><time>2026-04-12T10:06:55.002Z</time></trkpt><trkpt lat="43.6654933" lon="12.1539275"><ele>1243.142857142857</ele><time>2026-04-12T10:06:57.987Z</time></trkpt><trkpt lat="43.6655614" lon="12.1538969"><ele>1240.4285714285713</ele><time>2026-04-12T10:07:01.001Z</time></trkpt><trkpt lat="43.6656298" lon="12.1538695"><ele>1237.7142857142856</ele><time>2026-04-12T10:07:04.087Z</time></trkpt><trkpt lat="43.6657057" lon="12.1538665"><ele>1235.0</ele><time>2026-04-12T10:07:07.476Z</time></trkpt><trkpt lat="43.6657741" lon="12.1538359"><ele>1234.9999999999998</ele><time>2026-04-12T10:07:10.453Z</time></trkpt><trkpt lat="43.6658499" lon="12.1537872"><ele>1235.0</ele><time>2026-04-12T10:07:13.882Z</time></trkpt><trkpt lat="43.6659105" lon="12.1537187"><ele>1235.0</ele><time>2026-04-12T10:07:16.987Z</time></trkpt><trkpt lat="43.6659508" lon="12.1536501"><ele>1235.0</ele><time>2026-04-12T10:07:19.96Z</time></trkpt><trkpt lat="43.6659968" lon="12.1535845"><ele>1235.0</ele><time>2026-04-12T10:07:22.936Z</time></trkpt><trkpt lat="43.6660568" lon="12.1535266"><ele>1234.9999999999998</ele><time>2026-04-12T10:07:25.981Z</time></trkpt><trkpt lat="43.6661098" lon="12.1534378"><ele>1235.0</ele><time>2026-04-12T10:07:30.074Z</time></trkpt><trkpt lat="43.6661131" lon="12.1533486"><ele>1234.0</ele><time>2026-04-12T10:07:34.036Z</time></trkpt><trkpt lat="43.6661406" lon="12.1532583"><ele>1233.0</ele><time>2026-04-12T10:07:36.987Z</time></trkpt><trkpt lat="43.6661591" lon="12.1531476"><ele>1232.0</ele><time>2026-04-12T10:07:39.987Z</time></trkpt><trkpt lat="43.6661882" lon="12.1530513"><ele>1231.0</ele><time>2026-04-12T10:07:42.987Z</time></trkpt><trkpt lat="43.6661952" lon="12.1529579"><ele>1230.0</ele><time>2026-04-12T10:07:46.084Z</time></trkpt><trkpt lat="43.6662168" lon="12.1528518"><ele>1229.0</ele><time>2026-04-12T10:07:49.961Z</time></trkpt><trkpt lat="43.6662474" lon="12.1527443"><ele>1229.0</ele><time>2026-04-12T10:07:54.085Z</time></trkpt><trkpt lat="43.6662728" lon="12.1526456"><ele>1229.0</ele><time>2026-04-12T10:07:58.078Z</time></trkpt><trkpt lat="43.6663182" lon="12.15258"><ele>1229.0</ele><time>2026-04-12T10:08:02.999Z</time></trkpt><trkpt lat="43.6663776" lon="12.1525066"><ele>1229.0</ele><time>2026-04-12T10:08:08.991Z</time></trkpt><trkpt lat="43.6664303" lon="12.152456"><ele>1229.0</ele><time>2026-04-12T10:08:11.913Z</time></trkpt><trkpt lat="43.666506" lon="12.1523853"><ele>1229.0</ele><time>2026-04-12T10:08:15.958Z</time></trkpt><trkpt lat="43.6665756" lon="12.1523369"><ele>1227.1428571428573</ele><time>2026-04-12T10:08:19.996Z</time></trkpt><trkpt lat="43.6666239" lon="12.1522767"><ele>1225.2857142857142</ele><time>2026-04-12T10:08:23.621Z</time></trkpt><trkpt lat="43.6666981" lon="12.1522357"><ele>1223.4285714285716</ele><time>2026-04-12T10:08:27.027Z</time></trkpt><trkpt lat="43.6667678" lon="12.1522294"><ele>1221.5714285714287</ele><time>2026-04-12T10:08:30.093Z</time></trkpt><trkpt lat="43.6668401" lon="12.1522016"><ele>1219.7142857142858</ele><time>2026-04-12T10:08:33.987Z</time></trkpt><trkpt lat="43.6668991" lon="12.1521361"><ele>1217.857142857143</ele><time>2026-04-12T10:08:37.887Z</time></trkpt><trkpt lat="43.666944" lon="12.1520587"><ele>1216.0</ele><time>2026-04-12T10:08:41.988Z</time></trkpt><trkpt lat="43.6669718" lon="12.1519665"><ele>1216.0</ele><time>2026-04-12T10:08:46.987Z</time></trkpt><trkpt lat="43.6670318" lon="12.151906"><ele>1216.0</ele><time>2026-04-12T10:08:51.98Z</time></trkpt><trkpt lat="43.6670881" lon="12.1518276"><ele>1216.0</ele><time>2026-04-12T10:08:58.982Z</time></trkpt><trkpt lat="43.6670873" lon="12.1517248"><ele>1216.0</ele><time>2026-04-12T10:09:03.974Z</time></trkpt><trkpt lat="43.6670769" lon="12.1516329"><ele>1216.0</ele><time>2026-04-12T10:09:07.986Z</time></trkpt><trkpt lat="43.6670788" lon="12.1515253"><ele>1216.0</ele><time>2026-04-12T10:09:11.987Z</time></trkpt><trkpt lat="43.6670803" lon="12.1514137"><ele>1213.4285714285713</ele><time>2026-04-12T10:09:15.96Z</time></trkpt><trkpt lat="43.6671072" lon="12.1513322"><ele>1210.857142857143</ele><time>2026-04-12T10:09:18.955Z</time></trkpt><trkpt lat="43.6670785" lon="12.1512361"><ele>1208.2857142857142</ele><time>2026-04-12T10:09:22.959Z</time></trkpt><trkpt lat="43.6671026" lon="12.1511549"><ele>1205.7142857142858</ele><time>2026-04-12T10:09:25.987Z</time></trkpt><trkpt lat="43.6671256" lon="12.1510687"><ele>1203.142857142857</ele><time>2026-04-12T10:09:28.987Z</time></trkpt><trkpt lat="43.6671303" lon="12.1509518"><ele>1200.5714285714287</ele><time>2026-04-12T10:09:32.987Z</time></trkpt><trkpt lat="43.667127" lon="12.1508575"><ele>1198.0</ele><time>2026-04-12T10:09:35.913Z</time></trkpt><trkpt lat="43.6670989" lon="12.1507753"><ele>1195.5714285714287</ele><time>2026-04-12T10:09:39.987Z</time></trkpt><trkpt lat="43.667119" lon="12.1506817"><ele>1193.142857142857</ele><time>2026-04-12T10:09:45.04Z</time></trkpt><trkpt lat="43.6671015" lon="12.1505773"><ele>1190.7142857142858</ele><time>2026-04-12T10:09:50.987Z</time></trkpt><trkpt lat="43.6670738" lon="12.1504796"><ele>1188.2857142857142</ele><time>2026-04-12T10:09:56.953Z</time></trkpt><trkpt lat="43.6670696" lon="12.1503863"><ele>1185.857142857143</ele><time>2026-04-12T10:10:01.987Z</time></trkpt><trkpt lat="43.66704" lon="12.1503039"><ele>1183.4285714285716</ele><time>2026-04-12T10:10:06.987Z</time></trkpt><trkpt lat="43.6670135" lon="12.1502114"><ele>1181.0</ele><time>2026-04-12T10:10:10.84Z</time></trkpt><trkpt lat="43.6669724" lon="12.150144"><ele>1181.0</ele><time>2026-04-12T10:10:14.987Z</time></trkpt><trkpt lat="43.6669986" lon="12.1500368"><ele>1181.0</ele><time>2026-04-12T10:10:18.986Z</time></trkpt><trkpt lat="43.6670225" lon="12.1499406"><ele>1181.0</ele><time>2026-04-12T10:10:22.074Z</time></trkpt><trkpt lat="43.6670278" lon="12.1498291"><ele>1181.0</ele><time>2026-04-12T10:10:26.012Z</time></trkpt><trkpt lat="43.6670187" lon="12.1497049"><ele>1181.0</ele><time>2026-04-12T10:10:30.081Z</time></trkpt><trkpt lat="43.6669894" lon="12.1496264"><ele>1181.0</ele><time>2026-04-12T10:10:32.079Z</time></trkpt><trkpt lat="43.6669571" lon="12.1495373"><ele>1179.0</ele><time>2026-04-12T10:10:33.999Z</time></trkpt><trkpt lat="43.6669286" lon="12.1494241"><ele>1177.0</ele><time>2026-04-12T10:10:37.071Z</time></trkpt><trkpt lat="43.6669135" lon="12.1493194"><ele>1175.0</ele><time>2026-04-12T10:10:40.05Z</time></trkpt><trkpt lat="43.6668849" lon="12.1492184"><ele>1173.0</ele><time>2026-04-12T10:10:43.076Z</time></trkpt><trkpt lat="43.6668412" lon="12.1491493"><ele>1171.0</ele><time>2026-04-12T10:10:45.987Z</time></trkpt><trkpt lat="43.6668089" lon="12.1490471"><ele>1169.0</ele><time>2026-04-12T10:10:54.016Z</time></trkpt><trkpt lat="43.6667558" lon="12.1489483"><ele>1169.0</ele><time>2026-04-12T10:10:56.988Z</time></trkpt><trkpt lat="43.6668042" lon="12.1488772"><ele>1169.0</ele><time>2026-04-12T10:11:00.068Z</time></trkpt><trkpt lat="43.6668839" lon="12.1488783"><ele>1169.0</ele><time>2026-04-12T10:11:03.987Z</time></trkpt><trkpt lat="43.6669478" lon="12.1488242"><ele>1169.0</ele><time>2026-04-12T10:11:08.988Z</time></trkpt><trkpt lat="43.6669444" lon="12.1487273"><ele>1169.0</ele><time>2026-04-12T10:11:13.986Z</time></trkpt><trkpt lat="43.6669136" lon="12.1488033"><ele>1169.0</ele><time>2026-04-12T10:13:11.987Z</time></trkpt><trkpt lat="43.6669698" lon="12.1488596"><ele>1169.0</ele><time>2026-04-12T10:14:27.986Z</time></trkpt><trkpt lat="43.6670318" lon="12.1488988"><ele>1169.0</ele><time>2026-04-12T10:14:33.987Z</time></trkpt><trkpt lat="43.6671042" lon="12.1489037"><ele>1169.0</ele><time>2026-04-12T10:14:39.986Z</time></trkpt><trkpt lat="43.667181" lon="12.1489228"><ele>1169.0</ele><time>2026-04-12T10:14:42.896Z</time></trkpt><trkpt lat="43.6672446" lon="12.1489891"><ele>1169.0</ele><time>2026-04-12T10:14:46.996Z</time></trkpt><trkpt lat="43.6672966" lon="12.1490704"><ele>1169.0</ele><time>2026-04-12T10:14:50.917Z</time></trkpt><trkpt lat="43.6673559" lon="12.1491333"><ele>1169.0</ele><time>2026-04-12T10:14:55.007Z</time></trkpt><trkpt lat="43.667408" lon="12.1492183"><ele>1169.0</ele><time>2026-04-12T10:14:58.9Z</time></trkpt><trkpt lat="43.6674567" lon="12.149285"><ele>1169.0</ele><time>2026-04-12T10:15:04.008Z</time></trkpt><trkpt lat="43.6675043" lon="12.1493521"><ele>1169.0</ele><time>2026-04-12T10:15:08.781Z</time></trkpt><trkpt lat="43.6675512" lon="12.1494129"><ele>1169.0</ele><time>2026-04-12T10:15:13.936Z</time></trkpt><trkpt lat="43.667589" lon="12.149491"><ele>1169.0</ele><time>2026-04-12T10:15:19.998Z</time></trkpt><trkpt lat="43.6676201" lon="12.1495667"><ele>1169.0</ele><time>2026-04-12T10:15:24.996Z</time></trkpt><trkpt lat="43.6676542" lon="12.14964"><ele>1169.0</ele><time>2026-04-12T10:15:30.002Z</time></trkpt><trkpt lat="43.6676935" lon="12.1497175"><ele>1169.0</ele><time>2026-04-12T10:15:34.96Z</time></trkpt><trkpt lat="43.6677367" lon="12.1497986"><ele>1169.0</ele><time>2026-04-12T10:15:40.995Z</time></trkpt><trkpt lat="43.6677887" lon="12.1498558"><ele>1169.0</ele><time>2026-04-12T10:15:45.996Z</time></trkpt><trkpt lat="43.6678398" lon="12.1499149"><ele>1169.0</ele><time>2026-04-12T10:15:51.999Z</time></trkpt><trkpt lat="43.6678824" lon="12.1499884"><ele>1169.0</ele><time>2026-04-12T10:15:59.002Z</time></trkpt><trkpt lat="43.6679274" lon="12.1500544"><ele>1169.0</ele><time>2026-04-12T10:16:05.008Z</time></trkpt><trkpt lat="43.6679754" lon="12.1501226"><ele>1169.0</ele><time>2026-04-12T10:16:11Z</time></trkpt><trkpt lat="43.6680363" lon="12.1501655"><ele>1169.7142857142858</ele><time>2026-04-12T10:16:17Z</time></trkpt><trkpt lat="43.6681018" lon="12.1501828"><ele>1170.4285714285716</ele><time>2026-04-12T10:16:22.018Z</time></trkpt><trkpt lat="43.6681655" lon="12.1501859"><ele>1171.142857142857</ele><time>2026-04-12T10:16:25.993Z</time></trkpt><trkpt lat="43.6682338" lon="12.1502182"><ele>1171.857142857143</ele><time>2026-04-12T10:16:30.92Z</time></trkpt><trkpt lat="43.6682857" lon="12.1502852"><ele>1172.5714285714287</ele><time>2026-04-12T10:16:36.002Z</time></trkpt><trkpt lat="43.6683377" lon="12.1503398"><ele>1173.2857142857142</ele><time>2026-04-12T10:16:41.004Z</time></trkpt><trkpt lat="43.6683514" lon="12.1504423"><ele>1174.0</ele><time>2026-04-12T10:16:56.996Z</time></trkpt><trkpt lat="43.6683669" lon="12.1505329"><ele>1174.0</ele><time>2026-04-12T10:17:02.996Z</time></trkpt><trkpt lat="43.6684106" lon="12.1506025"><ele>1174.0</ele><time>2026-04-12T10:17:10.001Z</time></trkpt><trkpt lat="43.6684519" lon="12.1506715"><ele>1174.0</ele><time>2026-04-12T10:17:19.006Z</time></trkpt><trkpt lat="43.6685086" lon="12.150742"><ele>1174.0</ele><time>2026-04-12T10:17:31.996Z</time></trkpt><trkpt lat="43.6685543" lon="12.1508125"><ele>1174.0</ele><time>2026-04-12T10:17:38.999Z</time></trkpt><trkpt lat="43.6686079" lon="12.1508735"><ele>1174.0</ele><time>2026-04-12T10:17:46.998Z</time></trkpt><trkpt lat="43.6686689" lon="12.1509108"><ele>1174.0</ele><time>2026-04-12T10:17:53.002Z</time></trkpt><trkpt lat="43.6687352" lon="12.1509473"><ele>1176.7142857142858</ele><time>2026-04-12T10:17:59.996Z</time></trkpt><trkpt lat="43.6688015" lon="12.1509576"><ele>1179.4285714285716</ele><time>2026-04-12T10:18:05.997Z</time></trkpt><trkpt lat="43.6688613" lon="12.1509986"><ele>1182.142857142857</ele><time>2026-04-12T10:18:11.996Z</time></trkpt><trkpt lat="43.6689139" lon="12.1510465"><ele>1184.857142857143</ele><time>2026-04-12T10:18:17.001Z</time></trkpt><trkpt lat="43.6689728" lon="12.1510883"><ele>1187.5714285714284</ele><time>2026-04-12T10:18:23.004Z</time></trkpt><trkpt lat="43.6690265" lon="12.1511449"><ele>1190.2857142857142</ele><time>2026-04-12T10:18:28.997Z</time></trkpt><trkpt lat="43.6690874" lon="12.1511964"><ele>1193.0</ele><time>2026-04-12T10:18:36.006Z</time></trkpt><trkpt lat="43.6691537" lon="12.1512202"><ele>1192.9999999999998</ele><time>2026-04-12T10:18:41.996Z</time></trkpt><trkpt lat="43.6692238" lon="12.1512063"><ele>1193.0</ele><time>2026-04-12T10:18:49.004Z</time></trkpt><trkpt lat="43.6692958" lon="12.1512135"><ele>1193.0</ele><time>2026-04-12T10:18:54.997Z</time></trkpt><trkpt lat="43.6693659" lon="12.1512137"><ele>1193.0</ele><time>2026-04-12T10:19:00.941Z</time></trkpt><trkpt lat="43.669423" lon="12.1511726"><ele>1193.0</ele><time>2026-04-12T10:19:06.962Z</time></trkpt><trkpt lat="43.6694957" lon="12.1511693"><ele>1192.9999999999998</ele><time>2026-04-12T10:19:13.009Z</time></trkpt><trkpt lat="43.6695601" lon="12.1511905"><ele>1193.0</ele><time>2026-04-12T10:19:18.009Z</time></trkpt><trkpt lat="43.6696164" lon="12.1512366"><ele>1192.6666666666667</ele><time>2026-04-12T10:19:23.002Z</time></trkpt><trkpt lat="43.6696797" lon="12.1512709"><ele>1192.3333333333335</ele><time>2026-04-12T10:19:27.994Z</time></trkpt><trkpt lat="43.6697461" lon="12.1512798"><ele>1192.0</ele><time>2026-04-12T10:19:32.998Z</time></trkpt><trkpt lat="43.6698177" lon="12.151216"><ele>1191.6666666666667</ele><time>2026-04-12T10:19:37.024Z</time></trkpt><trkpt lat="43.6698683" lon="12.1511365"><ele>1191.3333333333333</ele><time>2026-04-12T10:19:40.003Z</time></trkpt><trkpt lat="43.6699194" lon="12.1510563"><ele>1191.0</ele><time>2026-04-12T10:19:43.936Z</time></trkpt><trkpt lat="43.6699804" lon="12.1509933"><ele>1191.0</ele><time>2026-04-12T10:19:48.005Z</time></trkpt><trkpt lat="43.6700349" lon="12.1509343"><ele>1191.0</ele><time>2026-04-12T10:19:51.005Z</time></trkpt><trkpt lat="43.6700855" lon="12.1508756"><ele>1191.0</ele><time>2026-04-12T10:19:54.005Z</time></trkpt><trkpt lat="43.6701505" lon="12.1508452"><ele>1191.0</ele><time>2026-04-12T10:19:58.004Z</time></trkpt><trkpt lat="43.6702159" lon="12.1508698"><ele>1191.0</ele><time>2026-04-12T10:20:02.005Z</time></trkpt><trkpt lat="43.670288" lon="12.1508853"><ele>1191.0</ele><time>2026-04-12T10:20:06.004Z</time></trkpt><trkpt lat="43.670352" lon="12.1509027"><ele>1191.0</ele><time>2026-04-12T10:20:09.095Z</time></trkpt><trkpt lat="43.6704148" lon="12.150947"><ele>1188.5</ele><time>2026-04-12T10:20:12.076Z</time></trkpt><trkpt lat="43.6704843" lon="12.1509932"><ele>1186.0</ele><time>2026-04-12T10:20:15.004Z</time></trkpt><trkpt lat="43.6705474" lon="12.1510418"><ele>1183.5</ele><time>2026-04-12T10:20:18.055Z</time></trkpt><trkpt lat="43.6705913" lon="12.1511326"><ele>1181.0</ele><time>2026-04-12T10:20:20.94Z</time></trkpt><trkpt lat="43.6706198" lon="12.1512319"><ele>1178.5</ele><time>2026-04-12T10:20:24.004Z</time></trkpt><trkpt lat="43.6706524" lon="12.1513211"><ele>1176.0</ele><time>2026-04-12T10:20:27.004Z</time></trkpt><trkpt lat="43.6707095" lon="12.1513851"><ele>1176.0</ele><time>2026-04-12T10:20:30.004Z</time></trkpt><trkpt lat="43.6707705" lon="12.1514462"><ele>1176.0</ele><time>2026-04-12T10:20:32.936Z</time></trkpt><trkpt lat="43.67083" lon="12.1515207"><ele>1176.0</ele><time>2026-04-12T10:20:36Z</time></trkpt><trkpt lat="43.6708907" lon="12.1515724"><ele>1176.0</ele><time>2026-04-12T10:20:39.005Z</time></trkpt><trkpt lat="43.670962" lon="12.1515715"><ele>1176.0</ele><time>2026-04-12T10:20:42.005Z</time></trkpt><trkpt lat="43.6710325" lon="12.1515845"><ele>1176.0</ele><time>2026-04-12T10:20:44.941Z</time></trkpt><trkpt lat="43.6711074" lon="12.1516091"><ele>1176.0</ele><time>2026-04-12T10:20:48.014Z</time></trkpt><trkpt lat="43.6711603" lon="12.151666"><ele>1175.4285714285713</ele><time>2026-04-12T10:20:51.004Z</time></trkpt><trkpt lat="43.6712201" lon="12.1517435"><ele>1174.857142857143</ele><time>2026-04-12T10:20:55.005Z</time></trkpt><trkpt lat="43.6712755" lon="12.1517872"><ele>1174.2857142857142</ele><time>2026-04-12T10:20:58.005Z</time></trkpt><trkpt lat="43.6713475" lon="12.1518123"><ele>1173.7142857142858</ele><time>2026-04-12T10:21:01.004Z</time></trkpt><trkpt lat="43.6714189" lon="12.1518283"><ele>1173.142857142857</ele><time>2026-04-12T10:21:03.994Z</time></trkpt><trkpt lat="43.6714857" lon="12.1518674"><ele>1172.5714285714284</ele><time>2026-04-12T10:21:08.004Z</time></trkpt><trkpt lat="43.671549" lon="12.151916"><ele>1172.0</ele><time>2026-04-12T10:21:11.897Z</time></trkpt><trkpt lat="43.6716158" lon="12.1519357"><ele>1171.9999999999998</ele><time>2026-04-12T10:21:20.005Z</time></trkpt><trkpt lat="43.6716927" lon="12.151941"><ele>1172.0</ele><time>2026-04-12T10:21:24Z</time></trkpt><trkpt lat="43.6717573" lon="12.1519282"><ele>1172.0</ele><time>2026-04-12T10:21:27.004Z</time></trkpt><trkpt lat="43.6718231" lon="12.1519159"><ele>1172.0</ele><time>2026-04-12T10:21:30.005Z</time></trkpt><trkpt lat="43.6718931" lon="12.1519105"><ele>1172.0</ele><time>2026-04-12T10:21:33.075Z</time></trkpt><trkpt lat="43.6719645" lon="12.1519059"><ele>1171.9999999999998</ele><time>2026-04-12T10:21:35.973Z</time></trkpt><trkpt lat="43.6720328" lon="12.151907"><ele>1172.0</ele><time>2026-04-12T10:21:39.004Z</time></trkpt><trkpt lat="43.6721053" lon="12.1519206"><ele>1169.3333333333335</ele><time>2026-04-12T10:21:43.005Z</time></trkpt><trkpt lat="43.6721777" lon="12.1518944"><ele>1166.6666666666667</ele><time>2026-04-12T10:21:47.005Z</time></trkpt><trkpt lat="43.6722525" lon="12.15186"><ele>1164.0</ele><time>2026-04-12T10:21:50.076Z</time></trkpt><trkpt lat="43.6723268" lon="12.1518426"><ele>1161.3333333333333</ele><time>2026-04-12T10:21:52.933Z</time></trkpt><trkpt lat="43.6724137" lon="12.1518339"><ele>1158.6666666666665</ele><time>2026-04-12T10:21:56.013Z</time></trkpt><trkpt lat="43.6724747" lon="12.1518604"><ele>1156.0</ele><time>2026-04-12T10:21:57.995Z</time></trkpt><trkpt lat="43.6725486" lon="12.1518966"><ele>1156.0</ele><time>2026-04-12T10:22:01.005Z</time></trkpt><trkpt lat="43.6726167" lon="12.1519336"><ele>1156.0</ele><time>2026-04-12T10:22:06.005Z</time></trkpt><trkpt lat="43.6726891" lon="12.1519635"><ele>1156.0</ele><time>2026-04-12T10:22:09.838Z</time></trkpt><trkpt lat="43.6727564" lon="12.151951"><ele>1156.0</ele><time>2026-04-12T10:22:13.821Z</time></trkpt><trkpt lat="43.6728309" lon="12.1519337"><ele>1156.0</ele><time>2026-04-12T10:22:17.004Z</time></trkpt><trkpt lat="43.6728983" lon="12.151941"><ele>1156.0</ele><time>2026-04-12T10:22:21.004Z</time></trkpt><trkpt lat="43.6729712" lon="12.1519701"><ele>1156.0</ele><time>2026-04-12T10:22:26.005Z</time></trkpt><trkpt lat="43.6730264" lon="12.152015"><ele>1155.4285714285716</ele><time>2026-04-12T10:22:30.009Z</time></trkpt><trkpt lat="43.6730623" lon="12.1520896"><ele>1154.857142857143</ele><time>2026-04-12T10:22:35.004Z</time></trkpt><trkpt lat="43.6731182" lon="12.1521496"><ele>1154.2857142857142</ele><time>2026-04-12T10:22:40.004Z</time></trkpt><trkpt lat="43.6731873" lon="12.1521791"><ele>1153.7142857142858</ele><time>2026-04-12T10:22:45.005Z</time></trkpt><trkpt lat="43.6732583" lon="12.1521869"><ele>1153.142857142857</ele><time>2026-04-12T10:22:49.94Z</time></trkpt><trkpt lat="43.6733322" lon="12.1521826"><ele>1152.5714285714287</ele><time>2026-04-12T10:22:56.004Z</time></trkpt><trkpt lat="43.6733969" lon="12.1522093"><ele>1152.0</ele><time>2026-04-12T10:23:01.004Z</time></trkpt><trkpt lat="43.6734592" lon="12.1522529"><ele>1152.0000000000002</ele><time>2026-04-12T10:23:06.005Z</time></trkpt><trkpt lat="43.6735226" lon="12.1522831"><ele>1152.0</ele><time>2026-04-12T10:23:11.005Z</time></trkpt><trkpt lat="43.6735871" lon="12.1523365"><ele>1152.0</ele><time>2026-04-12T10:23:16.916Z</time></trkpt><trkpt lat="43.6736416" lon="12.152398"><ele>1152.0</ele><time>2026-04-12T10:23:21.863Z</time></trkpt><trkpt lat="43.673701" lon="12.1524537"><ele>1152.0</ele><time>2026-04-12T10:23:27Z</time></trkpt><trkpt lat="43.6737719" lon="12.1524393"><ele>1152.0000000000002</ele><time>2026-04-12T10:23:32.005Z</time></trkpt><trkpt lat="43.6738343" lon="12.1524596"><ele>1152.0</ele><time>2026-04-12T10:23:36.005Z</time></trkpt><trkpt lat="43.673898" lon="12.1524956"><ele>1153.0</ele><time>2026-04-12T10:23:39.004Z</time></trkpt><trkpt lat="43.6739591" lon="12.152536"><ele>1154.0</ele><time>2026-04-12T10:23:42.005Z</time></trkpt><trkpt lat="43.6740332" lon="12.1525852"><ele>1155.0</ele><time>2026-04-12T10:23:46.005Z</time></trkpt><trkpt lat="43.6740941" lon="12.1526291"><ele>1156.0</ele><time>2026-04-12T10:23:49.565Z</time></trkpt><trkpt lat="43.6741688" lon="12.1526533"><ele>1157.0</ele><time>2026-04-12T10:23:54.005Z</time></trkpt><trkpt lat="43.6742381" lon="12.152693"><ele>1158.0</ele><time>2026-04-12T10:23:58.005Z</time></trkpt><trkpt lat="43.6743181" lon="12.1527331"><ele>1158.0</ele><time>2026-04-12T10:24:01.975Z</time></trkpt><trkpt lat="43.6743922" lon="12.1527534"><ele>1158.0</ele><time>2026-04-12T10:24:06.005Z</time></trkpt><trkpt lat="43.6744634" lon="12.1527774"><ele>1158.0</ele><time>2026-04-12T10:24:10.004Z</time></trkpt><trkpt lat="43.674536" lon="12.1527459"><ele>1158.0</ele><time>2026-04-12T10:24:15.004Z</time></trkpt><trkpt lat="43.6746228" lon="12.1527256"><ele>1158.0</ele><time>2026-04-12T10:24:18.953Z</time></trkpt><trkpt lat="43.6746954" lon="12.1526766"><ele>1158.0</ele><time>2026-04-12T10:24:24.004Z</time></trkpt><trkpt lat="43.6747628" lon="12.1526878"><ele>1156.3333333333333</ele><time>2026-04-12T10:24:27.004Z</time></trkpt><trkpt lat="43.6748278" lon="12.1526506"><ele>1154.6666666666667</ele><time>2026-04-12T10:24:29.94Z</time></trkpt><trkpt lat="43.6749091" lon="12.1526511"><ele>1153.0</ele><time>2026-04-12T10:24:33.004Z</time></trkpt><trkpt lat="43.6749885" lon="12.1526399"><ele>1151.3333333333335</ele><time>2026-04-12T10:24:36.004Z</time></trkpt><trkpt lat="43.6750711" lon="12.1526198"><ele>1149.6666666666667</ele><time>2026-04-12T10:24:39.005Z</time></trkpt><trkpt lat="43.6751377" lon="12.1525893"><ele>1148.0</ele><time>2026-04-12T10:24:42.005Z</time></trkpt><trkpt lat="43.6752104" lon="12.1526092"><ele>1148.0</ele><time>2026-04-12T10:24:45.005Z</time></trkpt><trkpt lat="43.67527" lon="12.152663"><ele>1148.0</ele><time>2026-04-12T10:24:48.005Z</time></trkpt><trkpt lat="43.6753486" lon="12.152671"><ele>1148.0</ele><time>2026-04-12T10:24:53.005Z</time></trkpt><trkpt lat="43.6754122" lon="12.1526814"><ele>1148.0</ele><time>2026-04-12T10:24:55.976Z</time></trkpt><trkpt lat="43.675475" lon="12.152707"><ele>1148.0</ele><time>2026-04-12T10:24:59.005Z</time></trkpt><trkpt lat="43.675536" lon="12.1527842"><ele>1148.0</ele><time>2026-04-12T10:25:02.976Z</time></trkpt><trkpt lat="43.6755679" lon="12.1528642"><ele>1148.0</ele><time>2026-04-12T10:25:06.004Z</time></trkpt><trkpt lat="43.6756427" lon="12.1528925"><ele>1146.2857142857142</ele><time>2026-04-12T10:25:10.005Z</time></trkpt><trkpt lat="43.6757028" lon="12.1529344"><ele>1144.5714285714284</ele><time>2026-04-12T10:25:13.005Z</time></trkpt><trkpt lat="43.6757681" lon="12.1529823"><ele>1142.857142857143</ele><time>2026-04-12T10:25:17.005Z</time></trkpt><trkpt lat="43.6758243" lon="12.1530481"><ele>1141.142857142857</ele><time>2026-04-12T10:25:21.914Z</time></trkpt><trkpt lat="43.6758648" lon="12.1531321"><ele>1139.4285714285713</ele><time>2026-04-12T10:25:25.005Z</time></trkpt><trkpt lat="43.6759137" lon="12.1531874"><ele>1137.7142857142858</ele><time>2026-04-12T10:25:29.005Z</time></trkpt><trkpt lat="43.6759449" lon="12.1532644"><ele>1136.0</ele><time>2026-04-12T10:25:32.005Z</time></trkpt><trkpt lat="43.6760038" lon="12.1533144"><ele>1136.0</ele><time>2026-04-12T10:25:34.917Z</time></trkpt><trkpt lat="43.6760565" lon="12.1533888"><ele>1136.0</ele><time>2026-04-12T10:25:38.005Z</time></trkpt><trkpt lat="43.6761112" lon="12.153476"><ele>1136.0</ele><time>2026-04-12T10:25:42.005Z</time></trkpt><trkpt lat="43.6761501" lon="12.1535578"><ele>1136.0</ele><time>2026-04-12T10:25:45.005Z</time></trkpt><trkpt lat="43.6762026" lon="12.1536148"><ele>1136.0</ele><time>2026-04-12T10:25:49.014Z</time></trkpt><trkpt lat="43.67627" lon="12.1536567"><ele>1136.0</ele><time>2026-04-12T10:25:53.921Z</time></trkpt><trkpt lat="43.6763446" lon="12.1536832"><ele>1136.0</ele><time>2026-04-12T10:25:59.004Z</time></trkpt><trkpt lat="43.6764073" lon="12.1537146"><ele>1134.7142857142858</ele><time>2026-04-12T10:26:01.921Z</time></trkpt><trkpt lat="43.6764735" lon="12.1537215"><ele>1133.4285714285713</ele><time>2026-04-12T10:26:06.004Z</time></trkpt><trkpt lat="43.6765378" lon="12.1537195"><ele>1132.142857142857</ele><time>2026-04-12T10:26:11.005Z</time></trkpt><trkpt lat="43.6766158" lon="12.1537403"><ele>1130.857142857143</ele><time>2026-04-12T10:26:15.005Z</time></trkpt><trkpt lat="43.6766847" lon="12.1537354"><ele>1129.5714285714284</ele><time>2026-04-12T10:26:20.004Z</time></trkpt><trkpt lat="43.6767556" lon="12.1537132"><ele>1128.2857142857142</ele><time>2026-04-12T10:26:25.005Z</time></trkpt><trkpt lat="43.6768153" lon="12.1536698"><ele>1127.0</ele><time>2026-04-12T10:26:29.96Z</time></trkpt><trkpt lat="43.6768837" lon="12.1536165"><ele>1125.7142857142858</ele><time>2026-04-12T10:26:35.005Z</time></trkpt><trkpt lat="43.676962" lon="12.1536336"><ele>1124.4285714285716</ele><time>2026-04-12T10:26:39.004Z</time></trkpt><trkpt lat="43.6770229" lon="12.1536895"><ele>1123.142857142857</ele><time>2026-04-12T10:26:43.005Z</time></trkpt><trkpt lat="43.6770843" lon="12.1536683"><ele>1121.857142857143</ele><time>2026-04-12T10:26:48.016Z</time></trkpt><trkpt lat="43.677147" lon="12.1536467"><ele>1120.5714285714287</ele><time>2026-04-12T10:26:51.986Z</time></trkpt><trkpt lat="43.677215" lon="12.1536436"><ele>1119.2857142857142</ele><time>2026-04-12T10:26:56.005Z</time></trkpt><trkpt lat="43.6772768" lon="12.1536628"><ele>1118.0</ele><time>2026-04-12T10:27:00.005Z</time></trkpt><trkpt lat="43.6773403" lon="12.1537006"><ele>1118.0</ele><time>2026-04-12T10:27:04.005Z</time></trkpt><trkpt lat="43.6774047" lon="12.1537364"><ele>1118.0</ele><time>2026-04-12T10:27:08.005Z</time></trkpt><trkpt lat="43.6774599" lon="12.1538011"><ele>1118.0</ele><time>2026-04-12T10:27:11.004Z</time></trkpt><trkpt lat="43.6774917" lon="12.153881"><ele>1118.0</ele><time>2026-04-12T10:27:14.004Z</time></trkpt><trkpt lat="43.6775326" lon="12.1539818"><ele>1118.0</ele><time>2026-04-12T10:27:18.016Z</time></trkpt><trkpt lat="43.677576" lon="12.1540733"><ele>1118.0</ele><time>2026-04-12T10:27:21.005Z</time></trkpt><trkpt lat="43.6775975" lon="12.1541622"><ele>1118.0</ele><time>2026-04-12T10:27:24.004Z</time></trkpt><trkpt lat="43.6776277" lon="12.1542402"><ele>1117.142857142857</ele><time>2026-04-12T10:27:27.005Z</time></trkpt><trkpt lat="43.6776895" lon="12.1542973"><ele>1116.2857142857144</ele><time>2026-04-12T10:27:29.912Z</time></trkpt><trkpt lat="43.677765" lon="12.154332"><ele>1115.4285714285716</ele><time>2026-04-12T10:27:33.015Z</time></trkpt><trkpt lat="43.6778357" lon="12.1543631"><ele>1114.5714285714287</ele><time>2026-04-12T10:27:36.005Z</time></trkpt><trkpt lat="43.6779118" lon="12.1544092"><ele>1113.7142857142858</ele><time>2026-04-12T10:27:39.941Z</time></trkpt><trkpt lat="43.6779679" lon="12.1544613"><ele>1112.857142857143</ele><time>2026-04-12T10:27:43.005Z</time></trkpt><trkpt lat="43.6780228" lon="12.1545186"><ele>1112.0</ele><time>2026-04-12T10:27:46.005Z</time></trkpt><trkpt lat="43.6780842" lon="12.154539"><ele>1112.0</ele><time>2026-04-12T10:27:49.005Z</time></trkpt><trkpt lat="43.6781554" lon="12.1545945"><ele>1112.0</ele><time>2026-04-12T10:27:53.005Z</time></trkpt><trkpt lat="43.6782128" lon="12.1546381"><ele>1112.0</ele><time>2026-04-12T10:27:56.005Z</time></trkpt><trkpt lat="43.6782759" lon="12.1547109"><ele>1112.0</ele><time>2026-04-12T10:27:59.98Z</time></trkpt><trkpt lat="43.6783443" lon="12.1547679"><ele>1112.0</ele><time>2026-04-12T10:28:04.005Z</time></trkpt><trkpt lat="43.6783987" lon="12.1548144"><ele>1112.0</ele><time>2026-04-12T10:28:06.913Z</time></trkpt><trkpt lat="43.6784635" lon="12.1548355"><ele>1112.0</ele><time>2026-04-12T10:28:10.004Z</time></trkpt><trkpt lat="43.678545" lon="12.1548566"><ele>1111.8333333333335</ele><time>2026-04-12T10:28:14.004Z</time></trkpt><trkpt lat="43.6786271" lon="12.1548804"><ele>1111.6666666666667</ele><time>2026-04-12T10:28:18.004Z</time></trkpt><trkpt lat="43.6786901" lon="12.154888"><ele>1111.5</ele><time>2026-04-12T10:28:21.001Z</time></trkpt><trkpt lat="43.67877" lon="12.1548929"><ele>1111.3333333333333</ele><time>2026-04-12T10:28:25.005Z</time></trkpt><trkpt lat="43.6788348" lon="12.154895"><ele>1111.1666666666665</ele><time>2026-04-12T10:28:28.001Z</time></trkpt><trkpt lat="43.6789187" lon="12.1548725"><ele>1111.0</ele><time>2026-04-12T10:28:32.004Z</time></trkpt><trkpt lat="43.6789915" lon="12.1548481"><ele>1111.0</ele><time>2026-04-12T10:28:35.005Z</time></trkpt><trkpt lat="43.6790553" lon="12.1548343"><ele>1111.0</ele><time>2026-04-12T10:28:38.021Z</time></trkpt><trkpt lat="43.6791252" lon="12.1548248"><ele>1111.0</ele><time>2026-04-12T10:28:41.004Z</time></trkpt><trkpt lat="43.6792029" lon="12.1548278"><ele>1111.0</ele><time>2026-04-12T10:28:44.005Z</time></trkpt><trkpt lat="43.6792684" lon="12.1548209"><ele>1111.0</ele><time>2026-04-12T10:28:47.005Z</time></trkpt><trkpt lat="43.6793373" lon="12.1548247"><ele>1111.0</ele><time>2026-04-12T10:28:51.004Z</time></trkpt><trkpt lat="43.6793992" lon="12.1548416"><ele>1111.0</ele><time>2026-04-12T10:28:55.005Z</time></trkpt><trkpt lat="43.6794703" lon="12.1548321"><ele>1111.4285714285716</ele><time>2026-04-12T10:29:00.005Z</time></trkpt><trkpt lat="43.6795352" lon="12.1547991"><ele>1111.857142857143</ele><time>2026-04-12T10:29:03.994Z</time></trkpt><trkpt lat="43.6795974" lon="12.1547823"><ele>1112.2857142857142</ele><time>2026-04-12T10:29:07.004Z</time></trkpt><trkpt lat="43.679673" lon="12.1547486"><ele>1112.7142857142858</ele><time>2026-04-12T10:29:10.922Z</time></trkpt><trkpt lat="43.679746" lon="12.1547228"><ele>1113.142857142857</ele><time>2026-04-12T10:29:15.022Z</time></trkpt><trkpt lat="43.6798127" lon="12.1547037"><ele>1113.5714285714287</ele><time>2026-04-12T10:29:19.004Z</time></trkpt><trkpt lat="43.6798896" lon="12.1546703"><ele>1114.0</ele><time>2026-04-12T10:29:23.085Z</time></trkpt><trkpt lat="43.6799398" lon="12.1546056"><ele>1114.0</ele><time>2026-04-12T10:29:27.005Z</time></trkpt><trkpt lat="43.6799922" lon="12.1545554"><ele>1114.0</ele><time>2026-04-12T10:29:30.079Z</time></trkpt><trkpt lat="43.6800677" lon="12.1545107"><ele>1114.0</ele><time>2026-04-12T10:29:33.972Z</time></trkpt><trkpt lat="43.6801318" lon="12.1544867"><ele>1114.0</ele><time>2026-04-12T10:29:37.101Z</time></trkpt><trkpt lat="43.6801986" lon="12.1544815"><ele>1114.0</ele><time>2026-04-12T10:29:40.004Z</time></trkpt><trkpt lat="43.6802644" lon="12.1544728"><ele>1114.0</ele><time>2026-04-12T10:29:44.004Z</time></trkpt><trkpt lat="43.6803307" lon="12.1544408"><ele>1114.0</ele><time>2026-04-12T10:29:48.994Z</time></trkpt><trkpt lat="43.680403" lon="12.1544102"><ele>1114.4285714285716</ele><time>2026-04-12T10:29:54.005Z</time></trkpt><trkpt lat="43.6804698" lon="12.1544024"><ele>1114.857142857143</ele><time>2026-04-12T10:29:59.004Z</time></trkpt><trkpt lat="43.6805353" lon="12.1543892"><ele>1115.2857142857142</ele><time>2026-04-12T10:30:04.005Z</time></trkpt><trkpt lat="43.6806122" lon="12.1543894"><ele>1115.7142857142858</ele><time>2026-04-12T10:30:08.005Z</time></trkpt><trkpt lat="43.6806755" lon="12.1543941"><ele>1116.142857142857</ele><time>2026-04-12T10:30:10.94Z</time></trkpt><trkpt lat="43.6807536" lon="12.1544124"><ele>1116.5714285714287</ele><time>2026-04-12T10:30:15.087Z</time></trkpt><trkpt lat="43.6808191" lon="12.1544358"><ele>1117.0</ele><time>2026-04-12T10:30:19.004Z</time></trkpt><trkpt lat="43.6808987" lon="12.1544622"><ele>1117.0000000000002</ele><time>2026-04-12T10:30:23.005Z</time></trkpt><trkpt lat="43.6809611" lon="12.1544786"><ele>1117.0</ele><time>2026-04-12T10:30:26.004Z</time></trkpt><trkpt lat="43.6810268" lon="12.1544928"><ele>1117.0</ele><time>2026-04-12T10:30:29.082Z</time></trkpt><trkpt lat="43.6810985" lon="12.1545248"><ele>1117.0</ele><time>2026-04-12T10:30:34.004Z</time></trkpt><trkpt lat="43.6811672" lon="12.1545727"><ele>1117.0</ele><time>2026-04-12T10:30:38.919Z</time></trkpt><trkpt lat="43.6812298" lon="12.1546114"><ele>1117.0000000000002</ele><time>2026-04-12T10:30:42.981Z</time></trkpt><trkpt lat="43.6812942" lon="12.1546387"><ele>1117.0</ele><time>2026-04-12T10:30:47.004Z</time></trkpt><trkpt lat="43.6813643" lon="12.1546726"><ele>1117.2857142857144</ele><time>2026-04-12T10:30:50.913Z</time></trkpt><trkpt lat="43.6814311" lon="12.1547256"><ele>1117.5714285714287</ele><time>2026-04-12T10:30:53.903Z</time></trkpt><trkpt lat="43.6814885" lon="12.1547786"><ele>1117.857142857143</ele><time>2026-04-12T10:30:56.935Z</time></trkpt><trkpt lat="43.6815505" lon="12.1548287"><ele>1118.1428571428573</ele><time>2026-04-12T10:30:59.96Z</time></trkpt><trkpt lat="43.6816075" lon="12.1548784"><ele>1118.4285714285716</ele><time>2026-04-12T10:31:03.089Z</time></trkpt><trkpt lat="43.6816623" lon="12.154924"><ele>1118.7142857142858</ele><time>2026-04-12T10:31:05.913Z</time></trkpt><trkpt lat="43.6817302" lon="12.1549592"><ele>1119.0</ele><time>2026-04-12T10:31:09.074Z</time></trkpt><trkpt lat="43.6818076" lon="12.154985"><ele>1119.0</ele><time>2026-04-12T10:31:13.004Z</time></trkpt><trkpt lat="43.6818783" lon="12.154987"><ele>1119.0</ele><time>2026-04-12T10:31:19.005Z</time></trkpt><trkpt lat="43.6819528" lon="12.1549835"><ele>1119.0</ele><time>2026-04-12T10:31:24.004Z</time></trkpt><trkpt lat="43.6820263" lon="12.1549898"><ele>1119.0</ele><time>2026-04-12T10:31:29.074Z</time></trkpt><trkpt lat="43.682093" lon="12.1550071"><ele>1119.0</ele><time>2026-04-12T10:31:34.005Z</time></trkpt><trkpt lat="43.6821653" lon="12.1550189"><ele>1119.0</ele><time>2026-04-12T10:31:40.005Z</time></trkpt><trkpt lat="43.6822225" lon="12.1549562"><ele>1119.0</ele><time>2026-04-12T10:32:13.005Z</time></trkpt><trkpt lat="43.682326" lon="12.1549272"><ele>1118.5714285714284</ele><time>2026-04-12T10:32:21.005Z</time></trkpt><trkpt lat="43.6823856" lon="12.1548957"><ele>1118.142857142857</ele><time>2026-04-12T10:32:24.005Z</time></trkpt><trkpt lat="43.6824545" lon="12.1548572"><ele>1117.7142857142858</ele><time>2026-04-12T10:32:28.005Z</time></trkpt><trkpt lat="43.6825243" lon="12.1548157"><ele>1117.2857142857142</ele><time>2026-04-12T10:32:32.004Z</time></trkpt><trkpt lat="43.6825833" lon="12.1547601"><ele>1116.857142857143</ele><time>2026-04-12T10:32:36.005Z</time></trkpt><trkpt lat="43.6826547" lon="12.154733"><ele>1116.4285714285713</ele><time>2026-04-12T10:32:40.973Z</time></trkpt><trkpt lat="43.6827352" lon="12.1547199"><ele>1116.0</ele><time>2026-04-12T10:32:47.089Z</time></trkpt><trkpt lat="43.6828077" lon="12.1547343"><ele>1113.4285714285713</ele><time>2026-04-12T10:32:51.004Z</time></trkpt><trkpt lat="43.6828795" lon="12.1546807"><ele>1110.857142857143</ele><time>2026-04-12T10:32:56.005Z</time></trkpt><trkpt lat="43.6829456" lon="12.1546462"><ele>1108.2857142857142</ele><time>2026-04-12T10:32:59.08Z</time></trkpt><trkpt lat="43.6830154" lon="12.1546344"><ele>1105.7142857142858</ele><time>2026-04-12T10:33:02.005Z</time></trkpt><trkpt lat="43.6830786" lon="12.1546363"><ele>1103.142857142857</ele><time>2026-04-12T10:33:05.005Z</time></trkpt><trkpt lat="43.6831531" lon="12.1546662"><ele>1100.5714285714284</ele><time>2026-04-12T10:33:08.917Z</time></trkpt><trkpt lat="43.6832251" lon="12.1547209"><ele>1098.0</ele><time>2026-04-12T10:33:13.077Z</time></trkpt><trkpt lat="43.6832885" lon="12.1547809"><ele>1098.0</ele><time>2026-04-12T10:33:17.005Z</time></trkpt><trkpt lat="43.683339" lon="12.1548348"><ele>1098.0</ele><time>2026-04-12T10:33:21.005Z</time></trkpt><trkpt lat="43.6834014" lon="12.1548805"><ele>1098.0</ele><time>2026-04-12T10:33:25.088Z</time></trkpt><trkpt lat="43.683443" lon="12.1547883"><ele>1098.0</ele><time>2026-04-12T10:33:31.005Z</time></trkpt><trkpt lat="43.6834818" lon="12.1546955"><ele>1098.0</ele><time>2026-04-12T10:33:34.963Z</time></trkpt><trkpt lat="43.6835408" lon="12.1546401"><ele>1098.0</ele><time>2026-04-12T10:33:38.005Z</time></trkpt><trkpt lat="43.6836103" lon="12.1546621"><ele>1098.0</ele><time>2026-04-12T10:33:41.091Z</time></trkpt><trkpt lat="43.6836464" lon="12.1547443"><ele>1097.5714285714284</ele><time>2026-04-12T10:33:44.004Z</time></trkpt><trkpt lat="43.6836804" lon="12.1548405"><ele>1097.142857142857</ele><time>2026-04-12T10:33:47.005Z</time></trkpt><trkpt lat="43.6837135" lon="12.1549329"><ele>1096.7142857142858</ele><time>2026-04-12T10:33:50.004Z</time></trkpt><trkpt lat="43.6837102" lon="12.1550408"><ele>1096.2857142857142</ele><time>2026-04-12T10:33:53.004Z</time></trkpt><trkpt lat="43.6836978" lon="12.1551373"><ele>1095.857142857143</ele><time>2026-04-12T10:33:56.005Z</time></trkpt><trkpt lat="43.6837419" lon="12.155217"><ele>1095.4285714285713</ele><time>2026-04-12T10:34:01.005Z</time></trkpt><trkpt lat="43.6838112" lon="12.1552158"><ele>1095.0</ele><time>2026-04-12T10:34:05.004Z</time></trkpt><trkpt lat="43.6838893" lon="12.1551929"><ele>1094.9999999999998</ele><time>2026-04-12T10:34:08.974Z</time></trkpt><trkpt lat="43.6839506" lon="12.1551406"><ele>1095.0</ele><time>2026-04-12T10:34:12.084Z</time></trkpt><trkpt lat="43.6840146" lon="12.1551083"><ele>1095.0</ele><time>2026-04-12T10:34:15.917Z</time></trkpt><trkpt lat="43.6840667" lon="12.1551605"><ele>1095.0</ele><time>2026-04-12T10:34:20.005Z</time></trkpt><trkpt lat="43.6841391" lon="12.1551802"><ele>1095.0</ele><time>2026-04-12T10:34:26.835Z</time></trkpt><trkpt lat="43.6842176" lon="12.1551454"><ele>1094.9999999999998</ele><time>2026-04-12T10:34:30.675Z</time></trkpt><trkpt lat="43.6842845" lon="12.1551035"><ele>1095.0</ele><time>2026-04-12T10:34:33.762Z</time></trkpt><trkpt lat="43.6843548" lon="12.1550406"><ele>1094.9999999999998</ele><time>2026-04-12T10:34:36.938Z</time></trkpt><trkpt lat="43.6844224" lon="12.1549928"><ele>1095.0</ele><time>2026-04-12T10:34:39.961Z</time></trkpt><trkpt lat="43.684497" lon="12.1549447"><ele>1095.0</ele><time>2026-04-12T10:34:44.005Z</time></trkpt><trkpt lat="43.6845582" lon="12.1548879"><ele>1095.0</ele><time>2026-04-12T10:34:48.005Z</time></trkpt><trkpt lat="43.6845998" lon="12.1548186"><ele>1095.0</ele><time>2026-04-12T10:34:51.005Z</time></trkpt><trkpt lat="43.6846323" lon="12.1547331"><ele>1094.9999999999998</ele><time>2026-04-12T10:34:55.104Z</time></trkpt><trkpt lat="43.6846646" lon="12.1546431"><ele>1095.0</ele><time>2026-04-12T10:34:58.995Z</time></trkpt><trkpt lat="43.684701" lon="12.1545704"><ele>1090.4285714285713</ele><time>2026-04-12T10:35:03.96Z</time></trkpt><trkpt lat="43.6847355" lon="12.1544942"><ele>1085.857142857143</ele><time>2026-04-12T10:35:08.085Z</time></trkpt><trkpt lat="43.6847926" lon="12.1544125"><ele>1081.2857142857142</ele><time>2026-04-12T10:35:12.005Z</time></trkpt><trkpt lat="43.6848437" lon="12.1543395"><ele>1076.7142857142858</ele><time>2026-04-12T10:35:14.954Z</time></trkpt><trkpt lat="43.6849019" lon="12.1542903"><ele>1072.142857142857</ele><time>2026-04-12T10:35:19.005Z</time></trkpt><trkpt lat="43.6849554" lon="12.154227"><ele>1067.5714285714284</ele><time>2026-04-12T10:35:23.022Z</time></trkpt><trkpt lat="43.6850006" lon="12.1541596"><ele>1063.0</ele><time>2026-04-12T10:35:26.005Z</time></trkpt><trkpt lat="43.6849957" lon="12.1540694"><ele>1060.1666666666665</ele><time>2026-04-12T10:35:30.005Z</time></trkpt><trkpt lat="43.6850177" lon="12.1539781"><ele>1057.3333333333333</ele><time>2026-04-12T10:35:36.974Z</time></trkpt><trkpt lat="43.6850483" lon="12.1538947"><ele>1054.5</ele><time>2026-04-12T10:35:43.004Z</time></trkpt><trkpt lat="43.6850747" lon="12.153778"><ele>1051.6666666666667</ele><time>2026-04-12T10:35:47.082Z</time></trkpt><trkpt lat="43.6851056" lon="12.1536764"><ele>1048.8333333333335</ele><time>2026-04-12T10:35:51.08Z</time></trkpt><trkpt lat="43.6850808" lon="12.1535866"><ele>1046.0</ele><time>2026-04-12T10:35:58.005Z</time></trkpt><trkpt lat="43.6850979" lon="12.153477"><ele>1045.9999999999998</ele><time>2026-04-12T10:36:04.077Z</time></trkpt><trkpt lat="43.6851408" lon="12.1534037"><ele>1046.0</ele><time>2026-04-12T10:36:09.9Z</time></trkpt><trkpt lat="43.6852135" lon="12.153355"><ele>1046.0</ele><time>2026-04-12T10:36:15.005Z</time></trkpt><trkpt lat="43.6852315" lon="12.1532585"><ele>1046.0</ele><time>2026-04-12T10:36:20.934Z</time></trkpt><trkpt lat="43.6852764" lon="12.1531721"><ele>1046.0</ele><time>2026-04-12T10:36:26.005Z</time></trkpt><trkpt lat="43.685341" lon="12.1531386"><ele>1045.9999999999998</ele><time>2026-04-12T10:36:31.004Z</time></trkpt><trkpt lat="43.6854094" lon="12.1531244"><ele>1046.0</ele><time>2026-04-12T10:36:36.005Z</time></trkpt><trkpt lat="43.685463" lon="12.1530775"><ele>1042.8333333333335</ele><time>2026-04-12T10:36:39.976Z</time></trkpt><trkpt lat="43.6854809" lon="12.1529779"><ele>1039.6666666666667</ele><time>2026-04-12T10:36:44.005Z</time></trkpt><trkpt lat="43.6854875" lon="12.1528794"><ele>1036.5</ele><time>2026-04-12T10:36:48.005Z</time></trkpt><trkpt lat="43.6854692" lon="12.1527923"><ele>1033.3333333333333</ele><time>2026-04-12T10:36:51.021Z</time></trkpt><trkpt lat="43.6853825" lon="12.1527285"><ele>1030.1666666666665</ele><time>2026-04-12T10:36:55.005Z</time></trkpt><trkpt lat="43.6853022" lon="12.1526825"><ele>1027.0</ele><time>2026-04-12T10:36:58.96Z</time></trkpt><trkpt lat="43.6852536" lon="12.1526128"><ele>1027.0</ele><time>2026-04-12T10:37:02.916Z</time></trkpt><trkpt lat="43.6851946" lon="12.1525423"><ele>1027.0</ele><time>2026-04-12T10:37:07.087Z</time></trkpt><trkpt lat="43.6851377" lon="12.1525029"><ele>1027.0</ele><time>2026-04-12T10:37:11.005Z</time></trkpt><trkpt lat="43.6850706" lon="12.1524613"><ele>1027.0</ele><time>2026-04-12T10:37:15.084Z</time></trkpt><trkpt lat="43.6850052" lon="12.152432"><ele>1027.0</ele><time>2026-04-12T10:37:19.03Z</time></trkpt><trkpt lat="43.6849558" lon="12.1523755"><ele>1027.0</ele><time>2026-04-12T10:37:22.004Z</time></trkpt><trkpt lat="43.6848875" lon="12.1523019"><ele>1027.0</ele><time>2026-04-12T10:37:26.005Z</time></trkpt><trkpt lat="43.684914" lon="12.1522052"><ele>1023.2857142857143</ele><time>2026-04-12T10:37:30.086Z</time></trkpt><trkpt lat="43.6849462" lon="12.1521149"><ele>1019.5714285714287</ele><time>2026-04-12T10:37:33.858Z</time></trkpt><trkpt lat="43.6849941" lon="12.1520308"><ele>1015.8571428571429</ele><time>2026-04-12T10:37:37.004Z</time></trkpt><trkpt lat="43.6850537" lon="12.1519624"><ele>1012.1428571428571</ele><time>2026-04-12T10:37:40.005Z</time></trkpt><trkpt lat="43.6851059" lon="12.1518994"><ele>1008.4285714285714</ele><time>2026-04-12T10:37:43.037Z</time></trkpt><trkpt lat="43.6850747" lon="12.1518206"><ele>1004.7142857142858</ele><time>2026-04-12T10:37:47.005Z</time></trkpt><trkpt lat="43.6850235" lon="12.1517586"><ele>1001.0</ele><time>2026-04-12T10:37:51.095Z</time></trkpt><trkpt lat="43.6849696" lon="12.1516951"><ele>1001.0</ele><time>2026-04-12T10:37:57.085Z</time></trkpt><trkpt lat="43.6849366" lon="12.1515982"><ele>1001.0</ele><time>2026-04-12T10:38:02.005Z</time></trkpt><trkpt lat="43.6849088" lon="12.151505"><ele>1001.0</ele><time>2026-04-12T10:38:05.96Z</time></trkpt><trkpt lat="43.6848976" lon="12.1514064"><ele>1001.0</ele><time>2026-04-12T10:38:09.004Z</time></trkpt><trkpt lat="43.6848978" lon="12.1513062"><ele>1001.0</ele><time>2026-04-12T10:38:13.005Z</time></trkpt><trkpt lat="43.684948" lon="12.1512433"><ele>1001.0</ele><time>2026-04-12T10:38:16.004Z</time></trkpt><trkpt lat="43.6849971" lon="12.1511576"><ele>1001.0</ele><time>2026-04-12T10:38:20.004Z</time></trkpt><trkpt lat="43.6850507" lon="12.1511113"><ele>997.5714285714286</ele><time>2026-04-12T10:38:22.936Z</time></trkpt><trkpt lat="43.6851145" lon="12.1511125"><ele>994.1428571428571</ele><time>2026-04-12T10:38:26.019Z</time></trkpt><trkpt lat="43.6851747" lon="12.1511521"><ele>990.7142857142858</ele><time>2026-04-12T10:38:29.079Z</time></trkpt><trkpt lat="43.6852" lon="12.1512443"><ele>987.2857142857143</ele><time>2026-04-12T10:38:32.005Z</time></trkpt><trkpt lat="43.6852226" lon="12.1513344"><ele>983.8571428571429</ele><time>2026-04-12T10:38:35.08Z</time></trkpt><trkpt lat="43.6852623" lon="12.1514164"><ele>980.4285714285716</ele><time>2026-04-12T10:38:39.004Z</time></trkpt><trkpt lat="43.6853265" lon="12.1514769"><ele>977.0000000000001</ele><time>2026-04-12T10:38:43.114Z</time></trkpt><trkpt lat="43.6853906" lon="12.1514883"><ele>974.5714285714287</ele><time>2026-04-12T10:38:47.98Z</time></trkpt><trkpt lat="43.6854683" lon="12.1514792"><ele>972.1428571428571</ele><time>2026-04-12T10:38:51.005Z</time></trkpt><trkpt lat="43.6855394" lon="12.1514695"><ele>969.7142857142858</ele><time>2026-04-12T10:38:55.098Z</time></trkpt><trkpt lat="43.6856066" lon="12.151494"><ele>967.2857142857143</ele><time>2026-04-12T10:39:02.005Z</time></trkpt><trkpt lat="43.685677" lon="12.1515015"><ele>964.8571428571429</ele><time>2026-04-12T10:39:09.086Z</time></trkpt><trkpt lat="43.6857331" lon="12.1514546"><ele>962.4285714285714</ele><time>2026-04-12T10:39:15.091Z</time></trkpt><trkpt lat="43.6857999" lon="12.1514137"><ele>960.0</ele><time>2026-04-12T10:39:21.004Z</time></trkpt><trkpt lat="43.6858604" lon="12.1513774"><ele>960.0</ele><time>2026-04-12T10:39:26.005Z</time></trkpt><trkpt lat="43.6859327" lon="12.1513688"><ele>960.0</ele><time>2026-04-12T10:39:32.004Z</time></trkpt><trkpt lat="43.6859936" lon="12.1514185"><ele>960.0</ele><time>2026-04-12T10:39:38.004Z</time></trkpt><trkpt lat="43.6860445" lon="12.1514776"><ele>960.0</ele><time>2026-04-12T10:39:43.005Z</time></trkpt><trkpt lat="43.6861123" lon="12.1515132"><ele>960.0</ele><time>2026-04-12T10:39:49.103Z</time></trkpt><trkpt lat="43.6861791" lon="12.1515236"><ele>960.0</ele><time>2026-04-12T10:39:53.94Z</time></trkpt><trkpt lat="43.6862448" lon="12.1515266"><ele>960.0</ele><time>2026-04-12T10:39:57.98Z</time></trkpt><trkpt lat="43.6863117" lon="12.151553"><ele>959.2857142857143</ele><time>2026-04-12T10:40:01.082Z</time></trkpt><trkpt lat="43.6863815" lon="12.1515545"><ele>958.5714285714284</ele><time>2026-04-12T10:40:05.005Z</time></trkpt><trkpt lat="43.6864533" lon="12.1515547"><ele>957.8571428571428</ele><time>2026-04-12T10:40:09.004Z</time></trkpt><trkpt lat="43.6865177" lon="12.1515671"><ele>957.1428571428571</ele><time>2026-04-12T10:40:11.954Z</time></trkpt><trkpt lat="43.6865851" lon="12.1515497"><ele>956.4285714285713</ele><time>2026-04-12T10:40:15.087Z</time></trkpt><trkpt lat="43.6866643" lon="12.1515281"><ele>955.7142857142856</ele><time>2026-04-12T10:40:19.005Z</time></trkpt><trkpt lat="43.6867356" lon="12.1515214"><ele>954.9999999999999</ele><time>2026-04-12T10:40:22.043Z</time></trkpt><trkpt lat="43.6868012" lon="12.1515179"><ele>954.9999999999999</ele><time>2026-04-12T10:40:25.013Z</time></trkpt><trkpt lat="43.6868673" lon="12.1515285"><ele>955.0</ele><time>2026-04-12T10:40:28.005Z</time></trkpt><trkpt lat="43.6869368" lon="12.1514984"><ele>954.9999999999999</ele><time>2026-04-12T10:40:31.86Z</time></trkpt><trkpt lat="43.6869889" lon="12.1514487"><ele>954.9999999999999</ele><time>2026-04-12T10:40:36.097Z</time></trkpt><trkpt lat="43.687037" lon="12.1513804"><ele>955.0</ele><time>2026-04-12T10:40:39.955Z</time></trkpt><trkpt lat="43.6870856" lon="12.1513022"><ele>954.9999999999999</ele><time>2026-04-12T10:40:44.977Z</time></trkpt><trkpt lat="43.6871413" lon="12.1512291"><ele>954.9999999999999</ele><time>2026-04-12T10:40:47.983Z</time></trkpt><trkpt lat="43.6871594" lon="12.1511311"><ele>953.5714285714284</ele><time>2026-04-12T10:40:50.941Z</time></trkpt><trkpt lat="43.6871525" lon="12.15104"><ele>952.1428571428571</ele><time>2026-04-12T10:40:53.734Z</time></trkpt><trkpt lat="43.6871923" lon="12.1509373"><ele>950.7142857142857</ele><time>2026-04-12T10:40:57.96Z</time></trkpt><trkpt lat="43.6872352" lon="12.1508654"><ele>949.2857142857142</ele><time>2026-04-12T10:41:01.005Z</time></trkpt><trkpt lat="43.6872672" lon="12.1507901"><ele>947.8571428571429</ele><time>2026-04-12T10:41:03.894Z</time></trkpt><trkpt lat="43.6873156" lon="12.1507308"><ele>946.4285714285714</ele><time>2026-04-12T10:41:08.086Z</time></trkpt><trkpt lat="43.6873898" lon="12.150735"><ele>945.0</ele><time>2026-04-12T10:41:14.005Z</time></trkpt><trkpt lat="43.6874674" lon="12.1507463"><ele>945.0</ele><time>2026-04-12T10:41:20.005Z</time></trkpt><trkpt lat="43.6875309" lon="12.1507422"><ele>945.0</ele><time>2026-04-12T10:41:23.005Z</time></trkpt><trkpt lat="43.6875932" lon="12.1507211"><ele>945.0</ele><time>2026-04-12T10:41:26.997Z</time></trkpt><trkpt lat="43.6876114" lon="12.1506214"><ele>945.0</ele><time>2026-04-12T10:41:33.005Z</time></trkpt><trkpt lat="43.6875959" lon="12.1505202"><ele>945.0</ele><time>2026-04-12T10:41:36.954Z</time></trkpt><trkpt lat="43.6876043" lon="12.1504248"><ele>945.0</ele><time>2026-04-12T10:41:40.939Z</time></trkpt><trkpt lat="43.687663" lon="12.1503707"><ele>945.0</ele><time>2026-04-12T10:41:45.004Z</time></trkpt><trkpt lat="43.6877316" lon="12.1503464"><ele>939.4285714285714</ele><time>2026-04-12T10:41:48.005Z</time></trkpt><trkpt lat="43.6878054" lon="12.1503356"><ele>933.8571428571429</ele><time>2026-04-12T10:41:52.005Z</time></trkpt><trkpt lat="43.6878698" lon="12.1503401"><ele>928.2857142857142</ele><time>2026-04-12T10:41:56.756Z</time></trkpt><trkpt lat="43.6879385" lon="12.1503353"><ele>922.7142857142857</ele><time>2026-04-12T10:42:00.72Z</time></trkpt><trkpt lat="43.6880126" lon="12.1503212"><ele>917.1428571428571</ele><time>2026-04-12T10:42:03.997Z</time></trkpt><trkpt lat="43.688078" lon="12.1503242"><ele>911.5714285714284</ele><time>2026-04-12T10:42:07.025Z</time></trkpt><trkpt lat="43.6881572" lon="12.1502918"><ele>905.9999999999999</ele><time>2026-04-12T10:42:11.005Z</time></trkpt><trkpt lat="43.6881684" lon="12.1501977"><ele>905.9999999999999</ele><time>2026-04-12T10:42:14.005Z</time></trkpt><trkpt lat="43.6881448" lon="12.1501008"><ele>906.0</ele><time>2026-04-12T10:42:17.834Z</time></trkpt><trkpt lat="43.6880857" lon="12.1500199"><ele>905.9999999999999</ele><time>2026-04-12T10:42:21.877Z</time></trkpt><trkpt lat="43.6880158" lon="12.1499749"><ele>905.9999999999999</ele><time>2026-04-12T10:42:25.004Z</time></trkpt><trkpt lat="43.6879557" lon="12.1499211"><ele>906.0</ele><time>2026-04-12T10:42:27.915Z</time></trkpt><trkpt lat="43.6879035" lon="12.1498618"><ele>905.9999999999999</ele><time>2026-04-12T10:42:30.943Z</time></trkpt><trkpt lat="43.6878467" lon="12.1497979"><ele>905.9999999999999</ele><time>2026-04-12T10:42:34.005Z</time></trkpt><trkpt lat="43.687785" lon="12.1497251"><ele>905.5714285714284</ele><time>2026-04-12T10:42:37.004Z</time></trkpt><trkpt lat="43.6877245" lon="12.1496643"><ele>905.1428571428571</ele><time>2026-04-12T10:42:40.005Z</time></trkpt><trkpt lat="43.6876541" lon="12.149657"><ele>904.7142857142857</ele><time>2026-04-12T10:42:44.027Z</time></trkpt><trkpt lat="43.6875837" lon="12.1496251"><ele>904.2857142857142</ele><time>2026-04-12T10:42:48.034Z</time></trkpt><trkpt lat="43.6875471" lon="12.149522"><ele>903.8571428571429</ele><time>2026-04-12T10:42:51.875Z</time></trkpt><trkpt lat="43.6875487" lon="12.1494292"><ele>903.4285714285714</ele><time>2026-04-12T10:42:54.994Z</time></trkpt><trkpt lat="43.6875719" lon="12.1493304"><ele>903.0</ele><time>2026-04-12T10:42:58.759Z</time></trkpt><trkpt lat="43.6875895" lon="12.1492325"><ele>903.0</ele><time>2026-04-12T10:43:01.754Z</time></trkpt><trkpt lat="43.6876233" lon="12.1491086"><ele>903.0</ele><time>2026-04-12T10:43:05.005Z</time></trkpt><trkpt lat="43.6876583" lon="12.1489864"><ele>903.0</ele><time>2026-04-12T10:43:07.996Z</time></trkpt><trkpt lat="43.6876882" lon="12.1489079"><ele>903.0</ele><time>2026-04-12T10:43:09.994Z</time></trkpt><trkpt lat="43.6877284" lon="12.1488007"><ele>903.0</ele><time>2026-04-12T10:43:13.044Z</time></trkpt><trkpt lat="43.6877554" lon="12.1486907"><ele>903.0</ele><time>2026-04-12T10:43:16.005Z</time></trkpt><trkpt lat="43.6877652" lon="12.1485817"><ele>900.2857142857143</ele><time>2026-04-12T10:43:19.005Z</time></trkpt><trkpt lat="43.6877476" lon="12.1484806"><ele>897.5714285714286</ele><time>2026-04-12T10:43:22.005Z</time></trkpt><trkpt lat="43.68773" lon="12.1483896"><ele>894.8571428571429</ele><time>2026-04-12T10:43:25.005Z</time></trkpt><trkpt lat="43.6877464" lon="12.1482782"><ele>892.1428571428571</ele><time>2026-04-12T10:43:28.958Z</time></trkpt><trkpt lat="43.6878035" lon="12.1482267"><ele>889.4285714285714</ele><time>2026-04-12T10:43:31.935Z</time></trkpt><trkpt lat="43.6878699" lon="12.1482498"><ele>886.7142857142858</ele><time>2026-04-12T10:43:35.9Z</time></trkpt><trkpt lat="43.6879318" lon="12.1483018"><ele>884.0</ele><time>2026-04-12T10:43:39.935Z</time></trkpt><trkpt lat="43.6879913" lon="12.1483689"><ele>883.3333333333334</ele><time>2026-04-12T10:43:43.9Z</time></trkpt><trkpt lat="43.6880717" lon="12.1483441"><ele>882.6666666666667</ele><time>2026-04-12T10:43:48.875Z</time></trkpt><trkpt lat="43.6881591" lon="12.1482825"><ele>882.0</ele><time>2026-04-12T10:43:52.005Z</time></trkpt><trkpt lat="43.6882196" lon="12.1482519"><ele>881.3333333333333</ele><time>2026-04-12T10:43:54.005Z</time></trkpt><trkpt lat="43.6882874" lon="12.1482279"><ele>880.6666666666666</ele><time>2026-04-12T10:43:56.004Z</time></trkpt><trkpt lat="43.6883495" lon="12.1481953"><ele>880.0</ele><time>2026-04-12T10:43:57.921Z</time></trkpt><trkpt lat="43.6884081" lon="12.1481465"><ele>877.4999999999999</ele><time>2026-04-12T10:43:59.957Z</time></trkpt><trkpt lat="43.6884882" lon="12.1481142"><ele>875.0</ele><time>2026-04-12T10:44:03.005Z</time></trkpt><trkpt lat="43.6885754" lon="12.1481129"><ele>872.5</ele><time>2026-04-12T10:44:06.005Z</time></trkpt><trkpt lat="43.688639" lon="12.1481162"><ele>870.0</ele><time>2026-04-12T10:44:08.005Z</time></trkpt><trkpt lat="43.6887342" lon="12.1481171"><ele>867.4999999999999</ele><time>2026-04-12T10:44:11.005Z</time></trkpt><trkpt lat="43.6887999" lon="12.1481035"><ele>865.0</ele><time>2026-04-12T10:44:13.004Z</time></trkpt><trkpt lat="43.6888821" lon="12.1480654"><ele>864.4285714285714</ele><time>2026-04-12T10:44:16.005Z</time></trkpt><trkpt lat="43.6889489" lon="12.1480457"><ele>863.8571428571429</ele><time>2026-04-12T10:44:18.004Z</time></trkpt><trkpt lat="43.6890203" lon="12.1480215"><ele>863.2857142857142</ele><time>2026-04-12T10:44:19.92Z</time></trkpt><trkpt lat="43.6890948" lon="12.1480053"><ele>862.7142857142858</ele><time>2026-04-12T10:44:21.955Z</time></trkpt><trkpt lat="43.6891599" lon="12.1479759"><ele>862.1428571428571</ele><time>2026-04-12T10:44:25.004Z</time></trkpt><trkpt lat="43.689225" lon="12.1479559"><ele>861.5714285714286</ele><time>2026-04-12T10:44:27.965Z</time></trkpt><trkpt lat="43.6892986" lon="12.1479137"><ele>861.0</ele><time>2026-04-12T10:44:31.005Z</time></trkpt><trkpt lat="43.6893589" lon="12.1478625"><ele>861.0</ele><time>2026-04-12T10:44:34.09Z</time></trkpt><trkpt lat="43.6894067" lon="12.1477822"><ele>861.0</ele><time>2026-04-12T10:44:37.004Z</time></trkpt><trkpt lat="43.6893985" lon="12.1476743"><ele>861.0</ele><time>2026-04-12T10:44:39.004Z</time></trkpt><trkpt lat="43.6894119" lon="12.1475567"><ele>861.0</ele><time>2026-04-12T10:44:42.081Z</time></trkpt><trkpt lat="43.6894503" lon="12.1474805"><ele>861.0</ele><time>2026-04-12T10:44:45.004Z</time></trkpt><trkpt lat="43.6895255" lon="12.1474179"><ele>861.0</ele><time>2026-04-12T10:44:48.08Z</time></trkpt><trkpt lat="43.6896129" lon="12.1473868"><ele>858.5</ele><time>2026-04-12T10:44:51.004Z</time></trkpt><trkpt lat="43.6896885" lon="12.1473274"><ele>856.0</ele><time>2026-04-12T10:44:54.081Z</time></trkpt><trkpt lat="43.6897464" lon="12.1472632"><ele>853.5</ele><time>2026-04-12T10:44:57.089Z</time></trkpt><trkpt lat="43.6897953" lon="12.147179"><ele>851.0</ele><time>2026-04-12T10:45:00.004Z</time></trkpt><trkpt lat="43.6898417" lon="12.1470868"><ele>848.5</ele><time>2026-04-12T10:45:03.004Z</time></trkpt><trkpt lat="43.6898922" lon="12.1469921"><ele>846.0</ele><time>2026-04-12T10:45:06.085Z</time></trkpt><trkpt lat="43.6899287" lon="12.1469097"><ele>846.0</ele><time>2026-04-12T10:45:08.959Z</time></trkpt><trkpt lat="43.6899719" lon="12.1468276"><ele>846.0</ele><time>2026-04-12T10:45:12.821Z</time></trkpt><trkpt lat="43.6900177" lon="12.1467595"><ele>846.0</ele><time>2026-04-12T10:45:17.016Z</time></trkpt><trkpt lat="43.6900792" lon="12.1466975"><ele>846.0</ele><time>2026-04-12T10:45:21.005Z</time></trkpt><trkpt lat="43.6901226" lon="12.1466281"><ele>846.0</ele><time>2026-04-12T10:45:23.981Z</time></trkpt><trkpt lat="43.6901464" lon="12.1465375"><ele>846.0</ele><time>2026-04-12T10:45:27.014Z</time></trkpt><trkpt lat="43.6902232" lon="12.1465646"><ele>846.0</ele><time>2026-04-12T10:45:31.005Z</time></trkpt><trkpt lat="43.6902662" lon="12.1466641"><ele>843.8333333333334</ele><time>2026-04-12T10:45:34.004Z</time></trkpt><trkpt lat="43.6903194" lon="12.1467498"><ele>841.6666666666667</ele><time>2026-04-12T10:45:37.082Z</time></trkpt><trkpt lat="43.6903703" lon="12.146833"><ele>839.5</ele><time>2026-04-12T10:45:39.996Z</time></trkpt><trkpt lat="43.6904263" lon="12.146912"><ele>837.3333333333334</ele><time>2026-04-12T10:45:43.09Z</time></trkpt><trkpt lat="43.6904742" lon="12.1469878"><ele>835.1666666666667</ele><time>2026-04-12T10:45:46.005Z</time></trkpt><trkpt lat="43.6905242" lon="12.1470737"><ele>833.0</ele><time>2026-04-12T10:45:49.048Z</time></trkpt><trkpt lat="43.6905725" lon="12.1471575"><ele>833.0000000000001</ele><time>2026-04-12T10:45:52.005Z</time></trkpt><trkpt lat="43.6906146" lon="12.1472494"><ele>833.0</ele><time>2026-04-12T10:45:55.005Z</time></trkpt><trkpt lat="43.6906574" lon="12.1473449"><ele>833.0</ele><time>2026-04-12T10:45:58.005Z</time></trkpt><trkpt lat="43.6906968" lon="12.1474339"><ele>833.0</ele><time>2026-04-12T10:46:01.005Z</time></trkpt><trkpt lat="43.6907448" lon="12.1475066"><ele>833.0000000000001</ele><time>2026-04-12T10:46:04.005Z</time></trkpt><trkpt lat="43.6908164" lon="12.1475551"><ele>833.0</ele><time>2026-04-12T10:46:07.005Z</time></trkpt><trkpt lat="43.6908884" lon="12.1475468"><ele>834.0</ele><time>2026-04-12T10:46:10.005Z</time></trkpt><trkpt lat="43.6909559" lon="12.1475748"><ele>835.0</ele><time>2026-04-12T10:46:13.092Z</time></trkpt><trkpt lat="43.6910132" lon="12.147646"><ele>836.0</ele><time>2026-04-12T10:46:17.005Z</time></trkpt><trkpt lat="43.6910417" lon="12.1477281"><ele>837.0</ele><time>2026-04-12T10:46:19.853Z</time></trkpt><trkpt lat="43.6910725" lon="12.1478311"><ele>838.0</ele><time>2026-04-12T10:46:23.091Z</time></trkpt><trkpt lat="43.6910858" lon="12.1479196"><ele>839.0</ele><time>2026-04-12T10:46:26.005Z</time></trkpt><trkpt lat="43.6910658" lon="12.1480096"><ele>840.0</ele><time>2026-04-12T10:46:29.004Z</time></trkpt><trkpt lat="43.691015" lon="12.1480876"><ele>840.0</ele><time>2026-04-12T10:46:33.005Z</time></trkpt><trkpt lat="43.6909737" lon="12.1481699"><ele>840.0</ele><time>2026-04-12T10:46:37.004Z</time></trkpt><trkpt lat="43.6909158" lon="12.1482601"><ele>840.0</ele><time>2026-04-12T10:46:41.005Z</time></trkpt><trkpt lat="43.6908718" lon="12.1483412"><ele>840.0</ele><time>2026-04-12T10:46:44.016Z</time></trkpt><trkpt lat="43.6908119" lon="12.1483983"><ele>840.0</ele><time>2026-04-12T10:46:47.005Z</time></trkpt><trkpt lat="43.6907521" lon="12.1484441"><ele>840.0</ele><time>2026-04-12T10:46:50.005Z</time></trkpt><trkpt lat="43.6907004" lon="12.1484951"><ele>840.0</ele><time>2026-04-12T10:46:52.955Z</time></trkpt><trkpt lat="43.6906401" lon="12.1485382"><ele>839.3333333333334</ele><time>2026-04-12T10:46:56.081Z</time></trkpt><trkpt lat="43.6905795" lon="12.1485815"><ele>838.6666666666667</ele><time>2026-04-12T10:47:00.936Z</time></trkpt><trkpt lat="43.6905097" lon="12.1486103"><ele>838.0</ele><time>2026-04-12T10:47:04.079Z</time></trkpt><trkpt lat="43.6904251" lon="12.1486295"><ele>837.3333333333334</ele><time>2026-04-12T10:47:07.975Z</time></trkpt><trkpt lat="43.690357" lon="12.1486511"><ele>836.6666666666667</ele><time>2026-04-12T10:47:11.004Z</time></trkpt><trkpt lat="43.6902917" lon="12.148683"><ele>836.0</ele><time>2026-04-12T10:47:14.091Z</time></trkpt><trkpt lat="43.6902137" lon="12.1487259"><ele>836.1428571428571</ele><time>2026-04-12T10:47:18.422Z</time></trkpt><trkpt lat="43.6901598" lon="12.1487854"><ele>836.2857142857142</ele><time>2026-04-12T10:47:21.476Z</time></trkpt><trkpt lat="43.6901548" lon="12.1488971"><ele>836.4285714285714</ele><time>2026-04-12T10:47:24.597Z</time></trkpt><trkpt lat="43.6901718" lon="12.1489999"><ele>836.5714285714286</ele><time>2026-04-12T10:47:27.62Z</time></trkpt><trkpt lat="43.6902236" lon="12.1490792"><ele>836.7142857142858</ele><time>2026-04-12T10:47:30.694Z</time></trkpt><trkpt lat="43.6902924" lon="12.1491196"><ele>836.8571428571429</ele><time>2026-04-12T10:47:33.828Z</time></trkpt><trkpt lat="43.6903558" lon="12.1491387"><ele>837.0</ele><time>2026-04-12T10:47:36.841Z</time></trkpt><trkpt lat="43.6904236" lon="12.1491598"><ele>835.4285714285714</ele><time>2026-04-12T10:47:39.873Z</time></trkpt><trkpt lat="43.6904926" lon="12.1491789"><ele>833.8571428571429</ele><time>2026-04-12T10:47:43.005Z</time></trkpt><trkpt lat="43.690563" lon="12.1491901"><ele>832.2857142857142</ele><time>2026-04-12T10:47:46.093Z</time></trkpt><trkpt lat="43.6906275" lon="12.1491787"><ele>830.7142857142858</ele><time>2026-04-12T10:47:49.005Z</time></trkpt><trkpt lat="43.6906935" lon="12.1491762"><ele>829.1428571428571</ele><time>2026-04-12T10:47:53.004Z</time></trkpt><trkpt lat="43.6907625" lon="12.1491417"><ele>827.5714285714286</ele><time>2026-04-12T10:47:58.005Z</time></trkpt><trkpt lat="43.6908353" lon="12.1491218"><ele>826.0</ele><time>2026-04-12T10:48:03.005Z</time></trkpt><trkpt lat="43.690909" lon="12.1491118"><ele>826.0</ele><time>2026-04-12T10:48:08.005Z</time></trkpt><trkpt lat="43.6909774" lon="12.1491499"><ele>826.0</ele><time>2026-04-12T10:48:12.934Z</time></trkpt><trkpt lat="43.6910415" lon="12.1491841"><ele>826.0</ele><time>2026-04-12T10:48:16.98Z</time></trkpt><trkpt lat="43.6911047" lon="12.1492084"><ele>826.0</ele><time>2026-04-12T10:48:21.021Z</time></trkpt><trkpt lat="43.6911823" lon="12.1492384"><ele>826.0</ele><time>2026-04-12T10:48:26.004Z</time></trkpt><trkpt lat="43.6912531" lon="12.1492732"><ele>826.0</ele><time>2026-04-12T10:48:31.005Z</time></trkpt><trkpt lat="43.6913093" lon="12.1493128"><ele>826.0</ele><time>2026-04-12T10:48:35.005Z</time></trkpt><trkpt lat="43.6913732" lon="12.1493633"><ele>825.0</ele><time>2026-04-12T10:48:39.957Z</time></trkpt><trkpt lat="43.6914389" lon="12.1494084"><ele>824.0</ele><time>2026-04-12T10:48:45.005Z</time></trkpt><trkpt lat="43.691498" lon="12.1494476"><ele>823.0</ele><time>2026-04-12T10:48:50.004Z</time></trkpt><trkpt lat="43.6915582" lon="12.1495026"><ele>822.0</ele><time>2026-04-12T10:48:55.005Z</time></trkpt><trkpt lat="43.6916155" lon="12.1495519"><ele>821.0</ele><time>2026-04-12T10:49:00.005Z</time></trkpt><trkpt lat="43.6916807" lon="12.1495959"><ele>820.0</ele><time>2026-04-12T10:49:05.005Z</time></trkpt><trkpt lat="43.6917459" lon="12.1496508"><ele>819.0</ele><time>2026-04-12T10:49:11.005Z</time></trkpt><trkpt lat="43.6917993" lon="12.1497077"><ele>819.0</ele><time>2026-04-12T10:49:16.005Z</time></trkpt><trkpt lat="43.6918681" lon="12.1497231"><ele>819.0</ele><time>2026-04-12T10:49:21.005Z</time></trkpt><trkpt lat="43.6919327" lon="12.1497328"><ele>819.0</ele><time>2026-04-12T10:49:26.005Z</time></trkpt><trkpt lat="43.6920046" lon="12.1497452"><ele>819.0</ele><time>2026-04-12T10:49:31.005Z</time></trkpt><trkpt lat="43.6920753" lon="12.1497819"><ele>819.0</ele><time>2026-04-12T10:49:37.005Z</time></trkpt><trkpt lat="43.6921327" lon="12.1498334"><ele>819.0</ele><time>2026-04-12T10:49:41.961Z</time></trkpt><trkpt lat="43.6921884" lon="12.1498857"><ele>819.0</ele><time>2026-04-12T10:49:47.004Z</time></trkpt><trkpt lat="43.6922529" lon="12.149928"><ele>819.4285714285714</ele><time>2026-04-12T10:49:51.937Z</time></trkpt><trkpt lat="43.692304" lon="12.1499936"><ele>819.8571428571429</ele><time>2026-04-12T10:49:57.005Z</time></trkpt><trkpt lat="43.692338" lon="12.1500791"><ele>820.2857142857142</ele><time>2026-04-12T10:50:02.005Z</time></trkpt><trkpt lat="43.692391" lon="12.1501444"><ele>820.7142857142858</ele><time>2026-04-12T10:50:07.014Z</time></trkpt><trkpt lat="43.6924568" lon="12.1501592"><ele>821.1428571428571</ele><time>2026-04-12T10:50:12.004Z</time></trkpt><trkpt lat="43.6925196" lon="12.1501518"><ele>821.5714285714286</ele><time>2026-04-12T10:50:17.005Z</time></trkpt><trkpt lat="43.6925811" lon="12.1501735"><ele>822.0</ele><time>2026-04-12T10:50:24.005Z</time></trkpt><trkpt lat="43.6926367" lon="12.1502245"><ele>822.0</ele><time>2026-04-12T10:50:29.915Z</time></trkpt><trkpt lat="43.69267" lon="12.1503055"><ele>822.0</ele><time>2026-04-12T10:50:35.004Z</time></trkpt><trkpt lat="43.6927171" lon="12.1503722"><ele>822.0</ele><time>2026-04-12T10:50:40.005Z</time></trkpt><trkpt lat="43.6927612" lon="12.1504572"><ele>822.0</ele><time>2026-04-12T10:50:44.005Z</time></trkpt><trkpt lat="43.6928174" lon="12.1505305"><ele>822.0</ele><time>2026-04-12T10:50:47.096Z</time></trkpt><trkpt lat="43.692876" lon="12.1505861"><ele>822.0</ele><time>2026-04-12T10:50:50.048Z</time></trkpt><trkpt lat="43.6929534" lon="12.1506234"><ele>822.0</ele><time>2026-04-12T10:50:53.005Z</time></trkpt><trkpt lat="43.6930369" lon="12.15066"><ele>822.1428571428571</ele><time>2026-04-12T10:50:56.104Z</time></trkpt><trkpt lat="43.6931106" lon="12.1506664"><ele>822.2857142857142</ele><time>2026-04-12T10:50:59.004Z</time></trkpt><trkpt lat="43.6931799" lon="12.1506661"><ele>822.4285714285714</ele><time>2026-04-12T10:51:02.004Z</time></trkpt><trkpt lat="43.6932486" lon="12.1506695"><ele>822.5714285714286</ele><time>2026-04-12T10:51:05.08Z</time></trkpt><trkpt lat="43.6933124" lon="12.1506909"><ele>822.7142857142858</ele><time>2026-04-12T10:51:08.004Z</time></trkpt><trkpt lat="43.6933729" lon="12.1507287"><ele>822.8571428571429</ele><time>2026-04-12T10:51:11.097Z</time></trkpt><trkpt lat="43.6934179" lon="12.1507896"><ele>823.0</ele><time>2026-04-12T10:51:14.005Z</time></trkpt><trkpt lat="43.6934626" lon="12.1508794"><ele>822.9999999999999</ele><time>2026-04-12T10:51:17.089Z</time></trkpt><trkpt lat="43.6934872" lon="12.150975"><ele>823.0</ele><time>2026-04-12T10:51:20.004Z</time></trkpt><trkpt lat="43.6934861" lon="12.1510755"><ele>823.0</ele><time>2026-04-12T10:51:23.005Z</time></trkpt><trkpt lat="43.6934592" lon="12.1511828"><ele>823.0</ele><time>2026-04-12T10:51:26.004Z</time></trkpt><trkpt lat="43.6934397" lon="12.1512884"><ele>822.9999999999999</ele><time>2026-04-12T10:51:29Z</time></trkpt><trkpt lat="43.6934246" lon="12.1513933"><ele>823.0</ele><time>2026-04-12T10:51:32.939Z</time></trkpt><trkpt lat="43.6934024" lon="12.1514865"><ele>823.0</ele><time>2026-04-12T10:51:39.004Z</time></trkpt><trkpt lat="43.6934317" lon="12.1515682"><ele>823.0</ele><time>2026-04-12T10:51:45.005Z</time></trkpt><trkpt lat="43.6934941" lon="12.1515422"><ele>823.0</ele><time>2026-04-12T10:51:49.005Z</time></trkpt><trkpt lat="43.6935661" lon="12.1515199"><ele>823.0</ele><time>2026-04-12T10:51:54.977Z</time></trkpt><trkpt lat="43.6936404" lon="12.1515204"><ele>823.0</ele><time>2026-04-12T10:52:01.005Z</time></trkpt><trkpt lat="43.6936837" lon="12.1514519"><ele>823.0</ele><time>2026-04-12T10:52:06.004Z</time></trkpt><trkpt lat="43.6937209" lon="12.1513599"><ele>823.0</ele><time>2026-04-12T10:52:10.005Z</time></trkpt><trkpt lat="43.6937844" lon="12.1512978"><ele>821.3333333333333</ele><time>2026-04-12T10:52:12.999Z</time></trkpt><trkpt lat="43.6938574" lon="12.151259"><ele>819.6666666666666</ele><time>2026-04-12T10:52:16.005Z</time></trkpt><trkpt lat="43.6939357" lon="12.1512221"><ele>818.0</ele><time>2026-04-12T10:52:19.084Z</time></trkpt><trkpt lat="43.6940082" lon="12.1512016"><ele>816.3333333333333</ele><time>2026-04-12T10:52:22.005Z</time></trkpt><trkpt lat="43.6940929" lon="12.1511822"><ele>814.6666666666666</ele><time>2026-04-12T10:52:26.004Z</time></trkpt><trkpt lat="43.6941681" lon="12.1511579"><ele>813.0</ele><time>2026-04-12T10:52:29Z</time></trkpt><trkpt lat="43.6942372" lon="12.1511225"><ele>813.0</ele><time>2026-04-12T10:52:32.005Z</time></trkpt><trkpt lat="43.6943071" lon="12.1511017"><ele>813.0</ele><time>2026-04-12T10:52:35.005Z</time></trkpt><trkpt lat="43.694379" lon="12.1510752"><ele>813.0</ele><time>2026-04-12T10:52:38.005Z</time></trkpt><trkpt lat="43.6944496" lon="12.151052"><ele>813.0</ele><time>2026-04-12T10:52:41.005Z</time></trkpt><trkpt lat="43.6945212" lon="12.1510348"><ele>813.0</ele><time>2026-04-12T10:52:44.005Z</time></trkpt><trkpt lat="43.6945893" lon="12.151063"><ele>813.0</ele><time>2026-04-12T10:52:47.084Z</time></trkpt><trkpt lat="43.6946508" lon="12.1511228"><ele>813.0</ele><time>2026-04-12T10:52:49.942Z</time></trkpt><trkpt lat="43.694695" lon="12.151218"><ele>812.5714285714286</ele><time>2026-04-12T10:52:53.005Z</time></trkpt><trkpt lat="43.6947144" lon="12.1513044"><ele>812.1428571428571</ele><time>2026-04-12T10:52:55.057Z</time></trkpt><trkpt lat="43.6947449" lon="12.1513862"><ele>811.7142857142857</ele><time>2026-04-12T10:52:57.98Z</time></trkpt><trkpt lat="43.6947737" lon="12.1514691"><ele>811.2857142857142</ele><time>2026-04-12T10:53:02.005Z</time></trkpt><trkpt lat="43.6948086" lon="12.151555"><ele>810.8571428571429</ele><time>2026-04-12T10:53:04.982Z</time></trkpt><trkpt lat="43.694867" lon="12.1516277"><ele>810.4285714285713</ele><time>2026-04-12T10:53:08.005Z</time></trkpt><trkpt lat="43.6949337" lon="12.1516885"><ele>810.0</ele><time>2026-04-12T10:53:11.089Z</time></trkpt><trkpt lat="43.6949818" lon="12.1517532"><ele>809.9999999999999</ele><time>2026-04-12T10:53:14.005Z</time></trkpt><trkpt lat="43.695022" lon="12.1518274"><ele>810.0</ele><time>2026-04-12T10:53:17.004Z</time></trkpt><trkpt lat="43.6950637" lon="12.151904"><ele>810.0</ele><time>2026-04-12T10:53:20.092Z</time></trkpt><trkpt lat="43.6951375" lon="12.1519573"><ele>810.0</ele><time>2026-04-12T10:53:24.005Z</time></trkpt><trkpt lat="43.695204" lon="12.1519657"><ele>810.0</ele><time>2026-04-12T10:53:27.005Z</time></trkpt><trkpt lat="43.6952676" lon="12.1519764"><ele>809.9999999999999</ele><time>2026-04-12T10:53:30.005Z</time></trkpt><trkpt lat="43.6953438" lon="12.1519953"><ele>810.0</ele><time>2026-04-12T10:53:34.005Z</time></trkpt><trkpt lat="43.6954151" lon="12.152018"><ele>807.9999999999999</ele><time>2026-04-12T10:53:38.005Z</time></trkpt><trkpt lat="43.695452" lon="12.152106"><ele>806.0</ele><time>2026-04-12T10:53:40.961Z</time></trkpt><trkpt lat="43.6954444" lon="12.1522072"><ele>804.0</ele><time>2026-04-12T10:53:44.077Z</time></trkpt><trkpt lat="43.6954245" lon="12.1523031"><ele>802.0</ele><time>2026-04-12T10:53:48.005Z</time></trkpt><trkpt lat="43.6953944" lon="12.1523833"><ele>800.0</ele><time>2026-04-12T10:53:53.005Z</time></trkpt><trkpt lat="43.6954019" lon="12.152477"><ele>797.9999999999999</ele><time>2026-04-12T10:53:58.004Z</time></trkpt><trkpt lat="43.6954176" lon="12.152568"><ele>796.0</ele><time>2026-04-12T10:54:03.005Z</time></trkpt><trkpt lat="43.6954498" lon="12.1526491"><ele>795.9999999999999</ele><time>2026-04-12T10:54:08.005Z</time></trkpt><trkpt lat="43.6954971" lon="12.1527213"><ele>796.0</ele><time>2026-04-12T10:54:13.005Z</time></trkpt><trkpt lat="43.6955608" lon="12.1527542"><ele>796.0</ele><time>2026-04-12T10:54:18.005Z</time></trkpt><trkpt lat="43.6956238" lon="12.1527899"><ele>796.0</ele><time>2026-04-12T10:54:23.004Z</time></trkpt><trkpt lat="43.6956605" lon="12.152866"><ele>796.0</ele><time>2026-04-12T10:54:27.995Z</time></trkpt><trkpt lat="43.6956867" lon="12.1529512"><ele>795.9999999999999</ele><time>2026-04-12T10:54:33.005Z</time></trkpt><trkpt lat="43.6957149" lon="12.1530362"><ele>796.0</ele><time>2026-04-12T10:54:38.004Z</time></trkpt><trkpt lat="43.6957542" lon="12.153119"><ele>795.9999999999999</ele><time>2026-04-12T10:54:42.004Z</time></trkpt><trkpt lat="43.6958103" lon="12.1531895"><ele>796.0</ele><time>2026-04-12T10:54:45.005Z</time></trkpt><trkpt lat="43.6958704" lon="12.1532475"><ele>796.0</ele><time>2026-04-12T10:54:48.004Z</time></trkpt><trkpt lat="43.6959417" lon="12.153277"><ele>796.0</ele><time>2026-04-12T10:54:51.004Z</time></trkpt><trkpt lat="43.6959932" lon="12.1533352"><ele>796.0</ele><time>2026-04-12T10:54:54.076Z</time></trkpt><trkpt lat="43.696054" lon="12.153372"><ele>795.9999999999999</ele><time>2026-04-12T10:55:00.005Z</time></trkpt><trkpt lat="43.6961267" lon="12.1533692"><ele>796.0</ele><time>2026-04-12T10:55:06.004Z</time></trkpt><trkpt lat="43.6961828" lon="12.1534125"><ele>795.8571428571428</ele><time>2026-04-12T10:55:11.005Z</time></trkpt><trkpt lat="43.6962498" lon="12.1534696"><ele>795.7142857142857</ele><time>2026-04-12T10:55:16.005Z</time></trkpt><trkpt lat="43.6963019" lon="12.1535196"><ele>795.5714285714286</ele><time>2026-04-12T10:55:20.091Z</time></trkpt><trkpt lat="43.696356" lon="12.1535904"><ele>795.4285714285713</ele><time>2026-04-12T10:55:25.005Z</time></trkpt><trkpt lat="43.6964061" lon="12.1536486"><ele>795.2857142857143</ele><time>2026-04-12T10:55:30.005Z</time></trkpt><trkpt lat="43.6964722" lon="12.1537127"><ele>795.1428571428571</ele><time>2026-04-12T10:55:35.005Z</time></trkpt><trkpt lat="43.6965158" lon="12.1538037"><ele>795.0</ele><time>2026-04-12T10:55:38.005Z</time></trkpt><trkpt lat="43.6965348" lon="12.1539131"><ele>795.0</ele><time>2026-04-12T10:55:41.085Z</time></trkpt><trkpt lat="43.6965496" lon="12.1540116"><ele>795.0</ele><time>2026-04-12T10:55:44Z</time></trkpt><trkpt lat="43.696582" lon="12.1541088"><ele>795.0</ele><time>2026-04-12T10:55:47.005Z</time></trkpt><trkpt lat="43.6966458" lon="12.1541535"><ele>795.0</ele><time>2026-04-12T10:55:50.005Z</time></trkpt><trkpt lat="43.6967092" lon="12.1541758"><ele>795.0</ele><time>2026-04-12T10:55:53.036Z</time></trkpt><trkpt lat="43.6967742" lon="12.1541565"><ele>795.0</ele><time>2026-04-12T10:55:56.06Z</time></trkpt><trkpt lat="43.6968319" lon="12.1541132"><ele>795.0</ele><time>2026-04-12T10:55:59.021Z</time></trkpt><trkpt lat="43.6968958" lon="12.1540891"><ele>794.5714285714286</ele><time>2026-04-12T10:56:02.005Z</time></trkpt><trkpt lat="43.696959" lon="12.1540961"><ele>794.1428571428571</ele><time>2026-04-12T10:56:05.005Z</time></trkpt><trkpt lat="43.6970406" lon="12.1541367"><ele>793.7142857142858</ele><time>2026-04-12T10:56:09.064Z</time></trkpt><trkpt lat="43.6971004" lon="12.1541646"><ele>793.2857142857142</ele><time>2026-04-12T10:56:11.972Z</time></trkpt><trkpt lat="43.6971694" lon="12.1541542"><ele>792.8571428571428</ele><time>2026-04-12T10:56:14.96Z</time></trkpt><trkpt lat="43.6972398" lon="12.154113"><ele>792.4285714285714</ele><time>2026-04-12T10:56:18.085Z</time></trkpt><trkpt lat="43.6973137" lon="12.1540928"><ele>792.0</ele><time>2026-04-12T10:56:21.022Z</time></trkpt><trkpt lat="43.6973978" lon="12.154128"><ele>792.0</ele><time>2026-04-12T10:56:24.033Z</time></trkpt><trkpt lat="43.6974484" lon="12.1541821"><ele>792.0</ele><time>2026-04-12T10:56:26.045Z</time></trkpt><trkpt lat="43.6975141" lon="12.1542012"><ele>792.0</ele><time>2026-04-12T10:56:29.005Z</time></trkpt><trkpt lat="43.6975762" lon="12.1541547"><ele>792.0</ele><time>2026-04-12T10:56:32.004Z</time></trkpt><trkpt lat="43.6976328" lon="12.1540918"><ele>792.0</ele><time>2026-04-12T10:56:34.933Z</time></trkpt><trkpt lat="43.6977078" lon="12.1540562"><ele>792.0</ele><time>2026-04-12T10:56:38.101Z</time></trkpt><trkpt lat="43.6977867" lon="12.1540538"><ele>792.0</ele><time>2026-04-12T10:56:41.004Z</time></trkpt><trkpt lat="43.6978601" lon="12.1540529"><ele>789.0</ele><time>2026-04-12T10:56:44.005Z</time></trkpt><trkpt lat="43.6979421" lon="12.1540694"><ele>786.0</ele><time>2026-04-12T10:56:47.005Z</time></trkpt><trkpt lat="43.6980251" lon="12.1540893"><ele>783.0</ele><time>2026-04-12T10:56:50.087Z</time></trkpt><trkpt lat="43.6980957" lon="12.1541588"><ele>780.0</ele><time>2026-04-12T10:56:53.004Z</time></trkpt><trkpt lat="43.6981188" lon="12.154273"><ele>777.0</ele><time>2026-04-12T10:56:56.005Z</time></trkpt><trkpt lat="43.6980962" lon="12.1544015"><ele>774.0</ele><time>2026-04-12T10:56:59.005Z</time></trkpt><trkpt lat="43.6980651" lon="12.1545"><ele>774.0</ele><time>2026-04-12T10:57:02.004Z</time></trkpt><trkpt lat="43.6980368" lon="12.1546117"><ele>774.0</ele><time>2026-04-12T10:57:05.005Z</time></trkpt><trkpt lat="43.6979946" lon="12.1547211"><ele>774.0</ele><time>2026-04-12T10:57:08.005Z</time></trkpt><trkpt lat="43.6979551" lon="12.1548136"><ele>774.0</ele><time>2026-04-12T10:57:11.082Z</time></trkpt><trkpt lat="43.697916" lon="12.1549002"><ele>774.0</ele><time>2026-04-12T10:57:14.005Z</time></trkpt><trkpt lat="43.6979048" lon="12.1550146"><ele>774.0</ele><time>2026-04-12T10:57:18.004Z</time></trkpt><trkpt lat="43.6979547" lon="12.1550904"><ele>774.0</ele><time>2026-04-12T10:57:21.037Z</time></trkpt><trkpt lat="43.6980152" lon="12.1551217"><ele>774.0</ele><time>2026-04-12T10:57:24.005Z</time></trkpt><trkpt lat="43.6980811" lon="12.1551836"><ele>774.0</ele><time>2026-04-12T10:57:28.004Z</time></trkpt><trkpt lat="43.6981564" lon="12.1551768"><ele>774.0</ele><time>2026-04-12T10:57:32.057Z</time></trkpt><trkpt lat="43.6982201" lon="12.1552071"><ele>774.0</ele><time>2026-04-12T10:57:35.005Z</time></trkpt><trkpt lat="43.6982581" lon="12.1552862"><ele>774.0</ele><time>2026-04-12T10:57:38.004Z</time></trkpt><trkpt lat="43.6983175" lon="12.1553406"><ele>774.0</ele><time>2026-04-12T10:57:46.005Z</time></trkpt><trkpt lat="43.6983633" lon="12.1554131"><ele>774.0</ele><time>2026-04-12T10:57:52.041Z</time></trkpt><trkpt lat="43.698426" lon="12.1554406"><ele>774.0</ele><time>2026-04-12T10:57:54.936Z</time></trkpt><trkpt lat="43.6984961" lon="12.1554455"><ele>774.0</ele><time>2026-04-12T10:57:58.004Z</time></trkpt><trkpt lat="43.6985628" lon="12.1554636"><ele>774.0</ele><time>2026-04-12T10:58:01.093Z</time></trkpt><trkpt lat="43.6986193" lon="12.1555081"><ele>774.0</ele><time>2026-04-12T10:58:04.081Z</time></trkpt><trkpt lat="43.6986935" lon="12.1555418"><ele>774.0</ele><time>2026-04-12T10:58:08.004Z</time></trkpt><trkpt lat="43.6987627" lon="12.1555677"><ele>774.0</ele><time>2026-04-12T10:58:11.098Z</time></trkpt><trkpt lat="43.698824" lon="12.1556024"><ele>771.2857142857143</ele><time>2026-04-12T10:58:14.004Z</time></trkpt><trkpt lat="43.6988889" lon="12.1556542"><ele>768.5714285714287</ele><time>2026-04-12T10:58:17.078Z</time></trkpt><trkpt lat="43.6989492" lon="12.1557163"><ele>765.8571428571429</ele><time>2026-04-12T10:58:20.005Z</time></trkpt><trkpt lat="43.6990084" lon="12.1557752"><ele>763.1428571428571</ele><time>2026-04-12T10:58:23.009Z</time></trkpt><trkpt lat="43.6990684" lon="12.1558399"><ele>760.4285714285714</ele><time>2026-04-12T10:58:26.004Z</time></trkpt><trkpt lat="43.6991421" lon="12.1558416"><ele>757.7142857142857</ele><time>2026-04-12T10:58:29.004Z</time></trkpt><trkpt lat="43.6992105" lon="12.15585"><ele>755.0</ele><time>2026-04-12T10:58:32.005Z</time></trkpt><trkpt lat="43.6992661" lon="12.1558944"><ele>755.0</ele><time>2026-04-12T10:58:35.004Z</time></trkpt><trkpt lat="43.6992984" lon="12.1559939"><ele>755.0</ele><time>2026-04-12T10:58:38.005Z</time></trkpt><trkpt lat="43.6993333" lon="12.1560791"><ele>755.0</ele><time>2026-04-12T10:58:41.005Z</time></trkpt><trkpt lat="43.6993415" lon="12.156178"><ele>755.0</ele><time>2026-04-12T10:58:44.005Z</time></trkpt><trkpt lat="43.6993935" lon="12.1562649"><ele>755.0</ele><time>2026-04-12T10:58:48.02Z</time></trkpt><trkpt lat="43.6993795" lon="12.1563527"><ele>755.0</ele><time>2026-04-12T10:58:51.005Z</time></trkpt><trkpt lat="43.6994109" lon="12.1564525"><ele>755.0</ele><time>2026-04-12T10:58:55.005Z</time></trkpt><trkpt lat="43.699469" lon="12.156495"><ele>751.3333333333333</ele><time>2026-04-12T10:58:57.939Z</time></trkpt><trkpt lat="43.6995433" lon="12.1564817"><ele>747.6666666666666</ele><time>2026-04-12T10:59:01.005Z</time></trkpt><trkpt lat="43.6995869" lon="12.1563867"><ele>744.0</ele><time>2026-04-12T10:59:04.004Z</time></trkpt><trkpt lat="43.699606" lon="12.1562792"><ele>740.3333333333334</ele><time>2026-04-12T10:59:07.004Z</time></trkpt><trkpt lat="43.6996227" lon="12.1561614"><ele>736.6666666666667</ele><time>2026-04-12T10:59:10.021Z</time></trkpt><trkpt lat="43.6996275" lon="12.1560479"><ele>733.0</ele><time>2026-04-12T10:59:13.004Z</time></trkpt><trkpt lat="43.6996454" lon="12.155934"><ele>732.9999999999999</ele><time>2026-04-12T10:59:16.005Z</time></trkpt><trkpt lat="43.6996598" lon="12.1558299"><ele>733.0</ele><time>2026-04-12T10:59:19.005Z</time></trkpt><trkpt lat="43.69965" lon="12.155734"><ele>733.0</ele><time>2026-04-12T10:59:22.005Z</time></trkpt><trkpt lat="43.6996115" lon="12.1556428"><ele>733.0</ele><time>2026-04-12T10:59:25.078Z</time></trkpt><trkpt lat="43.6995624" lon="12.155564"><ele>733.0</ele><time>2026-04-12T10:59:28.082Z</time></trkpt><trkpt lat="43.6995677" lon="12.1554588"><ele>732.9999999999999</ele><time>2026-04-12T10:59:31.005Z</time></trkpt><trkpt lat="43.6995588" lon="12.1553583"><ele>733.0</ele><time>2026-04-12T10:59:34.111Z</time></trkpt><trkpt lat="43.6995454" lon="12.1552464"><ele>733.1428571428571</ele><time>2026-04-12T10:59:38.005Z</time></trkpt><trkpt lat="43.699582" lon="12.1551694"><ele>733.2857142857142</ele><time>2026-04-12T10:59:41.005Z</time></trkpt><trkpt lat="43.6996229" lon="12.1550902"><ele>733.4285714285713</ele><time>2026-04-12T10:59:44.081Z</time></trkpt><trkpt lat="43.6996617" lon="12.155019"><ele>733.5714285714286</ele><time>2026-04-12T10:59:46.961Z</time></trkpt><trkpt lat="43.6997137" lon="12.154947"><ele>733.7142857142858</ele><time>2026-04-12T10:59:51.005Z</time></trkpt><trkpt lat="43.6997972" lon="12.1549288"><ele>733.8571428571428</ele><time>2026-04-12T10:59:55.025Z</time></trkpt><trkpt lat="43.6998651" lon="12.1549901"><ele>734.0</ele><time>2026-04-12T10:59:58.005Z</time></trkpt><trkpt lat="43.6998942" lon="12.1551052"><ele>734.0</ele><time>2026-04-12T11:00:01.005Z</time></trkpt><trkpt lat="43.6999018" lon="12.1551917"><ele>734.0</ele><time>2026-04-12T11:00:03.188Z</time></trkpt><trkpt lat="43.6999061" lon="12.1553149"><ele>734.0</ele><time>2026-04-12T11:00:06.542Z</time></trkpt><trkpt lat="43.6999401" lon="12.1553921"><ele>734.0</ele><time>2026-04-12T11:00:09.414Z</time></trkpt><trkpt lat="43.6999767" lon="12.1554692"><ele>734.0</ele><time>2026-04-12T11:00:12.441Z</time></trkpt><trkpt lat="43.7000526" lon="12.1555199"><ele>734.0</ele><time>2026-04-12T11:00:16.52Z</time></trkpt><trkpt lat="43.7001282" lon="12.1555426"><ele>734.0</ele><time>2026-04-12T11:00:20.9Z</time></trkpt><trkpt lat="43.7001919" lon="12.1555947"><ele>730.1428571428571</ele><time>2026-04-12T11:00:24.836Z</time></trkpt><trkpt lat="43.7002532" lon="12.1556248"><ele>726.2857142857143</ele><time>2026-04-12T11:00:27.995Z</time></trkpt><trkpt lat="43.7003139" lon="12.1557069"><ele>722.4285714285714</ele><time>2026-04-12T11:00:32.005Z</time></trkpt><trkpt lat="43.7003281" lon="12.1558009"><ele>718.5714285714286</ele><time>2026-04-12T11:00:34.977Z</time></trkpt><trkpt lat="43.7003441" lon="12.1558882"><ele>714.7142857142858</ele><time>2026-04-12T11:00:38.005Z</time></trkpt><trkpt lat="43.7003993" lon="12.1559519"><ele>710.8571428571429</ele><time>2026-04-12T11:00:41.004Z</time></trkpt><trkpt lat="43.7004791" lon="12.1559728"><ele>707.0</ele><time>2026-04-12T11:00:43.917Z</time></trkpt><trkpt lat="43.7005455" lon="12.1559332"><ele>707.0</ele><time>2026-04-12T11:00:47.997Z</time></trkpt><trkpt lat="43.7006064" lon="12.1560084"><ele>707.0</ele><time>2026-04-12T11:00:55.005Z</time></trkpt><trkpt lat="43.700641" lon="12.1560867"><ele>707.0</ele><time>2026-04-12T11:00:58.005Z</time></trkpt><trkpt lat="43.7006874" lon="12.1561472"><ele>707.0</ele><time>2026-04-12T11:01:00.942Z</time></trkpt><trkpt lat="43.7007505" lon="12.1562045"><ele>707.0</ele><time>2026-04-12T11:01:05.005Z</time></trkpt><trkpt lat="43.7007909" lon="12.1562901"><ele>707.0</ele><time>2026-04-12T11:01:08.927Z</time></trkpt><trkpt lat="43.700863" lon="12.1563173"><ele>707.0</ele><time>2026-04-12T11:01:13.876Z</time></trkpt><trkpt lat="43.7009323" lon="12.1563633"><ele>707.0</ele><time>2026-04-12T11:01:19.004Z</time></trkpt><trkpt lat="43.7010084" lon="12.1564077"><ele>707.0</ele><time>2026-04-12T11:01:23.961Z</time></trkpt><trkpt lat="43.7010488" lon="12.1564821"><ele>707.0</ele><time>2026-04-12T11:01:28.005Z</time></trkpt><trkpt lat="43.7011147" lon="12.1565487"><ele>707.0</ele><time>2026-04-12T11:01:33.88Z</time></trkpt><trkpt lat="43.7011648" lon="12.1564838"><ele>707.0</ele><time>2026-04-12T11:01:40.004Z</time></trkpt><trkpt lat="43.7012367" lon="12.1564672"><ele>707.0</ele><time>2026-04-12T11:01:49.004Z</time></trkpt><trkpt lat="43.7013119" lon="12.1564779"><ele>707.0</ele><time>2026-04-12T11:01:54.977Z</time></trkpt><trkpt lat="43.701361" lon="12.1565645"><ele>703.7142857142857</ele><time>2026-04-12T11:02:00.005Z</time></trkpt><trkpt lat="43.7013777" lon="12.1566652"><ele>700.4285714285714</ele><time>2026-04-12T11:02:02.92Z</time></trkpt><trkpt lat="43.7013846" lon="12.1567603"><ele>697.1428571428571</ele><time>2026-04-12T11:02:06.005Z</time></trkpt><trkpt lat="43.7013281" lon="12.1568197"><ele>693.8571428571429</ele><time>2026-04-12T11:02:08.967Z</time></trkpt><trkpt lat="43.7012662" lon="12.1568787"><ele>690.5714285714286</ele><time>2026-04-12T11:02:12.004Z</time></trkpt><trkpt lat="43.7012285" lon="12.1569557"><ele>687.2857142857142</ele><time>2026-04-12T11:02:14.981Z</time></trkpt><trkpt lat="43.7012174" lon="12.1570515"><ele>684.0</ele><time>2026-04-12T11:02:17.937Z</time></trkpt><trkpt lat="43.7012624" lon="12.1571392"><ele>684.0</ele><time>2026-04-12T11:02:20.961Z</time></trkpt><trkpt lat="43.7013422" lon="12.1571726"><ele>684.0</ele><time>2026-04-12T11:02:24.005Z</time></trkpt><trkpt lat="43.7014193" lon="12.1571616"><ele>684.0</ele><time>2026-04-12T11:02:27.004Z</time></trkpt><trkpt lat="43.7014851" lon="12.1571103"><ele>684.0</ele><time>2026-04-12T11:02:31.005Z</time></trkpt><trkpt lat="43.7015312" lon="12.157014"><ele>684.0</ele><time>2026-04-12T11:02:35.005Z</time></trkpt><trkpt lat="43.7016021" lon="12.156992"><ele>684.0</ele><time>2026-04-12T11:02:39.004Z</time></trkpt><trkpt lat="43.7016168" lon="12.1570974"><ele>684.0</ele><time>2026-04-12T11:02:41.952Z</time></trkpt><trkpt lat="43.7015624" lon="12.1572066"><ele>684.0</ele><time>2026-04-12T11:02:45.005Z</time></trkpt><trkpt lat="43.7014995" lon="12.1572749"><ele>684.0</ele><time>2026-04-12T11:02:47.004Z</time></trkpt><trkpt lat="43.70144" lon="12.157324"><ele>684.0</ele><time>2026-04-12T11:02:49.005Z</time></trkpt><trkpt lat="43.7013785" lon="12.1573489"><ele>684.0</ele><time>2026-04-12T11:02:51.005Z</time></trkpt><trkpt lat="43.7012918" lon="12.1573852"><ele>684.0</ele><time>2026-04-12T11:02:54.005Z</time></trkpt><trkpt lat="43.7012209" lon="12.157428"><ele>683.8571428571428</ele><time>2026-04-12T11:02:56.559Z</time></trkpt><trkpt lat="43.7011503" lon="12.1574847"><ele>683.7142857142857</ele><time>2026-04-12T11:02:59.016Z</time></trkpt><trkpt lat="43.7010836" lon="12.1575521"><ele>683.5714285714286</ele><time>2026-04-12T11:03:02.004Z</time></trkpt><trkpt lat="43.7010417" lon="12.1576328"><ele>683.4285714285713</ele><time>2026-04-12T11:03:07.004Z</time></trkpt><trkpt lat="43.7010279" lon="12.1577294"><ele>683.2857142857142</ele><time>2026-04-12T11:03:13.004Z</time></trkpt><trkpt lat="43.7010409" lon="12.1578157"><ele>683.1428571428571</ele><time>2026-04-12T11:03:22.004Z</time></trkpt><trkpt lat="43.7009984" lon="12.1578808"><ele>683.0</ele><time>2026-04-12T11:03:29.017Z</time></trkpt><trkpt lat="43.7010391" lon="12.1579512"><ele>683.0</ele><time>2026-04-12T11:03:34.816Z</time></trkpt><trkpt lat="43.7011016" lon="12.1580022"><ele>683.0</ele><time>2026-04-12T11:03:40.004Z</time></trkpt><trkpt lat="43.7011496" lon="12.1580598"><ele>683.0</ele><time>2026-04-12T11:03:46.005Z</time></trkpt><trkpt lat="43.701113" lon="12.1581339"><ele>683.0</ele><time>2026-04-12T11:03:53.005Z</time></trkpt><trkpt lat="43.7010446" lon="12.1581382"><ele>683.0</ele><time>2026-04-12T11:04:00.004Z</time></trkpt><trkpt lat="43.7009923" lon="12.1580777"><ele>683.0</ele><time>2026-04-12T11:04:07.977Z</time></trkpt><trkpt lat="43.7009301" lon="12.1580926"><ele>683.0</ele><time>2026-04-12T11:04:15.004Z</time></trkpt><trkpt lat="43.7009791" lon="12.1581661"><ele>683.1428571428571</ele><time>2026-04-12T11:04:23.005Z</time></trkpt><trkpt lat="43.7010349" lon="12.1582148"><ele>683.2857142857142</ele><time>2026-04-12T11:04:29.005Z</time></trkpt><trkpt lat="43.7010855" lon="12.1582753"><ele>683.4285714285713</ele><time>2026-04-12T11:04:36.005Z</time></trkpt><trkpt lat="43.7011318" lon="12.1583402"><ele>683.5714285714286</ele><time>2026-04-12T11:04:44.005Z</time></trkpt><trkpt lat="43.7011764" lon="12.1584047"><ele>683.7142857142857</ele><time>2026-04-12T11:04:52.004Z</time></trkpt><trkpt lat="43.7012378" lon="12.1584352"><ele>683.8571428571428</ele><time>2026-04-12T11:05:00.005Z</time></trkpt><trkpt lat="43.701304" lon="12.1584248"><ele>684.0</ele><time>2026-04-12T11:05:09.004Z</time></trkpt><trkpt lat="43.7013704" lon="12.158456"><ele>683.9999999999999</ele><time>2026-04-12T11:05:18.004Z</time></trkpt><trkpt lat="43.7014306" lon="12.1585085"><ele>684.0</ele><time>2026-04-12T11:05:26.004Z</time></trkpt><trkpt lat="43.7014887" lon="12.158559"><ele>684.0</ele><time>2026-04-12T11:05:34.005Z</time></trkpt><trkpt lat="43.7015319" lon="12.1586255"><ele>684.0</ele><time>2026-04-12T11:05:42.005Z</time></trkpt><trkpt lat="43.7015629" lon="12.1587128"><ele>684.0</ele><time>2026-04-12T11:05:50.004Z</time></trkpt><trkpt lat="43.7015696" lon="12.1588021"><ele>683.9999999999999</ele><time>2026-04-12T11:05:57.005Z</time></trkpt><trkpt lat="43.7015643" lon="12.1588971"><ele>684.0</ele><time>2026-04-12T11:06:04.005Z</time></trkpt><trkpt lat="43.7015363" lon="12.1589824"><ele>685.8571428571428</ele><time>2026-04-12T11:06:14.004Z</time></trkpt><trkpt lat="43.701514" lon="12.1590645"><ele>687.7142857142857</ele><time>2026-04-12T11:06:21.994Z</time></trkpt><trkpt lat="43.7015014" lon="12.1591511"><ele>689.5714285714286</ele><time>2026-04-12T11:06:29.005Z</time></trkpt><trkpt lat="43.7014999" lon="12.1592491"><ele>691.4285714285713</ele><time>2026-04-12T11:06:37.005Z</time></trkpt><trkpt lat="43.7015185" lon="12.1593393"><ele>693.2857142857142</ele><time>2026-04-12T11:06:45.004Z</time></trkpt><trkpt lat="43.7015352" lon="12.1594338"><ele>695.1428571428571</ele><time>2026-04-12T11:06:53.004Z</time></trkpt><trkpt lat="43.7015095" lon="12.1595259"><ele>697.0</ele><time>2026-04-12T11:07:00.982Z</time></trkpt><trkpt lat="43.7014574" lon="12.1595772"><ele>697.0</ele><time>2026-04-12T11:07:08.005Z</time></trkpt><trkpt lat="43.701406" lon="12.1596311"><ele>697.0</ele><time>2026-04-12T11:07:15.005Z</time></trkpt><trkpt lat="43.7013619" lon="12.1597017"><ele>697.0</ele><time>2026-04-12T11:07:22.004Z</time></trkpt><trkpt lat="43.7013226" lon="12.159778"><ele>697.0</ele><time>2026-04-12T11:07:29.004Z</time></trkpt><trkpt lat="43.7012976" lon="12.1598622"><ele>697.0</ele><time>2026-04-12T11:07:35.005Z</time></trkpt><trkpt lat="43.7012689" lon="12.1599484"><ele>697.0</ele><time>2026-04-12T11:07:41.005Z</time></trkpt><trkpt lat="43.7012401" lon="12.1600412"><ele>697.0</ele><time>2026-04-12T11:07:47.005Z</time></trkpt><trkpt lat="43.7012118" lon="12.1601247"><ele>698.8571428571429</ele><time>2026-04-12T11:07:53.005Z</time></trkpt><trkpt lat="43.7011745" lon="12.1602121"><ele>700.7142857142857</ele><time>2026-04-12T11:07:59.009Z</time></trkpt><trkpt lat="43.701152" lon="12.160294"><ele>702.5714285714286</ele><time>2026-04-12T11:08:05.005Z</time></trkpt><trkpt lat="43.701182" lon="12.1603806"><ele>704.4285714285714</ele><time>2026-04-12T11:08:13.004Z</time></trkpt><trkpt lat="43.7012357" lon="12.1604347"><ele>706.2857142857143</ele><time>2026-04-12T11:08:20.005Z</time></trkpt><trkpt lat="43.7012838" lon="12.1605023"><ele>708.1428571428571</ele><time>2026-04-12T11:08:30.005Z</time></trkpt><trkpt lat="43.7013084" lon="12.1605908"><ele>710.0</ele><time>2026-04-12T11:08:40.005Z</time></trkpt><trkpt lat="43.7012936" lon="12.1606781"><ele>712.1428571428571</ele><time>2026-04-12T11:08:48.005Z</time></trkpt><trkpt lat="43.7012624" lon="12.1607593"><ele>714.2857142857143</ele><time>2026-04-12T11:08:55.005Z</time></trkpt><trkpt lat="43.7012522" lon="12.1608503"><ele>716.4285714285714</ele><time>2026-04-12T11:09:04.005Z</time></trkpt><trkpt lat="43.7012539" lon="12.1609381"><ele>718.5714285714286</ele><time>2026-04-12T11:09:12.004Z</time></trkpt><trkpt lat="43.7012911" lon="12.1610104"><ele>720.7142857142858</ele><time>2026-04-12T11:09:21.917Z</time></trkpt><trkpt lat="43.7012853" lon="12.1611006"><ele>722.8571428571429</ele><time>2026-04-12T11:09:31.004Z</time></trkpt><trkpt lat="43.7012591" lon="12.1611866"><ele>725.0</ele><time>2026-04-12T11:09:39.004Z</time></trkpt><trkpt lat="43.7012631" lon="12.1612785"><ele>725.0</ele><time>2026-04-12T11:09:49.005Z</time></trkpt><trkpt lat="43.7012817" lon="12.1613636"><ele>725.0</ele><time>2026-04-12T11:09:57.069Z</time></trkpt><trkpt lat="43.7013034" lon="12.1614465"><ele>725.0</ele><time>2026-04-12T11:10:06.005Z</time></trkpt><trkpt lat="43.7013296" lon="12.161526"><ele>725.0</ele><time>2026-04-12T11:10:14.041Z</time></trkpt><trkpt lat="43.7013811" lon="12.1615902"><ele>725.0</ele><time>2026-04-12T11:10:25.004Z</time></trkpt><trkpt lat="43.7014202" lon="12.1616734"><ele>725.0</ele><time>2026-04-12T11:10:34.005Z</time></trkpt><trkpt lat="43.7014553" lon="12.1617515"><ele>725.0</ele><time>2026-04-12T11:10:41.005Z</time></trkpt><trkpt lat="43.7015393" lon="12.1617577"><ele>724.4285714285714</ele><time>2026-04-12T11:12:39.004Z</time></trkpt><trkpt lat="43.7015779" lon="12.1616841"><ele>723.8571428571429</ele><time>2026-04-12T11:13:02.005Z</time></trkpt><trkpt lat="43.7016518" lon="12.1616603"><ele>723.2857142857142</ele><time>2026-04-12T11:13:27.004Z</time></trkpt><trkpt lat="43.7017218" lon="12.1616306"><ele>722.7142857142858</ele><time>2026-04-12T11:13:32.005Z</time></trkpt><trkpt lat="43.7017845" lon="12.1616057"><ele>722.1428571428571</ele><time>2026-04-12T11:13:37.005Z</time></trkpt><trkpt lat="43.7018536" lon="12.1615606"><ele>721.5714285714286</ele><time>2026-04-12T11:13:43.083Z</time></trkpt><trkpt lat="43.7019181" lon="12.1615183"><ele>721.0</ele><time>2026-04-12T11:13:49.085Z</time></trkpt><trkpt lat="43.7019867" lon="12.1615085"><ele>721.0</ele><time>2026-04-12T11:13:54.005Z</time></trkpt><trkpt lat="43.7020588" lon="12.161493"><ele>721.0</ele><time>2026-04-12T11:14:00.005Z</time></trkpt><trkpt lat="43.7021269" lon="12.1615081"><ele>721.0</ele><time>2026-04-12T11:14:06.004Z</time></trkpt><trkpt lat="43.7021786" lon="12.1615657"><ele>721.0</ele><time>2026-04-12T11:14:12.005Z</time></trkpt><trkpt lat="43.7021914" lon="12.161662"><ele>721.0</ele><time>2026-04-12T11:14:16.917Z</time></trkpt><trkpt lat="43.702205" lon="12.1617476"><ele>721.0</ele><time>2026-04-12T11:14:22.004Z</time></trkpt><trkpt lat="43.7022174" lon="12.1618424"><ele>721.0</ele><time>2026-04-12T11:14:27.004Z</time></trkpt><trkpt lat="43.7022276" lon="12.1619308"><ele>722.2857142857143</ele><time>2026-04-12T11:14:31.004Z</time></trkpt><trkpt lat="43.7022373" lon="12.1620296"><ele>723.5714285714286</ele><time>2026-04-12T11:14:34.002Z</time></trkpt><trkpt lat="43.7022534" lon="12.1621164"><ele>724.8571428571429</ele><time>2026-04-12T11:14:37.005Z</time></trkpt><trkpt lat="43.702262" lon="12.1622119"><ele>726.1428571428571</ele><time>2026-04-12T11:14:41.005Z</time></trkpt><trkpt lat="43.7022921" lon="12.1623041"><ele>727.4285714285714</ele><time>2026-04-12T11:14:45.019Z</time></trkpt><trkpt lat="43.7023428" lon="12.1623791"><ele>728.7142857142858</ele><time>2026-04-12T11:14:49.004Z</time></trkpt><trkpt lat="43.7024077" lon="12.1624338"><ele>730.0</ele><time>2026-04-12T11:14:53.004Z</time></trkpt><trkpt lat="43.7024754" lon="12.162495"><ele>730.4285714285714</ele><time>2026-04-12T11:14:57.078Z</time></trkpt><trkpt lat="43.7025488" lon="12.1625282"><ele>730.8571428571429</ele><time>2026-04-12T11:15:01.052Z</time></trkpt><trkpt lat="43.7026044" lon="12.1625725"><ele>731.2857142857142</ele><time>2026-04-12T11:15:07.005Z</time></trkpt><trkpt lat="43.7026531" lon="12.1626392"><ele>731.7142857142858</ele><time>2026-04-12T11:15:12.107Z</time></trkpt><trkpt lat="43.7026978" lon="12.1627287"><ele>732.1428571428571</ele><time>2026-04-12T11:15:18.004Z</time></trkpt><trkpt lat="43.7027386" lon="12.1628039"><ele>732.5714285714286</ele><time>2026-04-12T11:15:23.005Z</time></trkpt><trkpt lat="43.7027996" lon="12.1628624"><ele>733.0</ele><time>2026-04-12T11:15:28.935Z</time></trkpt><trkpt lat="43.7028579" lon="12.1629336"><ele>732.9999999999999</ele><time>2026-04-12T11:15:34.108Z</time></trkpt><trkpt lat="43.7029182" lon="12.1629926"><ele>733.0</ele><time>2026-04-12T11:15:39.088Z</time></trkpt><trkpt lat="43.7029859" lon="12.1630356"><ele>733.0</ele><time>2026-04-12T11:15:44.018Z</time></trkpt><trkpt lat="43.7030514" lon="12.1630579"><ele>733.0</ele><time>2026-04-12T11:15:48.101Z</time></trkpt><trkpt lat="43.7031261" lon="12.1630709"><ele>733.0</ele><time>2026-04-12T11:15:53.09Z</time></trkpt><trkpt lat="43.7031958" lon="12.1630706"><ele>732.9999999999999</ele><time>2026-04-12T11:15:58.085Z</time></trkpt><trkpt lat="43.7032608" lon="12.1630514"><ele>733.0</ele><time>2026-04-12T11:16:03.095Z</time></trkpt><trkpt lat="43.7033318" lon="12.1630475"><ele>732.9999999999999</ele><time>2026-04-12T11:16:08.085Z</time></trkpt><trkpt lat="43.7034109" lon="12.1630844"><ele>733.0</ele><time>2026-04-12T11:16:13.06Z</time></trkpt><trkpt lat="43.7034656" lon="12.1631301"><ele>733.0</ele><time>2026-04-12T11:16:15.822Z</time></trkpt><trkpt lat="43.7035105" lon="12.1632067"><ele>733.0</ele><time>2026-04-12T11:16:19.333Z</time></trkpt><trkpt lat="43.703546" lon="12.1633049"><ele>733.0</ele><time>2026-04-12T11:16:23.004Z</time></trkpt><trkpt lat="43.7035711" lon="12.1633888"><ele>732.9999999999999</ele><time>2026-04-12T11:16:26.084Z</time></trkpt><trkpt lat="43.7035694" lon="12.1634821"><ele>733.0</ele><time>2026-04-12T11:16:30.005Z</time></trkpt><trkpt lat="43.7035904" lon="12.1635725"><ele>732.7142857142857</ele><time>2026-04-12T11:16:35.005Z</time></trkpt><trkpt lat="43.7036093" lon="12.1636611"><ele>732.4285714285714</ele><time>2026-04-12T11:16:40.005Z</time></trkpt><trkpt lat="43.7036202" lon="12.1637545"><ele>732.1428571428571</ele><time>2026-04-12T11:16:45.005Z</time></trkpt><trkpt lat="43.7036271" lon="12.1638442"><ele>731.8571428571429</ele><time>2026-04-12T11:16:50.005Z</time></trkpt><trkpt lat="43.7036384" lon="12.1639385"><ele>731.5714285714286</ele><time>2026-04-12T11:16:56.004Z</time></trkpt><trkpt lat="43.7036558" lon="12.1640243"><ele>731.2857142857142</ele><time>2026-04-12T11:17:01.696Z</time></trkpt><trkpt lat="43.7036833" lon="12.1641032"><ele>731.0</ele><time>2026-04-12T11:17:06.96Z</time></trkpt><trkpt lat="43.7037175" lon="12.1641772"><ele>733.5714285714286</ele><time>2026-04-12T11:17:12.004Z</time></trkpt><trkpt lat="43.7037517" lon="12.16426"><ele>736.1428571428571</ele><time>2026-04-12T11:17:19.004Z</time></trkpt><trkpt lat="43.7037764" lon="12.1643512"><ele>738.7142857142858</ele><time>2026-04-12T11:17:26.075Z</time></trkpt><trkpt lat="43.7038041" lon="12.1644295"><ele>741.2857142857142</ele><time>2026-04-12T11:17:31.919Z</time></trkpt><trkpt lat="43.7038299" lon="12.1645156"><ele>743.8571428571429</ele><time>2026-04-12T11:17:39.005Z</time></trkpt><trkpt lat="43.7038478" lon="12.1646169"><ele>746.4285714285714</ele><time>2026-04-12T11:17:45.109Z</time></trkpt><trkpt lat="43.7038739" lon="12.1647065"><ele>749.0</ele><time>2026-04-12T11:17:49.005Z</time></trkpt><trkpt lat="43.7038951" lon="12.1647932"><ele>751.4285714285714</ele><time>2026-04-12T11:17:52.002Z</time></trkpt><trkpt lat="43.7039383" lon="12.1648786"><ele>753.8571428571429</ele><time>2026-04-12T11:17:55.859Z</time></trkpt><trkpt lat="43.7039717" lon="12.1649574"><ele>756.2857142857142</ele><time>2026-04-12T11:18:00.005Z</time></trkpt><trkpt lat="43.7040121" lon="12.1650348"><ele>758.7142857142858</ele><time>2026-04-12T11:18:04.005Z</time></trkpt><trkpt lat="43.7040706" lon="12.165085"><ele>761.1428571428571</ele><time>2026-04-12T11:18:08.005Z</time></trkpt><trkpt lat="43.7041398" lon="12.1651285"><ele>763.5714285714286</ele><time>2026-04-12T11:18:12.005Z</time></trkpt><trkpt lat="43.7041928" lon="12.1651779"><ele>766.0</ele><time>2026-04-12T11:18:15.094Z</time></trkpt><trkpt lat="43.704229" lon="12.1652625"><ele>766.0</ele><time>2026-04-12T11:18:18.919Z</time></trkpt><trkpt lat="43.7042355" lon="12.1653584"><ele>766.0</ele><time>2026-04-12T11:18:25.004Z</time></trkpt><trkpt lat="43.7042332" lon="12.1654459"><ele>766.0</ele><time>2026-04-12T11:18:30.005Z</time></trkpt><trkpt lat="43.7042501" lon="12.1655333"><ele>766.0</ele><time>2026-04-12T11:18:35.005Z</time></trkpt><trkpt lat="43.7042714" lon="12.1656168"><ele>766.0</ele><time>2026-04-12T11:18:39.92Z</time></trkpt><trkpt lat="43.7042931" lon="12.1657029"><ele>766.0</ele><time>2026-04-12T11:18:45.09Z</time></trkpt><trkpt lat="43.7043237" lon="12.1657874"><ele>766.0</ele><time>2026-04-12T11:18:50.005Z</time></trkpt><trkpt lat="43.7043492" lon="12.1658773"><ele>764.4285714285714</ele><time>2026-04-12T11:18:55.996Z</time></trkpt><trkpt lat="43.7044019" lon="12.1659338"><ele>762.8571428571429</ele><time>2026-04-12T11:19:01.982Z</time></trkpt><trkpt lat="43.7044482" lon="12.1660096"><ele>761.2857142857142</ele><time>2026-04-12T11:19:09.004Z</time></trkpt><trkpt lat="43.7044884" lon="12.1660953"><ele>759.7142857142858</ele><time>2026-04-12T11:19:22.005Z</time></trkpt><trkpt lat="43.7045032" lon="12.1661801"><ele>758.1428571428572</ele><time>2026-04-12T11:19:27.016Z</time></trkpt><trkpt lat="43.7045064" lon="12.166273"><ele>756.5714285714286</ele><time>2026-04-12T11:19:33.005Z</time></trkpt><trkpt lat="43.7045444" lon="12.1663553"><ele>755.0</ele><time>2026-04-12T11:19:39.005Z</time></trkpt><trkpt lat="43.7045889" lon="12.1664337"><ele>755.0</ele><time>2026-04-12T11:19:45.005Z</time></trkpt><trkpt lat="43.7046313" lon="12.1664988"><ele>755.0</ele><time>2026-04-12T11:19:50.997Z</time></trkpt><trkpt lat="43.7046743" lon="12.1665754"><ele>755.0</ele><time>2026-04-12T11:19:57.005Z</time></trkpt><trkpt lat="43.7047084" lon="12.1666595"><ele>755.0</ele><time>2026-04-12T11:20:01.916Z</time></trkpt><trkpt lat="43.7047558" lon="12.1667375"><ele>755.0</ele><time>2026-04-12T11:20:08.005Z</time></trkpt><trkpt lat="43.7048033" lon="12.1668014"><ele>755.0</ele><time>2026-04-12T11:20:13.004Z</time></trkpt><trkpt lat="43.7048582" lon="12.1668677"><ele>755.0</ele><time>2026-04-12T11:20:19.004Z</time></trkpt><trkpt lat="43.704896" lon="12.1669488"><ele>757.4285714285714</ele><time>2026-04-12T11:20:24.005Z</time></trkpt><trkpt lat="43.7049293" lon="12.1670386"><ele>759.8571428571429</ele><time>2026-04-12T11:20:29.004Z</time></trkpt><trkpt lat="43.704967" lon="12.1671264"><ele>762.2857142857143</ele><time>2026-04-12T11:20:34.005Z</time></trkpt><trkpt lat="43.7050053" lon="12.1672148"><ele>764.7142857142858</ele><time>2026-04-12T11:20:39.004Z</time></trkpt><trkpt lat="43.7050343" lon="12.1673113"><ele>767.1428571428571</ele><time>2026-04-12T11:20:44.089Z</time></trkpt><trkpt lat="43.7050681" lon="12.1674005"><ele>769.5714285714287</ele><time>2026-04-12T11:20:49.005Z</time></trkpt><trkpt lat="43.7051071" lon="12.1674907"><ele>772.0</ele><time>2026-04-12T11:20:54.005Z</time></trkpt><trkpt lat="43.7051346" lon="12.1675729"><ele>771.4285714285714</ele><time>2026-04-12T11:20:59.005Z</time></trkpt><trkpt lat="43.7051541" lon="12.1676668"><ele>770.8571428571429</ele><time>2026-04-12T11:21:05.005Z</time></trkpt><trkpt lat="43.7051954" lon="12.1677433"><ele>770.2857142857142</ele><time>2026-04-12T11:21:10.943Z</time></trkpt><trkpt lat="43.7052309" lon="12.1678289"><ele>769.7142857142858</ele><time>2026-04-12T11:21:17.004Z</time></trkpt><trkpt lat="43.7052502" lon="12.1679215"><ele>769.1428571428571</ele><time>2026-04-12T11:21:22.005Z</time></trkpt><trkpt lat="43.7052781" lon="12.1680228"><ele>768.5714285714286</ele><time>2026-04-12T11:21:28.005Z</time></trkpt><trkpt lat="43.7053188" lon="12.1681125"><ele>768.0</ele><time>2026-04-12T11:21:34.004Z</time></trkpt><trkpt lat="43.7053533" lon="12.1681863"><ele>770.2857142857142</ele><time>2026-04-12T11:21:39.006Z</time></trkpt><trkpt lat="43.7053947" lon="12.1682532"><ele>772.5714285714286</ele><time>2026-04-12T11:21:44.058Z</time></trkpt><trkpt lat="43.7054517" lon="12.1683047"><ele>774.8571428571429</ele><time>2026-04-12T11:21:48.004Z</time></trkpt><trkpt lat="43.7055084" lon="12.1683912"><ele>777.1428571428571</ele><time>2026-04-12T11:21:52.01Z</time></trkpt><trkpt lat="43.7055571" lon="12.1684555"><ele>779.4285714285714</ele><time>2026-04-12T11:21:55.939Z</time></trkpt><trkpt lat="43.7056096" lon="12.1685095"><ele>781.7142857142857</ele><time>2026-04-12T11:21:59.004Z</time></trkpt><trkpt lat="43.7056598" lon="12.1685737"><ele>784.0</ele><time>2026-04-12T11:22:02.005Z</time></trkpt><trkpt lat="43.705711" lon="12.1686287"><ele>784.0</ele><time>2026-04-12T11:22:04.96Z</time></trkpt><trkpt lat="43.7057749" lon="12.1686895"><ele>784.0</ele><time>2026-04-12T11:22:09.005Z</time></trkpt><trkpt lat="43.7058437" lon="12.1687307"><ele>784.0</ele><time>2026-04-12T11:22:15.005Z</time></trkpt><trkpt lat="43.705911" lon="12.1687369"><ele>784.0</ele><time>2026-04-12T11:22:20.005Z</time></trkpt><trkpt lat="43.7059742" lon="12.1687319"><ele>784.0</ele><time>2026-04-12T11:22:25.005Z</time></trkpt><trkpt lat="43.7060474" lon="12.1687199"><ele>784.0</ele><time>2026-04-12T11:22:31.039Z</time></trkpt><trkpt lat="43.7061112" lon="12.1687378"><ele>784.0</ele><time>2026-04-12T11:22:36.004Z</time></trkpt><trkpt lat="43.7061702" lon="12.1688113"><ele>784.8333333333333</ele><time>2026-04-12T11:22:42.005Z</time></trkpt><trkpt lat="43.706196" lon="12.1689129"><ele>785.6666666666666</ele><time>2026-04-12T11:22:47.005Z</time></trkpt><trkpt lat="43.7062276" lon="12.1690036"><ele>786.5</ele><time>2026-04-12T11:22:50.005Z</time></trkpt><trkpt lat="43.7062793" lon="12.1690809"><ele>787.3333333333333</ele><time>2026-04-12T11:22:53.005Z</time></trkpt><trkpt lat="43.7063429" lon="12.16913"><ele>788.1666666666666</ele><time>2026-04-12T11:22:56.026Z</time></trkpt><trkpt lat="43.7064121" lon="12.1691555"><ele>789.0</ele><time>2026-04-12T11:22:58.98Z</time></trkpt><trkpt lat="43.7064886" lon="12.1691289"><ele>788.9999999999999</ele><time>2026-04-12T11:23:02.004Z</time></trkpt><trkpt lat="43.7065445" lon="12.1690847"><ele>789.0</ele><time>2026-04-12T11:23:06.005Z</time></trkpt><trkpt lat="43.70659" lon="12.1690103"><ele>789.0</ele><time>2026-04-12T11:23:11.004Z</time></trkpt><trkpt lat="43.7066237" lon="12.1689181"><ele>789.0</ele><time>2026-04-12T11:23:16.96Z</time></trkpt><trkpt lat="43.7066389" lon="12.1688245"><ele>789.0</ele><time>2026-04-12T11:23:23.005Z</time></trkpt><trkpt lat="43.7066567" lon="12.1687266"><ele>788.9999999999999</ele><time>2026-04-12T11:23:30.005Z</time></trkpt><trkpt lat="43.7066951" lon="12.1686563"><ele>789.0</ele><time>2026-04-12T11:23:36.005Z</time></trkpt><trkpt lat="43.7067578" lon="12.1686273"><ele>788.9999999999999</ele><time>2026-04-12T11:23:42.088Z</time></trkpt><trkpt lat="43.7068179" lon="12.1686784"><ele>789.0</ele><time>2026-04-12T11:23:48.042Z</time></trkpt><trkpt lat="43.7068462" lon="12.1687623"><ele>789.0</ele><time>2026-04-12T11:23:54.005Z</time></trkpt><trkpt lat="43.7068833" lon="12.1688465"><ele>789.0</ele><time>2026-04-12T11:24:00.004Z</time></trkpt><trkpt lat="43.7069203" lon="12.1689303"><ele>789.0</ele><time>2026-04-12T11:24:05.976Z</time></trkpt><trkpt lat="43.7069621" lon="12.1690112"><ele>788.9999999999999</ele><time>2026-04-12T11:24:13.005Z</time></trkpt><trkpt lat="43.7070105" lon="12.1690799"><ele>789.0</ele><time>2026-04-12T11:24:19.004Z</time></trkpt><trkpt lat="43.7070668" lon="12.1691372"><ele>790.5714285714286</ele><time>2026-04-12T11:24:26.005Z</time></trkpt><trkpt lat="43.7071324" lon="12.1691227"><ele>792.1428571428571</ele><time>2026-04-12T11:24:33.005Z</time></trkpt><trkpt lat="43.7071981" lon="12.1691337"><ele>793.7142857142858</ele><time>2026-04-12T11:24:39.005Z</time></trkpt><trkpt lat="43.7072583" lon="12.1690959"><ele>795.2857142857142</ele><time>2026-04-12T11:24:45.005Z</time></trkpt><trkpt lat="43.7073278" lon="12.1690479"><ele>796.8571428571429</ele><time>2026-04-12T11:24:50.006Z</time></trkpt><trkpt lat="43.7073886" lon="12.1689857"><ele>798.4285714285714</ele><time>2026-04-12T11:24:52.957Z</time></trkpt><trkpt lat="43.7074513" lon="12.1689421"><ele>800.0</ele><time>2026-04-12T11:24:56.085Z</time></trkpt><trkpt lat="43.7075204" lon="12.1689016"><ele>800.1428571428572</ele><time>2026-04-12T11:24:59.976Z</time></trkpt><trkpt lat="43.7075857" lon="12.1688575"><ele>800.2857142857143</ele><time>2026-04-12T11:25:04.004Z</time></trkpt><trkpt lat="43.7076537" lon="12.1688278"><ele>800.4285714285714</ele><time>2026-04-12T11:25:08.016Z</time></trkpt><trkpt lat="43.7077218" lon="12.1688073"><ele>800.5714285714287</ele><time>2026-04-12T11:25:12.004Z</time></trkpt><trkpt lat="43.7077912" lon="12.1687646"><ele>800.7142857142857</ele><time>2026-04-12T11:25:16.005Z</time></trkpt><trkpt lat="43.7078598" lon="12.1687157"><ele>800.8571428571429</ele><time>2026-04-12T11:25:20.104Z</time></trkpt><trkpt lat="43.7079346" lon="12.1686998"><ele>801.0</ele><time>2026-04-12T11:25:25.005Z</time></trkpt><trkpt lat="43.7080062" lon="12.1687046"><ele>801.0</ele><time>2026-04-12T11:25:29.005Z</time></trkpt><trkpt lat="43.7080665" lon="12.1687396"><ele>801.0</ele><time>2026-04-12T11:25:32.256Z</time></trkpt><trkpt lat="43.7081228" lon="12.1687802"><ele>801.0</ele><time>2026-04-12T11:25:35.359Z</time></trkpt><trkpt lat="43.7081782" lon="12.1688247"><ele>801.0</ele><time>2026-04-12T11:25:38.499Z</time></trkpt><trkpt lat="43.7082396" lon="12.1688685"><ele>801.0</ele><time>2026-04-12T11:25:42.005Z</time></trkpt><trkpt lat="43.7083103" lon="12.1689131"><ele>801.0</ele><time>2026-04-12T11:25:46.004Z</time></trkpt><trkpt lat="43.7083777" lon="12.1689497"><ele>801.0</ele><time>2026-04-12T11:25:50.012Z</time></trkpt><trkpt lat="43.7084394" lon="12.1689692"><ele>801.0</ele><time>2026-04-12T11:25:53.941Z</time></trkpt><trkpt lat="43.7085029" lon="12.168981"><ele>801.0</ele><time>2026-04-12T11:25:57.976Z</time></trkpt><trkpt lat="43.7085695" lon="12.1689969"><ele>801.0</ele><time>2026-04-12T11:26:01.959Z</time></trkpt><trkpt lat="43.7086439" lon="12.1690021"><ele>801.0</ele><time>2026-04-12T11:26:06.004Z</time></trkpt><trkpt lat="43.7087244" lon="12.1690045"><ele>801.0</ele><time>2026-04-12T11:26:10.004Z</time></trkpt><trkpt lat="43.7087909" lon="12.169015"><ele>801.0</ele><time>2026-04-12T11:26:12.937Z</time></trkpt><trkpt lat="43.7088639" lon="12.1690479"><ele>801.0</ele><time>2026-04-12T11:26:17.005Z</time></trkpt><trkpt lat="43.7089233" lon="12.1690804"><ele>801.2857142857142</ele><time>2026-04-12T11:26:20.014Z</time></trkpt><trkpt lat="43.7089849" lon="12.1691067"><ele>801.5714285714286</ele><time>2026-04-12T11:26:23.1Z</time></trkpt><trkpt lat="43.7090451" lon="12.169137"><ele>801.8571428571429</ele><time>2026-04-12T11:26:26.004Z</time></trkpt><trkpt lat="43.709114" lon="12.1691548"><ele>802.1428571428571</ele><time>2026-04-12T11:26:29.004Z</time></trkpt><trkpt lat="43.7091857" lon="12.1691694"><ele>802.4285714285714</ele><time>2026-04-12T11:26:32.004Z</time></trkpt><trkpt lat="43.7092607" lon="12.1691839"><ele>802.7142857142857</ele><time>2026-04-12T11:26:35.093Z</time></trkpt><trkpt lat="43.7093301" lon="12.169187"><ele>803.0</ele><time>2026-04-12T11:26:37.975Z</time></trkpt><trkpt lat="43.7093968" lon="12.1692001"><ele>802.7142857142857</ele><time>2026-04-12T11:26:41.004Z</time></trkpt><trkpt lat="43.7094605" lon="12.1692303"><ele>802.4285714285714</ele><time>2026-04-12T11:26:44.005Z</time></trkpt><trkpt lat="43.7095269" lon="12.1692541"><ele>802.1428571428571</ele><time>2026-04-12T11:26:47.084Z</time></trkpt><trkpt lat="43.7095872" lon="12.169284"><ele>801.8571428571429</ele><time>2026-04-12T11:26:50.004Z</time></trkpt><trkpt lat="43.7096624" lon="12.1693123"><ele>801.5714285714286</ele><time>2026-04-12T11:26:54.081Z</time></trkpt><trkpt lat="43.7097337" lon="12.1693114"><ele>801.2857142857142</ele><time>2026-04-12T11:26:57.005Z</time></trkpt><trkpt lat="43.7098075" lon="12.1693096"><ele>801.0</ele><time>2026-04-12T11:27:00.005Z</time></trkpt><trkpt lat="43.7098766" lon="12.1693185"><ele>801.0</ele><time>2026-04-12T11:27:03.085Z</time></trkpt><trkpt lat="43.7099402" lon="12.169332"><ele>801.0</ele><time>2026-04-12T11:27:06.001Z</time></trkpt><trkpt lat="43.7100097" lon="12.1693398"><ele>801.0</ele><time>2026-04-12T11:27:09.005Z</time></trkpt><trkpt lat="43.710082" lon="12.1693322"><ele>801.0</ele><time>2026-04-12T11:27:12.005Z</time></trkpt><trkpt lat="43.7101491" lon="12.1693089"><ele>801.0</ele><time>2026-04-12T11:27:14.939Z</time></trkpt><trkpt lat="43.7102145" lon="12.1692669"><ele>801.0</ele><time>2026-04-12T11:27:18.005Z</time></trkpt><trkpt lat="43.7102753" lon="12.1692137"><ele>801.0</ele><time>2026-04-12T11:27:21.005Z</time></trkpt><trkpt lat="43.7103211" lon="12.1691392"><ele>801.1428571428571</ele><time>2026-04-12T11:27:24.085Z</time></trkpt><trkpt lat="43.7103734" lon="12.1690837"><ele>801.2857142857142</ele><time>2026-04-12T11:27:31.005Z</time></trkpt><trkpt lat="43.7104297" lon="12.1690294"><ele>801.4285714285714</ele><time>2026-04-12T11:27:38.004Z</time></trkpt><trkpt lat="43.7104735" lon="12.1689652"><ele>801.5714285714286</ele><time>2026-04-12T11:27:44.005Z</time></trkpt><trkpt lat="43.710508" lon="12.1688744"><ele>801.7142857142858</ele><time>2026-04-12T11:27:50.934Z</time></trkpt><trkpt lat="43.7105408" lon="12.1687677"><ele>801.8571428571429</ele><time>2026-04-12T11:27:55.004Z</time></trkpt><trkpt lat="43.7105805" lon="12.1686907"><ele>802.0</ele><time>2026-04-12T11:27:57.974Z</time></trkpt><trkpt lat="43.71063" lon="12.1686351"><ele>802.0</ele><time>2026-04-12T11:28:01.004Z</time></trkpt><trkpt lat="43.7106987" lon="12.1686009"><ele>802.0</ele><time>2026-04-12T11:28:04.005Z</time></trkpt><trkpt lat="43.7107668" lon="12.1685696"><ele>802.0</ele><time>2026-04-12T11:28:06.933Z</time></trkpt><trkpt lat="43.710836" lon="12.1685494"><ele>802.0</ele><time>2026-04-12T11:28:09.98Z</time></trkpt><trkpt lat="43.7109043" lon="12.1685275"><ele>802.0</ele><time>2026-04-12T11:28:13.005Z</time></trkpt><trkpt lat="43.7109632" lon="12.1684684"><ele>802.0</ele><time>2026-04-12T11:28:16.004Z</time></trkpt><trkpt lat="43.7109927" lon="12.1683858"><ele>802.0</ele><time>2026-04-12T11:28:22.005Z</time></trkpt><trkpt lat="43.7110326" lon="12.1683096"><ele>802.0</ele><time>2026-04-12T11:28:30.001Z</time></trkpt><trkpt lat="43.711063" lon="12.1682226"><ele>802.0</ele><time>2026-04-12T11:28:37.004Z</time></trkpt><trkpt lat="43.7111022" lon="12.1681434"><ele>802.0</ele><time>2026-04-12T11:28:42.976Z</time></trkpt><trkpt lat="43.7111561" lon="12.1680924"><ele>802.0</ele><time>2026-04-12T11:28:48Z</time></trkpt><trkpt lat="43.7112226" lon="12.1680891"><ele>802.0</ele><time>2026-04-12T11:28:54.005Z</time></trkpt><trkpt lat="43.7112841" lon="12.1681356"><ele>802.0</ele><time>2026-04-12T11:29:00.01Z</time></trkpt><trkpt lat="43.7113337" lon="12.1682013"><ele>802.0</ele><time>2026-04-12T11:29:06.005Z</time></trkpt><trkpt lat="43.7113783" lon="12.1682777"><ele>803.8571428571429</ele><time>2026-04-12T11:29:13.004Z</time></trkpt><trkpt lat="43.7114204" lon="12.1683569"><ele>805.7142857142858</ele><time>2026-04-12T11:29:19.005Z</time></trkpt><trkpt lat="43.7114608" lon="12.1684305"><ele>807.5714285714286</ele><time>2026-04-12T11:29:25.076Z</time></trkpt><trkpt lat="43.7115127" lon="12.1684975"><ele>809.4285714285714</ele><time>2026-04-12T11:29:33.001Z</time></trkpt><trkpt lat="43.7115592" lon="12.1685572"><ele>811.2857142857142</ele><time>2026-04-12T11:29:39.004Z</time></trkpt><trkpt lat="43.7116068" lon="12.1686295"><ele>813.1428571428571</ele><time>2026-04-12T11:29:46.039Z</time></trkpt><trkpt lat="43.711669" lon="12.1686825"><ele>815.0</ele><time>2026-04-12T11:29:55.005Z</time></trkpt><trkpt lat="43.7116713" lon="12.1687792"><ele>815.0000000000001</ele><time>2026-04-12T11:30:01.005Z</time></trkpt><trkpt lat="43.7116736" lon="12.1688937"><ele>815.0</ele><time>2026-04-12T11:30:05.005Z</time></trkpt><trkpt lat="43.7116921" lon="12.1689939"><ele>815.0</ele><time>2026-04-12T11:30:08.005Z</time></trkpt><trkpt lat="43.7117329" lon="12.1690811"><ele>815.0</ele><time>2026-04-12T11:30:10.975Z</time></trkpt><trkpt lat="43.7117912" lon="12.1691535"><ele>815.0000000000001</ele><time>2026-04-12T11:30:14.004Z</time></trkpt><trkpt lat="43.7118438" lon="12.1692183"><ele>815.0</ele><time>2026-04-12T11:30:17.043Z</time></trkpt><trkpt lat="43.711888" lon="12.1693056"><ele>815.1666666666667</ele><time>2026-04-12T11:30:20.005Z</time></trkpt><trkpt lat="43.711894" lon="12.1694164"><ele>815.3333333333334</ele><time>2026-04-12T11:30:23.005Z</time></trkpt><trkpt lat="43.7118936" lon="12.1695188"><ele>815.5</ele><time>2026-04-12T11:30:26.004Z</time></trkpt><trkpt lat="43.7119027" lon="12.1696222"><ele>815.6666666666667</ele><time>2026-04-12T11:30:29.005Z</time></trkpt><trkpt lat="43.711909" lon="12.1697253"><ele>815.8333333333334</ele><time>2026-04-12T11:30:32.004Z</time></trkpt><trkpt lat="43.7119201" lon="12.1698249"><ele>816.0</ele><time>2026-04-12T11:30:35.004Z</time></trkpt><trkpt lat="43.7119361" lon="12.1699263"><ele>813.1666666666666</ele><time>2026-04-12T11:30:38.005Z</time></trkpt><trkpt lat="43.7119531" lon="12.1700261"><ele>810.3333333333333</ele><time>2026-04-12T11:30:41.005Z</time></trkpt><trkpt lat="43.7119693" lon="12.1701289"><ele>807.5</ele><time>2026-04-12T11:30:44.005Z</time></trkpt><trkpt lat="43.7119861" lon="12.170227"><ele>804.6666666666666</ele><time>2026-04-12T11:30:46.961Z</time></trkpt><trkpt lat="43.7119972" lon="12.1703321"><ele>801.8333333333333</ele><time>2026-04-12T11:30:50.005Z</time></trkpt><trkpt lat="43.7120045" lon="12.170439"><ele>799.0</ele><time>2026-04-12T11:30:53.004Z</time></trkpt><trkpt lat="43.7120174" lon="12.1705438"><ele>798.9999999999999</ele><time>2026-04-12T11:30:56.005Z</time></trkpt><trkpt lat="43.7120451" lon="12.1706509"><ele>799.0</ele><time>2026-04-12T11:30:59.091Z</time></trkpt><trkpt lat="43.7120658" lon="12.1707489"><ele>799.0</ele><time>2026-04-12T11:31:02.005Z</time></trkpt><trkpt lat="43.7120868" lon="12.1708523"><ele>799.0</ele><time>2026-04-12T11:31:05.085Z</time></trkpt><trkpt lat="43.712113" lon="12.1709568"><ele>798.9999999999999</ele><time>2026-04-12T11:31:08.005Z</time></trkpt><trkpt lat="43.7121221" lon="12.1710517"><ele>799.0</ele><time>2026-04-12T11:31:11.02Z</time></trkpt><trkpt lat="43.7120944" lon="12.1711439"><ele>797.3333333333333</ele><time>2026-04-12T11:31:16.005Z</time></trkpt><trkpt lat="43.7120771" lon="12.1712445"><ele>795.6666666666666</ele><time>2026-04-12T11:31:22.005Z</time></trkpt><trkpt lat="43.7120755" lon="12.171346"><ele>794.0</ele><time>2026-04-12T11:31:28.004Z</time></trkpt><trkpt lat="43.7120901" lon="12.1714408"><ele>792.3333333333333</ele><time>2026-04-12T11:31:34.005Z</time></trkpt><trkpt lat="43.7121085" lon="12.1715365"><ele>790.6666666666666</ele><time>2026-04-12T11:31:38.976Z</time></trkpt><trkpt lat="43.7121282" lon="12.1716514"><ele>789.0</ele><time>2026-04-12T11:31:43.005Z</time></trkpt><trkpt lat="43.7121469" lon="12.1717548"><ele>788.9999999999999</ele><time>2026-04-12T11:31:46.085Z</time></trkpt><trkpt lat="43.7121437" lon="12.1718585"><ele>789.0</ele><time>2026-04-12T11:31:49.001Z</time></trkpt><trkpt lat="43.7121368" lon="12.1719451"><ele>789.0</ele><time>2026-04-12T11:31:52.1Z</time></trkpt><trkpt lat="43.7121345" lon="12.1720357"><ele>789.0</ele><time>2026-04-12T11:31:58.004Z</time></trkpt><trkpt lat="43.7121129" lon="12.1721318"><ele>789.0</ele><time>2026-04-12T11:32:05.005Z</time></trkpt><trkpt lat="43.7120609" lon="12.1721935"><ele>788.9999999999999</ele><time>2026-04-12T11:32:12.005Z</time></trkpt><trkpt lat="43.7120032" lon="12.1722455"><ele>789.0</ele><time>2026-04-12T11:32:20.005Z</time></trkpt><trkpt lat="43.7119396" lon="12.1722822"><ele>792.3333333333334</ele><time>2026-04-12T11:32:28.008Z</time></trkpt><trkpt lat="43.7118767" lon="12.1723113"><ele>795.6666666666667</ele><time>2026-04-12T11:32:35.004Z</time></trkpt><trkpt lat="43.711813" lon="12.1723432"><ele>799.0</ele><time>2026-04-12T11:32:41.034Z</time></trkpt><trkpt lat="43.7117577" lon="12.1723938"><ele>802.3333333333334</ele><time>2026-04-12T11:32:45.989Z</time></trkpt><trkpt lat="43.7117" lon="12.1724783"><ele>805.6666666666667</ele><time>2026-04-12T11:32:51.004Z</time></trkpt><trkpt lat="43.7116592" lon="12.1725628"><ele>809.0</ele><time>2026-04-12T11:32:53.981Z</time></trkpt><trkpt lat="43.7116202" lon="12.1726835"><ele>809.0000000000001</ele><time>2026-04-12T11:32:57.06Z</time></trkpt><trkpt lat="43.7116156" lon="12.1728091"><ele>809.0</ele><time>2026-04-12T11:33:00.007Z</time></trkpt><trkpt lat="43.7116487" lon="12.1729119"><ele>809.0</ele><time>2026-04-12T11:33:03.004Z</time></trkpt><trkpt lat="43.7116898" lon="12.1730046"><ele>809.0</ele><time>2026-04-12T11:33:06.005Z</time></trkpt><trkpt lat="43.7117249" lon="12.1730983"><ele>809.0000000000001</ele><time>2026-04-12T11:33:08.912Z</time></trkpt><trkpt lat="43.7117502" lon="12.1732054"><ele>809.0</ele><time>2026-04-12T11:33:12.085Z</time></trkpt><trkpt lat="43.7117838" lon="12.1732925"><ele>807.7142857142858</ele><time>2026-04-12T11:33:15.009Z</time></trkpt><trkpt lat="43.7118217" lon="12.1733809"><ele>806.4285714285714</ele><time>2026-04-12T11:33:18.09Z</time></trkpt><trkpt lat="43.7118422" lon="12.1734757"><ele>805.1428571428571</ele><time>2026-04-12T11:33:21.005Z</time></trkpt><trkpt lat="43.7118511" lon="12.1735758"><ele>803.8571428571429</ele><time>2026-04-12T11:33:24.005Z</time></trkpt><trkpt lat="43.7118543" lon="12.1736784"><ele>802.5714285714286</ele><time>2026-04-12T11:33:27.005Z</time></trkpt><trkpt lat="43.7118585" lon="12.173773"><ele>801.2857142857143</ele><time>2026-04-12T11:33:29.935Z</time></trkpt><trkpt lat="43.7118668" lon="12.1738682"><ele>800.0</ele><time>2026-04-12T11:33:33.002Z</time></trkpt><trkpt lat="43.7118734" lon="12.1739628"><ele>799.5714285714287</ele><time>2026-04-12T11:33:36.004Z</time></trkpt><trkpt lat="43.7118715" lon="12.1740558"><ele>799.1428571428571</ele><time>2026-04-12T11:33:38.934Z</time></trkpt><trkpt lat="43.7118405" lon="12.174148"><ele>798.7142857142858</ele><time>2026-04-12T11:33:42.004Z</time></trkpt><trkpt lat="43.7118056" lon="12.1742371"><ele>798.2857142857143</ele><time>2026-04-12T11:33:45.005Z</time></trkpt><trkpt lat="43.7117702" lon="12.1743326"><ele>797.8571428571429</ele><time>2026-04-12T11:33:48.003Z</time></trkpt><trkpt lat="43.7117461" lon="12.1744415"><ele>797.4285714285714</ele><time>2026-04-12T11:33:51.005Z</time></trkpt><trkpt lat="43.7117222" lon="12.17454"><ele>797.0</ele><time>2026-04-12T11:33:53.897Z</time></trkpt><trkpt lat="43.7116969" lon="12.1746415"><ele>797.0</ele><time>2026-04-12T11:33:57.017Z</time></trkpt><trkpt lat="43.7116793" lon="12.1747327"><ele>797.0</ele><time>2026-04-12T11:34:02.02Z</time></trkpt><trkpt lat="43.7116655" lon="12.1748269"><ele>797.0</ele><time>2026-04-12T11:34:09.004Z</time></trkpt><trkpt lat="43.71166" lon="12.1749285"><ele>797.0</ele><time>2026-04-12T11:34:14.9Z</time></trkpt><trkpt lat="43.7116845" lon="12.1750323"><ele>797.0</ele><time>2026-04-12T11:34:18.876Z</time></trkpt><trkpt lat="43.7116857" lon="12.1751236"><ele>797.0</ele><time>2026-04-12T11:34:22.716Z</time></trkpt><trkpt lat="43.7116949" lon="12.1752125"><ele>797.0</ele><time>2026-04-12T11:34:26.721Z</time></trkpt><trkpt lat="43.7116915" lon="12.1753237"><ele>796.8571428571428</ele><time>2026-04-12T11:34:31.014Z</time></trkpt><trkpt lat="43.7117003" lon="12.1754263"><ele>796.7142857142858</ele><time>2026-04-12T11:34:34.005Z</time></trkpt><trkpt lat="43.7117032" lon="12.1755223"><ele>796.5714285714286</ele><time>2026-04-12T11:34:37.004Z</time></trkpt><trkpt lat="43.711769" lon="12.1755776"><ele>796.4285714285713</ele><time>2026-04-12T11:34:40.005Z</time></trkpt><trkpt lat="43.7118294" lon="12.1756397"><ele>796.2857142857142</ele><time>2026-04-12T11:34:43.004Z</time></trkpt><trkpt lat="43.7118794" lon="12.1757142"><ele>796.1428571428571</ele><time>2026-04-12T11:34:46.005Z</time></trkpt><trkpt lat="43.7119253" lon="12.1757849"><ele>796.0</ele><time>2026-04-12T11:34:49Z</time></trkpt><trkpt lat="43.711949" lon="12.175868"><ele>794.1428571428571</ele><time>2026-04-12T11:34:52.004Z</time></trkpt><trkpt lat="43.7119381" lon="12.1759766"><ele>792.2857142857142</ele><time>2026-04-12T11:34:56.005Z</time></trkpt><trkpt lat="43.7119539" lon="12.1760809"><ele>790.4285714285713</ele><time>2026-04-12T11:35:00.004Z</time></trkpt><trkpt lat="43.7119528" lon="12.1761754"><ele>788.5714285714286</ele><time>2026-04-12T11:35:03.839Z</time></trkpt><trkpt lat="43.7119823" lon="12.176269"><ele>786.7142857142858</ele><time>2026-04-12T11:35:08.004Z</time></trkpt><trkpt lat="43.7120346" lon="12.1763249"><ele>784.8571428571428</ele><time>2026-04-12T11:35:13.005Z</time></trkpt><trkpt lat="43.7120615" lon="12.1764166"><ele>783.0</ele><time>2026-04-12T11:35:18.005Z</time></trkpt><trkpt lat="43.7120806" lon="12.176505"><ele>783.1428571428571</ele><time>2026-04-12T11:35:22.005Z</time></trkpt><trkpt lat="43.7120882" lon="12.1766113"><ele>783.2857142857143</ele><time>2026-04-12T11:35:25.004Z</time></trkpt><trkpt lat="43.7120849" lon="12.1767028"><ele>783.4285714285714</ele><time>2026-04-12T11:35:28.005Z</time></trkpt><trkpt lat="43.7120848" lon="12.1767952"><ele>783.5714285714286</ele><time>2026-04-12T11:35:31.861Z</time></trkpt><trkpt lat="43.7120655" lon="12.17689"><ele>783.7142857142858</ele><time>2026-04-12T11:35:36.005Z</time></trkpt><trkpt lat="43.7120404" lon="12.1769717"><ele>783.8571428571429</ele><time>2026-04-12T11:35:38.923Z</time></trkpt><trkpt lat="43.7119895" lon="12.1770595"><ele>784.0</ele><time>2026-04-12T11:35:42.916Z</time></trkpt><trkpt lat="43.7119664" lon="12.1771421"><ele>784.0</ele><time>2026-04-12T11:35:46.005Z</time></trkpt><trkpt lat="43.7119152" lon="12.1772163"><ele>784.0</ele><time>2026-04-12T11:35:50.002Z</time></trkpt><trkpt lat="43.7118695" lon="12.1772959"><ele>784.0</ele><time>2026-04-12T11:35:54.09Z</time></trkpt><trkpt lat="43.7118144" lon="12.1773456"><ele>784.0</ele><time>2026-04-12T11:35:58.005Z</time></trkpt><trkpt lat="43.7117729" lon="12.1774185"><ele>784.0</ele><time>2026-04-12T11:36:01.004Z</time></trkpt><trkpt lat="43.7117628" lon="12.1775222"><ele>784.0</ele><time>2026-04-12T11:36:04.8Z</time></trkpt><trkpt lat="43.7117456" lon="12.1776185"><ele>784.0</ele><time>2026-04-12T11:36:10.976Z</time></trkpt><trkpt lat="43.7117219" lon="12.1777331"><ele>780.6666666666666</ele><time>2026-04-12T11:36:15.105Z</time></trkpt><trkpt lat="43.7116732" lon="12.1778321"><ele>777.3333333333333</ele><time>2026-04-12T11:36:18.035Z</time></trkpt><trkpt lat="43.7116312" lon="12.1779305"><ele>774.0</ele><time>2026-04-12T11:36:21.082Z</time></trkpt><trkpt lat="43.7116167" lon="12.1780283"><ele>770.6666666666666</ele><time>2026-04-12T11:36:27.004Z</time></trkpt><trkpt lat="43.711583" lon="12.1781162"><ele>767.3333333333333</ele><time>2026-04-12T11:36:34.004Z</time></trkpt><trkpt lat="43.7115253" lon="12.178164"><ele>764.0</ele><time>2026-04-12T11:36:41.004Z</time></trkpt><trkpt lat="43.7114571" lon="12.1781826"><ele>763.0</ele><time>2026-04-12T11:36:48.005Z</time></trkpt><trkpt lat="43.7113983" lon="12.1782186"><ele>762.0</ele><time>2026-04-12T11:36:55.976Z</time></trkpt><trkpt lat="43.7113514" lon="12.1782948"><ele>761.0</ele><time>2026-04-12T11:37:06.009Z</time></trkpt><trkpt lat="43.7113098" lon="12.1783637"><ele>760.0</ele><time>2026-04-12T11:37:16.004Z</time></trkpt><trkpt lat="43.7112671" lon="12.1784414"><ele>759.0</ele><time>2026-04-12T11:37:23.005Z</time></trkpt><trkpt lat="43.7112135" lon="12.1784982"><ele>758.0</ele><time>2026-04-12T11:37:28.076Z</time></trkpt><trkpt lat="43.7111503" lon="12.1784821"><ele>757.0</ele><time>2026-04-12T11:37:31Z</time></trkpt><trkpt lat="43.7110886" lon="12.1784519"><ele>756.1428571428572</ele><time>2026-04-12T11:37:34.005Z</time></trkpt><trkpt lat="43.7110722" lon="12.178543"><ele>755.2857142857142</ele><time>2026-04-12T11:37:40.005Z</time></trkpt><trkpt lat="43.7110629" lon="12.178634"><ele>754.4285714285714</ele><time>2026-04-12T11:37:44.982Z</time></trkpt><trkpt lat="43.7110278" lon="12.1787266"><ele>753.5714285714287</ele><time>2026-04-12T11:37:50.82Z</time></trkpt><trkpt lat="43.711017" lon="12.178829"><ele>752.7142857142858</ele><time>2026-04-12T11:37:58.089Z</time></trkpt><trkpt lat="43.7109641" lon="12.1788931"><ele>751.8571428571429</ele><time>2026-04-12T11:38:03.099Z</time></trkpt><trkpt lat="43.71097" lon="12.1789929"><ele>751.0</ele><time>2026-04-12T11:38:09.109Z</time></trkpt><trkpt lat="43.7109096" lon="12.1790691"><ele>751.0</ele><time>2026-04-12T11:38:13.004Z</time></trkpt><trkpt lat="43.710861" lon="12.1791465"><ele>751.0</ele><time>2026-04-12T11:38:16.115Z</time></trkpt><trkpt lat="43.710806" lon="12.1788775"><ele>751.0</ele><time>2026-04-12T11:38:17.393Z</time></trkpt><trkpt lat="43.7107363" lon="12.1788407"><ele>751.0</ele><time>2026-04-12T11:38:21.078Z</time></trkpt><trkpt lat="43.7106841" lon="12.1789108"><ele>751.0</ele><time>2026-04-12T11:38:25.004Z</time></trkpt><trkpt lat="43.7106524" lon="12.1790033"><ele>749.5714285714287</ele><time>2026-04-12T11:38:29.957Z</time></trkpt><trkpt lat="43.7106307" lon="12.1790991"><ele>748.1428571428571</ele><time>2026-04-12T11:38:35.094Z</time></trkpt><trkpt lat="43.7106141" lon="12.1792111"><ele>746.7142857142858</ele><time>2026-04-12T11:38:38.933Z</time></trkpt><trkpt lat="43.7106295" lon="12.1793066"><ele>745.2857142857143</ele><time>2026-04-12T11:38:42.004Z</time></trkpt><trkpt lat="43.7106453" lon="12.1793934"><ele>743.8571428571429</ele><time>2026-04-12T11:38:45.005Z</time></trkpt><trkpt lat="43.7107061" lon="12.1794451"><ele>742.4285714285714</ele><time>2026-04-12T11:38:48.083Z</time></trkpt><trkpt lat="43.7107767" lon="12.1794643"><ele>741.0</ele><time>2026-04-12T11:38:51.011Z</time></trkpt><trkpt lat="43.7108036" lon="12.179557"><ele>741.0</ele><time>2026-04-12T11:38:56.98Z</time></trkpt><trkpt lat="43.7107498" lon="12.179638"><ele>741.0</ele><time>2026-04-12T11:39:00.004Z</time></trkpt><trkpt lat="43.7106732" lon="12.1796303"><ele>741.0</ele><time>2026-04-12T11:39:03.005Z</time></trkpt><trkpt lat="43.7106228" lon="12.1797049"><ele>741.0</ele><time>2026-04-12T11:39:07.005Z</time></trkpt><trkpt lat="43.7106029" lon="12.1798091"><ele>741.0</ele><time>2026-04-12T11:39:09.981Z</time></trkpt><trkpt lat="43.7105724" lon="12.1799224"><ele>741.0</ele><time>2026-04-12T11:39:12.833Z</time></trkpt><trkpt lat="43.7105367" lon="12.1800179"><ele>738.4285714285714</ele><time>2026-04-12T11:39:15.86Z</time></trkpt><trkpt lat="43.7105037" lon="12.1801292"><ele>735.8571428571429</ele><time>2026-04-12T11:39:18.96Z</time></trkpt><trkpt lat="43.7104775" lon="12.180214"><ele>733.2857142857143</ele><time>2026-04-12T11:39:21.015Z</time></trkpt><trkpt lat="43.7104495" lon="12.1803022"><ele>730.7142857142858</ele><time>2026-04-12T11:39:23.005Z</time></trkpt><trkpt lat="43.710424" lon="12.1803838"><ele>728.1428571428571</ele><time>2026-04-12T11:39:25.004Z</time></trkpt><trkpt lat="43.7103829" lon="12.1804805"><ele>725.5714285714287</ele><time>2026-04-12T11:39:28.005Z</time></trkpt><trkpt lat="43.7103672" lon="12.1805886"><ele>723.0</ele><time>2026-04-12T11:39:30.954Z</time></trkpt><trkpt lat="43.7103909" lon="12.1806769"><ele>721.0</ele><time>2026-04-12T11:39:33.855Z</time></trkpt><trkpt lat="43.710351" lon="12.1807487"><ele>719.0</ele><time>2026-04-12T11:39:36.793Z</time></trkpt><trkpt lat="43.7102852" lon="12.1808301"><ele>717.0</ele><time>2026-04-12T11:39:40.05Z</time></trkpt><trkpt lat="43.7102341" lon="12.1809296"><ele>715.0</ele><time>2026-04-12T11:39:42.939Z</time></trkpt><trkpt lat="43.7101735" lon="12.1810227"><ele>713.0</ele><time>2026-04-12T11:39:45.84Z</time></trkpt><trkpt lat="43.7101052" lon="12.1811337"><ele>711.0</ele><time>2026-04-12T11:39:49.091Z</time></trkpt><trkpt lat="43.7100557" lon="12.1811971"><ele>711.0</ele><time>2026-04-12T11:39:51.086Z</time></trkpt><trkpt lat="43.7099851" lon="12.1812871"><ele>711.0</ele><time>2026-04-12T11:39:54.005Z</time></trkpt><trkpt lat="43.7099456" lon="12.1813559"><ele>711.0</ele><time>2026-04-12T11:39:55.893Z</time></trkpt><trkpt lat="43.7099285" lon="12.1814468"><ele>711.0</ele><time>2026-04-12T11:39:57.814Z</time></trkpt><trkpt lat="43.7099226" lon="12.1815411"><ele>711.0</ele><time>2026-04-12T11:39:59.754Z</time></trkpt><trkpt lat="43.7099206" lon="12.1816508"><ele>711.0</ele><time>2026-04-12T11:40:02.109Z</time></trkpt><trkpt lat="43.7099233" lon="12.1817426"><ele>711.0</ele><time>2026-04-12T11:40:04.004Z</time></trkpt><trkpt lat="43.7099264" lon="12.1818419"><ele>710.5714285714286</ele><time>2026-04-12T11:40:06.004Z</time></trkpt><trkpt lat="43.7099243" lon="12.1819373"><ele>710.1428571428571</ele><time>2026-04-12T11:40:08.005Z</time></trkpt><trkpt lat="43.709922" lon="12.1820322"><ele>709.7142857142858</ele><time>2026-04-12T11:40:10.019Z</time></trkpt><trkpt lat="43.7099027" lon="12.1821342"><ele>709.2857142857142</ele><time>2026-04-12T11:40:12.005Z</time></trkpt><trkpt lat="43.7098872" lon="12.1822284"><ele>708.8571428571428</ele><time>2026-04-12T11:40:14.083Z</time></trkpt><trkpt lat="43.709881" lon="12.1823204"><ele>708.4285714285714</ele><time>2026-04-12T11:40:16.005Z</time></trkpt><trkpt lat="43.7098738" lon="12.1824073"><ele>708.0</ele><time>2026-04-12T11:40:17.824Z</time></trkpt><trkpt lat="43.7098621" lon="12.1825013"><ele>707.4285714285714</ele><time>2026-04-12T11:40:19.777Z</time></trkpt><trkpt lat="43.7098436" lon="12.1825975"><ele>706.8571428571428</ele><time>2026-04-12T11:40:21.735Z</time></trkpt><trkpt lat="43.7098192" lon="12.1826837"><ele>706.2857142857142</ele><time>2026-04-12T11:40:23.695Z</time></trkpt><trkpt lat="43.7097794" lon="12.1827615"><ele>705.7142857142858</ele><time>2026-04-12T11:40:25.635Z</time></trkpt><trkpt lat="43.7097204" lon="12.1828481"><ele>705.1428571428571</ele><time>2026-04-12T11:40:28.004Z</time></trkpt><trkpt lat="43.7096761" lon="12.1829326"><ele>704.5714285714286</ele><time>2026-04-12T11:40:30.005Z</time></trkpt><trkpt lat="43.7096302" lon="12.1830116"><ele>704.0</ele><time>2026-04-12T11:40:32.004Z</time></trkpt><trkpt lat="43.7095876" lon="12.1830889"><ele>704.0</ele><time>2026-04-12T11:40:34.005Z</time></trkpt><trkpt lat="43.7095423" lon="12.1831678"><ele>704.0</ele><time>2026-04-12T11:40:36.004Z</time></trkpt><trkpt lat="43.7094932" lon="12.183238"><ele>704.0</ele><time>2026-04-12T11:40:38.004Z</time></trkpt><trkpt lat="43.7094389" lon="12.1833069"><ele>704.0</ele><time>2026-04-12T11:40:40.005Z</time></trkpt><trkpt lat="43.7093908" lon="12.1833821"><ele>704.0</ele><time>2026-04-12T11:40:42.02Z</time></trkpt><trkpt lat="43.7093501" lon="12.1834649"><ele>704.0</ele><time>2026-04-12T11:40:43.998Z</time></trkpt><trkpt lat="43.7093143" lon="12.1835465"><ele>704.0</ele><time>2026-04-12T11:40:45.958Z</time></trkpt><trkpt lat="43.709277" lon="12.1836288"><ele>703.2857142857143</ele><time>2026-04-12T11:40:48.005Z</time></trkpt><trkpt lat="43.7092425" lon="12.1837064"><ele>702.5714285714286</ele><time>2026-04-12T11:40:50.092Z</time></trkpt><trkpt lat="43.7092216" lon="12.1837897"><ele>701.8571428571429</ele><time>2026-04-12T11:40:52.004Z</time></trkpt><trkpt lat="43.7091978" lon="12.1838765"><ele>701.1428571428571</ele><time>2026-04-12T11:40:54.005Z</time></trkpt><trkpt lat="43.7091858" lon="12.183979"><ele>700.4285714285714</ele><time>2026-04-12T11:40:56.005Z</time></trkpt><trkpt lat="43.7091988" lon="12.1840891"><ele>699.7142857142857</ele><time>2026-04-12T11:40:58.005Z</time></trkpt><trkpt lat="43.7091991" lon="12.1841907"><ele>699.0</ele><time>2026-04-12T11:41:00.004Z</time></trkpt><trkpt lat="43.7091999" lon="12.184293"><ele>699.0</ele><time>2026-04-12T11:41:02.122Z</time></trkpt><trkpt lat="43.7092056" lon="12.1843925"><ele>699.0</ele><time>2026-04-12T11:41:04.057Z</time></trkpt><trkpt lat="43.7092139" lon="12.184489"><ele>699.0</ele><time>2026-04-12T11:41:06.005Z</time></trkpt><trkpt lat="43.7092206" lon="12.1845865"><ele>699.0</ele><time>2026-04-12T11:41:08.005Z</time></trkpt><trkpt lat="43.7092182" lon="12.1846796"><ele>699.0</ele><time>2026-04-12T11:41:10.005Z</time></trkpt><trkpt lat="43.7092179" lon="12.1847716"><ele>699.0</ele><time>2026-04-12T11:41:12.044Z</time></trkpt><trkpt lat="43.7092144" lon="12.1848608"><ele>699.0</ele><time>2026-04-12T11:41:14.067Z</time></trkpt><trkpt lat="43.7092065" lon="12.1849791"><ele>698.0</ele><time>2026-04-12T11:41:17.005Z</time></trkpt><trkpt lat="43.7092098" lon="12.1850671"><ele>698.0</ele><time>2026-04-12T11:41:28.004Z</time></trkpt></trkseg></trk></gpx>